<?xml version="1.0" encoding="UTF-8" standalone="no" ?>
<gpx xmlns="http://www.topografix.com/GPX/1/1" xmlns:xsi="http://www.w3.org/2001/XMLSchema-instance" xsi:schemaLocation="http://www.topografix.com/GPX/1/1 http://www.topografix.com/GPX/1/1/gpx.xsd" version="1.1" creator="VisuGPX - https://www.visugpx.com">
  <metadata>
    <name>ballade...</name>
    <desc><![CDATA[................................................]]></desc>
  </metadata>
  <trk>
    <name><![CDATA[ballade..._1]]></name>
    <trkseg>
      <trkpt lat="44.84225" lon="-0.54077">
        <ele>50.3</ele>
        <time>2016-12-06T06:43:02Z</time>
      </trkpt>
      <trkpt lat="44.84226" lon="-0.54071">
        <ele>50.3</ele>
        <time>2016-12-06T06:43:05Z</time>
      </trkpt>
      <trkpt lat="44.84232" lon="-0.54067">
        <ele>50.2</ele>
        <time>2016-12-06T06:43:08Z</time>
      </trkpt>
      <trkpt lat="44.84236" lon="-0.54061">
        <ele>50.2</ele>
        <time>2016-12-06T06:43:11Z</time>
      </trkpt>
      <trkpt lat="44.84241" lon="-0.54062">
        <ele>50.2</ele>
        <time>2016-12-06T06:43:15Z</time>
      </trkpt>
      <trkpt lat="44.84241" lon="-0.54077">
        <ele>12.2</ele>
        <time>2016-12-06T08:20:51Z</time>
      </trkpt>
      <trkpt lat="44.84239" lon="-0.54083">
        <ele>10.8</ele>
        <time>2016-12-06T08:20:55Z</time>
      </trkpt>
      <trkpt lat="44.84239" lon="-0.5409">
        <ele>9.5</ele>
        <time>2016-12-06T08:20:59Z</time>
      </trkpt>
      <trkpt lat="44.84239" lon="-0.54101">
        <ele>9.9</ele>
        <time>2016-12-06T08:21:02Z</time>
      </trkpt>
      <trkpt lat="44.84239" lon="-0.54111">
        <ele>10.4</ele>
        <time>2016-12-06T08:21:04Z</time>
      </trkpt>
      <trkpt lat="44.8424" lon="-0.5412">
        <ele>10.5</ele>
        <time>2016-12-06T08:21:06Z</time>
      </trkpt>
      <trkpt lat="44.8424" lon="-0.54132">
        <ele>10.2</ele>
        <time>2016-12-06T08:21:08Z</time>
      </trkpt>
      <trkpt lat="44.84234" lon="-0.54142">
        <ele>8.4</ele>
        <time>2016-12-06T08:21:10Z</time>
      </trkpt>
      <trkpt lat="44.8423" lon="-0.54146">
        <ele>8.2</ele>
        <time>2016-12-06T08:21:11Z</time>
      </trkpt>
      <trkpt lat="44.8422" lon="-0.54153">
        <ele>7.3</ele>
        <time>2016-12-06T08:21:13Z</time>
      </trkpt>
      <trkpt lat="44.8421" lon="-0.54157">
        <ele>4.4</ele>
        <time>2016-12-06T08:21:15Z</time>
      </trkpt>
      <trkpt lat="44.842" lon="-0.54162">
        <ele>3.7</ele>
        <time>2016-12-06T08:21:17Z</time>
      </trkpt>
      <trkpt lat="44.84195" lon="-0.54166">
        <ele>3.2</ele>
        <time>2016-12-06T08:21:18Z</time>
      </trkpt>
      <trkpt lat="44.8419" lon="-0.54169">
        <ele>3</ele>
        <time>2016-12-06T08:21:19Z</time>
      </trkpt>
      <trkpt lat="44.84179" lon="-0.54176">
        <ele>2.8</ele>
        <time>2016-12-06T08:21:21Z</time>
      </trkpt>
      <trkpt lat="44.84168" lon="-0.54184">
        <ele>2.7</ele>
        <time>2016-12-06T08:21:23Z</time>
      </trkpt>
      <trkpt lat="44.84157" lon="-0.54191">
        <ele>2.6</ele>
        <time>2016-12-06T08:21:25Z</time>
      </trkpt>
      <trkpt lat="44.84151" lon="-0.54194">
        <ele>2.5</ele>
        <time>2016-12-06T08:21:26Z</time>
      </trkpt>
      <trkpt lat="44.84139" lon="-0.54201">
        <ele>2.4</ele>
        <time>2016-12-06T08:21:28Z</time>
      </trkpt>
      <trkpt lat="44.84128" lon="-0.54208">
        <ele>2.3</ele>
        <time>2016-12-06T08:21:30Z</time>
      </trkpt>
      <trkpt lat="44.84116" lon="-0.54215">
        <ele>2.6</ele>
        <time>2016-12-06T08:21:32Z</time>
      </trkpt>
      <trkpt lat="44.84105" lon="-0.54224">
        <ele>2.2</ele>
        <time>2016-12-06T08:21:34Z</time>
      </trkpt>
      <trkpt lat="44.84095" lon="-0.54234">
        <ele>2.3</ele>
        <time>2016-12-06T08:21:36Z</time>
      </trkpt>
      <trkpt lat="44.84089" lon="-0.54249">
        <ele>3</ele>
        <time>2016-12-06T08:21:38Z</time>
      </trkpt>
      <trkpt lat="44.84087" lon="-0.54258">
        <ele>3.3</ele>
        <time>2016-12-06T08:21:39Z</time>
      </trkpt>
      <trkpt lat="44.84083" lon="-0.54276">
        <ele>3.3</ele>
        <time>2016-12-06T08:21:41Z</time>
      </trkpt>
      <trkpt lat="44.84079" lon="-0.54294">
        <ele>2.4</ele>
        <time>2016-12-06T08:21:43Z</time>
      </trkpt>
      <trkpt lat="44.84072" lon="-0.54309">
        <ele>2.1</ele>
        <time>2016-12-06T08:21:45Z</time>
      </trkpt>
      <trkpt lat="44.84067" lon="-0.54316">
        <ele>2.2</ele>
        <time>2016-12-06T08:21:46Z</time>
      </trkpt>
      <trkpt lat="44.84061" lon="-0.54322">
        <ele>2</ele>
        <time>2016-12-06T08:21:47Z</time>
      </trkpt>
      <trkpt lat="44.8405" lon="-0.54335">
        <ele>1.8</ele>
        <time>2016-12-06T08:21:49Z</time>
      </trkpt>
      <trkpt lat="44.84044" lon="-0.54341">
        <ele>1.3</ele>
        <time>2016-12-06T08:21:50Z</time>
      </trkpt>
      <trkpt lat="44.84038" lon="-0.54347">
        <ele>0.9</ele>
        <time>2016-12-06T08:21:51Z</time>
      </trkpt>
      <trkpt lat="44.84026" lon="-0.54359">
        <ele>0.8</ele>
        <time>2016-12-06T08:21:53Z</time>
      </trkpt>
      <trkpt lat="44.8402" lon="-0.54365">
        <ele>0.9</ele>
        <time>2016-12-06T08:21:54Z</time>
      </trkpt>
      <trkpt lat="44.84007" lon="-0.54378">
        <ele>0.8</ele>
        <time>2016-12-06T08:21:56Z</time>
      </trkpt>
      <trkpt lat="44.84001" lon="-0.54383">
        <ele>1.2</ele>
        <time>2016-12-06T08:21:57Z</time>
      </trkpt>
      <trkpt lat="44.83988" lon="-0.54397">
        <ele>0.8</ele>
        <time>2016-12-06T08:21:59Z</time>
      </trkpt>
      <trkpt lat="44.83982" lon="-0.54403">
        <ele>0.7</ele>
        <time>2016-12-06T08:22:00Z</time>
      </trkpt>
      <trkpt lat="44.83969" lon="-0.54417">
        <ele>0.1</ele>
        <time>2016-12-06T08:22:02Z</time>
      </trkpt>
      <trkpt lat="44.83963" lon="-0.54423">
        <ele>-0.1</ele>
        <time>2016-12-06T08:22:03Z</time>
      </trkpt>
      <trkpt lat="44.8395" lon="-0.54436">
        <ele>-0.6</ele>
        <time>2016-12-06T08:22:05Z</time>
      </trkpt>
      <trkpt lat="44.83943" lon="-0.54442">
        <ele>-0.6</ele>
        <time>2016-12-06T08:22:06Z</time>
      </trkpt>
      <trkpt lat="44.83931" lon="-0.54455">
        <ele>-0.9</ele>
        <time>2016-12-06T08:22:08Z</time>
      </trkpt>
      <trkpt lat="44.83924" lon="-0.54461">
        <ele>-0.8</ele>
        <time>2016-12-06T08:22:09Z</time>
      </trkpt>
      <trkpt lat="44.83911" lon="-0.54475">
        <ele>-1.1</ele>
        <time>2016-12-06T08:22:11Z</time>
      </trkpt>
      <trkpt lat="44.83898" lon="-0.54488">
        <ele>-1.8</ele>
        <time>2016-12-06T08:22:13Z</time>
      </trkpt>
      <trkpt lat="44.83891" lon="-0.54495">
        <ele>-2.2</ele>
        <time>2016-12-06T08:22:14Z</time>
      </trkpt>
      <trkpt lat="44.83879" lon="-0.54508">
        <ele>-2.3</ele>
        <time>2016-12-06T08:22:16Z</time>
      </trkpt>
      <trkpt lat="44.83872" lon="-0.54514">
        <ele>-2.2</ele>
        <time>2016-12-06T08:22:17Z</time>
      </trkpt>
      <trkpt lat="44.83859" lon="-0.54527">
        <ele>-2.1</ele>
        <time>2016-12-06T08:22:19Z</time>
      </trkpt>
      <trkpt lat="44.83853" lon="-0.54533">
        <ele>-2</ele>
        <time>2016-12-06T08:22:20Z</time>
      </trkpt>
      <trkpt lat="44.8384" lon="-0.54545">
        <ele>-1.9</ele>
        <time>2016-12-06T08:22:22Z</time>
      </trkpt>
      <trkpt lat="44.83828" lon="-0.54558">
        <ele>-1.9</ele>
        <time>2016-12-06T08:22:24Z</time>
      </trkpt>
      <trkpt lat="44.83815" lon="-0.5457">
        <ele>-1.7</ele>
        <time>2016-12-06T08:22:26Z</time>
      </trkpt>
      <trkpt lat="44.83803" lon="-0.54582">
        <ele>-1.9</ele>
        <time>2016-12-06T08:22:28Z</time>
      </trkpt>
      <trkpt lat="44.83791" lon="-0.54594">
        <ele>-1.9</ele>
        <time>2016-12-06T08:22:30Z</time>
      </trkpt>
      <trkpt lat="44.83785" lon="-0.546">
        <ele>-2</ele>
        <time>2016-12-06T08:22:31Z</time>
      </trkpt>
      <trkpt lat="44.83774" lon="-0.54611">
        <ele>-2</ele>
        <time>2016-12-06T08:22:33Z</time>
      </trkpt>
      <trkpt lat="44.83762" lon="-0.54622">
        <ele>-1.7</ele>
        <time>2016-12-06T08:22:35Z</time>
      </trkpt>
      <trkpt lat="44.83751" lon="-0.54633">
        <ele>-1.6</ele>
        <time>2016-12-06T08:22:37Z</time>
      </trkpt>
      <trkpt lat="44.8374" lon="-0.54644">
        <ele>-1.8</ele>
        <time>2016-12-06T08:22:39Z</time>
      </trkpt>
      <trkpt lat="44.83734" lon="-0.5465">
        <ele>-1.8</ele>
        <time>2016-12-06T08:22:40Z</time>
      </trkpt>
      <trkpt lat="44.83729" lon="-0.54656">
        <ele>-1.7</ele>
        <time>2016-12-06T08:22:41Z</time>
      </trkpt>
      <trkpt lat="44.83718" lon="-0.54666">
        <ele>-1.8</ele>
        <time>2016-12-06T08:22:43Z</time>
      </trkpt>
      <trkpt lat="44.83707" lon="-0.54677">
        <ele>-1.8</ele>
        <time>2016-12-06T08:22:45Z</time>
      </trkpt>
      <trkpt lat="44.83702" lon="-0.54682">
        <ele>-1.6</ele>
        <time>2016-12-06T08:22:46Z</time>
      </trkpt>
      <trkpt lat="44.83692" lon="-0.54692">
        <ele>-1.5</ele>
        <time>2016-12-06T08:22:48Z</time>
      </trkpt>
      <trkpt lat="44.83686" lon="-0.54698">
        <ele>-2.2</ele>
        <time>2016-12-06T08:22:49Z</time>
      </trkpt>
      <trkpt lat="44.83681" lon="-0.54703">
        <ele>-2.2</ele>
        <time>2016-12-06T08:22:50Z</time>
      </trkpt>
      <trkpt lat="44.83671" lon="-0.54712">
        <ele>-2.2</ele>
        <time>2016-12-06T08:22:52Z</time>
      </trkpt>
      <trkpt lat="44.83661" lon="-0.54722">
        <ele>-1.9</ele>
        <time>2016-12-06T08:22:54Z</time>
      </trkpt>
      <trkpt lat="44.83656" lon="-0.54727">
        <ele>-2.1</ele>
        <time>2016-12-06T08:22:55Z</time>
      </trkpt>
      <trkpt lat="44.83646" lon="-0.54737">
        <ele>-1.9</ele>
        <time>2016-12-06T08:22:57Z</time>
      </trkpt>
      <trkpt lat="44.83636" lon="-0.54747">
        <ele>-1.7</ele>
        <time>2016-12-06T08:22:59Z</time>
      </trkpt>
      <trkpt lat="44.83631" lon="-0.54752">
        <ele>-1.6</ele>
        <time>2016-12-06T08:23:00Z</time>
      </trkpt>
      <trkpt lat="44.83621" lon="-0.54762">
        <ele>-1.8</ele>
        <time>2016-12-06T08:23:02Z</time>
      </trkpt>
      <trkpt lat="44.83616" lon="-0.54767">
        <ele>-2</ele>
        <time>2016-12-06T08:23:03Z</time>
      </trkpt>
      <trkpt lat="44.83606" lon="-0.54777">
        <ele>-2.3</ele>
        <time>2016-12-06T08:23:05Z</time>
      </trkpt>
      <trkpt lat="44.83601" lon="-0.54782">
        <ele>-2.3</ele>
        <time>2016-12-06T08:23:06Z</time>
      </trkpt>
      <trkpt lat="44.83591" lon="-0.54792">
        <ele>-2.4</ele>
        <time>2016-12-06T08:23:08Z</time>
      </trkpt>
      <trkpt lat="44.83582" lon="-0.54801">
        <ele>-2.5</ele>
        <time>2016-12-06T08:23:10Z</time>
      </trkpt>
      <trkpt lat="44.83572" lon="-0.54811">
        <ele>-2.1</ele>
        <time>2016-12-06T08:23:12Z</time>
      </trkpt>
      <trkpt lat="44.83567" lon="-0.54815">
        <ele>-1.9</ele>
        <time>2016-12-06T08:23:13Z</time>
      </trkpt>
      <trkpt lat="44.83562" lon="-0.5482">
        <ele>-2</ele>
        <time>2016-12-06T08:23:14Z</time>
      </trkpt>
      <trkpt lat="44.83552" lon="-0.54829">
        <ele>-1.9</ele>
        <time>2016-12-06T08:23:16Z</time>
      </trkpt>
      <trkpt lat="44.83547" lon="-0.54834">
        <ele>-1.9</ele>
        <time>2016-12-06T08:23:17Z</time>
      </trkpt>
      <trkpt lat="44.83542" lon="-0.54838">
        <ele>-1.9</ele>
        <time>2016-12-06T08:23:18Z</time>
      </trkpt>
      <trkpt lat="44.83538" lon="-0.54843">
        <ele>-1.7</ele>
        <time>2016-12-06T08:23:19Z</time>
      </trkpt>
      <trkpt lat="44.83533" lon="-0.54847">
        <ele>-1.8</ele>
        <time>2016-12-06T08:23:20Z</time>
      </trkpt>
      <trkpt lat="44.83523" lon="-0.54857">
        <ele>-1.7</ele>
        <time>2016-12-06T08:23:22Z</time>
      </trkpt>
      <trkpt lat="44.83519" lon="-0.54861">
        <ele>-1.5</ele>
        <time>2016-12-06T08:23:23Z</time>
      </trkpt>
      <trkpt lat="44.83509" lon="-0.5487">
        <ele>-1.7</ele>
        <time>2016-12-06T08:23:25Z</time>
      </trkpt>
      <trkpt lat="44.83505" lon="-0.54875">
        <ele>-1.6</ele>
        <time>2016-12-06T08:23:26Z</time>
      </trkpt>
      <trkpt lat="44.83495" lon="-0.54884">
        <ele>-1.6</ele>
        <time>2016-12-06T08:23:28Z</time>
      </trkpt>
      <trkpt lat="44.83486" lon="-0.54892">
        <ele>-1.8</ele>
        <time>2016-12-06T08:23:30Z</time>
      </trkpt>
      <trkpt lat="44.83478" lon="-0.549">
        <ele>-2</ele>
        <time>2016-12-06T08:23:32Z</time>
      </trkpt>
      <trkpt lat="44.83473" lon="-0.54905">
        <ele>-2.1</ele>
        <time>2016-12-06T08:23:33Z</time>
      </trkpt>
      <trkpt lat="44.83469" lon="-0.54909">
        <ele>-2</ele>
        <time>2016-12-06T08:23:34Z</time>
      </trkpt>
      <trkpt lat="44.83465" lon="-0.54913">
        <ele>-2.2</ele>
        <time>2016-12-06T08:23:35Z</time>
      </trkpt>
      <trkpt lat="44.83457" lon="-0.54921">
        <ele>-2.3</ele>
        <time>2016-12-06T08:23:37Z</time>
      </trkpt>
      <trkpt lat="44.83453" lon="-0.54925">
        <ele>-2.4</ele>
        <time>2016-12-06T08:23:38Z</time>
      </trkpt>
      <trkpt lat="44.83445" lon="-0.54933">
        <ele>-2.7</ele>
        <time>2016-12-06T08:23:40Z</time>
      </trkpt>
      <trkpt lat="44.83441" lon="-0.54937">
        <ele>-2.8</ele>
        <time>2016-12-06T08:23:41Z</time>
      </trkpt>
      <trkpt lat="44.83437" lon="-0.54941">
        <ele>-2.9</ele>
        <time>2016-12-06T08:23:42Z</time>
      </trkpt>
      <trkpt lat="44.83429" lon="-0.5495">
        <ele>-2.3</ele>
        <time>2016-12-06T08:23:44Z</time>
      </trkpt>
      <trkpt lat="44.83421" lon="-0.54958">
        <ele>-2</ele>
        <time>2016-12-06T08:23:46Z</time>
      </trkpt>
      <trkpt lat="44.83414" lon="-0.54965">
        <ele>-2</ele>
        <time>2016-12-06T08:23:48Z</time>
      </trkpt>
      <trkpt lat="44.83407" lon="-0.54972">
        <ele>-1.9</ele>
        <time>2016-12-06T08:23:50Z</time>
      </trkpt>
      <trkpt lat="44.83401" lon="-0.54978">
        <ele>-2.1</ele>
        <time>2016-12-06T08:23:52Z</time>
      </trkpt>
      <trkpt lat="44.83395" lon="-0.54984">
        <ele>-1.8</ele>
        <time>2016-12-06T08:23:54Z</time>
      </trkpt>
      <trkpt lat="44.83389" lon="-0.5499">
        <ele>-2.2</ele>
        <time>2016-12-06T08:23:56Z</time>
      </trkpt>
      <trkpt lat="44.83385" lon="-0.54994">
        <ele>-2.4</ele>
        <time>2016-12-06T08:23:58Z</time>
      </trkpt>
      <trkpt lat="44.83381" lon="-0.54998">
        <ele>-2.7</ele>
        <time>2016-12-06T08:24:00Z</time>
      </trkpt>
      <trkpt lat="44.83376" lon="-0.55001">
        <ele>-2.5</ele>
        <time>2016-12-06T08:24:31Z</time>
      </trkpt>
      <trkpt lat="44.83369" lon="-0.55005">
        <ele>-2.5</ele>
        <time>2016-12-06T08:24:33Z</time>
      </trkpt>
      <trkpt lat="44.83365" lon="-0.55008">
        <ele>-2.5</ele>
        <time>2016-12-06T08:24:34Z</time>
      </trkpt>
      <trkpt lat="44.8336" lon="-0.5501">
        <ele>-2.5</ele>
        <time>2016-12-06T08:24:35Z</time>
      </trkpt>
      <trkpt lat="44.83355" lon="-0.55012">
        <ele>-1.9</ele>
        <time>2016-12-06T08:24:36Z</time>
      </trkpt>
      <trkpt lat="44.83351" lon="-0.55011">
        <ele>-1.8</ele>
        <time>2016-12-06T08:24:37Z</time>
      </trkpt>
      <trkpt lat="44.83343" lon="-0.55001">
        <ele>-1.5</ele>
        <time>2016-12-06T08:24:39Z</time>
      </trkpt>
      <trkpt lat="44.8334" lon="-0.54995">
        <ele>-1.4</ele>
        <time>2016-12-06T08:24:40Z</time>
      </trkpt>
      <trkpt lat="44.83335" lon="-0.54981">
        <ele>-1.1</ele>
        <time>2016-12-06T08:24:42Z</time>
      </trkpt>
      <trkpt lat="44.83329" lon="-0.54965">
        <ele>-1.5</ele>
        <time>2016-12-06T08:24:44Z</time>
      </trkpt>
      <trkpt lat="44.83326" lon="-0.54957">
        <ele>-0.9</ele>
        <time>2016-12-06T08:24:45Z</time>
      </trkpt>
      <trkpt lat="44.83322" lon="-0.5495">
        <ele>-0.9</ele>
        <time>2016-12-06T08:24:46Z</time>
      </trkpt>
      <trkpt lat="44.83319" lon="-0.54943">
        <ele>-0.3</ele>
        <time>2016-12-06T08:24:47Z</time>
      </trkpt>
      <trkpt lat="44.83311" lon="-0.54927">
        <ele>1.9</ele>
        <time>2016-12-06T08:24:49Z</time>
      </trkpt>
      <trkpt lat="44.83303" lon="-0.54912">
        <ele>2.4</ele>
        <time>2016-12-06T08:24:51Z</time>
      </trkpt>
      <trkpt lat="44.83294" lon="-0.54897">
        <ele>3</ele>
        <time>2016-12-06T08:24:53Z</time>
      </trkpt>
      <trkpt lat="44.8329" lon="-0.5489">
        <ele>3.2</ele>
        <time>2016-12-06T08:24:54Z</time>
      </trkpt>
      <trkpt lat="44.83286" lon="-0.54882">
        <ele>3</ele>
        <time>2016-12-06T08:24:55Z</time>
      </trkpt>
      <trkpt lat="44.83282" lon="-0.54874">
        <ele>2.9</ele>
        <time>2016-12-06T08:24:56Z</time>
      </trkpt>
      <trkpt lat="44.83278" lon="-0.54866">
        <ele>2.9</ele>
        <time>2016-12-06T08:24:57Z</time>
      </trkpt>
      <trkpt lat="44.8327" lon="-0.5485">
        <ele>3.1</ele>
        <time>2016-12-06T08:24:59Z</time>
      </trkpt>
      <trkpt lat="44.83261" lon="-0.54834">
        <ele>3.5</ele>
        <time>2016-12-06T08:25:01Z</time>
      </trkpt>
      <trkpt lat="44.83253" lon="-0.54818">
        <ele>3.8</ele>
        <time>2016-12-06T08:25:03Z</time>
      </trkpt>
      <trkpt lat="44.83244" lon="-0.54801">
        <ele>3.4</ele>
        <time>2016-12-06T08:25:05Z</time>
      </trkpt>
      <trkpt lat="44.8324" lon="-0.54793">
        <ele>3.3</ele>
        <time>2016-12-06T08:25:06Z</time>
      </trkpt>
      <trkpt lat="44.83231" lon="-0.54776">
        <ele>3.1</ele>
        <time>2016-12-06T08:25:08Z</time>
      </trkpt>
      <trkpt lat="44.83222" lon="-0.54759">
        <ele>3.1</ele>
        <time>2016-12-06T08:25:10Z</time>
      </trkpt>
      <trkpt lat="44.83213" lon="-0.54743">
        <ele>3.1</ele>
        <time>2016-12-06T08:25:12Z</time>
      </trkpt>
      <trkpt lat="44.83204" lon="-0.54726">
        <ele>2.8</ele>
        <time>2016-12-06T08:25:14Z</time>
      </trkpt>
      <trkpt lat="44.832" lon="-0.54718">
        <ele>2.9</ele>
        <time>2016-12-06T08:25:15Z</time>
      </trkpt>
      <trkpt lat="44.83191" lon="-0.54701">
        <ele>3.3</ele>
        <time>2016-12-06T08:25:17Z</time>
      </trkpt>
      <trkpt lat="44.83183" lon="-0.54685">
        <ele>3.2</ele>
        <time>2016-12-06T08:25:19Z</time>
      </trkpt>
      <trkpt lat="44.83174" lon="-0.54668">
        <ele>3.1</ele>
        <time>2016-12-06T08:25:21Z</time>
      </trkpt>
      <trkpt lat="44.83165" lon="-0.54652">
        <ele>3.1</ele>
        <time>2016-12-06T08:25:23Z</time>
      </trkpt>
      <trkpt lat="44.83158" lon="-0.54635">
        <ele>3.1</ele>
        <time>2016-12-06T08:25:25Z</time>
      </trkpt>
      <trkpt lat="44.83149" lon="-0.54619">
        <ele>3.2</ele>
        <time>2016-12-06T08:25:27Z</time>
      </trkpt>
      <trkpt lat="44.83141" lon="-0.54603">
        <ele>3.2</ele>
        <time>2016-12-06T08:25:29Z</time>
      </trkpt>
      <trkpt lat="44.83137" lon="-0.54595">
        <ele>3.4</ele>
        <time>2016-12-06T08:25:30Z</time>
      </trkpt>
      <trkpt lat="44.83129" lon="-0.54579">
        <ele>3.3</ele>
        <time>2016-12-06T08:25:32Z</time>
      </trkpt>
      <trkpt lat="44.83125" lon="-0.54571">
        <ele>3.3</ele>
        <time>2016-12-06T08:25:33Z</time>
      </trkpt>
      <trkpt lat="44.83117" lon="-0.54556">
        <ele>3.4</ele>
        <time>2016-12-06T08:25:35Z</time>
      </trkpt>
      <trkpt lat="44.83113" lon="-0.54548">
        <ele>3.3</ele>
        <time>2016-12-06T08:25:36Z</time>
      </trkpt>
      <trkpt lat="44.83105" lon="-0.54534">
        <ele>3.1</ele>
        <time>2016-12-06T08:25:38Z</time>
      </trkpt>
      <trkpt lat="44.83101" lon="-0.54527">
        <ele>2.9</ele>
        <time>2016-12-06T08:25:39Z</time>
      </trkpt>
      <trkpt lat="44.83094" lon="-0.54512">
        <ele>2.5</ele>
        <time>2016-12-06T08:25:41Z</time>
      </trkpt>
      <trkpt lat="44.8309" lon="-0.54504">
        <ele>2.1</ele>
        <time>2016-12-06T08:25:42Z</time>
      </trkpt>
      <trkpt lat="44.83086" lon="-0.54497">
        <ele>1.9</ele>
        <time>2016-12-06T08:25:43Z</time>
      </trkpt>
      <trkpt lat="44.83077" lon="-0.54482">
        <ele>1.6</ele>
        <time>2016-12-06T08:25:45Z</time>
      </trkpt>
      <trkpt lat="44.83069" lon="-0.54467">
        <ele>1.3</ele>
        <time>2016-12-06T08:25:47Z</time>
      </trkpt>
      <trkpt lat="44.83065" lon="-0.5446">
        <ele>1.4</ele>
        <time>2016-12-06T08:25:48Z</time>
      </trkpt>
      <trkpt lat="44.83061" lon="-0.54453">
        <ele>1.3</ele>
        <time>2016-12-06T08:25:49Z</time>
      </trkpt>
      <trkpt lat="44.83054" lon="-0.54439">
        <ele>1.4</ele>
        <time>2016-12-06T08:25:51Z</time>
      </trkpt>
      <trkpt lat="44.83047" lon="-0.54424">
        <ele>0.8</ele>
        <time>2016-12-06T08:25:53Z</time>
      </trkpt>
      <trkpt lat="44.83039" lon="-0.54408">
        <ele>2.5</ele>
        <time>2016-12-06T08:25:55Z</time>
      </trkpt>
      <trkpt lat="44.83035" lon="-0.54401">
        <ele>2.4</ele>
        <time>2016-12-06T08:25:56Z</time>
      </trkpt>
      <trkpt lat="44.83028" lon="-0.54387">
        <ele>2.7</ele>
        <time>2016-12-06T08:25:58Z</time>
      </trkpt>
      <trkpt lat="44.83024" lon="-0.54379">
        <ele>2.9</ele>
        <time>2016-12-06T08:25:59Z</time>
      </trkpt>
      <trkpt lat="44.83017" lon="-0.54365">
        <ele>2.7</ele>
        <time>2016-12-06T08:26:01Z</time>
      </trkpt>
      <trkpt lat="44.83013" lon="-0.54358">
        <ele>2.6</ele>
        <time>2016-12-06T08:26:02Z</time>
      </trkpt>
      <trkpt lat="44.83006" lon="-0.54343">
        <ele>2.4</ele>
        <time>2016-12-06T08:26:04Z</time>
      </trkpt>
      <trkpt lat="44.83002" lon="-0.54336">
        <ele>2.5</ele>
        <time>2016-12-06T08:26:05Z</time>
      </trkpt>
      <trkpt lat="44.82994" lon="-0.54322">
        <ele>2</ele>
        <time>2016-12-06T08:26:07Z</time>
      </trkpt>
      <trkpt lat="44.82987" lon="-0.54308">
        <ele>2</ele>
        <time>2016-12-06T08:26:09Z</time>
      </trkpt>
      <trkpt lat="44.82979" lon="-0.54294">
        <ele>1.6</ele>
        <time>2016-12-06T08:26:11Z</time>
      </trkpt>
      <trkpt lat="44.82976" lon="-0.54287">
        <ele>1.5</ele>
        <time>2016-12-06T08:26:12Z</time>
      </trkpt>
      <trkpt lat="44.82968" lon="-0.54273">
        <ele>1.4</ele>
        <time>2016-12-06T08:26:14Z</time>
      </trkpt>
      <trkpt lat="44.82961" lon="-0.54259">
        <ele>1.7</ele>
        <time>2016-12-06T08:26:16Z</time>
      </trkpt>
      <trkpt lat="44.82953" lon="-0.54244">
        <ele>1.8</ele>
        <time>2016-12-06T08:26:18Z</time>
      </trkpt>
      <trkpt lat="44.82945" lon="-0.5423">
        <ele>1.8</ele>
        <time>2016-12-06T08:26:20Z</time>
      </trkpt>
      <trkpt lat="44.82942" lon="-0.54223">
        <ele>2.1</ele>
        <time>2016-12-06T08:26:21Z</time>
      </trkpt>
      <trkpt lat="44.82934" lon="-0.5421">
        <ele>0.6</ele>
        <time>2016-12-06T08:26:23Z</time>
      </trkpt>
      <trkpt lat="44.82927" lon="-0.54197">
        <ele>-0.1</ele>
        <time>2016-12-06T08:26:25Z</time>
      </trkpt>
      <trkpt lat="44.8292" lon="-0.54184">
        <ele>-0.9</ele>
        <time>2016-12-06T08:26:27Z</time>
      </trkpt>
      <trkpt lat="44.82912" lon="-0.54171">
        <ele>0.4</ele>
        <time>2016-12-06T08:26:29Z</time>
      </trkpt>
      <trkpt lat="44.82908" lon="-0.54165">
        <ele>0.3</ele>
        <time>2016-12-06T08:26:30Z</time>
      </trkpt>
      <trkpt lat="44.829" lon="-0.54152">
        <ele>3.9</ele>
        <time>2016-12-06T08:26:32Z</time>
      </trkpt>
      <trkpt lat="44.82897" lon="-0.54145">
        <ele>-0.1</ele>
        <time>2016-12-06T08:26:33Z</time>
      </trkpt>
      <trkpt lat="44.82889" lon="-0.54132">
        <ele>4</ele>
        <time>2016-12-06T08:26:35Z</time>
      </trkpt>
      <trkpt lat="44.82881" lon="-0.54119">
        <ele>0.1</ele>
        <time>2016-12-06T08:26:37Z</time>
      </trkpt>
      <trkpt lat="44.82874" lon="-0.54107">
        <ele>0.2</ele>
        <time>2016-12-06T08:26:39Z</time>
      </trkpt>
      <trkpt lat="44.82867" lon="-0.54094">
        <ele>3.7</ele>
        <time>2016-12-06T08:26:41Z</time>
      </trkpt>
      <trkpt lat="44.82863" lon="-0.54088">
        <ele>0.1</ele>
        <time>2016-12-06T08:26:42Z</time>
      </trkpt>
      <trkpt lat="44.82856" lon="-0.54075">
        <ele>3.8</ele>
        <time>2016-12-06T08:26:44Z</time>
      </trkpt>
      <trkpt lat="44.82852" lon="-0.54069">
        <ele>-0.1</ele>
        <time>2016-12-06T08:26:45Z</time>
      </trkpt>
      <trkpt lat="44.82844" lon="-0.54056">
        <ele>3.4</ele>
        <time>2016-12-06T08:26:47Z</time>
      </trkpt>
      <trkpt lat="44.82841" lon="-0.54049">
        <ele>-0.1</ele>
        <time>2016-12-06T08:26:48Z</time>
      </trkpt>
      <trkpt lat="44.82833" lon="-0.54037">
        <ele>0.1</ele>
        <time>2016-12-06T08:26:50Z</time>
      </trkpt>
      <trkpt lat="44.82829" lon="-0.5403">
        <ele>0.2</ele>
        <time>2016-12-06T08:26:51Z</time>
      </trkpt>
      <trkpt lat="44.82821" lon="-0.54017">
        <ele>0.3</ele>
        <time>2016-12-06T08:26:53Z</time>
      </trkpt>
      <trkpt lat="44.82813" lon="-0.54004">
        <ele>0.2</ele>
        <time>2016-12-06T08:26:55Z</time>
      </trkpt>
      <trkpt lat="44.82806" lon="-0.53991">
        <ele>0.5</ele>
        <time>2016-12-06T08:26:57Z</time>
      </trkpt>
      <trkpt lat="44.82799" lon="-0.53977">
        <ele>0.7</ele>
        <time>2016-12-06T08:26:59Z</time>
      </trkpt>
      <trkpt lat="44.82795" lon="-0.5397">
        <ele>0.7</ele>
        <time>2016-12-06T08:27:00Z</time>
      </trkpt>
      <trkpt lat="44.82787" lon="-0.53957">
        <ele>0.9</ele>
        <time>2016-12-06T08:27:02Z</time>
      </trkpt>
      <trkpt lat="44.82783" lon="-0.5395">
        <ele>0.8</ele>
        <time>2016-12-06T08:27:03Z</time>
      </trkpt>
      <trkpt lat="44.82776" lon="-0.53937">
        <ele>0.6</ele>
        <time>2016-12-06T08:27:05Z</time>
      </trkpt>
      <trkpt lat="44.82768" lon="-0.53925">
        <ele>0.1</ele>
        <time>2016-12-06T08:27:07Z</time>
      </trkpt>
      <trkpt lat="44.82764" lon="-0.53918">
        <ele>0.1</ele>
        <time>2016-12-06T08:27:08Z</time>
      </trkpt>
      <trkpt lat="44.82756" lon="-0.53905">
        <ele>0.3</ele>
        <time>2016-12-06T08:27:10Z</time>
      </trkpt>
      <trkpt lat="44.82752" lon="-0.53898">
        <ele>0.1</ele>
        <time>2016-12-06T08:27:11Z</time>
      </trkpt>
      <trkpt lat="44.82743" lon="-0.53885">
        <ele>-0.7</ele>
        <time>2016-12-06T08:27:13Z</time>
      </trkpt>
      <trkpt lat="44.82735" lon="-0.53871">
        <ele>-0.7</ele>
        <time>2016-12-06T08:27:15Z</time>
      </trkpt>
      <trkpt lat="44.82731" lon="-0.53864">
        <ele>-0.6</ele>
        <time>2016-12-06T08:27:16Z</time>
      </trkpt>
      <trkpt lat="44.82727" lon="-0.53858">
        <ele>-0.7</ele>
        <time>2016-12-06T08:27:17Z</time>
      </trkpt>
      <trkpt lat="44.82722" lon="-0.53851">
        <ele>-0.5</ele>
        <time>2016-12-06T08:27:18Z</time>
      </trkpt>
      <trkpt lat="44.82715" lon="-0.53839">
        <ele>0.1</ele>
        <time>2016-12-06T08:27:20Z</time>
      </trkpt>
      <trkpt lat="44.82711" lon="-0.53833">
        <ele>0.9</ele>
        <time>2016-12-06T08:27:21Z</time>
      </trkpt>
      <trkpt lat="44.82702" lon="-0.53822">
        <ele>0.5</ele>
        <time>2016-12-06T08:27:23Z</time>
      </trkpt>
      <trkpt lat="44.82694" lon="-0.5381">
        <ele>1.2</ele>
        <time>2016-12-06T08:27:25Z</time>
      </trkpt>
      <trkpt lat="44.82686" lon="-0.53798">
        <ele>0.9</ele>
        <time>2016-12-06T08:27:27Z</time>
      </trkpt>
      <trkpt lat="44.82682" lon="-0.53792">
        <ele>1.3</ele>
        <time>2016-12-06T08:27:28Z</time>
      </trkpt>
      <trkpt lat="44.82675" lon="-0.53779">
        <ele>1.5</ele>
        <time>2016-12-06T08:27:30Z</time>
      </trkpt>
      <trkpt lat="44.82671" lon="-0.53774">
        <ele>1.4</ele>
        <time>2016-12-06T08:27:31Z</time>
      </trkpt>
      <trkpt lat="44.82663" lon="-0.53762">
        <ele>1.4</ele>
        <time>2016-12-06T08:27:33Z</time>
      </trkpt>
      <trkpt lat="44.82659" lon="-0.53757">
        <ele>0.8</ele>
        <time>2016-12-06T08:27:34Z</time>
      </trkpt>
      <trkpt lat="44.82655" lon="-0.53751">
        <ele>0.7</ele>
        <time>2016-12-06T08:27:35Z</time>
      </trkpt>
      <trkpt lat="44.82651" lon="-0.53745">
        <ele>0.7</ele>
        <time>2016-12-06T08:27:36Z</time>
      </trkpt>
      <trkpt lat="44.82643" lon="-0.53734">
        <ele>0.7</ele>
        <time>2016-12-06T08:27:38Z</time>
      </trkpt>
      <trkpt lat="44.82635" lon="-0.53723">
        <ele>0.6</ele>
        <time>2016-12-06T08:27:40Z</time>
      </trkpt>
      <trkpt lat="44.82631" lon="-0.53717">
        <ele>0.4</ele>
        <time>2016-12-06T08:27:41Z</time>
      </trkpt>
      <trkpt lat="44.82622" lon="-0.53705">
        <ele>0.2</ele>
        <time>2016-12-06T08:27:43Z</time>
      </trkpt>
      <trkpt lat="44.82613" lon="-0.53695">
        <ele>4</ele>
        <time>2016-12-06T08:27:45Z</time>
      </trkpt>
      <trkpt lat="44.82609" lon="-0.53689">
        <ele>-0.1</ele>
        <time>2016-12-06T08:27:46Z</time>
      </trkpt>
      <trkpt lat="44.82599" lon="-0.53677">
        <ele>0.2</ele>
        <time>2016-12-06T08:27:48Z</time>
      </trkpt>
      <trkpt lat="44.82595" lon="-0.53671">
        <ele>0.3</ele>
        <time>2016-12-06T08:27:49Z</time>
      </trkpt>
      <trkpt lat="44.8259" lon="-0.53665">
        <ele>0.4</ele>
        <time>2016-12-06T08:27:50Z</time>
      </trkpt>
      <trkpt lat="44.82586" lon="-0.5366">
        <ele>0.4</ele>
        <time>2016-12-06T08:27:51Z</time>
      </trkpt>
      <trkpt lat="44.82578" lon="-0.5365">
        <ele>0.4</ele>
        <time>2016-12-06T08:27:53Z</time>
      </trkpt>
      <trkpt lat="44.82574" lon="-0.53645">
        <ele>0.2</ele>
        <time>2016-12-06T08:27:54Z</time>
      </trkpt>
      <trkpt lat="44.82568" lon="-0.53637">
        <ele>0.9</ele>
        <time>2016-12-06T08:27:56Z</time>
      </trkpt>
      <trkpt lat="44.82563" lon="-0.53631">
        <ele>-0.1</ele>
        <time>2016-12-06T08:27:58Z</time>
      </trkpt>
      <trkpt lat="44.82559" lon="-0.53627">
        <ele>0.4</ele>
        <time>2016-12-06T08:28:00Z</time>
      </trkpt>
      <trkpt lat="44.82556" lon="-0.53622">
        <ele>0.5</ele>
        <time>2016-12-06T08:28:02Z</time>
      </trkpt>
      <trkpt lat="44.82553" lon="-0.53615">
        <ele>1.2</ele>
        <time>2016-12-06T08:28:04Z</time>
      </trkpt>
      <trkpt lat="44.82549" lon="-0.53606">
        <ele>1.3</ele>
        <time>2016-12-06T08:28:06Z</time>
      </trkpt>
      <trkpt lat="44.82543" lon="-0.53595">
        <ele>1.4</ele>
        <time>2016-12-06T08:28:08Z</time>
      </trkpt>
      <trkpt lat="44.82539" lon="-0.53589">
        <ele>1.5</ele>
        <time>2016-12-06T08:28:09Z</time>
      </trkpt>
      <trkpt lat="44.82531" lon="-0.53579">
        <ele>1.6</ele>
        <time>2016-12-06T08:28:11Z</time>
      </trkpt>
      <trkpt lat="44.82526" lon="-0.53573">
        <ele>1.5</ele>
        <time>2016-12-06T08:28:12Z</time>
      </trkpt>
      <trkpt lat="44.82516" lon="-0.53562">
        <ele>1.9</ele>
        <time>2016-12-06T08:28:14Z</time>
      </trkpt>
      <trkpt lat="44.82511" lon="-0.53556">
        <ele>0.6</ele>
        <time>2016-12-06T08:28:15Z</time>
      </trkpt>
      <trkpt lat="44.825" lon="-0.53544">
        <ele>0.6</ele>
        <time>2016-12-06T08:28:17Z</time>
      </trkpt>
      <trkpt lat="44.82495" lon="-0.53537">
        <ele>0.6</ele>
        <time>2016-12-06T08:28:18Z</time>
      </trkpt>
      <trkpt lat="44.82483" lon="-0.53525">
        <ele>0.6</ele>
        <time>2016-12-06T08:28:20Z</time>
      </trkpt>
      <trkpt lat="44.82477" lon="-0.53519">
        <ele>0.6</ele>
        <time>2016-12-06T08:28:21Z</time>
      </trkpt>
      <trkpt lat="44.82466" lon="-0.53507">
        <ele>0.6</ele>
        <time>2016-12-06T08:28:23Z</time>
      </trkpt>
      <trkpt lat="44.8246" lon="-0.535">
        <ele>0.3</ele>
        <time>2016-12-06T08:28:24Z</time>
      </trkpt>
      <trkpt lat="44.82454" lon="-0.53494">
        <ele>4.3</ele>
        <time>2016-12-06T08:28:25Z</time>
      </trkpt>
      <trkpt lat="44.82442" lon="-0.53482">
        <ele>-0.5</ele>
        <time>2016-12-06T08:28:27Z</time>
      </trkpt>
      <trkpt lat="44.82431" lon="-0.5347">
        <ele>-0.9</ele>
        <time>2016-12-06T08:28:29Z</time>
      </trkpt>
      <trkpt lat="44.82425" lon="-0.53464">
        <ele>-0.9</ele>
        <time>2016-12-06T08:28:30Z</time>
      </trkpt>
      <trkpt lat="44.82413" lon="-0.53452">
        <ele>-0.7</ele>
        <time>2016-12-06T08:28:32Z</time>
      </trkpt>
      <trkpt lat="44.82406" lon="-0.53446">
        <ele>-0.6</ele>
        <time>2016-12-06T08:28:33Z</time>
      </trkpt>
      <trkpt lat="44.82394" lon="-0.53434">
        <ele>-0.5</ele>
        <time>2016-12-06T08:28:35Z</time>
      </trkpt>
      <trkpt lat="44.82381" lon="-0.53422">
        <ele>-0.2</ele>
        <time>2016-12-06T08:28:37Z</time>
      </trkpt>
      <trkpt lat="44.82369" lon="-0.5341">
        <ele>-0.2</ele>
        <time>2016-12-06T08:28:39Z</time>
      </trkpt>
      <trkpt lat="44.82356" lon="-0.53398">
        <ele>-0.1</ele>
        <time>2016-12-06T08:28:41Z</time>
      </trkpt>
      <trkpt lat="44.82343" lon="-0.53386">
        <ele>-0.1</ele>
        <time>2016-12-06T08:28:43Z</time>
      </trkpt>
      <trkpt lat="44.82331" lon="-0.53375">
        <ele>-0.1</ele>
        <time>2016-12-06T08:28:45Z</time>
      </trkpt>
      <trkpt lat="44.82318" lon="-0.53363">
        <ele>0.5</ele>
        <time>2016-12-06T08:28:47Z</time>
      </trkpt>
      <trkpt lat="44.82312" lon="-0.53357">
        <ele>0.8</ele>
        <time>2016-12-06T08:28:48Z</time>
      </trkpt>
      <trkpt lat="44.82305" lon="-0.53351">
        <ele>1.2</ele>
        <time>2016-12-06T08:28:49Z</time>
      </trkpt>
      <trkpt lat="44.82293" lon="-0.5334">
        <ele>0.8</ele>
        <time>2016-12-06T08:28:51Z</time>
      </trkpt>
      <trkpt lat="44.8228" lon="-0.53329">
        <ele>0.8</ele>
        <time>2016-12-06T08:28:53Z</time>
      </trkpt>
      <trkpt lat="44.82267" lon="-0.53318">
        <ele>0.7</ele>
        <time>2016-12-06T08:28:55Z</time>
      </trkpt>
      <trkpt lat="44.82255" lon="-0.53308">
        <ele>0.9</ele>
        <time>2016-12-06T08:28:57Z</time>
      </trkpt>
      <trkpt lat="44.82242" lon="-0.53298">
        <ele>0.7</ele>
        <time>2016-12-06T08:28:59Z</time>
      </trkpt>
      <trkpt lat="44.8223" lon="-0.53289">
        <ele>0.9</ele>
        <time>2016-12-06T08:29:01Z</time>
      </trkpt>
      <trkpt lat="44.82223" lon="-0.53284">
        <ele>1</ele>
        <time>2016-12-06T08:29:02Z</time>
      </trkpt>
      <trkpt lat="44.82211" lon="-0.53275">
        <ele>1.9</ele>
        <time>2016-12-06T08:29:04Z</time>
      </trkpt>
      <trkpt lat="44.82205" lon="-0.53271">
        <ele>2.3</ele>
        <time>2016-12-06T08:29:05Z</time>
      </trkpt>
      <trkpt lat="44.82192" lon="-0.53262">
        <ele>2.4</ele>
        <time>2016-12-06T08:29:07Z</time>
      </trkpt>
      <trkpt lat="44.8218" lon="-0.53253">
        <ele>2.7</ele>
        <time>2016-12-06T08:29:09Z</time>
      </trkpt>
      <trkpt lat="44.82173" lon="-0.53249">
        <ele>3.1</ele>
        <time>2016-12-06T08:29:10Z</time>
      </trkpt>
      <trkpt lat="44.82167" lon="-0.53244">
        <ele>3</ele>
        <time>2016-12-06T08:29:11Z</time>
      </trkpt>
      <trkpt lat="44.82155" lon="-0.53236">
        <ele>2.8</ele>
        <time>2016-12-06T08:29:13Z</time>
      </trkpt>
      <trkpt lat="44.82142" lon="-0.53227">
        <ele>3</ele>
        <time>2016-12-06T08:29:15Z</time>
      </trkpt>
      <trkpt lat="44.82136" lon="-0.53223">
        <ele>2.9</ele>
        <time>2016-12-06T08:29:16Z</time>
      </trkpt>
      <trkpt lat="44.82129" lon="-0.5322">
        <ele>2.9</ele>
        <time>2016-12-06T08:29:17Z</time>
      </trkpt>
      <trkpt lat="44.82116" lon="-0.53215">
        <ele>3.2</ele>
        <time>2016-12-06T08:29:19Z</time>
      </trkpt>
      <trkpt lat="44.82109" lon="-0.53212">
        <ele>3.2</ele>
        <time>2016-12-06T08:29:20Z</time>
      </trkpt>
      <trkpt lat="44.82103" lon="-0.53209">
        <ele>2.5</ele>
        <time>2016-12-06T08:29:21Z</time>
      </trkpt>
      <trkpt lat="44.82091" lon="-0.532">
        <ele>3</ele>
        <time>2016-12-06T08:29:23Z</time>
      </trkpt>
      <trkpt lat="44.82085" lon="-0.53196">
        <ele>3</ele>
        <time>2016-12-06T08:29:24Z</time>
      </trkpt>
      <trkpt lat="44.82074" lon="-0.5319">
        <ele>3.2</ele>
        <time>2016-12-06T08:29:26Z</time>
      </trkpt>
      <trkpt lat="44.82068" lon="-0.53185">
        <ele>3.4</ele>
        <time>2016-12-06T08:29:28Z</time>
      </trkpt>
      <trkpt lat="44.82062" lon="-0.53181">
        <ele>2.5</ele>
        <time>2016-12-06T08:29:43Z</time>
      </trkpt>
      <trkpt lat="44.82056" lon="-0.53175">
        <ele>2.7</ele>
        <time>2016-12-06T08:29:45Z</time>
      </trkpt>
      <trkpt lat="44.82047" lon="-0.53167">
        <ele>3.2</ele>
        <time>2016-12-06T08:29:47Z</time>
      </trkpt>
      <trkpt lat="44.82042" lon="-0.53163">
        <ele>3.4</ele>
        <time>2016-12-06T08:29:48Z</time>
      </trkpt>
      <trkpt lat="44.82031" lon="-0.53155">
        <ele>3.5</ele>
        <time>2016-12-06T08:29:50Z</time>
      </trkpt>
      <trkpt lat="44.82025" lon="-0.53151">
        <ele>3.7</ele>
        <time>2016-12-06T08:29:51Z</time>
      </trkpt>
      <trkpt lat="44.82014" lon="-0.53144">
        <ele>3</ele>
        <time>2016-12-06T08:29:53Z</time>
      </trkpt>
      <trkpt lat="44.82002" lon="-0.53136">
        <ele>3.5</ele>
        <time>2016-12-06T08:29:55Z</time>
      </trkpt>
      <trkpt lat="44.81995" lon="-0.53132">
        <ele>3.9</ele>
        <time>2016-12-06T08:29:56Z</time>
      </trkpt>
      <trkpt lat="44.81982" lon="-0.53123">
        <ele>3.9</ele>
        <time>2016-12-06T08:29:58Z</time>
      </trkpt>
      <trkpt lat="44.81976" lon="-0.53119">
        <ele>3.6</ele>
        <time>2016-12-06T08:29:59Z</time>
      </trkpt>
      <trkpt lat="44.81962" lon="-0.5311">
        <ele>3.6</ele>
        <time>2016-12-06T08:30:01Z</time>
      </trkpt>
      <trkpt lat="44.81948" lon="-0.53101">
        <ele>3.8</ele>
        <time>2016-12-06T08:30:03Z</time>
      </trkpt>
      <trkpt lat="44.81935" lon="-0.53092">
        <ele>3.5</ele>
        <time>2016-12-06T08:30:05Z</time>
      </trkpt>
      <trkpt lat="44.81928" lon="-0.53088">
        <ele>3.5</ele>
        <time>2016-12-06T08:30:06Z</time>
      </trkpt>
      <trkpt lat="44.81915" lon="-0.53079">
        <ele>3.5</ele>
        <time>2016-12-06T08:30:08Z</time>
      </trkpt>
      <trkpt lat="44.81909" lon="-0.53075">
        <ele>3.4</ele>
        <time>2016-12-06T08:30:09Z</time>
      </trkpt>
      <trkpt lat="44.81896" lon="-0.53066">
        <ele>3.3</ele>
        <time>2016-12-06T08:30:11Z</time>
      </trkpt>
      <trkpt lat="44.81889" lon="-0.53061">
        <ele>3.3</ele>
        <time>2016-12-06T08:30:12Z</time>
      </trkpt>
      <trkpt lat="44.81876" lon="-0.53053">
        <ele>2.8</ele>
        <time>2016-12-06T08:30:14Z</time>
      </trkpt>
      <trkpt lat="44.81863" lon="-0.53044">
        <ele>2.6</ele>
        <time>2016-12-06T08:30:16Z</time>
      </trkpt>
      <trkpt lat="44.81856" lon="-0.5304">
        <ele>1.9</ele>
        <time>2016-12-06T08:30:17Z</time>
      </trkpt>
      <trkpt lat="44.81842" lon="-0.5303">
        <ele>1.6</ele>
        <time>2016-12-06T08:30:19Z</time>
      </trkpt>
      <trkpt lat="44.81829" lon="-0.53022">
        <ele>1.2</ele>
        <time>2016-12-06T08:30:21Z</time>
      </trkpt>
      <trkpt lat="44.81823" lon="-0.53017">
        <ele>1.5</ele>
        <time>2016-12-06T08:30:22Z</time>
      </trkpt>
      <trkpt lat="44.8181" lon="-0.53008">
        <ele>1.2</ele>
        <time>2016-12-06T08:30:24Z</time>
      </trkpt>
      <trkpt lat="44.81803" lon="-0.53004">
        <ele>1.1</ele>
        <time>2016-12-06T08:30:25Z</time>
      </trkpt>
      <trkpt lat="44.8179" lon="-0.52996">
        <ele>0.8</ele>
        <time>2016-12-06T08:30:27Z</time>
      </trkpt>
      <trkpt lat="44.81784" lon="-0.52992">
        <ele>1.4</ele>
        <time>2016-12-06T08:30:28Z</time>
      </trkpt>
      <trkpt lat="44.81777" lon="-0.52988">
        <ele>1.7</ele>
        <time>2016-12-06T08:30:29Z</time>
      </trkpt>
      <trkpt lat="44.81765" lon="-0.5298">
        <ele>1.8</ele>
        <time>2016-12-06T08:30:31Z</time>
      </trkpt>
      <trkpt lat="44.81759" lon="-0.52976">
        <ele>1.7</ele>
        <time>2016-12-06T08:30:32Z</time>
      </trkpt>
      <trkpt lat="44.81747" lon="-0.52968">
        <ele>1.5</ele>
        <time>2016-12-06T08:30:34Z</time>
      </trkpt>
      <trkpt lat="44.81741" lon="-0.52964">
        <ele>1.8</ele>
        <time>2016-12-06T08:30:35Z</time>
      </trkpt>
      <trkpt lat="44.81734" lon="-0.5296">
        <ele>2.3</ele>
        <time>2016-12-06T08:30:36Z</time>
      </trkpt>
      <trkpt lat="44.81722" lon="-0.52952">
        <ele>2.2</ele>
        <time>2016-12-06T08:30:38Z</time>
      </trkpt>
      <trkpt lat="44.81716" lon="-0.52947">
        <ele>2.2</ele>
        <time>2016-12-06T08:30:39Z</time>
      </trkpt>
      <trkpt lat="44.81703" lon="-0.52937">
        <ele>2.2</ele>
        <time>2016-12-06T08:30:41Z</time>
      </trkpt>
      <trkpt lat="44.8169" lon="-0.52927">
        <ele>2</ele>
        <time>2016-12-06T08:30:43Z</time>
      </trkpt>
      <trkpt lat="44.81678" lon="-0.52918">
        <ele>2.1</ele>
        <time>2016-12-06T08:30:45Z</time>
      </trkpt>
      <trkpt lat="44.81666" lon="-0.52909">
        <ele>2.1</ele>
        <time>2016-12-06T08:30:47Z</time>
      </trkpt>
      <trkpt lat="44.81654" lon="-0.529">
        <ele>2.7</ele>
        <time>2016-12-06T08:30:49Z</time>
      </trkpt>
      <trkpt lat="44.81641" lon="-0.52894">
        <ele>3.2</ele>
        <time>2016-12-06T08:30:51Z</time>
      </trkpt>
      <trkpt lat="44.81635" lon="-0.52892">
        <ele>3.3</ele>
        <time>2016-12-06T08:30:52Z</time>
      </trkpt>
      <trkpt lat="44.81621" lon="-0.52888">
        <ele>3.7</ele>
        <time>2016-12-06T08:30:54Z</time>
      </trkpt>
      <trkpt lat="44.81608" lon="-0.5288">
        <ele>3.8</ele>
        <time>2016-12-06T08:30:56Z</time>
      </trkpt>
      <trkpt lat="44.81602" lon="-0.52875">
        <ele>3.9</ele>
        <time>2016-12-06T08:30:57Z</time>
      </trkpt>
      <trkpt lat="44.8159" lon="-0.52867">
        <ele>3.8</ele>
        <time>2016-12-06T08:30:59Z</time>
      </trkpt>
      <trkpt lat="44.81584" lon="-0.52862">
        <ele>3.5</ele>
        <time>2016-12-06T08:31:00Z</time>
      </trkpt>
      <trkpt lat="44.81578" lon="-0.52859">
        <ele>3.4</ele>
        <time>2016-12-06T08:31:01Z</time>
      </trkpt>
      <trkpt lat="44.81573" lon="-0.52855">
        <ele>3.2</ele>
        <time>2016-12-06T08:31:02Z</time>
      </trkpt>
      <trkpt lat="44.81563" lon="-0.52848">
        <ele>3.6</ele>
        <time>2016-12-06T08:31:04Z</time>
      </trkpt>
      <trkpt lat="44.81557" lon="-0.52844">
        <ele>3.6</ele>
        <time>2016-12-06T08:31:06Z</time>
      </trkpt>
      <trkpt lat="44.81551" lon="-0.5284">
        <ele>3.7</ele>
        <time>2016-12-06T08:31:09Z</time>
      </trkpt>
      <trkpt lat="44.81546" lon="-0.52835">
        <ele>3.9</ele>
        <time>2016-12-06T08:31:11Z</time>
      </trkpt>
      <trkpt lat="44.81539" lon="-0.5283">
        <ele>4</ele>
        <time>2016-12-06T08:31:13Z</time>
      </trkpt>
      <trkpt lat="44.81532" lon="-0.52824">
        <ele>3.8</ele>
        <time>2016-12-06T08:31:15Z</time>
      </trkpt>
      <trkpt lat="44.81525" lon="-0.52818">
        <ele>3.5</ele>
        <time>2016-12-06T08:31:17Z</time>
      </trkpt>
      <trkpt lat="44.81516" lon="-0.52812">
        <ele>3.3</ele>
        <time>2016-12-06T08:31:19Z</time>
      </trkpt>
      <trkpt lat="44.81507" lon="-0.52807">
        <ele>2.8</ele>
        <time>2016-12-06T08:31:21Z</time>
      </trkpt>
      <trkpt lat="44.81502" lon="-0.52804">
        <ele>2</ele>
        <time>2016-12-06T08:31:23Z</time>
      </trkpt>
      <trkpt lat="44.81497" lon="-0.52802">
        <ele>1.9</ele>
        <time>2016-12-06T08:31:27Z</time>
      </trkpt>
      <trkpt lat="44.81493" lon="-0.52798">
        <ele>2</ele>
        <time>2016-12-06T08:32:06Z</time>
      </trkpt>
      <trkpt lat="44.81488" lon="-0.52793">
        <ele>1.8</ele>
        <time>2016-12-06T08:32:08Z</time>
      </trkpt>
      <trkpt lat="44.81483" lon="-0.52785">
        <ele>1.9</ele>
        <time>2016-12-06T08:32:10Z</time>
      </trkpt>
      <trkpt lat="44.81479" lon="-0.52776">
        <ele>1.7</ele>
        <time>2016-12-06T08:32:12Z</time>
      </trkpt>
      <trkpt lat="44.81472" lon="-0.52778">
        <ele>1.2</ele>
        <time>2016-12-06T08:32:14Z</time>
      </trkpt>
      <trkpt lat="44.81463" lon="-0.52778">
        <ele>0.7</ele>
        <time>2016-12-06T08:32:16Z</time>
      </trkpt>
      <trkpt lat="44.81456" lon="-0.52776">
        <ele>0.2</ele>
        <time>2016-12-06T08:32:18Z</time>
      </trkpt>
      <trkpt lat="44.8145" lon="-0.52773">
        <ele>0.5</ele>
        <time>2016-12-06T08:32:20Z</time>
      </trkpt>
      <trkpt lat="44.81443" lon="-0.52769">
        <ele>0.2</ele>
        <time>2016-12-06T08:32:22Z</time>
      </trkpt>
      <trkpt lat="44.81435" lon="-0.52764">
        <ele>0.2</ele>
        <time>2016-12-06T08:32:24Z</time>
      </trkpt>
      <trkpt lat="44.81426" lon="-0.52758">
        <ele>0.1</ele>
        <time>2016-12-06T08:32:26Z</time>
      </trkpt>
      <trkpt lat="44.81422" lon="-0.52756">
        <ele>-0.2</ele>
        <time>2016-12-06T08:32:27Z</time>
      </trkpt>
      <trkpt lat="44.81417" lon="-0.52753">
        <ele>-0.6</ele>
        <time>2016-12-06T08:32:28Z</time>
      </trkpt>
      <trkpt lat="44.81408" lon="-0.52747">
        <ele>-0.6</ele>
        <time>2016-12-06T08:32:30Z</time>
      </trkpt>
      <trkpt lat="44.81403" lon="-0.52744">
        <ele>-1.1</ele>
        <time>2016-12-06T08:32:31Z</time>
      </trkpt>
      <trkpt lat="44.81394" lon="-0.52738">
        <ele>-1.5</ele>
        <time>2016-12-06T08:32:33Z</time>
      </trkpt>
      <trkpt lat="44.81389" lon="-0.52734">
        <ele>-1.4</ele>
        <time>2016-12-06T08:32:34Z</time>
      </trkpt>
      <trkpt lat="44.81379" lon="-0.52728">
        <ele>-1.5</ele>
        <time>2016-12-06T08:32:36Z</time>
      </trkpt>
      <trkpt lat="44.81374" lon="-0.52725">
        <ele>-1.3</ele>
        <time>2016-12-06T08:32:37Z</time>
      </trkpt>
      <trkpt lat="44.81364" lon="-0.52718">
        <ele>-1.7</ele>
        <time>2016-12-06T08:32:39Z</time>
      </trkpt>
      <trkpt lat="44.81359" lon="-0.52715">
        <ele>-1.9</ele>
        <time>2016-12-06T08:32:40Z</time>
      </trkpt>
      <trkpt lat="44.8135" lon="-0.52709">
        <ele>-2.2</ele>
        <time>2016-12-06T08:32:42Z</time>
      </trkpt>
      <trkpt lat="44.81345" lon="-0.52706">
        <ele>-2.5</ele>
        <time>2016-12-06T08:32:43Z</time>
      </trkpt>
      <trkpt lat="44.81335" lon="-0.527">
        <ele>-3.6</ele>
        <time>2016-12-06T08:32:45Z</time>
      </trkpt>
      <trkpt lat="44.81325" lon="-0.52693">
        <ele>-4.6</ele>
        <time>2016-12-06T08:32:47Z</time>
      </trkpt>
      <trkpt lat="44.81315" lon="-0.52686">
        <ele>-4.6</ele>
        <time>2016-12-06T08:32:49Z</time>
      </trkpt>
      <trkpt lat="44.81306" lon="-0.5268">
        <ele>-4.2</ele>
        <time>2016-12-06T08:32:51Z</time>
      </trkpt>
      <trkpt lat="44.81296" lon="-0.52673">
        <ele>-5.1</ele>
        <time>2016-12-06T08:32:53Z</time>
      </trkpt>
      <trkpt lat="44.81291" lon="-0.5267">
        <ele>-5.5</ele>
        <time>2016-12-06T08:32:54Z</time>
      </trkpt>
      <trkpt lat="44.81281" lon="-0.52664">
        <ele>-5.5</ele>
        <time>2016-12-06T08:32:56Z</time>
      </trkpt>
      <trkpt lat="44.81276" lon="-0.52661">
        <ele>-5.5</ele>
        <time>2016-12-06T08:32:57Z</time>
      </trkpt>
      <trkpt lat="44.81266" lon="-0.52654">
        <ele>-4.9</ele>
        <time>2016-12-06T08:32:59Z</time>
      </trkpt>
      <trkpt lat="44.81262" lon="-0.52651">
        <ele>-5</ele>
        <time>2016-12-06T08:33:00Z</time>
      </trkpt>
      <trkpt lat="44.81257" lon="-0.52648">
        <ele>-5.3</ele>
        <time>2016-12-06T08:33:01Z</time>
      </trkpt>
      <trkpt lat="44.81247" lon="-0.52642">
        <ele>-5.5</ele>
        <time>2016-12-06T08:33:03Z</time>
      </trkpt>
      <trkpt lat="44.81242" lon="-0.52639">
        <ele>-5.6</ele>
        <time>2016-12-06T08:33:04Z</time>
      </trkpt>
      <trkpt lat="44.81237" lon="-0.52636">
        <ele>-5.8</ele>
        <time>2016-12-06T08:33:05Z</time>
      </trkpt>
      <trkpt lat="44.81228" lon="-0.5263">
        <ele>-5.4</ele>
        <time>2016-12-06T08:33:07Z</time>
      </trkpt>
      <trkpt lat="44.81219" lon="-0.52624">
        <ele>-4.7</ele>
        <time>2016-12-06T08:33:09Z</time>
      </trkpt>
      <trkpt lat="44.8121" lon="-0.52618">
        <ele>-5.3</ele>
        <time>2016-12-06T08:33:11Z</time>
      </trkpt>
      <trkpt lat="44.81206" lon="-0.52615">
        <ele>-5.7</ele>
        <time>2016-12-06T08:33:12Z</time>
      </trkpt>
      <trkpt lat="44.81202" lon="-0.52613">
        <ele>-5.9</ele>
        <time>2016-12-06T08:33:13Z</time>
      </trkpt>
      <trkpt lat="44.81194" lon="-0.52608">
        <ele>-6.8</ele>
        <time>2016-12-06T08:33:15Z</time>
      </trkpt>
      <trkpt lat="44.81188" lon="-0.52604">
        <ele>-6.6</ele>
        <time>2016-12-06T08:33:17Z</time>
      </trkpt>
      <trkpt lat="44.81184" lon="-0.52601">
        <ele>-6.2</ele>
        <time>2016-12-06T08:33:19Z</time>
      </trkpt>
      <trkpt lat="44.81179" lon="-0.52599">
        <ele>-4.7</ele>
        <time>2016-12-06T08:33:22Z</time>
      </trkpt>
      <trkpt lat="44.81169" lon="-0.52592">
        <ele>-3</ele>
        <time>2016-12-06T08:33:36Z</time>
      </trkpt>
      <trkpt lat="44.81162" lon="-0.52587">
        <ele>-3.1</ele>
        <time>2016-12-06T08:33:38Z</time>
      </trkpt>
      <trkpt lat="44.81157" lon="-0.52584">
        <ele>-3.1</ele>
        <time>2016-12-06T08:33:39Z</time>
      </trkpt>
      <trkpt lat="44.81148" lon="-0.52577">
        <ele>-3.2</ele>
        <time>2016-12-06T08:33:41Z</time>
      </trkpt>
      <trkpt lat="44.81137" lon="-0.52569">
        <ele>-3.1</ele>
        <time>2016-12-06T08:33:43Z</time>
      </trkpt>
      <trkpt lat="44.81125" lon="-0.52562">
        <ele>-2.5</ele>
        <time>2016-12-06T08:33:45Z</time>
      </trkpt>
      <trkpt lat="44.8112" lon="-0.52558">
        <ele>-2.3</ele>
        <time>2016-12-06T08:33:46Z</time>
      </trkpt>
      <trkpt lat="44.81108" lon="-0.5255">
        <ele>-1.6</ele>
        <time>2016-12-06T08:33:48Z</time>
      </trkpt>
      <trkpt lat="44.81102" lon="-0.52546">
        <ele>-1.9</ele>
        <time>2016-12-06T08:33:49Z</time>
      </trkpt>
      <trkpt lat="44.81091" lon="-0.52538">
        <ele>-1.7</ele>
        <time>2016-12-06T08:33:51Z</time>
      </trkpt>
      <trkpt lat="44.81081" lon="-0.52531">
        <ele>-1.5</ele>
        <time>2016-12-06T08:33:53Z</time>
      </trkpt>
      <trkpt lat="44.81071" lon="-0.52524">
        <ele>-1.3</ele>
        <time>2016-12-06T08:33:55Z</time>
      </trkpt>
      <trkpt lat="44.81066" lon="-0.52521">
        <ele>-1.1</ele>
        <time>2016-12-06T08:33:56Z</time>
      </trkpt>
      <trkpt lat="44.81062" lon="-0.52518">
        <ele>-0.8</ele>
        <time>2016-12-06T08:33:57Z</time>
      </trkpt>
      <trkpt lat="44.81052" lon="-0.52511">
        <ele>-0.5</ele>
        <time>2016-12-06T08:33:59Z</time>
      </trkpt>
      <trkpt lat="44.81044" lon="-0.52506">
        <ele>-1</ele>
        <time>2016-12-06T08:34:01Z</time>
      </trkpt>
      <trkpt lat="44.81037" lon="-0.52501">
        <ele>-1.3</ele>
        <time>2016-12-06T08:34:03Z</time>
      </trkpt>
      <trkpt lat="44.8103" lon="-0.52496">
        <ele>-1.9</ele>
        <time>2016-12-06T08:34:05Z</time>
      </trkpt>
      <trkpt lat="44.81023" lon="-0.52492">
        <ele>-2.9</ele>
        <time>2016-12-06T08:34:07Z</time>
      </trkpt>
      <trkpt lat="44.81017" lon="-0.52487">
        <ele>-2.5</ele>
        <time>2016-12-06T08:34:09Z</time>
      </trkpt>
      <trkpt lat="44.8101" lon="-0.52482">
        <ele>-2.8</ele>
        <time>2016-12-06T08:34:11Z</time>
      </trkpt>
      <trkpt lat="44.81001" lon="-0.52477">
        <ele>-3.6</ele>
        <time>2016-12-06T08:34:13Z</time>
      </trkpt>
      <trkpt lat="44.80992" lon="-0.52473">
        <ele>-3.7</ele>
        <time>2016-12-06T08:34:15Z</time>
      </trkpt>
      <trkpt lat="44.80988" lon="-0.5247">
        <ele>-3.9</ele>
        <time>2016-12-06T08:34:16Z</time>
      </trkpt>
      <trkpt lat="44.80979" lon="-0.52465">
        <ele>-3.7</ele>
        <time>2016-12-06T08:34:18Z</time>
      </trkpt>
      <trkpt lat="44.80971" lon="-0.5246">
        <ele>-4.2</ele>
        <time>2016-12-06T08:34:20Z</time>
      </trkpt>
      <trkpt lat="44.80963" lon="-0.52456">
        <ele>-4.6</ele>
        <time>2016-12-06T08:34:22Z</time>
      </trkpt>
      <trkpt lat="44.80957" lon="-0.52451">
        <ele>-4.9</ele>
        <time>2016-12-06T08:34:24Z</time>
      </trkpt>
      <trkpt lat="44.80951" lon="-0.52448">
        <ele>-6</ele>
        <time>2016-12-06T08:34:26Z</time>
      </trkpt>
      <trkpt lat="44.80944" lon="-0.52447">
        <ele>-7.1</ele>
        <time>2016-12-06T08:34:28Z</time>
      </trkpt>
      <trkpt lat="44.80937" lon="-0.52445">
        <ele>-7.3</ele>
        <time>2016-12-06T08:34:30Z</time>
      </trkpt>
      <trkpt lat="44.80935" lon="-0.52439">
        <ele>-7.1</ele>
        <time>2016-12-06T08:34:32Z</time>
      </trkpt>
      <trkpt lat="44.8094" lon="-0.52429">
        <ele>-6.1</ele>
        <time>2016-12-06T08:34:34Z</time>
      </trkpt>
      <trkpt lat="44.80942" lon="-0.52424">
        <ele>-5.8</ele>
        <time>2016-12-06T08:34:35Z</time>
      </trkpt>
      <trkpt lat="44.80946" lon="-0.5242">
        <ele>-5.8</ele>
        <time>2016-12-06T08:34:36Z</time>
      </trkpt>
      <trkpt lat="44.80952" lon="-0.52412">
        <ele>-5.6</ele>
        <time>2016-12-06T08:34:38Z</time>
      </trkpt>
      <trkpt lat="44.80958" lon="-0.52405">
        <ele>-5.4</ele>
        <time>2016-12-06T08:34:40Z</time>
      </trkpt>
      <trkpt lat="44.80963" lon="-0.52398">
        <ele>-5.3</ele>
        <time>2016-12-06T08:34:42Z</time>
      </trkpt>
      <trkpt lat="44.80968" lon="-0.5239">
        <ele>-5.4</ele>
        <time>2016-12-06T08:34:44Z</time>
      </trkpt>
      <trkpt lat="44.80974" lon="-0.52383">
        <ele>-5</ele>
        <time>2016-12-06T08:34:46Z</time>
      </trkpt>
      <trkpt lat="44.80979" lon="-0.52382">
        <ele>-3.7</ele>
        <time>2016-12-06T08:34:48Z</time>
      </trkpt>
      <trkpt lat="44.80981" lon="-0.52388">
        <ele>-3.1</ele>
        <time>2016-12-06T08:34:50Z</time>
      </trkpt>
      <trkpt lat="44.80979" lon="-0.52395">
        <ele>-2.2</ele>
        <time>2016-12-06T08:34:52Z</time>
      </trkpt>
      <trkpt lat="44.80976" lon="-0.52402">
        <ele>-1.3</ele>
        <time>2016-12-06T08:34:54Z</time>
      </trkpt>
      <trkpt lat="44.80972" lon="-0.52409">
        <ele>-0.4</ele>
        <time>2016-12-06T08:34:56Z</time>
      </trkpt>
      <trkpt lat="44.80968" lon="-0.52415">
        <ele>7.5</ele>
        <time>2016-12-06T08:34:58Z</time>
      </trkpt>
      <trkpt lat="44.80964" lon="-0.52422">
        <ele>0.2</ele>
        <time>2016-12-06T08:35:00Z</time>
      </trkpt>
      <trkpt lat="44.8096" lon="-0.52429">
        <ele>0.8</ele>
        <time>2016-12-06T08:35:02Z</time>
      </trkpt>
      <trkpt lat="44.80956" lon="-0.52436">
        <ele>0.8</ele>
        <time>2016-12-06T08:35:04Z</time>
      </trkpt>
      <trkpt lat="44.80951" lon="-0.52443">
        <ele>1.5</ele>
        <time>2016-12-06T08:35:06Z</time>
      </trkpt>
      <trkpt lat="44.80946" lon="-0.5245">
        <ele>1.4</ele>
        <time>2016-12-06T08:35:08Z</time>
      </trkpt>
      <trkpt lat="44.80941" lon="-0.52458">
        <ele>1.7</ele>
        <time>2016-12-06T08:35:10Z</time>
      </trkpt>
      <trkpt lat="44.80936" lon="-0.52466">
        <ele>2</ele>
        <time>2016-12-06T08:35:12Z</time>
      </trkpt>
      <trkpt lat="44.80931" lon="-0.52473">
        <ele>3.3</ele>
        <time>2016-12-06T08:35:14Z</time>
      </trkpt>
      <trkpt lat="44.80926" lon="-0.52481">
        <ele>4.1</ele>
        <time>2016-12-06T08:35:16Z</time>
      </trkpt>
      <trkpt lat="44.80921" lon="-0.52489">
        <ele>4.4</ele>
        <time>2016-12-06T08:35:18Z</time>
      </trkpt>
      <trkpt lat="44.80916" lon="-0.52497">
        <ele>4.6</ele>
        <time>2016-12-06T08:35:20Z</time>
      </trkpt>
      <trkpt lat="44.80911" lon="-0.52505">
        <ele>5.1</ele>
        <time>2016-12-06T08:35:22Z</time>
      </trkpt>
      <trkpt lat="44.80906" lon="-0.52513">
        <ele>5.3</ele>
        <time>2016-12-06T08:35:24Z</time>
      </trkpt>
      <trkpt lat="44.809" lon="-0.52521">
        <ele>5.4</ele>
        <time>2016-12-06T08:35:26Z</time>
      </trkpt>
      <trkpt lat="44.80895" lon="-0.52529">
        <ele>5.6</ele>
        <time>2016-12-06T08:35:28Z</time>
      </trkpt>
      <trkpt lat="44.80889" lon="-0.52538">
        <ele>5.6</ele>
        <time>2016-12-06T08:35:30Z</time>
      </trkpt>
      <trkpt lat="44.80883" lon="-0.52547">
        <ele>6.1</ele>
        <time>2016-12-06T08:35:32Z</time>
      </trkpt>
      <trkpt lat="44.80878" lon="-0.52555">
        <ele>6</ele>
        <time>2016-12-06T08:35:34Z</time>
      </trkpt>
      <trkpt lat="44.80872" lon="-0.52564">
        <ele>6.4</ele>
        <time>2016-12-06T08:35:36Z</time>
      </trkpt>
      <trkpt lat="44.80867" lon="-0.52571">
        <ele>6.5</ele>
        <time>2016-12-06T08:35:38Z</time>
      </trkpt>
      <trkpt lat="44.80862" lon="-0.52579">
        <ele>6.8</ele>
        <time>2016-12-06T08:35:40Z</time>
      </trkpt>
      <trkpt lat="44.80857" lon="-0.52587">
        <ele>7.1</ele>
        <time>2016-12-06T08:35:42Z</time>
      </trkpt>
      <trkpt lat="44.80852" lon="-0.52595">
        <ele>7.7</ele>
        <time>2016-12-06T08:35:44Z</time>
      </trkpt>
      <trkpt lat="44.80847" lon="-0.52602">
        <ele>8.1</ele>
        <time>2016-12-06T08:35:46Z</time>
      </trkpt>
      <trkpt lat="44.80841" lon="-0.5261">
        <ele>8.5</ele>
        <time>2016-12-06T08:35:48Z</time>
      </trkpt>
      <trkpt lat="44.80835" lon="-0.52619">
        <ele>8.7</ele>
        <time>2016-12-06T08:35:50Z</time>
      </trkpt>
      <trkpt lat="44.8083" lon="-0.52627">
        <ele>8.7</ele>
        <time>2016-12-06T08:35:52Z</time>
      </trkpt>
      <trkpt lat="44.80825" lon="-0.52635">
        <ele>8.4</ele>
        <time>2016-12-06T08:35:54Z</time>
      </trkpt>
      <trkpt lat="44.8082" lon="-0.52642">
        <ele>8.3</ele>
        <time>2016-12-06T08:35:56Z</time>
      </trkpt>
      <trkpt lat="44.80814" lon="-0.52651">
        <ele>8.4</ele>
        <time>2016-12-06T08:35:58Z</time>
      </trkpt>
      <trkpt lat="44.80808" lon="-0.52659">
        <ele>8.3</ele>
        <time>2016-12-06T08:36:00Z</time>
      </trkpt>
      <trkpt lat="44.80803" lon="-0.52668">
        <ele>8.6</ele>
        <time>2016-12-06T08:36:02Z</time>
      </trkpt>
      <trkpt lat="44.80797" lon="-0.52676">
        <ele>8.8</ele>
        <time>2016-12-06T08:36:04Z</time>
      </trkpt>
      <trkpt lat="44.80792" lon="-0.52684">
        <ele>8.9</ele>
        <time>2016-12-06T08:36:06Z</time>
      </trkpt>
      <trkpt lat="44.80786" lon="-0.52693">
        <ele>8.9</ele>
        <time>2016-12-06T08:36:08Z</time>
      </trkpt>
      <trkpt lat="44.80781" lon="-0.52701">
        <ele>9</ele>
        <time>2016-12-06T08:36:10Z</time>
      </trkpt>
      <trkpt lat="44.80774" lon="-0.5271">
        <ele>9.2</ele>
        <time>2016-12-06T08:36:12Z</time>
      </trkpt>
      <trkpt lat="44.80771" lon="-0.52715">
        <ele>9.2</ele>
        <time>2016-12-06T08:36:13Z</time>
      </trkpt>
      <trkpt lat="44.80765" lon="-0.52725">
        <ele>9.3</ele>
        <time>2016-12-06T08:36:15Z</time>
      </trkpt>
      <trkpt lat="44.80758" lon="-0.52736">
        <ele>9.4</ele>
        <time>2016-12-06T08:36:17Z</time>
      </trkpt>
      <trkpt lat="44.80754" lon="-0.52741">
        <ele>9.4</ele>
        <time>2016-12-06T08:36:18Z</time>
      </trkpt>
      <trkpt lat="44.80747" lon="-0.52751">
        <ele>9.4</ele>
        <time>2016-12-06T08:36:20Z</time>
      </trkpt>
      <trkpt lat="44.80741" lon="-0.52761">
        <ele>9.4</ele>
        <time>2016-12-06T08:36:22Z</time>
      </trkpt>
      <trkpt lat="44.80737" lon="-0.52766">
        <ele>9</ele>
        <time>2016-12-06T08:36:23Z</time>
      </trkpt>
      <trkpt lat="44.80734" lon="-0.52771">
        <ele>8.9</ele>
        <time>2016-12-06T08:36:24Z</time>
      </trkpt>
      <trkpt lat="44.80731" lon="-0.52776">
        <ele>8.8</ele>
        <time>2016-12-06T08:36:25Z</time>
      </trkpt>
      <trkpt lat="44.80724" lon="-0.52786">
        <ele>8.8</ele>
        <time>2016-12-06T08:36:27Z</time>
      </trkpt>
      <trkpt lat="44.80721" lon="-0.5279">
        <ele>8.6</ele>
        <time>2016-12-06T08:36:28Z</time>
      </trkpt>
      <trkpt lat="44.80715" lon="-0.52799">
        <ele>9.2</ele>
        <time>2016-12-06T08:36:30Z</time>
      </trkpt>
      <trkpt lat="44.80712" lon="-0.52804">
        <ele>9.3</ele>
        <time>2016-12-06T08:36:31Z</time>
      </trkpt>
      <trkpt lat="44.80705" lon="-0.52814">
        <ele>9.5</ele>
        <time>2016-12-06T08:36:33Z</time>
      </trkpt>
      <trkpt lat="44.80699" lon="-0.52823">
        <ele>9.5</ele>
        <time>2016-12-06T08:36:35Z</time>
      </trkpt>
      <trkpt lat="44.80692" lon="-0.52832">
        <ele>9.4</ele>
        <time>2016-12-06T08:36:37Z</time>
      </trkpt>
      <trkpt lat="44.80687" lon="-0.52841">
        <ele>9.5</ele>
        <time>2016-12-06T08:36:39Z</time>
      </trkpt>
      <trkpt lat="44.80681" lon="-0.52848">
        <ele>9.6</ele>
        <time>2016-12-06T08:36:41Z</time>
      </trkpt>
      <trkpt lat="44.80676" lon="-0.52857">
        <ele>9.7</ele>
        <time>2016-12-06T08:36:43Z</time>
      </trkpt>
      <trkpt lat="44.8067" lon="-0.52866">
        <ele>10.3</ele>
        <time>2016-12-06T08:36:45Z</time>
      </trkpt>
      <trkpt lat="44.80666" lon="-0.52871">
        <ele>10.4</ele>
        <time>2016-12-06T08:36:46Z</time>
      </trkpt>
      <trkpt lat="44.80663" lon="-0.52877">
        <ele>10.5</ele>
        <time>2016-12-06T08:36:47Z</time>
      </trkpt>
      <trkpt lat="44.80655" lon="-0.52888">
        <ele>10.2</ele>
        <time>2016-12-06T08:36:49Z</time>
      </trkpt>
      <trkpt lat="44.80648" lon="-0.52898">
        <ele>9.8</ele>
        <time>2016-12-06T08:36:51Z</time>
      </trkpt>
      <trkpt lat="44.80645" lon="-0.52904">
        <ele>9.6</ele>
        <time>2016-12-06T08:36:52Z</time>
      </trkpt>
      <trkpt lat="44.80638" lon="-0.52914">
        <ele>9.1</ele>
        <time>2016-12-06T08:36:54Z</time>
      </trkpt>
      <trkpt lat="44.80634" lon="-0.5292">
        <ele>8.4</ele>
        <time>2016-12-06T08:36:55Z</time>
      </trkpt>
      <trkpt lat="44.80627" lon="-0.52931">
        <ele>8.4</ele>
        <time>2016-12-06T08:36:57Z</time>
      </trkpt>
      <trkpt lat="44.80619" lon="-0.52942">
        <ele>8.5</ele>
        <time>2016-12-06T08:36:59Z</time>
      </trkpt>
      <trkpt lat="44.80612" lon="-0.52954">
        <ele>8.1</ele>
        <time>2016-12-06T08:37:01Z</time>
      </trkpt>
      <trkpt lat="44.80605" lon="-0.52965">
        <ele>7.7</ele>
        <time>2016-12-06T08:37:03Z</time>
      </trkpt>
      <trkpt lat="44.80598" lon="-0.52975">
        <ele>7.7</ele>
        <time>2016-12-06T08:37:05Z</time>
      </trkpt>
      <trkpt lat="44.80594" lon="-0.52981">
        <ele>7.6</ele>
        <time>2016-12-06T08:37:06Z</time>
      </trkpt>
      <trkpt lat="44.80587" lon="-0.52991">
        <ele>7.5</ele>
        <time>2016-12-06T08:37:08Z</time>
      </trkpt>
      <trkpt lat="44.80583" lon="-0.52996">
        <ele>7.5</ele>
        <time>2016-12-06T08:37:09Z</time>
      </trkpt>
      <trkpt lat="44.80576" lon="-0.53006">
        <ele>7.2</ele>
        <time>2016-12-06T08:37:11Z</time>
      </trkpt>
      <trkpt lat="44.80573" lon="-0.53011">
        <ele>6.8</ele>
        <time>2016-12-06T08:37:12Z</time>
      </trkpt>
      <trkpt lat="44.80567" lon="-0.53021">
        <ele>6.5</ele>
        <time>2016-12-06T08:37:14Z</time>
      </trkpt>
      <trkpt lat="44.8056" lon="-0.53031">
        <ele>6.3</ele>
        <time>2016-12-06T08:37:16Z</time>
      </trkpt>
      <trkpt lat="44.80556" lon="-0.53036">
        <ele>6.2</ele>
        <time>2016-12-06T08:37:17Z</time>
      </trkpt>
      <trkpt lat="44.80553" lon="-0.53041">
        <ele>6</ele>
        <time>2016-12-06T08:37:18Z</time>
      </trkpt>
      <trkpt lat="44.8055" lon="-0.53046">
        <ele>5.8</ele>
        <time>2016-12-06T08:37:19Z</time>
      </trkpt>
      <trkpt lat="44.80543" lon="-0.53056">
        <ele>5.8</ele>
        <time>2016-12-06T08:37:21Z</time>
      </trkpt>
      <trkpt lat="44.8054" lon="-0.53061">
        <ele>5.9</ele>
        <time>2016-12-06T08:37:22Z</time>
      </trkpt>
      <trkpt lat="44.80532" lon="-0.53069">
        <ele>5.9</ele>
        <time>2016-12-06T08:37:24Z</time>
      </trkpt>
      <trkpt lat="44.80524" lon="-0.53064">
        <ele>5.9</ele>
        <time>2016-12-06T08:37:26Z</time>
      </trkpt>
      <trkpt lat="44.80519" lon="-0.5306">
        <ele>5.7</ele>
        <time>2016-12-06T08:37:27Z</time>
      </trkpt>
      <trkpt lat="44.80508" lon="-0.53053">
        <ele>5.5</ele>
        <time>2016-12-06T08:37:29Z</time>
      </trkpt>
      <trkpt lat="44.80503" lon="-0.53049">
        <ele>4.9</ele>
        <time>2016-12-06T08:37:30Z</time>
      </trkpt>
      <trkpt lat="44.80491" lon="-0.53043">
        <ele>4.1</ele>
        <time>2016-12-06T08:37:32Z</time>
      </trkpt>
      <trkpt lat="44.80485" lon="-0.53039">
        <ele>3.7</ele>
        <time>2016-12-06T08:37:33Z</time>
      </trkpt>
      <trkpt lat="44.80471" lon="-0.53033">
        <ele>3.1</ele>
        <time>2016-12-06T08:37:35Z</time>
      </trkpt>
      <trkpt lat="44.80464" lon="-0.5303">
        <ele>2.7</ele>
        <time>2016-12-06T08:37:36Z</time>
      </trkpt>
      <trkpt lat="44.8045" lon="-0.53025">
        <ele>1.7</ele>
        <time>2016-12-06T08:37:38Z</time>
      </trkpt>
      <trkpt lat="44.80442" lon="-0.53022">
        <ele>1.2</ele>
        <time>2016-12-06T08:37:39Z</time>
      </trkpt>
      <trkpt lat="44.80427" lon="-0.53018">
        <ele>0.4</ele>
        <time>2016-12-06T08:37:41Z</time>
      </trkpt>
      <trkpt lat="44.80419" lon="-0.53017">
        <ele>0.1</ele>
        <time>2016-12-06T08:37:42Z</time>
      </trkpt>
      <trkpt lat="44.80404" lon="-0.53016">
        <ele>-0.4</ele>
        <time>2016-12-06T08:37:44Z</time>
      </trkpt>
      <trkpt lat="44.8039" lon="-0.53018">
        <ele>-0.8</ele>
        <time>2016-12-06T08:37:46Z</time>
      </trkpt>
      <trkpt lat="44.80378" lon="-0.5302">
        <ele>-1</ele>
        <time>2016-12-06T08:37:48Z</time>
      </trkpt>
      <trkpt lat="44.80367" lon="-0.53024">
        <ele>-1.4</ele>
        <time>2016-12-06T08:37:50Z</time>
      </trkpt>
      <trkpt lat="44.80357" lon="-0.53028">
        <ele>-1.6</ele>
        <time>2016-12-06T08:37:52Z</time>
      </trkpt>
      <trkpt lat="44.80347" lon="-0.53033">
        <ele>-1.9</ele>
        <time>2016-12-06T08:37:54Z</time>
      </trkpt>
      <trkpt lat="44.80338" lon="-0.53038">
        <ele>-2.1</ele>
        <time>2016-12-06T08:37:56Z</time>
      </trkpt>
      <trkpt lat="44.80334" lon="-0.53042">
        <ele>-2.1</ele>
        <time>2016-12-06T08:37:57Z</time>
      </trkpt>
      <trkpt lat="44.80325" lon="-0.53049">
        <ele>-1.9</ele>
        <time>2016-12-06T08:37:59Z</time>
      </trkpt>
      <trkpt lat="44.80321" lon="-0.53052">
        <ele>-2</ele>
        <time>2016-12-06T08:38:00Z</time>
      </trkpt>
      <trkpt lat="44.80316" lon="-0.53056">
        <ele>-2.5</ele>
        <time>2016-12-06T08:38:01Z</time>
      </trkpt>
      <trkpt lat="44.80308" lon="-0.53062">
        <ele>-3.1</ele>
        <time>2016-12-06T08:38:03Z</time>
      </trkpt>
      <trkpt lat="44.80304" lon="-0.53066">
        <ele>-3.3</ele>
        <time>2016-12-06T08:38:04Z</time>
      </trkpt>
      <trkpt lat="44.80295" lon="-0.53074">
        <ele>-3.5</ele>
        <time>2016-12-06T08:38:06Z</time>
      </trkpt>
      <trkpt lat="44.80291" lon="-0.53078">
        <ele>-3.4</ele>
        <time>2016-12-06T08:38:07Z</time>
      </trkpt>
      <trkpt lat="44.80283" lon="-0.53085">
        <ele>-2.9</ele>
        <time>2016-12-06T08:38:09Z</time>
      </trkpt>
      <trkpt lat="44.80274" lon="-0.53089">
        <ele>-2.6</ele>
        <time>2016-12-06T08:38:11Z</time>
      </trkpt>
      <trkpt lat="44.80264" lon="-0.53089">
        <ele>-2.3</ele>
        <time>2016-12-06T08:38:13Z</time>
      </trkpt>
      <trkpt lat="44.80254" lon="-0.53088">
        <ele>-2.2</ele>
        <time>2016-12-06T08:38:15Z</time>
      </trkpt>
      <trkpt lat="44.80248" lon="-0.53088">
        <ele>-2</ele>
        <time>2016-12-06T08:38:16Z</time>
      </trkpt>
      <trkpt lat="44.80238" lon="-0.53087">
        <ele>-1.9</ele>
        <time>2016-12-06T08:38:18Z</time>
      </trkpt>
      <trkpt lat="44.80233" lon="-0.53087">
        <ele>-1.7</ele>
        <time>2016-12-06T08:38:19Z</time>
      </trkpt>
      <trkpt lat="44.80223" lon="-0.53087">
        <ele>-1.5</ele>
        <time>2016-12-06T08:38:21Z</time>
      </trkpt>
      <trkpt lat="44.80213" lon="-0.53086">
        <ele>-1.4</ele>
        <time>2016-12-06T08:38:23Z</time>
      </trkpt>
      <trkpt lat="44.80203" lon="-0.53085">
        <ele>-1.4</ele>
        <time>2016-12-06T08:38:25Z</time>
      </trkpt>
      <trkpt lat="44.80198" lon="-0.53085">
        <ele>-1.3</ele>
        <time>2016-12-06T08:38:26Z</time>
      </trkpt>
      <trkpt lat="44.80187" lon="-0.53085">
        <ele>-1.1</ele>
        <time>2016-12-06T08:38:28Z</time>
      </trkpt>
      <trkpt lat="44.80182" lon="-0.53084">
        <ele>-1</ele>
        <time>2016-12-06T08:38:29Z</time>
      </trkpt>
      <trkpt lat="44.80177" lon="-0.53084">
        <ele>-0.9</ele>
        <time>2016-12-06T08:38:30Z</time>
      </trkpt>
      <trkpt lat="44.80172" lon="-0.53084">
        <ele>-0.8</ele>
        <time>2016-12-06T08:38:31Z</time>
      </trkpt>
      <trkpt lat="44.80161" lon="-0.53084">
        <ele>-0.8</ele>
        <time>2016-12-06T08:38:33Z</time>
      </trkpt>
      <trkpt lat="44.8015" lon="-0.53083">
        <ele>-0.7</ele>
        <time>2016-12-06T08:38:35Z</time>
      </trkpt>
      <trkpt lat="44.80146" lon="-0.53083">
        <ele>-0.7</ele>
        <time>2016-12-06T08:38:36Z</time>
      </trkpt>
      <trkpt lat="44.80136" lon="-0.53082">
        <ele>-0.6</ele>
        <time>2016-12-06T08:38:38Z</time>
      </trkpt>
      <trkpt lat="44.80132" lon="-0.53081">
        <ele>-0.6</ele>
        <time>2016-12-06T08:38:39Z</time>
      </trkpt>
      <trkpt lat="44.80123" lon="-0.5308">
        <ele>-0.5</ele>
        <time>2016-12-06T08:38:41Z</time>
      </trkpt>
      <trkpt lat="44.80113" lon="-0.53079">
        <ele>-0.4</ele>
        <time>2016-12-06T08:38:43Z</time>
      </trkpt>
      <trkpt lat="44.80109" lon="-0.53078">
        <ele>-0.3</ele>
        <time>2016-12-06T08:38:44Z</time>
      </trkpt>
      <trkpt lat="44.80099" lon="-0.53076">
        <ele>0.1</ele>
        <time>2016-12-06T08:38:46Z</time>
      </trkpt>
      <trkpt lat="44.80095" lon="-0.53075">
        <ele>0.2</ele>
        <time>2016-12-06T08:38:47Z</time>
      </trkpt>
      <trkpt lat="44.80085" lon="-0.53074">
        <ele>0.5</ele>
        <time>2016-12-06T08:38:49Z</time>
      </trkpt>
      <trkpt lat="44.80081" lon="-0.53074">
        <ele>0.6</ele>
        <time>2016-12-06T08:38:50Z</time>
      </trkpt>
      <trkpt lat="44.80072" lon="-0.53073">
        <ele>0.9</ele>
        <time>2016-12-06T08:38:52Z</time>
      </trkpt>
      <trkpt lat="44.80065" lon="-0.53071">
        <ele>1.3</ele>
        <time>2016-12-06T08:38:54Z</time>
      </trkpt>
      <trkpt lat="44.80058" lon="-0.53068">
        <ele>1.4</ele>
        <time>2016-12-06T08:38:56Z</time>
      </trkpt>
      <trkpt lat="44.80052" lon="-0.53064">
        <ele>1.5</ele>
        <time>2016-12-06T08:38:58Z</time>
      </trkpt>
      <trkpt lat="44.80046" lon="-0.53061">
        <ele>1.3</ele>
        <time>2016-12-06T08:39:00Z</time>
      </trkpt>
      <trkpt lat="44.80042" lon="-0.53069">
        <ele>1.1</ele>
        <time>2016-12-06T08:39:27Z</time>
      </trkpt>
      <trkpt lat="44.80041" lon="-0.53075">
        <ele>1.2</ele>
        <time>2016-12-06T08:39:29Z</time>
      </trkpt>
      <trkpt lat="44.80043" lon="-0.53082">
        <ele>1.1</ele>
        <time>2016-12-06T08:39:32Z</time>
      </trkpt>
      <trkpt lat="44.8005" lon="-0.53084">
        <ele>1.1</ele>
        <time>2016-12-06T08:39:34Z</time>
      </trkpt>
      <trkpt lat="44.80057" lon="-0.53085">
        <ele>1.2</ele>
        <time>2016-12-06T08:39:36Z</time>
      </trkpt>
      <trkpt lat="44.80065" lon="-0.53087">
        <ele>1</ele>
        <time>2016-12-06T08:39:38Z</time>
      </trkpt>
      <trkpt lat="44.80074" lon="-0.53089">
        <ele>1.1</ele>
        <time>2016-12-06T08:39:40Z</time>
      </trkpt>
      <trkpt lat="44.80083" lon="-0.5309">
        <ele>1.1</ele>
        <time>2016-12-06T08:39:42Z</time>
      </trkpt>
      <trkpt lat="44.80088" lon="-0.53091">
        <ele>1.3</ele>
        <time>2016-12-06T08:39:43Z</time>
      </trkpt>
      <trkpt lat="44.80097" lon="-0.53093">
        <ele>1.5</ele>
        <time>2016-12-06T08:39:45Z</time>
      </trkpt>
      <trkpt lat="44.80107" lon="-0.53095">
        <ele>2.2</ele>
        <time>2016-12-06T08:39:47Z</time>
      </trkpt>
      <trkpt lat="44.80111" lon="-0.53096">
        <ele>3</ele>
        <time>2016-12-06T08:39:48Z</time>
      </trkpt>
      <trkpt lat="44.80116" lon="-0.53097">
        <ele>3.4</ele>
        <time>2016-12-06T08:39:49Z</time>
      </trkpt>
      <trkpt lat="44.80121" lon="-0.53098">
        <ele>3.5</ele>
        <time>2016-12-06T08:39:50Z</time>
      </trkpt>
      <trkpt lat="44.8013" lon="-0.531">
        <ele>4.1</ele>
        <time>2016-12-06T08:39:52Z</time>
      </trkpt>
      <trkpt lat="44.80134" lon="-0.53101">
        <ele>4.2</ele>
        <time>2016-12-06T08:39:53Z</time>
      </trkpt>
      <trkpt lat="44.80139" lon="-0.53102">
        <ele>4.2</ele>
        <time>2016-12-06T08:39:54Z</time>
      </trkpt>
      <trkpt lat="44.80148" lon="-0.53103">
        <ele>4.6</ele>
        <time>2016-12-06T08:39:56Z</time>
      </trkpt>
      <trkpt lat="44.80153" lon="-0.53104">
        <ele>4.2</ele>
        <time>2016-12-06T08:39:57Z</time>
      </trkpt>
      <trkpt lat="44.80158" lon="-0.53105">
        <ele>4.6</ele>
        <time>2016-12-06T08:39:58Z</time>
      </trkpt>
      <trkpt lat="44.80163" lon="-0.53106">
        <ele>4.8</ele>
        <time>2016-12-06T08:39:59Z</time>
      </trkpt>
      <trkpt lat="44.80172" lon="-0.53107">
        <ele>4.7</ele>
        <time>2016-12-06T08:40:01Z</time>
      </trkpt>
      <trkpt lat="44.80182" lon="-0.53109">
        <ele>4.4</ele>
        <time>2016-12-06T08:40:03Z</time>
      </trkpt>
      <trkpt lat="44.80192" lon="-0.5311">
        <ele>4.4</ele>
        <time>2016-12-06T08:40:05Z</time>
      </trkpt>
      <trkpt lat="44.80197" lon="-0.53111">
        <ele>4.7</ele>
        <time>2016-12-06T08:40:06Z</time>
      </trkpt>
      <trkpt lat="44.80207" lon="-0.53114">
        <ele>4.9</ele>
        <time>2016-12-06T08:40:08Z</time>
      </trkpt>
      <trkpt lat="44.80213" lon="-0.53115">
        <ele>4.9</ele>
        <time>2016-12-06T08:40:09Z</time>
      </trkpt>
      <trkpt lat="44.80218" lon="-0.53116">
        <ele>5.4</ele>
        <time>2016-12-06T08:40:10Z</time>
      </trkpt>
      <trkpt lat="44.80229" lon="-0.53118">
        <ele>5.7</ele>
        <time>2016-12-06T08:40:12Z</time>
      </trkpt>
      <trkpt lat="44.80239" lon="-0.5312">
        <ele>6.3</ele>
        <time>2016-12-06T08:40:14Z</time>
      </trkpt>
      <trkpt lat="44.80249" lon="-0.53123">
        <ele>6.6</ele>
        <time>2016-12-06T08:40:16Z</time>
      </trkpt>
      <trkpt lat="44.80254" lon="-0.53124">
        <ele>6.7</ele>
        <time>2016-12-06T08:40:17Z</time>
      </trkpt>
      <trkpt lat="44.80262" lon="-0.53126">
        <ele>7.6</ele>
        <time>2016-12-06T08:40:19Z</time>
      </trkpt>
      <trkpt lat="44.80271" lon="-0.5313">
        <ele>7.7</ele>
        <time>2016-12-06T08:40:21Z</time>
      </trkpt>
      <trkpt lat="44.8028" lon="-0.53134">
        <ele>8</ele>
        <time>2016-12-06T08:40:23Z</time>
      </trkpt>
      <trkpt lat="44.80284" lon="-0.53137">
        <ele>8.2</ele>
        <time>2016-12-06T08:40:24Z</time>
      </trkpt>
      <trkpt lat="44.80292" lon="-0.53143">
        <ele>8</ele>
        <time>2016-12-06T08:40:26Z</time>
      </trkpt>
      <trkpt lat="44.803" lon="-0.53151">
        <ele>7.8</ele>
        <time>2016-12-06T08:40:28Z</time>
      </trkpt>
      <trkpt lat="44.80307" lon="-0.53161">
        <ele>7.5</ele>
        <time>2016-12-06T08:40:30Z</time>
      </trkpt>
      <trkpt lat="44.8031" lon="-0.53166">
        <ele>7.5</ele>
        <time>2016-12-06T08:40:31Z</time>
      </trkpt>
      <trkpt lat="44.80316" lon="-0.53177">
        <ele>7.6</ele>
        <time>2016-12-06T08:40:33Z</time>
      </trkpt>
      <trkpt lat="44.80322" lon="-0.53188">
        <ele>7.8</ele>
        <time>2016-12-06T08:40:35Z</time>
      </trkpt>
      <trkpt lat="44.80324" lon="-0.53194">
        <ele>8.1</ele>
        <time>2016-12-06T08:40:36Z</time>
      </trkpt>
      <trkpt lat="44.80327" lon="-0.532">
        <ele>8.3</ele>
        <time>2016-12-06T08:40:37Z</time>
      </trkpt>
      <trkpt lat="44.80331" lon="-0.53213">
        <ele>8.3</ele>
        <time>2016-12-06T08:40:39Z</time>
      </trkpt>
      <trkpt lat="44.80336" lon="-0.53227">
        <ele>8.6</ele>
        <time>2016-12-06T08:40:41Z</time>
      </trkpt>
      <trkpt lat="44.8034" lon="-0.53241">
        <ele>8.2</ele>
        <time>2016-12-06T08:40:43Z</time>
      </trkpt>
      <trkpt lat="44.80345" lon="-0.53255">
        <ele>8.9</ele>
        <time>2016-12-06T08:40:45Z</time>
      </trkpt>
      <trkpt lat="44.80347" lon="-0.53262">
        <ele>9.1</ele>
        <time>2016-12-06T08:40:46Z</time>
      </trkpt>
      <trkpt lat="44.80351" lon="-0.53277">
        <ele>8.8</ele>
        <time>2016-12-06T08:40:48Z</time>
      </trkpt>
      <trkpt lat="44.80354" lon="-0.5329">
        <ele>8.7</ele>
        <time>2016-12-06T08:40:50Z</time>
      </trkpt>
      <trkpt lat="44.80358" lon="-0.53304">
        <ele>8.5</ele>
        <time>2016-12-06T08:40:52Z</time>
      </trkpt>
      <trkpt lat="44.8036" lon="-0.53311">
        <ele>8.6</ele>
        <time>2016-12-06T08:40:53Z</time>
      </trkpt>
      <trkpt lat="44.80363" lon="-0.53324">
        <ele>7.9</ele>
        <time>2016-12-06T08:40:55Z</time>
      </trkpt>
      <trkpt lat="44.80367" lon="-0.53337">
        <ele>7.5</ele>
        <time>2016-12-06T08:40:57Z</time>
      </trkpt>
      <trkpt lat="44.8037" lon="-0.53349">
        <ele>7.4</ele>
        <time>2016-12-06T08:40:59Z</time>
      </trkpt>
      <trkpt lat="44.80372" lon="-0.53355">
        <ele>7</ele>
        <time>2016-12-06T08:41:00Z</time>
      </trkpt>
      <trkpt lat="44.80373" lon="-0.53361">
        <ele>6.7</ele>
        <time>2016-12-06T08:41:01Z</time>
      </trkpt>
      <trkpt lat="44.80377" lon="-0.53375">
        <ele>5.8</ele>
        <time>2016-12-06T08:41:03Z</time>
      </trkpt>
      <trkpt lat="44.80379" lon="-0.53382">
        <ele>5.7</ele>
        <time>2016-12-06T08:41:04Z</time>
      </trkpt>
      <trkpt lat="44.80381" lon="-0.53389">
        <ele>5.3</ele>
        <time>2016-12-06T08:41:05Z</time>
      </trkpt>
      <trkpt lat="44.80386" lon="-0.53405">
        <ele>4.3</ele>
        <time>2016-12-06T08:41:07Z</time>
      </trkpt>
      <trkpt lat="44.80388" lon="-0.53412">
        <ele>3.9</ele>
        <time>2016-12-06T08:41:08Z</time>
      </trkpt>
      <trkpt lat="44.80393" lon="-0.53426">
        <ele>3.3</ele>
        <time>2016-12-06T08:41:10Z</time>
      </trkpt>
      <trkpt lat="44.80395" lon="-0.53433">
        <ele>3</ele>
        <time>2016-12-06T08:41:11Z</time>
      </trkpt>
      <trkpt lat="44.80399" lon="-0.53446">
        <ele>2.6</ele>
        <time>2016-12-06T08:41:13Z</time>
      </trkpt>
      <trkpt lat="44.80402" lon="-0.53453">
        <ele>2.5</ele>
        <time>2016-12-06T08:41:14Z</time>
      </trkpt>
      <trkpt lat="44.80408" lon="-0.53467">
        <ele>2.2</ele>
        <time>2016-12-06T08:41:16Z</time>
      </trkpt>
      <trkpt lat="44.80411" lon="-0.53474">
        <ele>2.2</ele>
        <time>2016-12-06T08:41:17Z</time>
      </trkpt>
      <trkpt lat="44.80418" lon="-0.53488">
        <ele>1.7</ele>
        <time>2016-12-06T08:41:19Z</time>
      </trkpt>
      <trkpt lat="44.80424" lon="-0.53502">
        <ele>1.2</ele>
        <time>2016-12-06T08:41:21Z</time>
      </trkpt>
      <trkpt lat="44.8043" lon="-0.53516">
        <ele>1</ele>
        <time>2016-12-06T08:41:23Z</time>
      </trkpt>
      <trkpt lat="44.80438" lon="-0.53529">
        <ele>0.8</ele>
        <time>2016-12-06T08:41:25Z</time>
      </trkpt>
      <trkpt lat="44.80445" lon="-0.53542">
        <ele>0.2</ele>
        <time>2016-12-06T08:41:27Z</time>
      </trkpt>
      <trkpt lat="44.80452" lon="-0.53556">
        <ele>0.6</ele>
        <time>2016-12-06T08:41:29Z</time>
      </trkpt>
      <trkpt lat="44.80456" lon="-0.53563">
        <ele>0.6</ele>
        <time>2016-12-06T08:41:30Z</time>
      </trkpt>
      <trkpt lat="44.80463" lon="-0.53576">
        <ele>0.6</ele>
        <time>2016-12-06T08:41:32Z</time>
      </trkpt>
      <trkpt lat="44.80467" lon="-0.53582">
        <ele>0.6</ele>
        <time>2016-12-06T08:41:33Z</time>
      </trkpt>
      <trkpt lat="44.80474" lon="-0.53595">
        <ele>1.2</ele>
        <time>2016-12-06T08:41:35Z</time>
      </trkpt>
      <trkpt lat="44.80481" lon="-0.53608">
        <ele>0.6</ele>
        <time>2016-12-06T08:41:37Z</time>
      </trkpt>
      <trkpt lat="44.80488" lon="-0.5362">
        <ele>0.4</ele>
        <time>2016-12-06T08:41:39Z</time>
      </trkpt>
      <trkpt lat="44.80496" lon="-0.53634">
        <ele>1.1</ele>
        <time>2016-12-06T08:41:41Z</time>
      </trkpt>
      <trkpt lat="44.805" lon="-0.53641">
        <ele>1.2</ele>
        <time>2016-12-06T08:41:42Z</time>
      </trkpt>
      <trkpt lat="44.80504" lon="-0.53648">
        <ele>1.1</ele>
        <time>2016-12-06T08:41:43Z</time>
      </trkpt>
      <trkpt lat="44.80508" lon="-0.53655">
        <ele>0.9</ele>
        <time>2016-12-06T08:41:44Z</time>
      </trkpt>
      <trkpt lat="44.80515" lon="-0.53668">
        <ele>0.6</ele>
        <time>2016-12-06T08:41:46Z</time>
      </trkpt>
      <trkpt lat="44.80523" lon="-0.53681">
        <ele>0.8</ele>
        <time>2016-12-06T08:41:48Z</time>
      </trkpt>
      <trkpt lat="44.80526" lon="-0.53687">
        <ele>0.8</ele>
        <time>2016-12-06T08:41:49Z</time>
      </trkpt>
      <trkpt lat="44.80532" lon="-0.537">
        <ele>0.5</ele>
        <time>2016-12-06T08:41:51Z</time>
      </trkpt>
      <trkpt lat="44.80539" lon="-0.53712">
        <ele>0.2</ele>
        <time>2016-12-06T08:41:53Z</time>
      </trkpt>
      <trkpt lat="44.80544" lon="-0.53724">
        <ele>-0.7</ele>
        <time>2016-12-06T08:41:55Z</time>
      </trkpt>
      <trkpt lat="44.8055" lon="-0.53736">
        <ele>-1.4</ele>
        <time>2016-12-06T08:41:57Z</time>
      </trkpt>
      <trkpt lat="44.80553" lon="-0.53742">
        <ele>-1.6</ele>
        <time>2016-12-06T08:41:58Z</time>
      </trkpt>
      <trkpt lat="44.80556" lon="-0.53748">
        <ele>-2.1</ele>
        <time>2016-12-06T08:41:59Z</time>
      </trkpt>
      <trkpt lat="44.80558" lon="-0.53753">
        <ele>-2.5</ele>
        <time>2016-12-06T08:42:00Z</time>
      </trkpt>
      <trkpt lat="44.80565" lon="-0.53765">
        <ele>-2.8</ele>
        <time>2016-12-06T08:42:02Z</time>
      </trkpt>
      <trkpt lat="44.80568" lon="-0.53771">
        <ele>-3.2</ele>
        <time>2016-12-06T08:42:03Z</time>
      </trkpt>
      <trkpt lat="44.8057" lon="-0.53776">
        <ele>-3.4</ele>
        <time>2016-12-06T08:42:04Z</time>
      </trkpt>
      <trkpt lat="44.80574" lon="-0.53781">
        <ele>-3.5</ele>
        <time>2016-12-06T08:42:05Z</time>
      </trkpt>
      <trkpt lat="44.8058" lon="-0.53792">
        <ele>-3.7</ele>
        <time>2016-12-06T08:42:07Z</time>
      </trkpt>
      <trkpt lat="44.80583" lon="-0.53797">
        <ele>-3.9</ele>
        <time>2016-12-06T08:42:08Z</time>
      </trkpt>
      <trkpt lat="44.80588" lon="-0.53807">
        <ele>-4.7</ele>
        <time>2016-12-06T08:42:10Z</time>
      </trkpt>
      <trkpt lat="44.80592" lon="-0.53817">
        <ele>-5.4</ele>
        <time>2016-12-06T08:42:12Z</time>
      </trkpt>
      <trkpt lat="44.80596" lon="-0.53825">
        <ele>-6</ele>
        <time>2016-12-06T08:42:14Z</time>
      </trkpt>
      <trkpt lat="44.80601" lon="-0.53833">
        <ele>-6.7</ele>
        <time>2016-12-06T08:42:16Z</time>
      </trkpt>
      <trkpt lat="44.80606" lon="-0.5384">
        <ele>-7</ele>
        <time>2016-12-06T08:42:18Z</time>
      </trkpt>
      <trkpt lat="44.8061" lon="-0.53848">
        <ele>-7.2</ele>
        <time>2016-12-06T08:42:20Z</time>
      </trkpt>
      <trkpt lat="44.80613" lon="-0.53855">
        <ele>-7.4</ele>
        <time>2016-12-06T08:42:22Z</time>
      </trkpt>
      <trkpt lat="44.80616" lon="-0.53862">
        <ele>-6.9</ele>
        <time>2016-12-06T08:42:24Z</time>
      </trkpt>
      <trkpt lat="44.80619" lon="-0.53869">
        <ele>-7.1</ele>
        <time>2016-12-06T08:42:26Z</time>
      </trkpt>
      <trkpt lat="44.80622" lon="-0.53875">
        <ele>-7.3</ele>
        <time>2016-12-06T08:42:28Z</time>
      </trkpt>
      <trkpt lat="44.80628" lon="-0.53876">
        <ele>-7.1</ele>
        <time>2016-12-06T08:42:31Z</time>
      </trkpt>
      <trkpt lat="44.80633" lon="-0.53869">
        <ele>-5.5</ele>
        <time>2016-12-06T08:42:33Z</time>
      </trkpt>
      <trkpt lat="44.80639" lon="-0.53864">
        <ele>-5.4</ele>
        <time>2016-12-06T08:42:35Z</time>
      </trkpt>
      <trkpt lat="44.80647" lon="-0.53861">
        <ele>-4.7</ele>
        <time>2016-12-06T08:42:37Z</time>
      </trkpt>
      <trkpt lat="44.80655" lon="-0.5386">
        <ele>-4.4</ele>
        <time>2016-12-06T08:42:39Z</time>
      </trkpt>
      <trkpt lat="44.80661" lon="-0.53864">
        <ele>-4.8</ele>
        <time>2016-12-06T08:42:41Z</time>
      </trkpt>
      <trkpt lat="44.80666" lon="-0.5387">
        <ele>-4.8</ele>
        <time>2016-12-06T08:42:43Z</time>
      </trkpt>
      <trkpt lat="44.80673" lon="-0.53875">
        <ele>-5</ele>
        <time>2016-12-06T08:42:45Z</time>
      </trkpt>
      <trkpt lat="44.8068" lon="-0.5388">
        <ele>-5</ele>
        <time>2016-12-06T08:42:47Z</time>
      </trkpt>
      <trkpt lat="44.80687" lon="-0.53882">
        <ele>-5.3</ele>
        <time>2016-12-06T08:42:49Z</time>
      </trkpt>
      <trkpt lat="44.80695" lon="-0.5388">
        <ele>-4.5</ele>
        <time>2016-12-06T08:42:51Z</time>
      </trkpt>
      <trkpt lat="44.80702" lon="-0.53876">
        <ele>-4.7</ele>
        <time>2016-12-06T08:42:53Z</time>
      </trkpt>
      <trkpt lat="44.8071" lon="-0.53871">
        <ele>-4.2</ele>
        <time>2016-12-06T08:42:55Z</time>
      </trkpt>
      <trkpt lat="44.80718" lon="-0.53868">
        <ele>-3.4</ele>
        <time>2016-12-06T08:42:57Z</time>
      </trkpt>
      <trkpt lat="44.80723" lon="-0.53866">
        <ele>-2.6</ele>
        <time>2016-12-06T08:42:58Z</time>
      </trkpt>
      <trkpt lat="44.80732" lon="-0.53863">
        <ele>-1.7</ele>
        <time>2016-12-06T08:43:00Z</time>
      </trkpt>
      <trkpt lat="44.80737" lon="-0.53861">
        <ele>-1.5</ele>
        <time>2016-12-06T08:43:01Z</time>
      </trkpt>
      <trkpt lat="44.80745" lon="-0.53856">
        <ele>-2</ele>
        <time>2016-12-06T08:43:03Z</time>
      </trkpt>
      <trkpt lat="44.80753" lon="-0.53853">
        <ele>-1.4</ele>
        <time>2016-12-06T08:43:05Z</time>
      </trkpt>
      <trkpt lat="44.80761" lon="-0.5385">
        <ele>-1</ele>
        <time>2016-12-06T08:43:07Z</time>
      </trkpt>
      <trkpt lat="44.80769" lon="-0.53845">
        <ele>-0.9</ele>
        <time>2016-12-06T08:43:09Z</time>
      </trkpt>
      <trkpt lat="44.80774" lon="-0.53844">
        <ele>-0.5</ele>
        <time>2016-12-06T08:43:10Z</time>
      </trkpt>
      <trkpt lat="44.80783" lon="-0.5384">
        <ele>-0.5</ele>
        <time>2016-12-06T08:43:12Z</time>
      </trkpt>
      <trkpt lat="44.80791" lon="-0.53836">
        <ele>-0.5</ele>
        <time>2016-12-06T08:43:14Z</time>
      </trkpt>
      <trkpt lat="44.808" lon="-0.53828">
        <ele>-1.5</ele>
        <time>2016-12-06T08:43:16Z</time>
      </trkpt>
      <trkpt lat="44.80804" lon="-0.53824">
        <ele>-1.3</ele>
        <time>2016-12-06T08:43:17Z</time>
      </trkpt>
      <trkpt lat="44.80808" lon="-0.5382">
        <ele>-1.4</ele>
        <time>2016-12-06T08:43:18Z</time>
      </trkpt>
      <trkpt lat="44.80813" lon="-0.53817">
        <ele>-1.8</ele>
        <time>2016-12-06T08:43:19Z</time>
      </trkpt>
      <trkpt lat="44.8082" lon="-0.53812">
        <ele>-1.3</ele>
        <time>2016-12-06T08:43:21Z</time>
      </trkpt>
      <trkpt lat="44.80825" lon="-0.53807">
        <ele>-1.2</ele>
        <time>2016-12-06T08:43:23Z</time>
      </trkpt>
      <trkpt lat="44.80831" lon="-0.53809">
        <ele>-1.2</ele>
        <time>2016-12-06T08:43:59Z</time>
      </trkpt>
      <trkpt lat="44.80832" lon="-0.53816">
        <ele>-2.2</ele>
        <time>2016-12-06T08:44:01Z</time>
      </trkpt>
      <trkpt lat="44.80834" lon="-0.53824">
        <ele>-3.4</ele>
        <time>2016-12-06T08:44:03Z</time>
      </trkpt>
      <trkpt lat="44.80835" lon="-0.53835">
        <ele>-4.1</ele>
        <time>2016-12-06T08:44:05Z</time>
      </trkpt>
      <trkpt lat="44.80838" lon="-0.53846">
        <ele>-3.2</ele>
        <time>2016-12-06T08:44:07Z</time>
      </trkpt>
      <trkpt lat="44.80844" lon="-0.53857">
        <ele>-3</ele>
        <time>2016-12-06T08:44:09Z</time>
      </trkpt>
      <trkpt lat="44.8085" lon="-0.53869">
        <ele>-2.6</ele>
        <time>2016-12-06T08:44:11Z</time>
      </trkpt>
      <trkpt lat="44.80856" lon="-0.53882">
        <ele>-2.1</ele>
        <time>2016-12-06T08:44:13Z</time>
      </trkpt>
      <trkpt lat="44.80861" lon="-0.53894">
        <ele>-1.8</ele>
        <time>2016-12-06T08:44:15Z</time>
      </trkpt>
      <trkpt lat="44.80865" lon="-0.53907">
        <ele>-1.6</ele>
        <time>2016-12-06T08:44:17Z</time>
      </trkpt>
      <trkpt lat="44.80867" lon="-0.53914">
        <ele>-1.6</ele>
        <time>2016-12-06T08:44:18Z</time>
      </trkpt>
      <trkpt lat="44.80868" lon="-0.5392">
        <ele>-1.4</ele>
        <time>2016-12-06T08:44:19Z</time>
      </trkpt>
      <trkpt lat="44.80871" lon="-0.53934">
        <ele>-2</ele>
        <time>2016-12-06T08:44:21Z</time>
      </trkpt>
      <trkpt lat="44.80872" lon="-0.53941">
        <ele>-1.9</ele>
        <time>2016-12-06T08:44:22Z</time>
      </trkpt>
      <trkpt lat="44.80874" lon="-0.53956">
        <ele>-1.2</ele>
        <time>2016-12-06T08:44:24Z</time>
      </trkpt>
      <trkpt lat="44.80876" lon="-0.5397">
        <ele>-1.1</ele>
        <time>2016-12-06T08:44:26Z</time>
      </trkpt>
      <trkpt lat="44.80878" lon="-0.53983">
        <ele>-0.5</ele>
        <time>2016-12-06T08:44:28Z</time>
      </trkpt>
      <trkpt lat="44.80879" lon="-0.53998">
        <ele>-0.8</ele>
        <time>2016-12-06T08:44:30Z</time>
      </trkpt>
      <trkpt lat="44.8088" lon="-0.54012">
        <ele>-0.9</ele>
        <time>2016-12-06T08:44:32Z</time>
      </trkpt>
      <trkpt lat="44.8088" lon="-0.54018">
        <ele>-0.8</ele>
        <time>2016-12-06T08:44:33Z</time>
      </trkpt>
      <trkpt lat="44.8088" lon="-0.5403">
        <ele>-1.3</ele>
        <time>2016-12-06T08:44:35Z</time>
      </trkpt>
      <trkpt lat="44.8088" lon="-0.54041">
        <ele>-1.9</ele>
        <time>2016-12-06T08:44:37Z</time>
      </trkpt>
      <trkpt lat="44.80881" lon="-0.54052">
        <ele>-2.3</ele>
        <time>2016-12-06T08:44:39Z</time>
      </trkpt>
      <trkpt lat="44.80881" lon="-0.54059">
        <ele>-1.4</ele>
        <time>2016-12-06T08:45:25Z</time>
      </trkpt>
      <trkpt lat="44.8088" lon="-0.54065">
        <ele>-1.2</ele>
        <time>2016-12-06T08:45:28Z</time>
      </trkpt>
      <trkpt lat="44.8088" lon="-0.54073">
        <ele>-1</ele>
        <time>2016-12-06T08:45:30Z</time>
      </trkpt>
      <trkpt lat="44.8088" lon="-0.54083">
        <ele>-0.9</ele>
        <time>2016-12-06T08:45:32Z</time>
      </trkpt>
      <trkpt lat="44.80879" lon="-0.54095">
        <ele>-1.1</ele>
        <time>2016-12-06T08:45:34Z</time>
      </trkpt>
      <trkpt lat="44.80879" lon="-0.54109">
        <ele>-1.2</ele>
        <time>2016-12-06T08:45:36Z</time>
      </trkpt>
      <trkpt lat="44.80879" lon="-0.54116">
        <ele>-1.1</ele>
        <time>2016-12-06T08:45:37Z</time>
      </trkpt>
      <trkpt lat="44.80878" lon="-0.5413">
        <ele>-0.9</ele>
        <time>2016-12-06T08:45:39Z</time>
      </trkpt>
      <trkpt lat="44.80878" lon="-0.54137">
        <ele>-0.9</ele>
        <time>2016-12-06T08:45:40Z</time>
      </trkpt>
      <trkpt lat="44.80878" lon="-0.54151">
        <ele>-1.2</ele>
        <time>2016-12-06T08:45:42Z</time>
      </trkpt>
      <trkpt lat="44.80878" lon="-0.54163">
        <ele>-1.2</ele>
        <time>2016-12-06T08:45:44Z</time>
      </trkpt>
      <trkpt lat="44.80878" lon="-0.54175">
        <ele>-1.2</ele>
        <time>2016-12-06T08:45:46Z</time>
      </trkpt>
      <trkpt lat="44.80878" lon="-0.54186">
        <ele>-1.3</ele>
        <time>2016-12-06T08:45:48Z</time>
      </trkpt>
      <trkpt lat="44.80878" lon="-0.54198">
        <ele>-1.9</ele>
        <time>2016-12-06T08:45:50Z</time>
      </trkpt>
      <trkpt lat="44.80877" lon="-0.54208">
        <ele>-2.3</ele>
        <time>2016-12-06T08:45:52Z</time>
      </trkpt>
      <trkpt lat="44.80878" lon="-0.54217">
        <ele>-2.5</ele>
        <time>2016-12-06T08:45:54Z</time>
      </trkpt>
      <trkpt lat="44.8088" lon="-0.54224">
        <ele>-2.4</ele>
        <time>2016-12-06T08:45:56Z</time>
      </trkpt>
      <trkpt lat="44.80884" lon="-0.54227">
        <ele>-2.6</ele>
        <time>2016-12-06T08:45:58Z</time>
      </trkpt>
      <trkpt lat="44.80891" lon="-0.54226">
        <ele>-2.4</ele>
        <time>2016-12-06T08:46:00Z</time>
      </trkpt>
      <trkpt lat="44.80896" lon="-0.54226">
        <ele>-2.3</ele>
        <time>2016-12-06T08:46:01Z</time>
      </trkpt>
      <trkpt lat="44.80906" lon="-0.54225">
        <ele>-2.2</ele>
        <time>2016-12-06T08:46:03Z</time>
      </trkpt>
      <trkpt lat="44.80914" lon="-0.54224">
        <ele>-2.4</ele>
        <time>2016-12-06T08:46:05Z</time>
      </trkpt>
      <trkpt lat="44.80923" lon="-0.54223">
        <ele>-2.4</ele>
        <time>2016-12-06T08:46:07Z</time>
      </trkpt>
      <trkpt lat="44.80931" lon="-0.54221">
        <ele>-2.8</ele>
        <time>2016-12-06T08:46:09Z</time>
      </trkpt>
      <trkpt lat="44.80941" lon="-0.5422">
        <ele>-2.9</ele>
        <time>2016-12-06T08:46:11Z</time>
      </trkpt>
      <trkpt lat="44.8095" lon="-0.5422">
        <ele>-3.1</ele>
        <time>2016-12-06T08:46:13Z</time>
      </trkpt>
      <trkpt lat="44.80958" lon="-0.54225">
        <ele>-2.8</ele>
        <time>2016-12-06T08:46:15Z</time>
      </trkpt>
      <trkpt lat="44.80965" lon="-0.54235">
        <ele>-1.5</ele>
        <time>2016-12-06T08:46:17Z</time>
      </trkpt>
      <trkpt lat="44.80973" lon="-0.54247">
        <ele>-0.5</ele>
        <time>2016-12-06T08:46:19Z</time>
      </trkpt>
      <trkpt lat="44.8098" lon="-0.54259">
        <ele>-0.5</ele>
        <time>2016-12-06T08:46:21Z</time>
      </trkpt>
      <trkpt lat="44.80983" lon="-0.54266">
        <ele>5.4</ele>
        <time>2016-12-06T08:46:22Z</time>
      </trkpt>
      <trkpt lat="44.8099" lon="-0.54278">
        <ele>0.1</ele>
        <time>2016-12-06T08:46:24Z</time>
      </trkpt>
      <trkpt lat="44.80994" lon="-0.54284">
        <ele>0.1</ele>
        <time>2016-12-06T08:46:25Z</time>
      </trkpt>
      <trkpt lat="44.81" lon="-0.54296">
        <ele>5.3</ele>
        <time>2016-12-06T08:46:27Z</time>
      </trkpt>
      <trkpt lat="44.81004" lon="-0.54303">
        <ele>-0.2</ele>
        <time>2016-12-06T08:46:28Z</time>
      </trkpt>
      <trkpt lat="44.81011" lon="-0.54315">
        <ele>0.1</ele>
        <time>2016-12-06T08:46:30Z</time>
      </trkpt>
      <trkpt lat="44.81015" lon="-0.54321">
        <ele>0.2</ele>
        <time>2016-12-06T08:46:31Z</time>
      </trkpt>
      <trkpt lat="44.81022" lon="-0.54334">
        <ele>0.5</ele>
        <time>2016-12-06T08:46:33Z</time>
      </trkpt>
      <trkpt lat="44.81028" lon="-0.54346">
        <ele>5</ele>
        <time>2016-12-06T08:46:35Z</time>
      </trkpt>
      <trkpt lat="44.81035" lon="-0.54358">
        <ele>0.7</ele>
        <time>2016-12-06T08:46:37Z</time>
      </trkpt>
      <trkpt lat="44.81043" lon="-0.5437">
        <ele>1.2</ele>
        <time>2016-12-06T08:46:39Z</time>
      </trkpt>
      <trkpt lat="44.81046" lon="-0.54376">
        <ele>1.1</ele>
        <time>2016-12-06T08:46:40Z</time>
      </trkpt>
      <trkpt lat="44.81053" lon="-0.54388">
        <ele>0.5</ele>
        <time>2016-12-06T08:46:42Z</time>
      </trkpt>
      <trkpt lat="44.8106" lon="-0.54402">
        <ele>0.8</ele>
        <time>2016-12-06T08:46:44Z</time>
      </trkpt>
      <trkpt lat="44.81067" lon="-0.54415">
        <ele>0.7</ele>
        <time>2016-12-06T08:46:46Z</time>
      </trkpt>
      <trkpt lat="44.81075" lon="-0.54428">
        <ele>0.6</ele>
        <time>2016-12-06T08:46:48Z</time>
      </trkpt>
      <trkpt lat="44.81082" lon="-0.54441">
        <ele>0.9</ele>
        <time>2016-12-06T08:46:50Z</time>
      </trkpt>
      <trkpt lat="44.81085" lon="-0.54448">
        <ele>1.1</ele>
        <time>2016-12-06T08:46:51Z</time>
      </trkpt>
      <trkpt lat="44.81093" lon="-0.54462">
        <ele>1.1</ele>
        <time>2016-12-06T08:46:53Z</time>
      </trkpt>
      <trkpt lat="44.81096" lon="-0.54469">
        <ele>1.2</ele>
        <time>2016-12-06T08:46:54Z</time>
      </trkpt>
      <trkpt lat="44.81099" lon="-0.54476">
        <ele>1.5</ele>
        <time>2016-12-06T08:46:55Z</time>
      </trkpt>
      <trkpt lat="44.81102" lon="-0.54493">
        <ele>1.4</ele>
        <time>2016-12-06T08:46:57Z</time>
      </trkpt>
      <trkpt lat="44.81104" lon="-0.54501">
        <ele>1.3</ele>
        <time>2016-12-06T08:46:58Z</time>
      </trkpt>
      <trkpt lat="44.81107" lon="-0.54519">
        <ele>1.5</ele>
        <time>2016-12-06T08:47:00Z</time>
      </trkpt>
      <trkpt lat="44.81108" lon="-0.54527">
        <ele>1.5</ele>
        <time>2016-12-06T08:47:01Z</time>
      </trkpt>
      <trkpt lat="44.81111" lon="-0.54542">
        <ele>1.4</ele>
        <time>2016-12-06T08:47:03Z</time>
      </trkpt>
      <trkpt lat="44.81112" lon="-0.54549">
        <ele>1.2</ele>
        <time>2016-12-06T08:47:04Z</time>
      </trkpt>
      <trkpt lat="44.81115" lon="-0.54563">
        <ele>1.1</ele>
        <time>2016-12-06T08:47:06Z</time>
      </trkpt>
      <trkpt lat="44.81116" lon="-0.54569">
        <ele>1.2</ele>
        <time>2016-12-06T08:47:07Z</time>
      </trkpt>
      <trkpt lat="44.81117" lon="-0.54576">
        <ele>1.1</ele>
        <time>2016-12-06T08:47:08Z</time>
      </trkpt>
      <trkpt lat="44.81119" lon="-0.54588">
        <ele>1</ele>
        <time>2016-12-06T08:47:10Z</time>
      </trkpt>
      <trkpt lat="44.81121" lon="-0.546">
        <ele>0.9</ele>
        <time>2016-12-06T08:47:12Z</time>
      </trkpt>
      <trkpt lat="44.81122" lon="-0.54611">
        <ele>0.7</ele>
        <time>2016-12-06T08:47:14Z</time>
      </trkpt>
      <trkpt lat="44.81123" lon="-0.54621">
        <ele>0.3</ele>
        <time>2016-12-06T08:47:16Z</time>
      </trkpt>
      <trkpt lat="44.81123" lon="-0.54629">
        <ele>-0.1</ele>
        <time>2016-12-06T08:47:18Z</time>
      </trkpt>
      <trkpt lat="44.81116" lon="-0.54636">
        <ele>-0.8</ele>
        <time>2016-12-06T08:47:26Z</time>
      </trkpt>
      <trkpt lat="44.81109" lon="-0.5464">
        <ele>-1.3</ele>
        <time>2016-12-06T08:47:29Z</time>
      </trkpt>
      <trkpt lat="44.81102" lon="-0.54644">
        <ele>-1.5</ele>
        <time>2016-12-06T08:47:31Z</time>
      </trkpt>
      <trkpt lat="44.81097" lon="-0.54646">
        <ele>-1.8</ele>
        <time>2016-12-06T08:47:33Z</time>
      </trkpt>
      <trkpt lat="44.81092" lon="-0.54649">
        <ele>-2.1</ele>
        <time>2016-12-06T08:47:35Z</time>
      </trkpt>
      <trkpt lat="44.81087" lon="-0.54654">
        <ele>-2.2</ele>
        <time>2016-12-06T08:47:37Z</time>
      </trkpt>
      <trkpt lat="44.81085" lon="-0.54662">
        <ele>-2.2</ele>
        <time>2016-12-06T08:47:39Z</time>
      </trkpt>
      <trkpt lat="44.81089" lon="-0.54672">
        <ele>-1.6</ele>
        <time>2016-12-06T08:47:41Z</time>
      </trkpt>
      <trkpt lat="44.81092" lon="-0.54683">
        <ele>-1.2</ele>
        <time>2016-12-06T08:47:43Z</time>
      </trkpt>
      <trkpt lat="44.81095" lon="-0.54695">
        <ele>-0.8</ele>
        <time>2016-12-06T08:47:45Z</time>
      </trkpt>
      <trkpt lat="44.81098" lon="-0.54705">
        <ele>-0.8</ele>
        <time>2016-12-06T08:47:47Z</time>
      </trkpt>
      <trkpt lat="44.81101" lon="-0.54715">
        <ele>-0.6</ele>
        <time>2016-12-06T08:47:49Z</time>
      </trkpt>
      <trkpt lat="44.81103" lon="-0.54725">
        <ele>-0.8</ele>
        <time>2016-12-06T08:47:51Z</time>
      </trkpt>
      <trkpt lat="44.81104" lon="-0.54734">
        <ele>-0.8</ele>
        <time>2016-12-06T08:47:53Z</time>
      </trkpt>
      <trkpt lat="44.81105" lon="-0.54743">
        <ele>-1.2</ele>
        <time>2016-12-06T08:47:55Z</time>
      </trkpt>
      <trkpt lat="44.81108" lon="-0.54753">
        <ele>-1.4</ele>
        <time>2016-12-06T08:47:57Z</time>
      </trkpt>
      <trkpt lat="44.81111" lon="-0.54764">
        <ele>-1.9</ele>
        <time>2016-12-06T08:47:59Z</time>
      </trkpt>
      <trkpt lat="44.81114" lon="-0.54776">
        <ele>-2.4</ele>
        <time>2016-12-06T08:48:01Z</time>
      </trkpt>
      <trkpt lat="44.81118" lon="-0.54788">
        <ele>-3.3</ele>
        <time>2016-12-06T08:48:03Z</time>
      </trkpt>
      <trkpt lat="44.8112" lon="-0.54793">
        <ele>-3.6</ele>
        <time>2016-12-06T08:48:04Z</time>
      </trkpt>
      <trkpt lat="44.81124" lon="-0.54805">
        <ele>-4.3</ele>
        <time>2016-12-06T08:48:06Z</time>
      </trkpt>
      <trkpt lat="44.81129" lon="-0.54817">
        <ele>-4.5</ele>
        <time>2016-12-06T08:48:08Z</time>
      </trkpt>
      <trkpt lat="44.81132" lon="-0.54828">
        <ele>-5.2</ele>
        <time>2016-12-06T08:48:10Z</time>
      </trkpt>
      <trkpt lat="44.81135" lon="-0.54837">
        <ele>-6.3</ele>
        <time>2016-12-06T08:48:12Z</time>
      </trkpt>
      <trkpt lat="44.81138" lon="-0.54844">
        <ele>-6.8</ele>
        <time>2016-12-06T08:48:14Z</time>
      </trkpt>
      <trkpt lat="44.81144" lon="-0.54847">
        <ele>-6.5</ele>
        <time>2016-12-06T08:48:16Z</time>
      </trkpt>
      <trkpt lat="44.81151" lon="-0.54845">
        <ele>-6.6</ele>
        <time>2016-12-06T08:48:18Z</time>
      </trkpt>
      <trkpt lat="44.81159" lon="-0.54841">
        <ele>-6.8</ele>
        <time>2016-12-06T08:48:20Z</time>
      </trkpt>
      <trkpt lat="44.81166" lon="-0.54838">
        <ele>-7</ele>
        <time>2016-12-06T08:48:22Z</time>
      </trkpt>
      <trkpt lat="44.81174" lon="-0.54834">
        <ele>-7.5</ele>
        <time>2016-12-06T08:48:24Z</time>
      </trkpt>
      <trkpt lat="44.81179" lon="-0.54832">
        <ele>-7.7</ele>
        <time>2016-12-06T08:48:25Z</time>
      </trkpt>
      <trkpt lat="44.81188" lon="-0.54829">
        <ele>-7.8</ele>
        <time>2016-12-06T08:48:27Z</time>
      </trkpt>
      <trkpt lat="44.81198" lon="-0.54826">
        <ele>-8.1</ele>
        <time>2016-12-06T08:48:29Z</time>
      </trkpt>
      <trkpt lat="44.81207" lon="-0.54822">
        <ele>-8.3</ele>
        <time>2016-12-06T08:48:31Z</time>
      </trkpt>
      <trkpt lat="44.81212" lon="-0.5482">
        <ele>-8.5</ele>
        <time>2016-12-06T08:48:32Z</time>
      </trkpt>
      <trkpt lat="44.81223" lon="-0.54815">
        <ele>-9.3</ele>
        <time>2016-12-06T08:48:34Z</time>
      </trkpt>
      <trkpt lat="44.81228" lon="-0.54813">
        <ele>-9.6</ele>
        <time>2016-12-06T08:48:35Z</time>
      </trkpt>
      <trkpt lat="44.81233" lon="-0.5481">
        <ele>-10</ele>
        <time>2016-12-06T08:48:36Z</time>
      </trkpt>
      <trkpt lat="44.81243" lon="-0.54804">
        <ele>-10.9</ele>
        <time>2016-12-06T08:48:38Z</time>
      </trkpt>
      <trkpt lat="44.81253" lon="-0.54799">
        <ele>-10.6</ele>
        <time>2016-12-06T08:48:40Z</time>
      </trkpt>
      <trkpt lat="44.81261" lon="-0.54795">
        <ele>-11</ele>
        <time>2016-12-06T08:48:42Z</time>
      </trkpt>
      <trkpt lat="44.81269" lon="-0.54792">
        <ele>-11.2</ele>
        <time>2016-12-06T08:48:44Z</time>
      </trkpt>
      <trkpt lat="44.81277" lon="-0.54789">
        <ele>-11.2</ele>
        <time>2016-12-06T08:48:46Z</time>
      </trkpt>
      <trkpt lat="44.81286" lon="-0.54788">
        <ele>-9.2</ele>
        <time>2016-12-06T08:48:48Z</time>
      </trkpt>
      <trkpt lat="44.81292" lon="-0.54797">
        <ele>-8.2</ele>
        <time>2016-12-06T08:48:50Z</time>
      </trkpt>
      <trkpt lat="44.81297" lon="-0.5481">
        <ele>-7.6</ele>
        <time>2016-12-06T08:48:52Z</time>
      </trkpt>
      <trkpt lat="44.81301" lon="-0.54822">
        <ele>-7.7</ele>
        <time>2016-12-06T08:48:54Z</time>
      </trkpt>
      <trkpt lat="44.81305" lon="-0.54833">
        <ele>-6.8</ele>
        <time>2016-12-06T08:48:56Z</time>
      </trkpt>
      <trkpt lat="44.8131" lon="-0.54844">
        <ele>-6.1</ele>
        <time>2016-12-06T08:48:58Z</time>
      </trkpt>
      <trkpt lat="44.81314" lon="-0.54854">
        <ele>-5.2</ele>
        <time>2016-12-06T08:49:00Z</time>
      </trkpt>
      <trkpt lat="44.81318" lon="-0.54864">
        <ele>-5.5</ele>
        <time>2016-12-06T08:49:02Z</time>
      </trkpt>
      <trkpt lat="44.81322" lon="-0.54874">
        <ele>-5.1</ele>
        <time>2016-12-06T08:49:04Z</time>
      </trkpt>
      <trkpt lat="44.81329" lon="-0.54882">
        <ele>-4.4</ele>
        <time>2016-12-06T08:49:06Z</time>
      </trkpt>
      <trkpt lat="44.81337" lon="-0.54887">
        <ele>-3.8</ele>
        <time>2016-12-06T08:49:08Z</time>
      </trkpt>
      <trkpt lat="44.81348" lon="-0.54884">
        <ele>-3.2</ele>
        <time>2016-12-06T08:49:10Z</time>
      </trkpt>
      <trkpt lat="44.8136" lon="-0.54882">
        <ele>-2.4</ele>
        <time>2016-12-06T08:49:12Z</time>
      </trkpt>
      <trkpt lat="44.81366" lon="-0.54881">
        <ele>-1.9</ele>
        <time>2016-12-06T08:49:13Z</time>
      </trkpt>
      <trkpt lat="44.81373" lon="-0.5488">
        <ele>-1.2</ele>
        <time>2016-12-06T08:49:14Z</time>
      </trkpt>
      <trkpt lat="44.81384" lon="-0.54879">
        <ele>-0.2</ele>
        <time>2016-12-06T08:49:16Z</time>
      </trkpt>
      <trkpt lat="44.81396" lon="-0.54878">
        <ele>0.9</ele>
        <time>2016-12-06T08:49:18Z</time>
      </trkpt>
      <trkpt lat="44.81402" lon="-0.54878">
        <ele>1.1</ele>
        <time>2016-12-06T08:49:19Z</time>
      </trkpt>
      <trkpt lat="44.81414" lon="-0.54877">
        <ele>1.3</ele>
        <time>2016-12-06T08:49:21Z</time>
      </trkpt>
      <trkpt lat="44.8142" lon="-0.54877">
        <ele>2.2</ele>
        <time>2016-12-06T08:49:22Z</time>
      </trkpt>
      <trkpt lat="44.81432" lon="-0.54875">
        <ele>1.6</ele>
        <time>2016-12-06T08:49:24Z</time>
      </trkpt>
      <trkpt lat="44.81438" lon="-0.54875">
        <ele>1.4</ele>
        <time>2016-12-06T08:49:25Z</time>
      </trkpt>
      <trkpt lat="44.81445" lon="-0.54874">
        <ele>1.8</ele>
        <time>2016-12-06T08:49:26Z</time>
      </trkpt>
      <trkpt lat="44.81456" lon="-0.54873">
        <ele>1.8</ele>
        <time>2016-12-06T08:49:28Z</time>
      </trkpt>
      <trkpt lat="44.81467" lon="-0.54872">
        <ele>1.4</ele>
        <time>2016-12-06T08:49:30Z</time>
      </trkpt>
      <trkpt lat="44.81473" lon="-0.54871">
        <ele>1.5</ele>
        <time>2016-12-06T08:49:31Z</time>
      </trkpt>
      <trkpt lat="44.81478" lon="-0.5487">
        <ele>1.5</ele>
        <time>2016-12-06T08:49:32Z</time>
      </trkpt>
      <trkpt lat="44.81489" lon="-0.54865">
        <ele>2.1</ele>
        <time>2016-12-06T08:49:34Z</time>
      </trkpt>
      <trkpt lat="44.81494" lon="-0.54863">
        <ele>2.6</ele>
        <time>2016-12-06T08:49:35Z</time>
      </trkpt>
      <trkpt lat="44.81503" lon="-0.54862">
        <ele>2</ele>
        <time>2016-12-06T08:49:37Z</time>
      </trkpt>
      <trkpt lat="44.8151" lon="-0.54865">
        <ele>1.2</ele>
        <time>2016-12-06T08:49:39Z</time>
      </trkpt>
      <trkpt lat="44.81523" lon="-0.54866">
        <ele>1.2</ele>
        <time>2016-12-06T08:49:50Z</time>
      </trkpt>
      <trkpt lat="44.8153" lon="-0.54865">
        <ele>1.4</ele>
        <time>2016-12-06T08:49:52Z</time>
      </trkpt>
      <trkpt lat="44.8154" lon="-0.54863">
        <ele>1.6</ele>
        <time>2016-12-06T08:49:54Z</time>
      </trkpt>
      <trkpt lat="44.8155" lon="-0.54863">
        <ele>1.4</ele>
        <time>2016-12-06T08:49:56Z</time>
      </trkpt>
      <trkpt lat="44.81555" lon="-0.54863">
        <ele>1.3</ele>
        <time>2016-12-06T08:49:57Z</time>
      </trkpt>
      <trkpt lat="44.81565" lon="-0.54862">
        <ele>1.1</ele>
        <time>2016-12-06T08:49:59Z</time>
      </trkpt>
      <trkpt lat="44.81575" lon="-0.54861">
        <ele>1</ele>
        <time>2016-12-06T08:50:01Z</time>
      </trkpt>
      <trkpt lat="44.81584" lon="-0.54861">
        <ele>0.9</ele>
        <time>2016-12-06T08:50:03Z</time>
      </trkpt>
      <trkpt lat="44.81594" lon="-0.5486">
        <ele>0.8</ele>
        <time>2016-12-06T08:50:05Z</time>
      </trkpt>
      <trkpt lat="44.81599" lon="-0.54859">
        <ele>0.7</ele>
        <time>2016-12-06T08:50:06Z</time>
      </trkpt>
      <trkpt lat="44.81609" lon="-0.54857">
        <ele>-0.1</ele>
        <time>2016-12-06T08:50:08Z</time>
      </trkpt>
      <trkpt lat="44.81618" lon="-0.54856">
        <ele>-0.2</ele>
        <time>2016-12-06T08:50:10Z</time>
      </trkpt>
      <trkpt lat="44.81624" lon="-0.54855">
        <ele>-0.1</ele>
        <time>2016-12-06T08:50:11Z</time>
      </trkpt>
      <trkpt lat="44.81634" lon="-0.54853">
        <ele>0.4</ele>
        <time>2016-12-06T08:50:13Z</time>
      </trkpt>
      <trkpt lat="44.8164" lon="-0.54852">
        <ele>0.5</ele>
        <time>2016-12-06T08:50:14Z</time>
      </trkpt>
      <trkpt lat="44.8165" lon="-0.5485">
        <ele>1</ele>
        <time>2016-12-06T08:50:16Z</time>
      </trkpt>
      <trkpt lat="44.81655" lon="-0.54849">
        <ele>1.4</ele>
        <time>2016-12-06T08:50:17Z</time>
      </trkpt>
      <trkpt lat="44.81664" lon="-0.54848">
        <ele>1.7</ele>
        <time>2016-12-06T08:50:19Z</time>
      </trkpt>
      <trkpt lat="44.81669" lon="-0.54847">
        <ele>1.6</ele>
        <time>2016-12-06T08:50:21Z</time>
      </trkpt>
      <trkpt lat="44.81677" lon="-0.54846">
        <ele>1.3</ele>
        <time>2016-12-06T08:51:17Z</time>
      </trkpt>
      <trkpt lat="44.81685" lon="-0.54845">
        <ele>1.1</ele>
        <time>2016-12-06T08:51:19Z</time>
      </trkpt>
      <trkpt lat="44.81694" lon="-0.54844">
        <ele>0.8</ele>
        <time>2016-12-06T08:51:21Z</time>
      </trkpt>
      <trkpt lat="44.81704" lon="-0.54842">
        <ele>1</ele>
        <time>2016-12-06T08:51:23Z</time>
      </trkpt>
      <trkpt lat="44.81709" lon="-0.54842">
        <ele>0.3</ele>
        <time>2016-12-06T08:51:24Z</time>
      </trkpt>
      <trkpt lat="44.8172" lon="-0.54846">
        <ele>0.2</ele>
        <time>2016-12-06T08:51:26Z</time>
      </trkpt>
      <trkpt lat="44.81726" lon="-0.54848">
        <ele>0.4</ele>
        <time>2016-12-06T08:51:27Z</time>
      </trkpt>
      <trkpt lat="44.81736" lon="-0.54852">
        <ele>0.7</ele>
        <time>2016-12-06T08:51:29Z</time>
      </trkpt>
      <trkpt lat="44.8174" lon="-0.54854">
        <ele>1.1</ele>
        <time>2016-12-06T08:51:30Z</time>
      </trkpt>
      <trkpt lat="44.81748" lon="-0.54857">
        <ele>1.6</ele>
        <time>2016-12-06T08:51:32Z</time>
      </trkpt>
      <trkpt lat="44.81755" lon="-0.5486">
        <ele>2.7</ele>
        <time>2016-12-06T08:51:34Z</time>
      </trkpt>
      <trkpt lat="44.8176" lon="-0.54861">
        <ele>2.8</ele>
        <time>2016-12-06T08:51:36Z</time>
      </trkpt>
      <trkpt lat="44.81766" lon="-0.54863">
        <ele>3.8</ele>
        <time>2016-12-06T08:51:39Z</time>
      </trkpt>
      <trkpt lat="44.81771" lon="-0.54867">
        <ele>3.9</ele>
        <time>2016-12-06T08:51:42Z</time>
      </trkpt>
      <trkpt lat="44.81775" lon="-0.54868">
        <ele>4</ele>
        <time>2016-12-06T08:51:44Z</time>
      </trkpt>
      <trkpt lat="44.81782" lon="-0.5487">
        <ele>3.8</ele>
        <time>2016-12-06T08:51:47Z</time>
      </trkpt>
      <trkpt lat="44.81787" lon="-0.54871">
        <ele>4.2</ele>
        <time>2016-12-06T08:51:49Z</time>
      </trkpt>
      <trkpt lat="44.81793" lon="-0.54874">
        <ele>4.7</ele>
        <time>2016-12-06T08:51:51Z</time>
      </trkpt>
      <trkpt lat="44.81802" lon="-0.54877">
        <ele>5.1</ele>
        <time>2016-12-06T08:51:53Z</time>
      </trkpt>
      <trkpt lat="44.81813" lon="-0.54881">
        <ele>5.8</ele>
        <time>2016-12-06T08:51:55Z</time>
      </trkpt>
      <trkpt lat="44.81824" lon="-0.54887">
        <ele>5.5</ele>
        <time>2016-12-06T08:51:57Z</time>
      </trkpt>
      <trkpt lat="44.81829" lon="-0.54889">
        <ele>5.4</ele>
        <time>2016-12-06T08:51:58Z</time>
      </trkpt>
      <trkpt lat="44.81841" lon="-0.54893">
        <ele>5.8</ele>
        <time>2016-12-06T08:52:00Z</time>
      </trkpt>
      <trkpt lat="44.81853" lon="-0.54898">
        <ele>6.1</ele>
        <time>2016-12-06T08:52:02Z</time>
      </trkpt>
      <trkpt lat="44.81859" lon="-0.549">
        <ele>6.2</ele>
        <time>2016-12-06T08:52:03Z</time>
      </trkpt>
      <trkpt lat="44.81865" lon="-0.54902">
        <ele>6.4</ele>
        <time>2016-12-06T08:52:04Z</time>
      </trkpt>
      <trkpt lat="44.81871" lon="-0.54905">
        <ele>6.7</ele>
        <time>2016-12-06T08:52:05Z</time>
      </trkpt>
      <trkpt lat="44.81883" lon="-0.54909">
        <ele>7.7</ele>
        <time>2016-12-06T08:52:07Z</time>
      </trkpt>
      <trkpt lat="44.81896" lon="-0.54914">
        <ele>9.2</ele>
        <time>2016-12-06T08:52:09Z</time>
      </trkpt>
      <trkpt lat="44.81907" lon="-0.54919">
        <ele>8.9</ele>
        <time>2016-12-06T08:52:11Z</time>
      </trkpt>
      <trkpt lat="44.81917" lon="-0.54924">
        <ele>8.4</ele>
        <time>2016-12-06T08:52:13Z</time>
      </trkpt>
      <trkpt lat="44.81922" lon="-0.54927">
        <ele>8.2</ele>
        <time>2016-12-06T08:52:14Z</time>
      </trkpt>
      <trkpt lat="44.81931" lon="-0.54931">
        <ele>8.1</ele>
        <time>2016-12-06T08:52:16Z</time>
      </trkpt>
      <trkpt lat="44.81941" lon="-0.54935">
        <ele>8.3</ele>
        <time>2016-12-06T08:52:18Z</time>
      </trkpt>
      <trkpt lat="44.81945" lon="-0.54937">
        <ele>8.4</ele>
        <time>2016-12-06T08:52:19Z</time>
      </trkpt>
      <trkpt lat="44.81954" lon="-0.54941">
        <ele>7.7</ele>
        <time>2016-12-06T08:52:21Z</time>
      </trkpt>
      <trkpt lat="44.81962" lon="-0.54944">
        <ele>7.3</ele>
        <time>2016-12-06T08:52:23Z</time>
      </trkpt>
      <trkpt lat="44.81969" lon="-0.54947">
        <ele>7.2</ele>
        <time>2016-12-06T08:52:25Z</time>
      </trkpt>
      <trkpt lat="44.81975" lon="-0.5495">
        <ele>6.7</ele>
        <time>2016-12-06T08:52:27Z</time>
      </trkpt>
      <trkpt lat="44.8198" lon="-0.54952">
        <ele>6.4</ele>
        <time>2016-12-06T08:52:29Z</time>
      </trkpt>
      <trkpt lat="44.81984" lon="-0.54955">
        <ele>6</ele>
        <time>2016-12-06T08:52:31Z</time>
      </trkpt>
      <trkpt lat="44.81989" lon="-0.54957">
        <ele>5.2</ele>
        <time>2016-12-06T08:52:33Z</time>
      </trkpt>
      <trkpt lat="44.81998" lon="-0.5496">
        <ele>3.9</ele>
        <time>2016-12-06T08:53:19Z</time>
      </trkpt>
      <trkpt lat="44.82003" lon="-0.54963">
        <ele>3.9</ele>
        <time>2016-12-06T08:53:21Z</time>
      </trkpt>
      <trkpt lat="44.8201" lon="-0.54966">
        <ele>4</ele>
        <time>2016-12-06T08:53:23Z</time>
      </trkpt>
      <trkpt lat="44.82018" lon="-0.54969">
        <ele>4.3</ele>
        <time>2016-12-06T08:53:25Z</time>
      </trkpt>
      <trkpt lat="44.82028" lon="-0.54971">
        <ele>3.7</ele>
        <time>2016-12-06T08:53:27Z</time>
      </trkpt>
      <trkpt lat="44.82032" lon="-0.54973">
        <ele>3.1</ele>
        <time>2016-12-06T08:53:28Z</time>
      </trkpt>
      <trkpt lat="44.82038" lon="-0.54981">
        <ele>2.6</ele>
        <time>2016-12-06T08:53:30Z</time>
      </trkpt>
      <trkpt lat="44.82046" lon="-0.54985">
        <ele>2.1</ele>
        <time>2016-12-06T08:53:32Z</time>
      </trkpt>
      <trkpt lat="44.82051" lon="-0.54987">
        <ele>1.9</ele>
        <time>2016-12-06T08:53:33Z</time>
      </trkpt>
      <trkpt lat="44.82055" lon="-0.54988">
        <ele>2</ele>
        <time>2016-12-06T08:53:34Z</time>
      </trkpt>
      <trkpt lat="44.82064" lon="-0.54991">
        <ele>1.9</ele>
        <time>2016-12-06T08:53:36Z</time>
      </trkpt>
      <trkpt lat="44.82069" lon="-0.54993">
        <ele>1.5</ele>
        <time>2016-12-06T08:53:38Z</time>
      </trkpt>
      <trkpt lat="44.82074" lon="-0.54996">
        <ele>1.6</ele>
        <time>2016-12-06T08:53:40Z</time>
      </trkpt>
      <trkpt lat="44.8208" lon="-0.54998">
        <ele>1.2</ele>
        <time>2016-12-06T08:53:43Z</time>
      </trkpt>
      <trkpt lat="44.82089" lon="-0.54999">
        <ele>1.7</ele>
        <time>2016-12-06T08:53:50Z</time>
      </trkpt>
      <trkpt lat="44.82092" lon="-0.55007">
        <ele>2</ele>
        <time>2016-12-06T08:53:52Z</time>
      </trkpt>
      <trkpt lat="44.82092" lon="-0.55013">
        <ele>2.1</ele>
        <time>2016-12-06T08:53:53Z</time>
      </trkpt>
      <trkpt lat="44.82094" lon="-0.55028">
        <ele>2.4</ele>
        <time>2016-12-06T08:53:55Z</time>
      </trkpt>
      <trkpt lat="44.82096" lon="-0.55036">
        <ele>2.5</ele>
        <time>2016-12-06T08:53:56Z</time>
      </trkpt>
      <trkpt lat="44.82101" lon="-0.55052">
        <ele>2.8</ele>
        <time>2016-12-06T08:53:58Z</time>
      </trkpt>
      <trkpt lat="44.82106" lon="-0.55068">
        <ele>2.8</ele>
        <time>2016-12-06T08:54:00Z</time>
      </trkpt>
      <trkpt lat="44.82108" lon="-0.55076">
        <ele>3</ele>
        <time>2016-12-06T08:54:01Z</time>
      </trkpt>
      <trkpt lat="44.82111" lon="-0.55085">
        <ele>3</ele>
        <time>2016-12-06T08:54:02Z</time>
      </trkpt>
      <trkpt lat="44.82118" lon="-0.55101">
        <ele>3.1</ele>
        <time>2016-12-06T08:54:04Z</time>
      </trkpt>
      <trkpt lat="44.82121" lon="-0.55109">
        <ele>3.2</ele>
        <time>2016-12-06T08:54:05Z</time>
      </trkpt>
      <trkpt lat="44.82124" lon="-0.55118">
        <ele>3.2</ele>
        <time>2016-12-06T08:54:06Z</time>
      </trkpt>
      <trkpt lat="44.82127" lon="-0.55126">
        <ele>3.1</ele>
        <time>2016-12-06T08:54:07Z</time>
      </trkpt>
      <trkpt lat="44.82133" lon="-0.55142">
        <ele>3</ele>
        <time>2016-12-06T08:54:09Z</time>
      </trkpt>
      <trkpt lat="44.82139" lon="-0.55159">
        <ele>3.3</ele>
        <time>2016-12-06T08:54:11Z</time>
      </trkpt>
      <trkpt lat="44.82142" lon="-0.55168">
        <ele>3.5</ele>
        <time>2016-12-06T08:54:12Z</time>
      </trkpt>
      <trkpt lat="44.82147" lon="-0.55186">
        <ele>3.8</ele>
        <time>2016-12-06T08:54:14Z</time>
      </trkpt>
      <trkpt lat="44.82153" lon="-0.55205">
        <ele>3.7</ele>
        <time>2016-12-06T08:54:16Z</time>
      </trkpt>
      <trkpt lat="44.82159" lon="-0.55222">
        <ele>4.4</ele>
        <time>2016-12-06T08:54:18Z</time>
      </trkpt>
      <trkpt lat="44.82164" lon="-0.55239">
        <ele>4.2</ele>
        <time>2016-12-06T08:54:20Z</time>
      </trkpt>
      <trkpt lat="44.82167" lon="-0.55248">
        <ele>4.2</ele>
        <time>2016-12-06T08:54:21Z</time>
      </trkpt>
      <trkpt lat="44.82171" lon="-0.55264">
        <ele>4.8</ele>
        <time>2016-12-06T08:54:23Z</time>
      </trkpt>
      <trkpt lat="44.82176" lon="-0.5528">
        <ele>5</ele>
        <time>2016-12-06T08:54:25Z</time>
      </trkpt>
      <trkpt lat="44.82181" lon="-0.55297">
        <ele>5.4</ele>
        <time>2016-12-06T08:54:27Z</time>
      </trkpt>
      <trkpt lat="44.82186" lon="-0.55315">
        <ele>5.7</ele>
        <time>2016-12-06T08:54:29Z</time>
      </trkpt>
      <trkpt lat="44.82192" lon="-0.55332">
        <ele>5.8</ele>
        <time>2016-12-06T08:54:31Z</time>
      </trkpt>
      <trkpt lat="44.82194" lon="-0.5534">
        <ele>5.7</ele>
        <time>2016-12-06T08:54:32Z</time>
      </trkpt>
      <trkpt lat="44.822" lon="-0.55357">
        <ele>6.1</ele>
        <time>2016-12-06T08:54:34Z</time>
      </trkpt>
      <trkpt lat="44.82203" lon="-0.55365">
        <ele>6.2</ele>
        <time>2016-12-06T08:54:35Z</time>
      </trkpt>
      <trkpt lat="44.82205" lon="-0.55373">
        <ele>6.3</ele>
        <time>2016-12-06T08:54:36Z</time>
      </trkpt>
      <trkpt lat="44.82211" lon="-0.55388">
        <ele>6.3</ele>
        <time>2016-12-06T08:54:38Z</time>
      </trkpt>
      <trkpt lat="44.82214" lon="-0.55396">
        <ele>5.4</ele>
        <time>2016-12-06T08:54:39Z</time>
      </trkpt>
      <trkpt lat="44.82219" lon="-0.5541">
        <ele>4.2</ele>
        <time>2016-12-06T08:54:41Z</time>
      </trkpt>
      <trkpt lat="44.82224" lon="-0.55424">
        <ele>3.9</ele>
        <time>2016-12-06T08:54:43Z</time>
      </trkpt>
      <trkpt lat="44.82226" lon="-0.55432">
        <ele>3.8</ele>
        <time>2016-12-06T08:54:44Z</time>
      </trkpt>
      <trkpt lat="44.8223" lon="-0.55447">
        <ele>3.7</ele>
        <time>2016-12-06T08:54:46Z</time>
      </trkpt>
      <trkpt lat="44.82238" lon="-0.55457">
        <ele>4.2</ele>
        <time>2016-12-06T08:54:48Z</time>
      </trkpt>
      <trkpt lat="44.82242" lon="-0.55468">
        <ele>6.7</ele>
        <time>2016-12-06T08:54:50Z</time>
      </trkpt>
      <trkpt lat="44.82244" lon="-0.55474">
        <ele>6.7</ele>
        <time>2016-12-06T08:54:51Z</time>
      </trkpt>
      <trkpt lat="44.82248" lon="-0.55486">
        <ele>7</ele>
        <time>2016-12-06T08:54:53Z</time>
      </trkpt>
      <trkpt lat="44.82255" lon="-0.55497">
        <ele>7.4</ele>
        <time>2016-12-06T08:54:55Z</time>
      </trkpt>
      <trkpt lat="44.82264" lon="-0.55499">
        <ele>8.1</ele>
        <time>2016-12-06T08:54:57Z</time>
      </trkpt>
      <trkpt lat="44.82269" lon="-0.555">
        <ele>8.1</ele>
        <time>2016-12-06T08:54:58Z</time>
      </trkpt>
      <trkpt lat="44.82274" lon="-0.555">
        <ele>8.3</ele>
        <time>2016-12-06T08:54:59Z</time>
      </trkpt>
      <trkpt lat="44.82286" lon="-0.555">
        <ele>8.6</ele>
        <time>2016-12-06T08:55:01Z</time>
      </trkpt>
      <trkpt lat="44.82298" lon="-0.555">
        <ele>8.7</ele>
        <time>2016-12-06T08:55:03Z</time>
      </trkpt>
      <trkpt lat="44.82303" lon="-0.55501">
        <ele>8.8</ele>
        <time>2016-12-06T08:55:04Z</time>
      </trkpt>
      <trkpt lat="44.82314" lon="-0.55504">
        <ele>8.6</ele>
        <time>2016-12-06T08:55:06Z</time>
      </trkpt>
      <trkpt lat="44.82324" lon="-0.55513">
        <ele>8.2</ele>
        <time>2016-12-06T08:55:08Z</time>
      </trkpt>
      <trkpt lat="44.82332" lon="-0.55527">
        <ele>8.4</ele>
        <time>2016-12-06T08:55:10Z</time>
      </trkpt>
      <trkpt lat="44.82338" lon="-0.55541">
        <ele>9.1</ele>
        <time>2016-12-06T08:55:12Z</time>
      </trkpt>
      <trkpt lat="44.8234" lon="-0.55549">
        <ele>9.8</ele>
        <time>2016-12-06T08:55:13Z</time>
      </trkpt>
      <trkpt lat="44.82342" lon="-0.55556">
        <ele>9.9</ele>
        <time>2016-12-06T08:55:14Z</time>
      </trkpt>
      <trkpt lat="44.82344" lon="-0.55562">
        <ele>9.5</ele>
        <time>2016-12-06T08:55:15Z</time>
      </trkpt>
      <trkpt lat="44.82348" lon="-0.55574">
        <ele>9.8</ele>
        <time>2016-12-06T08:55:17Z</time>
      </trkpt>
      <trkpt lat="44.82351" lon="-0.55586">
        <ele>10</ele>
        <time>2016-12-06T08:55:19Z</time>
      </trkpt>
      <trkpt lat="44.82352" lon="-0.55592">
        <ele>9.8</ele>
        <time>2016-12-06T08:55:20Z</time>
      </trkpt>
      <trkpt lat="44.82354" lon="-0.55599">
        <ele>9.9</ele>
        <time>2016-12-06T08:55:21Z</time>
      </trkpt>
      <trkpt lat="44.82357" lon="-0.55612">
        <ele>9.8</ele>
        <time>2016-12-06T08:55:23Z</time>
      </trkpt>
      <trkpt lat="44.82358" lon="-0.55618">
        <ele>9.3</ele>
        <time>2016-12-06T08:55:24Z</time>
      </trkpt>
      <trkpt lat="44.82361" lon="-0.5563">
        <ele>8.8</ele>
        <time>2016-12-06T08:55:26Z</time>
      </trkpt>
      <trkpt lat="44.82363" lon="-0.5564">
        <ele>8.3</ele>
        <time>2016-12-06T08:55:28Z</time>
      </trkpt>
      <trkpt lat="44.82365" lon="-0.55651">
        <ele>8</ele>
        <time>2016-12-06T08:55:30Z</time>
      </trkpt>
      <trkpt lat="44.82367" lon="-0.55661">
        <ele>7.5</ele>
        <time>2016-12-06T08:55:32Z</time>
      </trkpt>
      <trkpt lat="44.82369" lon="-0.55671">
        <ele>5.8</ele>
        <time>2016-12-06T08:55:34Z</time>
      </trkpt>
      <trkpt lat="44.82371" lon="-0.55683">
        <ele>4.7</ele>
        <time>2016-12-06T08:55:36Z</time>
      </trkpt>
      <trkpt lat="44.82372" lon="-0.5569">
        <ele>4.1</ele>
        <time>2016-12-06T08:55:37Z</time>
      </trkpt>
      <trkpt lat="44.82374" lon="-0.55702">
        <ele>3.5</ele>
        <time>2016-12-06T08:55:39Z</time>
      </trkpt>
      <trkpt lat="44.82377" lon="-0.55716">
        <ele>3.2</ele>
        <time>2016-12-06T08:55:41Z</time>
      </trkpt>
      <trkpt lat="44.8238" lon="-0.55728">
        <ele>2.6</ele>
        <time>2016-12-06T08:55:43Z</time>
      </trkpt>
      <trkpt lat="44.82381" lon="-0.55735">
        <ele>2.4</ele>
        <time>2016-12-06T08:55:44Z</time>
      </trkpt>
      <trkpt lat="44.82384" lon="-0.55747">
        <ele>2.3</ele>
        <time>2016-12-06T08:55:46Z</time>
      </trkpt>
      <trkpt lat="44.82387" lon="-0.55758">
        <ele>1.9</ele>
        <time>2016-12-06T08:55:48Z</time>
      </trkpt>
      <trkpt lat="44.82389" lon="-0.55766">
        <ele>1.7</ele>
        <time>2016-12-06T08:55:50Z</time>
      </trkpt>
      <trkpt lat="44.82392" lon="-0.55771">
        <ele>1.6</ele>
        <time>2016-12-06T08:55:52Z</time>
      </trkpt>
      <trkpt lat="44.82398" lon="-0.55776">
        <ele>1.5</ele>
        <time>2016-12-06T08:55:54Z</time>
      </trkpt>
      <trkpt lat="44.82409" lon="-0.55776">
        <ele>1.7</ele>
        <time>2016-12-06T08:55:56Z</time>
      </trkpt>
      <trkpt lat="44.8242" lon="-0.55771">
        <ele>1.4</ele>
        <time>2016-12-06T08:55:58Z</time>
      </trkpt>
      <trkpt lat="44.82426" lon="-0.55768">
        <ele>1.2</ele>
        <time>2016-12-06T08:55:59Z</time>
      </trkpt>
      <trkpt lat="44.82432" lon="-0.55766">
        <ele>0.8</ele>
        <time>2016-12-06T08:56:00Z</time>
      </trkpt>
      <trkpt lat="44.82444" lon="-0.5576">
        <ele>-0.5</ele>
        <time>2016-12-06T08:56:02Z</time>
      </trkpt>
      <trkpt lat="44.82456" lon="-0.55754">
        <ele>-1.5</ele>
        <time>2016-12-06T08:56:04Z</time>
      </trkpt>
      <trkpt lat="44.82469" lon="-0.55747">
        <ele>-2.4</ele>
        <time>2016-12-06T08:56:06Z</time>
      </trkpt>
      <trkpt lat="44.82476" lon="-0.55743">
        <ele>-2.6</ele>
        <time>2016-12-06T08:56:07Z</time>
      </trkpt>
      <trkpt lat="44.82489" lon="-0.55736">
        <ele>-2.9</ele>
        <time>2016-12-06T08:56:09Z</time>
      </trkpt>
      <trkpt lat="44.82501" lon="-0.5573">
        <ele>-3.6</ele>
        <time>2016-12-06T08:56:11Z</time>
      </trkpt>
      <trkpt lat="44.82512" lon="-0.55726">
        <ele>-4.2</ele>
        <time>2016-12-06T08:56:13Z</time>
      </trkpt>
      <trkpt lat="44.82517" lon="-0.55725">
        <ele>-4.6</ele>
        <time>2016-12-06T08:56:14Z</time>
      </trkpt>
      <trkpt lat="44.82525" lon="-0.55722">
        <ele>-5</ele>
        <time>2016-12-06T08:56:16Z</time>
      </trkpt>
      <trkpt lat="44.82531" lon="-0.55721">
        <ele>-5.8</ele>
        <time>2016-12-06T08:56:18Z</time>
      </trkpt>
      <trkpt lat="44.82536" lon="-0.55721">
        <ele>-6.5</ele>
        <time>2016-12-06T08:56:20Z</time>
      </trkpt>
      <trkpt lat="44.82542" lon="-0.55719">
        <ele>-7.6</ele>
        <time>2016-12-06T08:56:22Z</time>
      </trkpt>
      <trkpt lat="44.8255" lon="-0.55717">
        <ele>-8.1</ele>
        <time>2016-12-06T08:56:24Z</time>
      </trkpt>
      <trkpt lat="44.82556" lon="-0.55714">
        <ele>-8.7</ele>
        <time>2016-12-06T08:56:26Z</time>
      </trkpt>
      <trkpt lat="44.8256" lon="-0.55709">
        <ele>-9.7</ele>
        <time>2016-12-06T08:56:28Z</time>
      </trkpt>
      <trkpt lat="44.82564" lon="-0.55704">
        <ele>-9.9</ele>
        <time>2016-12-06T08:56:30Z</time>
      </trkpt>
      <trkpt lat="44.82569" lon="-0.55699">
        <ele>-10.4</ele>
        <time>2016-12-06T08:56:33Z</time>
      </trkpt>
      <trkpt lat="44.82574" lon="-0.55696">
        <ele>-10.8</ele>
        <time>2016-12-06T08:56:36Z</time>
      </trkpt>
      <trkpt lat="44.82579" lon="-0.55693">
        <ele>-11.5</ele>
        <time>2016-12-06T08:56:39Z</time>
      </trkpt>
      <trkpt lat="44.82584" lon="-0.5569">
        <ele>-12.4</ele>
        <time>2016-12-06T08:56:42Z</time>
      </trkpt>
      <trkpt lat="44.8259" lon="-0.55684">
        <ele>-10.2</ele>
        <time>2016-12-06T08:56:45Z</time>
      </trkpt>
      <trkpt lat="44.82595" lon="-0.55682">
        <ele>-9.6</ele>
        <time>2016-12-06T08:56:47Z</time>
      </trkpt>
      <trkpt lat="44.82602" lon="-0.55682">
        <ele>-9.4</ele>
        <time>2016-12-06T08:56:51Z</time>
      </trkpt>
      <trkpt lat="44.82608" lon="-0.55681">
        <ele>-9.5</ele>
        <time>2016-12-06T08:56:53Z</time>
      </trkpt>
      <trkpt lat="44.82614" lon="-0.55678">
        <ele>-9.5</ele>
        <time>2016-12-06T08:56:55Z</time>
      </trkpt>
      <trkpt lat="44.8262" lon="-0.55675">
        <ele>-9.6</ele>
        <time>2016-12-06T08:56:57Z</time>
      </trkpt>
      <trkpt lat="44.82626" lon="-0.55669">
        <ele>-8.3</ele>
        <time>2016-12-06T08:56:59Z</time>
      </trkpt>
      <trkpt lat="44.82631" lon="-0.55666">
        <ele>-7.9</ele>
        <time>2016-12-06T08:57:01Z</time>
      </trkpt>
      <trkpt lat="44.82638" lon="-0.55665">
        <ele>-7.7</ele>
        <time>2016-12-06T08:57:04Z</time>
      </trkpt>
      <trkpt lat="44.82643" lon="-0.55663">
        <ele>-7.2</ele>
        <time>2016-12-06T08:57:06Z</time>
      </trkpt>
      <trkpt lat="44.82648" lon="-0.5566">
        <ele>-5.9</ele>
        <time>2016-12-06T08:57:08Z</time>
      </trkpt>
      <trkpt lat="44.82654" lon="-0.55658">
        <ele>-5.5</ele>
        <time>2016-12-06T08:57:10Z</time>
      </trkpt>
      <trkpt lat="44.82661" lon="-0.55655">
        <ele>-5.2</ele>
        <time>2016-12-06T08:57:12Z</time>
      </trkpt>
      <trkpt lat="44.82668" lon="-0.55652">
        <ele>-4.7</ele>
        <time>2016-12-06T08:57:14Z</time>
      </trkpt>
      <trkpt lat="44.82673" lon="-0.55651">
        <ele>-3.8</ele>
        <time>2016-12-06T08:57:16Z</time>
      </trkpt>
      <trkpt lat="44.82678" lon="-0.55652">
        <ele>-4.5</ele>
        <time>2016-12-06T08:57:18Z</time>
      </trkpt>
      <trkpt lat="44.82684" lon="-0.55654">
        <ele>-3.9</ele>
        <time>2016-12-06T08:57:20Z</time>
      </trkpt>
      <trkpt lat="44.82691" lon="-0.55657">
        <ele>-2.9</ele>
        <time>2016-12-06T08:57:22Z</time>
      </trkpt>
      <trkpt lat="44.82696" lon="-0.55657">
        <ele>-2.3</ele>
        <time>2016-12-06T08:57:24Z</time>
      </trkpt>
      <trkpt lat="44.82701" lon="-0.55656">
        <ele>-1.1</ele>
        <time>2016-12-06T08:57:26Z</time>
      </trkpt>
      <trkpt lat="44.82707" lon="-0.55659">
        <ele>0.9</ele>
        <time>2016-12-06T08:57:28Z</time>
      </trkpt>
      <trkpt lat="44.82712" lon="-0.5566">
        <ele>2.4</ele>
        <time>2016-12-06T08:57:31Z</time>
      </trkpt>
      <trkpt lat="44.82718" lon="-0.55658">
        <ele>3.1</ele>
        <time>2016-12-06T08:57:33Z</time>
      </trkpt>
      <trkpt lat="44.82724" lon="-0.55656">
        <ele>3.7</ele>
        <time>2016-12-06T08:57:35Z</time>
      </trkpt>
      <trkpt lat="44.8273" lon="-0.55653">
        <ele>4.4</ele>
        <time>2016-12-06T08:57:37Z</time>
      </trkpt>
      <trkpt lat="44.82735" lon="-0.55648">
        <ele>5.2</ele>
        <time>2016-12-06T08:57:39Z</time>
      </trkpt>
      <trkpt lat="44.8274" lon="-0.55644">
        <ele>5.6</ele>
        <time>2016-12-06T08:57:41Z</time>
      </trkpt>
      <trkpt lat="44.82747" lon="-0.55639">
        <ele>6.8</ele>
        <time>2016-12-06T08:58:05Z</time>
      </trkpt>
      <trkpt lat="44.82753" lon="-0.55635">
        <ele>6.3</ele>
        <time>2016-12-06T08:58:08Z</time>
      </trkpt>
      <trkpt lat="44.82759" lon="-0.55632">
        <ele>6.2</ele>
        <time>2016-12-06T08:58:10Z</time>
      </trkpt>
      <trkpt lat="44.82766" lon="-0.55626">
        <ele>6.2</ele>
        <time>2016-12-06T08:58:12Z</time>
      </trkpt>
      <trkpt lat="44.82772" lon="-0.5562">
        <ele>6.1</ele>
        <time>2016-12-06T08:58:14Z</time>
      </trkpt>
      <trkpt lat="44.8278" lon="-0.55614">
        <ele>5.9</ele>
        <time>2016-12-06T08:58:16Z</time>
      </trkpt>
      <trkpt lat="44.82786" lon="-0.55608">
        <ele>5.7</ele>
        <time>2016-12-06T08:58:18Z</time>
      </trkpt>
      <trkpt lat="44.82793" lon="-0.55602">
        <ele>5.5</ele>
        <time>2016-12-06T08:58:20Z</time>
      </trkpt>
      <trkpt lat="44.828" lon="-0.55596">
        <ele>5.3</ele>
        <time>2016-12-06T08:58:22Z</time>
      </trkpt>
      <trkpt lat="44.82806" lon="-0.55591">
        <ele>4</ele>
        <time>2016-12-06T08:58:24Z</time>
      </trkpt>
      <trkpt lat="44.82812" lon="-0.55585">
        <ele>3.4</ele>
        <time>2016-12-06T08:58:26Z</time>
      </trkpt>
      <trkpt lat="44.82819" lon="-0.55582">
        <ele>2.1</ele>
        <time>2016-12-06T08:58:28Z</time>
      </trkpt>
      <trkpt lat="44.82825" lon="-0.55577">
        <ele>1.3</ele>
        <time>2016-12-06T08:58:30Z</time>
      </trkpt>
      <trkpt lat="44.82829" lon="-0.55573">
        <ele>0.9</ele>
        <time>2016-12-06T08:58:32Z</time>
      </trkpt>
      <trkpt lat="44.82837" lon="-0.55562">
        <ele>-0.8</ele>
        <time>2016-12-06T08:58:42Z</time>
      </trkpt>
      <trkpt lat="44.82843" lon="-0.55556">
        <ele>-1</ele>
        <time>2016-12-06T08:58:44Z</time>
      </trkpt>
      <trkpt lat="44.8285" lon="-0.5555">
        <ele>-1.5</ele>
        <time>2016-12-06T08:58:46Z</time>
      </trkpt>
      <trkpt lat="44.82856" lon="-0.55544">
        <ele>-1.9</ele>
        <time>2016-12-06T08:58:48Z</time>
      </trkpt>
      <trkpt lat="44.82864" lon="-0.55538">
        <ele>-2</ele>
        <time>2016-12-06T08:58:50Z</time>
      </trkpt>
      <trkpt lat="44.8287" lon="-0.55532">
        <ele>-2.3</ele>
        <time>2016-12-06T08:58:52Z</time>
      </trkpt>
      <trkpt lat="44.82878" lon="-0.55526">
        <ele>-2.2</ele>
        <time>2016-12-06T08:58:54Z</time>
      </trkpt>
      <trkpt lat="44.82886" lon="-0.55521">
        <ele>-2.6</ele>
        <time>2016-12-06T08:58:56Z</time>
      </trkpt>
      <trkpt lat="44.82894" lon="-0.55517">
        <ele>-2.4</ele>
        <time>2016-12-06T08:58:58Z</time>
      </trkpt>
      <trkpt lat="44.82902" lon="-0.55511">
        <ele>-1.8</ele>
        <time>2016-12-06T08:59:00Z</time>
      </trkpt>
      <trkpt lat="44.8291" lon="-0.55507">
        <ele>-1.6</ele>
        <time>2016-12-06T08:59:02Z</time>
      </trkpt>
      <trkpt lat="44.82915" lon="-0.55501">
        <ele>-0.5</ele>
        <time>2016-12-06T08:59:04Z</time>
      </trkpt>
      <trkpt lat="44.8292" lon="-0.55498">
        <ele>0.4</ele>
        <time>2016-12-06T08:59:06Z</time>
      </trkpt>
      <trkpt lat="44.82925" lon="-0.55504">
        <ele>0.4</ele>
        <time>2016-12-06T08:59:09Z</time>
      </trkpt>
      <trkpt lat="44.82929" lon="-0.55511">
        <ele>-0.5</ele>
        <time>2016-12-06T08:59:11Z</time>
      </trkpt>
      <trkpt lat="44.82932" lon="-0.55518">
        <ele>-0.9</ele>
        <time>2016-12-06T08:59:13Z</time>
      </trkpt>
      <trkpt lat="44.82936" lon="-0.55526">
        <ele>-1</ele>
        <time>2016-12-06T08:59:15Z</time>
      </trkpt>
      <trkpt lat="44.8294" lon="-0.55534">
        <ele>-1.1</ele>
        <time>2016-12-06T08:59:17Z</time>
      </trkpt>
      <trkpt lat="44.82944" lon="-0.55543">
        <ele>-2.3</ele>
        <time>2016-12-06T08:59:19Z</time>
      </trkpt>
      <trkpt lat="44.82947" lon="-0.55551">
        <ele>-2.8</ele>
        <time>2016-12-06T08:59:21Z</time>
      </trkpt>
      <trkpt lat="44.82951" lon="-0.55558">
        <ele>-3</ele>
        <time>2016-12-06T08:59:23Z</time>
      </trkpt>
      <trkpt lat="44.82953" lon="-0.55564">
        <ele>-3.2</ele>
        <time>2016-12-06T08:59:25Z</time>
      </trkpt>
      <trkpt lat="44.82957" lon="-0.55569">
        <ele>-3.8</ele>
        <time>2016-12-06T08:59:27Z</time>
      </trkpt>
      <trkpt lat="44.8296" lon="-0.55576">
        <ele>-4.4</ele>
        <time>2016-12-06T08:59:29Z</time>
      </trkpt>
      <trkpt lat="44.82962" lon="-0.55583">
        <ele>-5</ele>
        <time>2016-12-06T08:59:31Z</time>
      </trkpt>
      <trkpt lat="44.82964" lon="-0.55589">
        <ele>-6</ele>
        <time>2016-12-06T08:59:33Z</time>
      </trkpt>
      <trkpt lat="44.82968" lon="-0.55596">
        <ele>-6.3</ele>
        <time>2016-12-06T09:00:05Z</time>
      </trkpt>
      <trkpt lat="44.82974" lon="-0.55599">
        <ele>-6.4</ele>
        <time>2016-12-06T09:00:07Z</time>
      </trkpt>
      <trkpt lat="44.82983" lon="-0.55599">
        <ele>-6.2</ele>
        <time>2016-12-06T09:00:09Z</time>
      </trkpt>
      <trkpt lat="44.82988" lon="-0.55598">
        <ele>-6</ele>
        <time>2016-12-06T09:00:10Z</time>
      </trkpt>
      <trkpt lat="44.82997" lon="-0.55593">
        <ele>-5.7</ele>
        <time>2016-12-06T09:00:12Z</time>
      </trkpt>
      <trkpt lat="44.83004" lon="-0.55586">
        <ele>-5.3</ele>
        <time>2016-12-06T09:00:14Z</time>
      </trkpt>
      <trkpt lat="44.83011" lon="-0.55577">
        <ele>-4.9</ele>
        <time>2016-12-06T09:00:16Z</time>
      </trkpt>
      <trkpt lat="44.83018" lon="-0.55569">
        <ele>-4.4</ele>
        <time>2016-12-06T09:00:18Z</time>
      </trkpt>
      <trkpt lat="44.83023" lon="-0.55562">
        <ele>-4.3</ele>
        <time>2016-12-06T09:00:20Z</time>
      </trkpt>
      <trkpt lat="44.83028" lon="-0.55557">
        <ele>-4.2</ele>
        <time>2016-12-06T09:00:22Z</time>
      </trkpt>
      <trkpt lat="44.83036" lon="-0.55547">
        <ele>-4.1</ele>
        <time>2016-12-06T09:00:24Z</time>
      </trkpt>
      <trkpt lat="44.8304" lon="-0.55541">
        <ele>-4</ele>
        <time>2016-12-06T09:00:25Z</time>
      </trkpt>
      <trkpt lat="44.83048" lon="-0.55529">
        <ele>-3.8</ele>
        <time>2016-12-06T09:00:27Z</time>
      </trkpt>
      <trkpt lat="44.83051" lon="-0.55523">
        <ele>-3.7</ele>
        <time>2016-12-06T09:00:28Z</time>
      </trkpt>
      <trkpt lat="44.83058" lon="-0.55513">
        <ele>-3.2</ele>
        <time>2016-12-06T09:00:30Z</time>
      </trkpt>
      <trkpt lat="44.83063" lon="-0.55503">
        <ele>-3.4</ele>
        <time>2016-12-06T09:00:32Z</time>
      </trkpt>
      <trkpt lat="44.83064" lon="-0.55493">
        <ele>-3.4</ele>
        <time>2016-12-06T09:00:34Z</time>
      </trkpt>
      <trkpt lat="44.83059" lon="-0.55486">
        <ele>-3</ele>
        <time>2016-12-06T09:00:36Z</time>
      </trkpt>
      <trkpt lat="44.83055" lon="-0.55484">
        <ele>-2.5</ele>
        <time>2016-12-06T09:00:37Z</time>
      </trkpt>
      <trkpt lat="44.83046" lon="-0.55483">
        <ele>-1.9</ele>
        <time>2016-12-06T09:00:39Z</time>
      </trkpt>
      <trkpt lat="44.83037" lon="-0.55489">
        <ele>-2.2</ele>
        <time>2016-12-06T09:00:41Z</time>
      </trkpt>
      <trkpt lat="44.83031" lon="-0.55499">
        <ele>-2.5</ele>
        <time>2016-12-06T09:00:43Z</time>
      </trkpt>
      <trkpt lat="44.83027" lon="-0.5551">
        <ele>-2.4</ele>
        <time>2016-12-06T09:00:45Z</time>
      </trkpt>
      <trkpt lat="44.83028" lon="-0.55523">
        <ele>-2.5</ele>
        <time>2016-12-06T09:00:47Z</time>
      </trkpt>
      <trkpt lat="44.83032" lon="-0.55535">
        <ele>-2.7</ele>
        <time>2016-12-06T09:00:49Z</time>
      </trkpt>
      <trkpt lat="44.83039" lon="-0.55545">
        <ele>-2</ele>
        <time>2016-12-06T09:00:51Z</time>
      </trkpt>
      <trkpt lat="44.83048" lon="-0.55551">
        <ele>-1.1</ele>
        <time>2016-12-06T09:00:53Z</time>
      </trkpt>
      <trkpt lat="44.83057" lon="-0.55553">
        <ele>-0.2</ele>
        <time>2016-12-06T09:00:55Z</time>
      </trkpt>
      <trkpt lat="44.83067" lon="-0.55553">
        <ele>0.8</ele>
        <time>2016-12-06T09:00:57Z</time>
      </trkpt>
      <trkpt lat="44.83075" lon="-0.55548">
        <ele>1.4</ele>
        <time>2016-12-06T09:00:59Z</time>
      </trkpt>
      <trkpt lat="44.83084" lon="-0.55541">
        <ele>2.2</ele>
        <time>2016-12-06T09:01:01Z</time>
      </trkpt>
      <trkpt lat="44.83092" lon="-0.55532">
        <ele>3.4</ele>
        <time>2016-12-06T09:01:03Z</time>
      </trkpt>
      <trkpt lat="44.83101" lon="-0.55524">
        <ele>4.5</ele>
        <time>2016-12-06T09:01:05Z</time>
      </trkpt>
      <trkpt lat="44.83106" lon="-0.5552">
        <ele>4.7</ele>
        <time>2016-12-06T09:01:06Z</time>
      </trkpt>
      <trkpt lat="44.8311" lon="-0.55515">
        <ele>5</ele>
        <time>2016-12-06T09:01:07Z</time>
      </trkpt>
      <trkpt lat="44.83114" lon="-0.55511">
        <ele>5.3</ele>
        <time>2016-12-06T09:01:08Z</time>
      </trkpt>
      <trkpt lat="44.83122" lon="-0.55504">
        <ele>6</ele>
        <time>2016-12-06T09:01:10Z</time>
      </trkpt>
      <trkpt lat="44.83126" lon="-0.555">
        <ele>5.9</ele>
        <time>2016-12-06T09:01:11Z</time>
      </trkpt>
      <trkpt lat="44.83134" lon="-0.55492">
        <ele>6.2</ele>
        <time>2016-12-06T09:01:13Z</time>
      </trkpt>
      <trkpt lat="44.83138" lon="-0.55488">
        <ele>6.5</ele>
        <time>2016-12-06T09:01:14Z</time>
      </trkpt>
      <trkpt lat="44.83147" lon="-0.5548">
        <ele>7</ele>
        <time>2016-12-06T09:01:16Z</time>
      </trkpt>
      <trkpt lat="44.83151" lon="-0.55476">
        <ele>7.1</ele>
        <time>2016-12-06T09:01:17Z</time>
      </trkpt>
      <trkpt lat="44.83159" lon="-0.55469">
        <ele>7.3</ele>
        <time>2016-12-06T09:01:19Z</time>
      </trkpt>
      <trkpt lat="44.83166" lon="-0.55462">
        <ele>7.3</ele>
        <time>2016-12-06T09:01:21Z</time>
      </trkpt>
      <trkpt lat="44.8317" lon="-0.55459">
        <ele>7.4</ele>
        <time>2016-12-06T09:01:22Z</time>
      </trkpt>
      <trkpt lat="44.83179" lon="-0.5545">
        <ele>7.1</ele>
        <time>2016-12-06T09:01:24Z</time>
      </trkpt>
      <trkpt lat="44.83184" lon="-0.55446">
        <ele>6.8</ele>
        <time>2016-12-06T09:01:25Z</time>
      </trkpt>
      <trkpt lat="44.83193" lon="-0.55435">
        <ele>6.8</ele>
        <time>2016-12-06T09:01:27Z</time>
      </trkpt>
      <trkpt lat="44.83198" lon="-0.5543">
        <ele>7</ele>
        <time>2016-12-06T09:01:28Z</time>
      </trkpt>
      <trkpt lat="44.83208" lon="-0.5542">
        <ele>7.5</ele>
        <time>2016-12-06T09:01:30Z</time>
      </trkpt>
      <trkpt lat="44.83219" lon="-0.55409">
        <ele>7.2</ele>
        <time>2016-12-06T09:01:32Z</time>
      </trkpt>
      <trkpt lat="44.8323" lon="-0.55398">
        <ele>7.2</ele>
        <time>2016-12-06T09:01:34Z</time>
      </trkpt>
      <trkpt lat="44.83241" lon="-0.55387">
        <ele>6.8</ele>
        <time>2016-12-06T09:01:36Z</time>
      </trkpt>
      <trkpt lat="44.83252" lon="-0.55376">
        <ele>6.9</ele>
        <time>2016-12-06T09:01:38Z</time>
      </trkpt>
      <trkpt lat="44.83258" lon="-0.5537">
        <ele>7.3</ele>
        <time>2016-12-06T09:01:39Z</time>
      </trkpt>
      <trkpt lat="44.83263" lon="-0.55365">
        <ele>7.5</ele>
        <time>2016-12-06T09:01:40Z</time>
      </trkpt>
      <trkpt lat="44.83274" lon="-0.55354">
        <ele>7.8</ele>
        <time>2016-12-06T09:01:42Z</time>
      </trkpt>
      <trkpt lat="44.8328" lon="-0.55349">
        <ele>7.8</ele>
        <time>2016-12-06T09:01:43Z</time>
      </trkpt>
      <trkpt lat="44.8329" lon="-0.55338">
        <ele>7.8</ele>
        <time>2016-12-06T09:01:45Z</time>
      </trkpt>
      <trkpt lat="44.833" lon="-0.55328">
        <ele>7.6</ele>
        <time>2016-12-06T09:01:47Z</time>
      </trkpt>
      <trkpt lat="44.8331" lon="-0.55318">
        <ele>7.4</ele>
        <time>2016-12-06T09:01:49Z</time>
      </trkpt>
      <trkpt lat="44.8332" lon="-0.55309">
        <ele>7.4</ele>
        <time>2016-12-06T09:01:51Z</time>
      </trkpt>
      <trkpt lat="44.83326" lon="-0.55303">
        <ele>7.3</ele>
        <time>2016-12-06T09:01:52Z</time>
      </trkpt>
      <trkpt lat="44.83336" lon="-0.55293">
        <ele>7.1</ele>
        <time>2016-12-06T09:01:54Z</time>
      </trkpt>
      <trkpt lat="44.83341" lon="-0.55288">
        <ele>6.8</ele>
        <time>2016-12-06T09:01:55Z</time>
      </trkpt>
      <trkpt lat="44.83351" lon="-0.55278">
        <ele>6.5</ele>
        <time>2016-12-06T09:01:57Z</time>
      </trkpt>
      <trkpt lat="44.83356" lon="-0.55273">
        <ele>6.4</ele>
        <time>2016-12-06T09:01:58Z</time>
      </trkpt>
      <trkpt lat="44.83365" lon="-0.55264">
        <ele>6</ele>
        <time>2016-12-06T09:02:00Z</time>
      </trkpt>
      <trkpt lat="44.8337" lon="-0.5526">
        <ele>6</ele>
        <time>2016-12-06T09:02:01Z</time>
      </trkpt>
      <trkpt lat="44.83379" lon="-0.55251">
        <ele>6</ele>
        <time>2016-12-06T09:02:03Z</time>
      </trkpt>
      <trkpt lat="44.83383" lon="-0.55246">
        <ele>6</ele>
        <time>2016-12-06T09:02:04Z</time>
      </trkpt>
      <trkpt lat="44.83392" lon="-0.55237">
        <ele>6.3</ele>
        <time>2016-12-06T09:02:06Z</time>
      </trkpt>
      <trkpt lat="44.83402" lon="-0.55228">
        <ele>6.9</ele>
        <time>2016-12-06T09:02:08Z</time>
      </trkpt>
      <trkpt lat="44.8341" lon="-0.55219">
        <ele>7.2</ele>
        <time>2016-12-06T09:02:10Z</time>
      </trkpt>
      <trkpt lat="44.83417" lon="-0.55208">
        <ele>6.8</ele>
        <time>2016-12-06T09:02:12Z</time>
      </trkpt>
      <trkpt lat="44.8342" lon="-0.55201">
        <ele>6.6</ele>
        <time>2016-12-06T09:02:13Z</time>
      </trkpt>
      <trkpt lat="44.83422" lon="-0.55187">
        <ele>6.2</ele>
        <time>2016-12-06T09:02:15Z</time>
      </trkpt>
      <trkpt lat="44.83418" lon="-0.55172">
        <ele>5.7</ele>
        <time>2016-12-06T09:02:17Z</time>
      </trkpt>
      <trkpt lat="44.83414" lon="-0.55164">
        <ele>5.7</ele>
        <time>2016-12-06T09:02:18Z</time>
      </trkpt>
      <trkpt lat="44.83406" lon="-0.55149">
        <ele>5.3</ele>
        <time>2016-12-06T09:02:20Z</time>
      </trkpt>
      <trkpt lat="44.83398" lon="-0.55132">
        <ele>5</ele>
        <time>2016-12-06T09:02:22Z</time>
      </trkpt>
      <trkpt lat="44.83393" lon="-0.55123">
        <ele>4.7</ele>
        <time>2016-12-06T09:02:23Z</time>
      </trkpt>
      <trkpt lat="44.83385" lon="-0.55107">
        <ele>3.2</ele>
        <time>2016-12-06T09:02:25Z</time>
      </trkpt>
      <trkpt lat="44.83381" lon="-0.55099">
        <ele>3</ele>
        <time>2016-12-06T09:02:26Z</time>
      </trkpt>
      <trkpt lat="44.83374" lon="-0.55083">
        <ele>2.2</ele>
        <time>2016-12-06T09:02:28Z</time>
      </trkpt>
      <trkpt lat="44.83367" lon="-0.55069">
        <ele>1.9</ele>
        <time>2016-12-06T09:02:30Z</time>
      </trkpt>
      <trkpt lat="44.83361" lon="-0.55058">
        <ele>1.9</ele>
        <time>2016-12-06T09:02:32Z</time>
      </trkpt>
      <trkpt lat="44.83359" lon="-0.55052">
        <ele>0.7</ele>
        <time>2016-12-06T09:02:35Z</time>
      </trkpt>
      <trkpt lat="44.83364" lon="-0.55049">
        <ele>-1.5</ele>
        <time>2016-12-06T09:02:43Z</time>
      </trkpt>
      <trkpt lat="44.83369" lon="-0.55051">
        <ele>-0.9</ele>
        <time>2016-12-06T09:02:46Z</time>
      </trkpt>
      <trkpt lat="44.83372" lon="-0.55056">
        <ele>-1.1</ele>
        <time>2016-12-06T09:02:48Z</time>
      </trkpt>
      <trkpt lat="44.83376" lon="-0.55062">
        <ele>-1.9</ele>
        <time>2016-12-06T09:02:51Z</time>
      </trkpt>
      <trkpt lat="44.83378" lon="-0.5507">
        <ele>-3.8</ele>
        <time>2016-12-06T09:02:54Z</time>
      </trkpt>
      <trkpt lat="44.83383" lon="-0.55072">
        <ele>-5.4</ele>
        <time>2016-12-06T09:04:35Z</time>
      </trkpt>
      <trkpt lat="44.83389" lon="-0.5507">
        <ele>-5.9</ele>
        <time>2016-12-06T09:04:37Z</time>
      </trkpt>
      <trkpt lat="44.83396" lon="-0.55074">
        <ele>-6.2</ele>
        <time>2016-12-06T09:04:39Z</time>
      </trkpt>
      <trkpt lat="44.83402" lon="-0.55082">
        <ele>-6.3</ele>
        <time>2016-12-06T09:04:41Z</time>
      </trkpt>
      <trkpt lat="44.83406" lon="-0.55092">
        <ele>-6.8</ele>
        <time>2016-12-06T09:04:43Z</time>
      </trkpt>
      <trkpt lat="44.8341" lon="-0.55103">
        <ele>-8</ele>
        <time>2016-12-06T09:04:45Z</time>
      </trkpt>
      <trkpt lat="44.83413" lon="-0.55108">
        <ele>-8.6</ele>
        <time>2016-12-06T09:04:46Z</time>
      </trkpt>
      <trkpt lat="44.83416" lon="-0.55114">
        <ele>-8.6</ele>
        <time>2016-12-06T09:04:47Z</time>
      </trkpt>
      <trkpt lat="44.83421" lon="-0.55126">
        <ele>-9.3</ele>
        <time>2016-12-06T09:04:49Z</time>
      </trkpt>
      <trkpt lat="44.83427" lon="-0.55139">
        <ele>-9.4</ele>
        <time>2016-12-06T09:04:51Z</time>
      </trkpt>
      <trkpt lat="44.83435" lon="-0.55153">
        <ele>-8.7</ele>
        <time>2016-12-06T09:04:53Z</time>
      </trkpt>
      <trkpt lat="44.83443" lon="-0.55168">
        <ele>-7.7</ele>
        <time>2016-12-06T09:04:55Z</time>
      </trkpt>
      <trkpt lat="44.83447" lon="-0.55175">
        <ele>-7.8</ele>
        <time>2016-12-06T09:04:56Z</time>
      </trkpt>
      <trkpt lat="44.8345" lon="-0.55182">
        <ele>-7.9</ele>
        <time>2016-12-06T09:04:57Z</time>
      </trkpt>
      <trkpt lat="44.83457" lon="-0.55196">
        <ele>-7.4</ele>
        <time>2016-12-06T09:04:59Z</time>
      </trkpt>
      <trkpt lat="44.83464" lon="-0.55209">
        <ele>-7.8</ele>
        <time>2016-12-06T09:05:01Z</time>
      </trkpt>
      <trkpt lat="44.83468" lon="-0.55216">
        <ele>-8</ele>
        <time>2016-12-06T09:05:02Z</time>
      </trkpt>
      <trkpt lat="44.83472" lon="-0.55223">
        <ele>-8.6</ele>
        <time>2016-12-06T09:05:03Z</time>
      </trkpt>
      <trkpt lat="44.83475" lon="-0.55231">
        <ele>-8.7</ele>
        <time>2016-12-06T09:05:04Z</time>
      </trkpt>
      <trkpt lat="44.83483" lon="-0.55246">
        <ele>-9.6</ele>
        <time>2016-12-06T09:05:06Z</time>
      </trkpt>
      <trkpt lat="44.8349" lon="-0.55262">
        <ele>-10</ele>
        <time>2016-12-06T09:05:08Z</time>
      </trkpt>
      <trkpt lat="44.83499" lon="-0.55278">
        <ele>-8.8</ele>
        <time>2016-12-06T09:05:10Z</time>
      </trkpt>
      <trkpt lat="44.8351" lon="-0.55294">
        <ele>-6.7</ele>
        <time>2016-12-06T09:05:12Z</time>
      </trkpt>
      <trkpt lat="44.83515" lon="-0.55302">
        <ele>-6</ele>
        <time>2016-12-06T09:05:13Z</time>
      </trkpt>
      <trkpt lat="44.83523" lon="-0.55318">
        <ele>-5.7</ele>
        <time>2016-12-06T09:05:15Z</time>
      </trkpt>
      <trkpt lat="44.83531" lon="-0.55334">
        <ele>-6</ele>
        <time>2016-12-06T09:05:17Z</time>
      </trkpt>
      <trkpt lat="44.83535" lon="-0.55342">
        <ele>-6</ele>
        <time>2016-12-06T09:05:18Z</time>
      </trkpt>
      <trkpt lat="44.83539" lon="-0.55349">
        <ele>-6.2</ele>
        <time>2016-12-06T09:05:19Z</time>
      </trkpt>
      <trkpt lat="44.83547" lon="-0.55364">
        <ele>-5.6</ele>
        <time>2016-12-06T09:05:21Z</time>
      </trkpt>
      <trkpt lat="44.83551" lon="-0.55371">
        <ele>-5.7</ele>
        <time>2016-12-06T09:05:22Z</time>
      </trkpt>
      <trkpt lat="44.83556" lon="-0.55378">
        <ele>-5.2</ele>
        <time>2016-12-06T09:05:23Z</time>
      </trkpt>
      <trkpt lat="44.83565" lon="-0.55393">
        <ele>-5.1</ele>
        <time>2016-12-06T09:05:25Z</time>
      </trkpt>
      <trkpt lat="44.83569" lon="-0.554">
        <ele>-5.3</ele>
        <time>2016-12-06T09:05:26Z</time>
      </trkpt>
      <trkpt lat="44.83573" lon="-0.55407">
        <ele>-5.1</ele>
        <time>2016-12-06T09:05:27Z</time>
      </trkpt>
      <trkpt lat="44.83584" lon="-0.55427">
        <ele>-5.2</ele>
        <time>2016-12-06T09:05:30Z</time>
      </trkpt>
      <trkpt lat="44.83592" lon="-0.5544">
        <ele>-5.1</ele>
        <time>2016-12-06T09:05:32Z</time>
      </trkpt>
      <trkpt lat="44.83595" lon="-0.55446">
        <ele>-5.3</ele>
        <time>2016-12-06T09:05:33Z</time>
      </trkpt>
      <trkpt lat="44.83599" lon="-0.55452">
        <ele>-5.3</ele>
        <time>2016-12-06T09:05:34Z</time>
      </trkpt>
      <trkpt lat="44.83608" lon="-0.55465">
        <ele>-5</ele>
        <time>2016-12-06T09:05:36Z</time>
      </trkpt>
      <trkpt lat="44.83617" lon="-0.5548">
        <ele>-5.4</ele>
        <time>2016-12-06T09:05:38Z</time>
      </trkpt>
      <trkpt lat="44.83621" lon="-0.55486">
        <ele>-5.5</ele>
        <time>2016-12-06T09:05:39Z</time>
      </trkpt>
      <trkpt lat="44.83629" lon="-0.55501">
        <ele>-5.3</ele>
        <time>2016-12-06T09:05:41Z</time>
      </trkpt>
      <trkpt lat="44.83638" lon="-0.55516">
        <ele>-4.9</ele>
        <time>2016-12-06T09:05:43Z</time>
      </trkpt>
      <trkpt lat="44.83647" lon="-0.55531">
        <ele>-4.7</ele>
        <time>2016-12-06T09:05:45Z</time>
      </trkpt>
      <trkpt lat="44.83656" lon="-0.55545">
        <ele>-4.3</ele>
        <time>2016-12-06T09:05:47Z</time>
      </trkpt>
      <trkpt lat="44.83661" lon="-0.55552">
        <ele>-4.5</ele>
        <time>2016-12-06T09:05:48Z</time>
      </trkpt>
      <trkpt lat="44.83665" lon="-0.55559">
        <ele>-4.4</ele>
        <time>2016-12-06T09:05:50Z</time>
      </trkpt>
      <trkpt lat="44.83674" lon="-0.55573">
        <ele>-4.6</ele>
        <time>2016-12-06T09:05:51Z</time>
      </trkpt>
      <trkpt lat="44.83683" lon="-0.55588">
        <ele>-4.6</ele>
        <time>2016-12-06T09:05:53Z</time>
      </trkpt>
      <trkpt lat="44.83692" lon="-0.55602">
        <ele>-4.8</ele>
        <time>2016-12-06T09:05:55Z</time>
      </trkpt>
      <trkpt lat="44.837" lon="-0.55616">
        <ele>-5.2</ele>
        <time>2016-12-06T09:05:57Z</time>
      </trkpt>
      <trkpt lat="44.8371" lon="-0.5563">
        <ele>-4.9</ele>
        <time>2016-12-06T09:05:59Z</time>
      </trkpt>
      <trkpt lat="44.83718" lon="-0.55644">
        <ele>-4.5</ele>
        <time>2016-12-06T09:06:01Z</time>
      </trkpt>
      <trkpt lat="44.83727" lon="-0.55657">
        <ele>-4.4</ele>
        <time>2016-12-06T09:06:03Z</time>
      </trkpt>
      <trkpt lat="44.83731" lon="-0.55664">
        <ele>-4.5</ele>
        <time>2016-12-06T09:06:04Z</time>
      </trkpt>
      <trkpt lat="44.8374" lon="-0.55678">
        <ele>-4.1</ele>
        <time>2016-12-06T09:06:06Z</time>
      </trkpt>
      <trkpt lat="44.83744" lon="-0.55685">
        <ele>-4</ele>
        <time>2016-12-06T09:06:07Z</time>
      </trkpt>
      <trkpt lat="44.83752" lon="-0.55698">
        <ele>-3.8</ele>
        <time>2016-12-06T09:06:09Z</time>
      </trkpt>
      <trkpt lat="44.83756" lon="-0.55705">
        <ele>-4</ele>
        <time>2016-12-06T09:06:10Z</time>
      </trkpt>
      <trkpt lat="44.83765" lon="-0.55718">
        <ele>-4.5</ele>
        <time>2016-12-06T09:06:12Z</time>
      </trkpt>
      <trkpt lat="44.8377" lon="-0.55725">
        <ele>-5.2</ele>
        <time>2016-12-06T09:06:13Z</time>
      </trkpt>
      <trkpt lat="44.83779" lon="-0.55737">
        <ele>-5</ele>
        <time>2016-12-06T09:06:15Z</time>
      </trkpt>
      <trkpt lat="44.83787" lon="-0.5575">
        <ele>-5</ele>
        <time>2016-12-06T09:06:17Z</time>
      </trkpt>
      <trkpt lat="44.83791" lon="-0.55757">
        <ele>-4.9</ele>
        <time>2016-12-06T09:06:18Z</time>
      </trkpt>
      <trkpt lat="44.838" lon="-0.5577">
        <ele>-4.8</ele>
        <time>2016-12-06T09:06:20Z</time>
      </trkpt>
      <trkpt lat="44.83804" lon="-0.55777">
        <ele>-4.9</ele>
        <time>2016-12-06T09:06:21Z</time>
      </trkpt>
      <trkpt lat="44.83809" lon="-0.55783">
        <ele>-5.1</ele>
        <time>2016-12-06T09:06:22Z</time>
      </trkpt>
      <trkpt lat="44.83816" lon="-0.55796">
        <ele>-5.6</ele>
        <time>2016-12-06T09:06:24Z</time>
      </trkpt>
      <trkpt lat="44.83823" lon="-0.55807">
        <ele>-5.7</ele>
        <time>2016-12-06T09:06:26Z</time>
      </trkpt>
      <trkpt lat="44.83831" lon="-0.55817">
        <ele>-5.9</ele>
        <time>2016-12-06T09:06:28Z</time>
      </trkpt>
      <trkpt lat="44.83838" lon="-0.55829">
        <ele>-5.5</ele>
        <time>2016-12-06T09:06:30Z</time>
      </trkpt>
      <trkpt lat="44.83842" lon="-0.55834">
        <ele>-5.4</ele>
        <time>2016-12-06T09:06:31Z</time>
      </trkpt>
      <trkpt lat="44.8385" lon="-0.55845">
        <ele>-5.1</ele>
        <time>2016-12-06T09:06:33Z</time>
      </trkpt>
      <trkpt lat="44.83853" lon="-0.5585">
        <ele>-5.1</ele>
        <time>2016-12-06T09:06:34Z</time>
      </trkpt>
      <trkpt lat="44.8386" lon="-0.5586">
        <ele>-4.1</ele>
        <time>2016-12-06T09:06:36Z</time>
      </trkpt>
      <trkpt lat="44.83868" lon="-0.55871">
        <ele>-3.3</ele>
        <time>2016-12-06T09:06:38Z</time>
      </trkpt>
      <trkpt lat="44.83872" lon="-0.55876">
        <ele>-2.9</ele>
        <time>2016-12-06T09:06:39Z</time>
      </trkpt>
      <trkpt lat="44.83876" lon="-0.55881">
        <ele>-2.3</ele>
        <time>2016-12-06T09:06:40Z</time>
      </trkpt>
      <trkpt lat="44.83879" lon="-0.55886">
        <ele>-1.7</ele>
        <time>2016-12-06T09:06:41Z</time>
      </trkpt>
      <trkpt lat="44.83883" lon="-0.55891">
        <ele>-1.4</ele>
        <time>2016-12-06T09:06:42Z</time>
      </trkpt>
      <trkpt lat="44.8389" lon="-0.55898">
        <ele>-1.4</ele>
        <time>2016-12-06T09:06:44Z</time>
      </trkpt>
      <trkpt lat="44.83897" lon="-0.55904">
        <ele>-1.3</ele>
        <time>2016-12-06T09:06:46Z</time>
      </trkpt>
      <trkpt lat="44.83903" lon="-0.55909">
        <ele>-1.6</ele>
        <time>2016-12-06T09:06:48Z</time>
      </trkpt>
      <trkpt lat="44.83909" lon="-0.55912">
        <ele>-1.3</ele>
        <time>2016-12-06T09:06:50Z</time>
      </trkpt>
      <trkpt lat="44.83915" lon="-0.55914">
        <ele>-1</ele>
        <time>2016-12-06T09:06:52Z</time>
      </trkpt>
      <trkpt lat="44.83922" lon="-0.55921">
        <ele>-0.4</ele>
        <time>2016-12-06T09:06:54Z</time>
      </trkpt>
      <trkpt lat="44.83925" lon="-0.55931">
        <ele>0.2</ele>
        <time>2016-12-06T09:06:56Z</time>
      </trkpt>
      <trkpt lat="44.83928" lon="-0.55942">
        <ele>0.7</ele>
        <time>2016-12-06T09:06:58Z</time>
      </trkpt>
      <trkpt lat="44.83931" lon="-0.55948">
        <ele>1</ele>
        <time>2016-12-06T09:06:59Z</time>
      </trkpt>
      <trkpt lat="44.83936" lon="-0.55957">
        <ele>0.4</ele>
        <time>2016-12-06T09:07:01Z</time>
      </trkpt>
      <trkpt lat="44.83941" lon="-0.55965">
        <ele>0.4</ele>
        <time>2016-12-06T09:07:03Z</time>
      </trkpt>
      <trkpt lat="44.83946" lon="-0.55972">
        <ele>0.1</ele>
        <time>2016-12-06T09:07:05Z</time>
      </trkpt>
      <trkpt lat="44.83951" lon="-0.5598">
        <ele>-0.3</ele>
        <time>2016-12-06T09:07:07Z</time>
      </trkpt>
      <trkpt lat="44.83955" lon="-0.55986">
        <ele>-0.7</ele>
        <time>2016-12-06T09:07:09Z</time>
      </trkpt>
      <trkpt lat="44.83958" lon="-0.55989">
        <ele>-1.8</ele>
        <time>2016-12-06T09:07:11Z</time>
      </trkpt>
      <trkpt lat="44.83963" lon="-0.55993">
        <ele>-1.2</ele>
        <time>2016-12-06T09:07:14Z</time>
      </trkpt>
      <trkpt lat="44.83968" lon="-0.55988">
        <ele>-0.8</ele>
        <time>2016-12-06T09:07:17Z</time>
      </trkpt>
      <trkpt lat="44.83973" lon="-0.55985">
        <ele>-0.8</ele>
        <time>2016-12-06T09:07:20Z</time>
      </trkpt>
      <trkpt lat="44.83977" lon="-0.55989">
        <ele>-0.8</ele>
        <time>2016-12-06T09:07:50Z</time>
      </trkpt>
      <trkpt lat="44.83981" lon="-0.55996">
        <ele>-1</ele>
        <time>2016-12-06T09:07:53Z</time>
      </trkpt>
      <trkpt lat="44.83985" lon="-0.56001">
        <ele>-1.3</ele>
        <time>2016-12-06T09:07:55Z</time>
      </trkpt>
      <trkpt lat="44.83989" lon="-0.56005">
        <ele>-2.2</ele>
        <time>2016-12-06T09:07:57Z</time>
      </trkpt>
      <trkpt lat="44.83993" lon="-0.56011">
        <ele>-2</ele>
        <time>2016-12-06T09:07:59Z</time>
      </trkpt>
      <trkpt lat="44.83997" lon="-0.56015">
        <ele>-2</ele>
        <time>2016-12-06T09:08:01Z</time>
      </trkpt>
      <trkpt lat="44.84001" lon="-0.56021">
        <ele>-2.9</ele>
        <time>2016-12-06T09:08:04Z</time>
      </trkpt>
      <trkpt lat="44.84005" lon="-0.56027">
        <ele>-2.4</ele>
        <time>2016-12-06T09:08:06Z</time>
      </trkpt>
      <trkpt lat="44.84007" lon="-0.56034">
        <ele>-1.9</ele>
        <time>2016-12-06T09:08:08Z</time>
      </trkpt>
      <trkpt lat="44.84007" lon="-0.56041">
        <ele>-2.3</ele>
        <time>2016-12-06T09:08:10Z</time>
      </trkpt>
      <trkpt lat="44.84006" lon="-0.56048">
        <ele>-1.4</ele>
        <time>2016-12-06T09:08:37Z</time>
      </trkpt>
      <trkpt lat="44.83999" lon="-0.56047">
        <ele>-1.1</ele>
        <time>2016-12-06T09:08:40Z</time>
      </trkpt>
      <trkpt lat="44.83994" lon="-0.56051">
        <ele>-0.1</ele>
        <time>2016-12-06T09:08:42Z</time>
      </trkpt>
      <trkpt lat="44.83989" lon="-0.56059">
        <ele>0.7</ele>
        <time>2016-12-06T09:08:44Z</time>
      </trkpt>
      <trkpt lat="44.83983" lon="-0.56069">
        <ele>1</ele>
        <time>2016-12-06T09:08:46Z</time>
      </trkpt>
      <trkpt lat="44.83976" lon="-0.5608">
        <ele>1.3</ele>
        <time>2016-12-06T09:08:48Z</time>
      </trkpt>
      <trkpt lat="44.83969" lon="-0.56092">
        <ele>1.5</ele>
        <time>2016-12-06T09:08:50Z</time>
      </trkpt>
      <trkpt lat="44.83966" lon="-0.56098">
        <ele>1.6</ele>
        <time>2016-12-06T09:08:51Z</time>
      </trkpt>
      <trkpt lat="44.83962" lon="-0.56104">
        <ele>1.7</ele>
        <time>2016-12-06T09:08:52Z</time>
      </trkpt>
      <trkpt lat="44.83955" lon="-0.56117">
        <ele>2.2</ele>
        <time>2016-12-06T09:08:54Z</time>
      </trkpt>
      <trkpt lat="44.83951" lon="-0.56123">
        <ele>2.2</ele>
        <time>2016-12-06T09:08:55Z</time>
      </trkpt>
      <trkpt lat="44.83944" lon="-0.56135">
        <ele>1.9</ele>
        <time>2016-12-06T09:08:57Z</time>
      </trkpt>
      <trkpt lat="44.83937" lon="-0.56147">
        <ele>2.1</ele>
        <time>2016-12-06T09:08:59Z</time>
      </trkpt>
      <trkpt lat="44.83933" lon="-0.56153">
        <ele>2.3</ele>
        <time>2016-12-06T09:09:00Z</time>
      </trkpt>
      <trkpt lat="44.83926" lon="-0.56165">
        <ele>2.7</ele>
        <time>2016-12-06T09:09:02Z</time>
      </trkpt>
      <trkpt lat="44.83922" lon="-0.56171">
        <ele>3.4</ele>
        <time>2016-12-06T09:09:03Z</time>
      </trkpt>
      <trkpt lat="44.83915" lon="-0.56183">
        <ele>3.7</ele>
        <time>2016-12-06T09:09:05Z</time>
      </trkpt>
      <trkpt lat="44.83911" lon="-0.56189">
        <ele>3.9</ele>
        <time>2016-12-06T09:09:06Z</time>
      </trkpt>
      <trkpt lat="44.83908" lon="-0.56195">
        <ele>3.9</ele>
        <time>2016-12-06T09:09:07Z</time>
      </trkpt>
      <trkpt lat="44.839" lon="-0.56207">
        <ele>3.9</ele>
        <time>2016-12-06T09:09:09Z</time>
      </trkpt>
      <trkpt lat="44.83893" lon="-0.56219">
        <ele>4</ele>
        <time>2016-12-06T09:09:11Z</time>
      </trkpt>
      <trkpt lat="44.83886" lon="-0.5623">
        <ele>4.1</ele>
        <time>2016-12-06T09:09:13Z</time>
      </trkpt>
      <trkpt lat="44.8388" lon="-0.56241">
        <ele>4.4</ele>
        <time>2016-12-06T09:09:15Z</time>
      </trkpt>
      <trkpt lat="44.83873" lon="-0.56253">
        <ele>4.6</ele>
        <time>2016-12-06T09:09:17Z</time>
      </trkpt>
      <trkpt lat="44.8387" lon="-0.56259">
        <ele>4.5</ele>
        <time>2016-12-06T09:09:18Z</time>
      </trkpt>
      <trkpt lat="44.83868" lon="-0.56264">
        <ele>5</ele>
        <time>2016-12-06T09:09:19Z</time>
      </trkpt>
      <trkpt lat="44.83861" lon="-0.56274">
        <ele>4.6</ele>
        <time>2016-12-06T09:09:21Z</time>
      </trkpt>
      <trkpt lat="44.83855" lon="-0.56283">
        <ele>4.5</ele>
        <time>2016-12-06T09:09:23Z</time>
      </trkpt>
      <trkpt lat="44.83848" lon="-0.56293">
        <ele>4.4</ele>
        <time>2016-12-06T09:09:25Z</time>
      </trkpt>
      <trkpt lat="44.83841" lon="-0.56304">
        <ele>4.8</ele>
        <time>2016-12-06T09:09:27Z</time>
      </trkpt>
      <trkpt lat="44.83834" lon="-0.56316">
        <ele>5.1</ele>
        <time>2016-12-06T09:09:29Z</time>
      </trkpt>
      <trkpt lat="44.83827" lon="-0.56327">
        <ele>4.8</ele>
        <time>2016-12-06T09:09:31Z</time>
      </trkpt>
      <trkpt lat="44.8382" lon="-0.56339">
        <ele>4.8</ele>
        <time>2016-12-06T09:09:33Z</time>
      </trkpt>
      <trkpt lat="44.83816" lon="-0.56345">
        <ele>4.9</ele>
        <time>2016-12-06T09:09:34Z</time>
      </trkpt>
      <trkpt lat="44.83812" lon="-0.56351">
        <ele>4.9</ele>
        <time>2016-12-06T09:09:35Z</time>
      </trkpt>
      <trkpt lat="44.83805" lon="-0.56362">
        <ele>4.9</ele>
        <time>2016-12-06T09:09:37Z</time>
      </trkpt>
      <trkpt lat="44.83799" lon="-0.56374">
        <ele>4.7</ele>
        <time>2016-12-06T09:09:39Z</time>
      </trkpt>
      <trkpt lat="44.83792" lon="-0.56385">
        <ele>4.4</ele>
        <time>2016-12-06T09:09:41Z</time>
      </trkpt>
      <trkpt lat="44.83789" lon="-0.56391">
        <ele>4.3</ele>
        <time>2016-12-06T09:09:42Z</time>
      </trkpt>
      <trkpt lat="44.83786" lon="-0.56396">
        <ele>4.1</ele>
        <time>2016-12-06T09:09:43Z</time>
      </trkpt>
      <trkpt lat="44.83779" lon="-0.56407">
        <ele>3</ele>
        <time>2016-12-06T09:09:45Z</time>
      </trkpt>
      <trkpt lat="44.83772" lon="-0.56418">
        <ele>3.2</ele>
        <time>2016-12-06T09:09:47Z</time>
      </trkpt>
      <trkpt lat="44.83765" lon="-0.56429">
        <ele>3.3</ele>
        <time>2016-12-06T09:09:49Z</time>
      </trkpt>
      <trkpt lat="44.83762" lon="-0.56435">
        <ele>3.2</ele>
        <time>2016-12-06T09:09:50Z</time>
      </trkpt>
      <trkpt lat="44.83755" lon="-0.56446">
        <ele>3.1</ele>
        <time>2016-12-06T09:09:52Z</time>
      </trkpt>
      <trkpt lat="44.83748" lon="-0.56457">
        <ele>3.2</ele>
        <time>2016-12-06T09:09:54Z</time>
      </trkpt>
      <trkpt lat="44.83744" lon="-0.56463">
        <ele>3.1</ele>
        <time>2016-12-06T09:09:55Z</time>
      </trkpt>
      <trkpt lat="44.83737" lon="-0.56474">
        <ele>3.4</ele>
        <time>2016-12-06T09:09:57Z</time>
      </trkpt>
      <trkpt lat="44.83731" lon="-0.56484">
        <ele>4</ele>
        <time>2016-12-06T09:09:59Z</time>
      </trkpt>
      <trkpt lat="44.83724" lon="-0.56495">
        <ele>4</ele>
        <time>2016-12-06T09:10:01Z</time>
      </trkpt>
      <trkpt lat="44.83719" lon="-0.56505">
        <ele>3.8</ele>
        <time>2016-12-06T09:10:03Z</time>
      </trkpt>
      <trkpt lat="44.83714" lon="-0.56514">
        <ele>3.5</ele>
        <time>2016-12-06T09:10:05Z</time>
      </trkpt>
      <trkpt lat="44.8371" lon="-0.56525">
        <ele>4.3</ele>
        <time>2016-12-06T09:10:07Z</time>
      </trkpt>
      <trkpt lat="44.83709" lon="-0.56537">
        <ele>3.3</ele>
        <time>2016-12-06T09:10:09Z</time>
      </trkpt>
      <trkpt lat="44.83713" lon="-0.56551">
        <ele>2.4</ele>
        <time>2016-12-06T09:10:11Z</time>
      </trkpt>
      <trkpt lat="44.83717" lon="-0.56557">
        <ele>2</ele>
        <time>2016-12-06T09:10:12Z</time>
      </trkpt>
      <trkpt lat="44.83721" lon="-0.56563">
        <ele>1.9</ele>
        <time>2016-12-06T09:10:13Z</time>
      </trkpt>
      <trkpt lat="44.83731" lon="-0.56574">
        <ele>1.3</ele>
        <time>2016-12-06T09:10:15Z</time>
      </trkpt>
      <trkpt lat="44.8374" lon="-0.56586">
        <ele>0.8</ele>
        <time>2016-12-06T09:10:17Z</time>
      </trkpt>
      <trkpt lat="44.83746" lon="-0.56592">
        <ele>0.7</ele>
        <time>2016-12-06T09:10:18Z</time>
      </trkpt>
      <trkpt lat="44.83756" lon="-0.56605">
        <ele>0.5</ele>
        <time>2016-12-06T09:10:20Z</time>
      </trkpt>
      <trkpt lat="44.83761" lon="-0.56612">
        <ele>0.5</ele>
        <time>2016-12-06T09:10:21Z</time>
      </trkpt>
      <trkpt lat="44.83767" lon="-0.56618">
        <ele>0.4</ele>
        <time>2016-12-06T09:10:22Z</time>
      </trkpt>
      <trkpt lat="44.83772" lon="-0.56625">
        <ele>0.1</ele>
        <time>2016-12-06T09:10:23Z</time>
      </trkpt>
      <trkpt lat="44.83784" lon="-0.56637">
        <ele>-0.1</ele>
        <time>2016-12-06T09:10:25Z</time>
      </trkpt>
      <trkpt lat="44.83789" lon="-0.56644">
        <ele>0.1</ele>
        <time>2016-12-06T09:10:26Z</time>
      </trkpt>
      <trkpt lat="44.83799" lon="-0.56658">
        <ele>-0.2</ele>
        <time>2016-12-06T09:10:28Z</time>
      </trkpt>
      <trkpt lat="44.83805" lon="-0.56665">
        <ele>-0.5</ele>
        <time>2016-12-06T09:10:29Z</time>
      </trkpt>
      <trkpt lat="44.83816" lon="-0.56677">
        <ele>-1</ele>
        <time>2016-12-06T09:10:31Z</time>
      </trkpt>
      <trkpt lat="44.83822" lon="-0.56683">
        <ele>-1</ele>
        <time>2016-12-06T09:10:32Z</time>
      </trkpt>
      <trkpt lat="44.83833" lon="-0.56696">
        <ele>-1.1</ele>
        <time>2016-12-06T09:10:34Z</time>
      </trkpt>
      <trkpt lat="44.83842" lon="-0.56708">
        <ele>-1</ele>
        <time>2016-12-06T09:10:36Z</time>
      </trkpt>
      <trkpt lat="44.83851" lon="-0.56718">
        <ele>-0.8</ele>
        <time>2016-12-06T09:10:38Z</time>
      </trkpt>
      <trkpt lat="44.83861" lon="-0.56727">
        <ele>-1.3</ele>
        <time>2016-12-06T09:10:40Z</time>
      </trkpt>
      <trkpt lat="44.83866" lon="-0.56731">
        <ele>-1.1</ele>
        <time>2016-12-06T09:10:41Z</time>
      </trkpt>
      <trkpt lat="44.83871" lon="-0.56735">
        <ele>-1.6</ele>
        <time>2016-12-06T09:10:42Z</time>
      </trkpt>
      <trkpt lat="44.83883" lon="-0.56745">
        <ele>-2</ele>
        <time>2016-12-06T09:10:44Z</time>
      </trkpt>
      <trkpt lat="44.83895" lon="-0.56756">
        <ele>-2.2</ele>
        <time>2016-12-06T09:10:46Z</time>
      </trkpt>
      <trkpt lat="44.83908" lon="-0.56767">
        <ele>-2.5</ele>
        <time>2016-12-06T09:10:48Z</time>
      </trkpt>
      <trkpt lat="44.8392" lon="-0.56779">
        <ele>-2.6</ele>
        <time>2016-12-06T09:10:50Z</time>
      </trkpt>
      <trkpt lat="44.83931" lon="-0.5679">
        <ele>-2.8</ele>
        <time>2016-12-06T09:10:52Z</time>
      </trkpt>
      <trkpt lat="44.83944" lon="-0.56801">
        <ele>-2.6</ele>
        <time>2016-12-06T09:10:54Z</time>
      </trkpt>
      <trkpt lat="44.83957" lon="-0.56812">
        <ele>-2.6</ele>
        <time>2016-12-06T09:10:56Z</time>
      </trkpt>
      <trkpt lat="44.83964" lon="-0.56817">
        <ele>-2.3</ele>
        <time>2016-12-06T09:10:57Z</time>
      </trkpt>
      <trkpt lat="44.8397" lon="-0.56822">
        <ele>-2.1</ele>
        <time>2016-12-06T09:10:58Z</time>
      </trkpt>
      <trkpt lat="44.83983" lon="-0.56833">
        <ele>-2.2</ele>
        <time>2016-12-06T09:11:00Z</time>
      </trkpt>
      <trkpt lat="44.83997" lon="-0.56843">
        <ele>-2.1</ele>
        <time>2016-12-06T09:11:02Z</time>
      </trkpt>
      <trkpt lat="44.84011" lon="-0.56853">
        <ele>-2.2</ele>
        <time>2016-12-06T09:11:04Z</time>
      </trkpt>
      <trkpt lat="44.84017" lon="-0.56858">
        <ele>-2.3</ele>
        <time>2016-12-06T09:11:05Z</time>
      </trkpt>
      <trkpt lat="44.84024" lon="-0.56863">
        <ele>-2</ele>
        <time>2016-12-06T09:11:06Z</time>
      </trkpt>
      <trkpt lat="44.84038" lon="-0.56873">
        <ele>-1.6</ele>
        <time>2016-12-06T09:11:08Z</time>
      </trkpt>
      <trkpt lat="44.84045" lon="-0.56877">
        <ele>-1.6</ele>
        <time>2016-12-06T09:11:09Z</time>
      </trkpt>
      <trkpt lat="44.84052" lon="-0.56881">
        <ele>-1.7</ele>
        <time>2016-12-06T09:11:10Z</time>
      </trkpt>
      <trkpt lat="44.84065" lon="-0.56889">
        <ele>-2</ele>
        <time>2016-12-06T09:11:12Z</time>
      </trkpt>
      <trkpt lat="44.84078" lon="-0.56897">
        <ele>-1.7</ele>
        <time>2016-12-06T09:11:14Z</time>
      </trkpt>
      <trkpt lat="44.84084" lon="-0.569">
        <ele>-1.3</ele>
        <time>2016-12-06T09:11:15Z</time>
      </trkpt>
      <trkpt lat="44.84094" lon="-0.56906">
        <ele>-0.8</ele>
        <time>2016-12-06T09:11:17Z</time>
      </trkpt>
      <trkpt lat="44.84105" lon="-0.5691">
        <ele>-0.3</ele>
        <time>2016-12-06T09:11:19Z</time>
      </trkpt>
      <trkpt lat="44.84115" lon="-0.56915">
        <ele>-0.8</ele>
        <time>2016-12-06T09:11:21Z</time>
      </trkpt>
      <trkpt lat="44.84127" lon="-0.5692">
        <ele>-0.8</ele>
        <time>2016-12-06T09:11:23Z</time>
      </trkpt>
      <trkpt lat="44.84133" lon="-0.56923">
        <ele>-0.4</ele>
        <time>2016-12-06T09:11:24Z</time>
      </trkpt>
      <trkpt lat="44.84146" lon="-0.56929">
        <ele>-0.1</ele>
        <time>2016-12-06T09:11:26Z</time>
      </trkpt>
      <trkpt lat="44.84152" lon="-0.56931">
        <ele>-0.1</ele>
        <time>2016-12-06T09:11:27Z</time>
      </trkpt>
      <trkpt lat="44.84165" lon="-0.56937">
        <ele>6.2</ele>
        <time>2016-12-06T09:11:29Z</time>
      </trkpt>
      <trkpt lat="44.84171" lon="-0.5694">
        <ele>0.4</ele>
        <time>2016-12-06T09:11:30Z</time>
      </trkpt>
      <trkpt lat="44.84184" lon="-0.56945">
        <ele>0.8</ele>
        <time>2016-12-06T09:11:32Z</time>
      </trkpt>
      <trkpt lat="44.8419" lon="-0.56948">
        <ele>1.1</ele>
        <time>2016-12-06T09:11:33Z</time>
      </trkpt>
      <trkpt lat="44.84202" lon="-0.56953">
        <ele>1.1</ele>
        <time>2016-12-06T09:11:35Z</time>
      </trkpt>
      <trkpt lat="44.84214" lon="-0.56958">
        <ele>1</ele>
        <time>2016-12-06T09:11:37Z</time>
      </trkpt>
      <trkpt lat="44.84226" lon="-0.56964">
        <ele>0.7</ele>
        <time>2016-12-06T09:11:39Z</time>
      </trkpt>
      <trkpt lat="44.84239" lon="-0.56969">
        <ele>0.6</ele>
        <time>2016-12-06T09:11:41Z</time>
      </trkpt>
      <trkpt lat="44.84246" lon="-0.56971">
        <ele>0.3</ele>
        <time>2016-12-06T09:11:42Z</time>
      </trkpt>
      <trkpt lat="44.84252" lon="-0.56973">
        <ele>0.1</ele>
        <time>2016-12-06T09:11:43Z</time>
      </trkpt>
      <trkpt lat="44.84258" lon="-0.56975">
        <ele>5.9</ele>
        <time>2016-12-06T09:11:44Z</time>
      </trkpt>
      <trkpt lat="44.84264" lon="-0.56977">
        <ele>-0.7</ele>
        <time>2016-12-06T09:11:45Z</time>
      </trkpt>
      <trkpt lat="44.84277" lon="-0.5698">
        <ele>-0.1</ele>
        <time>2016-12-06T09:11:47Z</time>
      </trkpt>
      <trkpt lat="44.84283" lon="-0.56981">
        <ele>0.1</ele>
        <time>2016-12-06T09:11:48Z</time>
      </trkpt>
      <trkpt lat="44.84295" lon="-0.56984">
        <ele>0.6</ele>
        <time>2016-12-06T09:11:50Z</time>
      </trkpt>
      <trkpt lat="44.84301" lon="-0.56985">
        <ele>0.5</ele>
        <time>2016-12-06T09:11:51Z</time>
      </trkpt>
      <trkpt lat="44.84307" lon="-0.56986">
        <ele>0.5</ele>
        <time>2016-12-06T09:11:52Z</time>
      </trkpt>
      <trkpt lat="44.8432" lon="-0.56988">
        <ele>6</ele>
        <time>2016-12-06T09:11:54Z</time>
      </trkpt>
      <trkpt lat="44.84333" lon="-0.56992">
        <ele>-0.1</ele>
        <time>2016-12-06T09:11:56Z</time>
      </trkpt>
      <trkpt lat="44.84339" lon="-0.56994">
        <ele>-0.1</ele>
        <time>2016-12-06T09:11:57Z</time>
      </trkpt>
      <trkpt lat="44.84351" lon="-0.56997">
        <ele>-0.1</ele>
        <time>2016-12-06T09:11:59Z</time>
      </trkpt>
      <trkpt lat="44.84358" lon="-0.56999">
        <ele>0.3</ele>
        <time>2016-12-06T09:12:00Z</time>
      </trkpt>
      <trkpt lat="44.84371" lon="-0.57002">
        <ele>1</ele>
        <time>2016-12-06T09:12:02Z</time>
      </trkpt>
      <trkpt lat="44.84384" lon="-0.57005">
        <ele>0.9</ele>
        <time>2016-12-06T09:12:04Z</time>
      </trkpt>
      <trkpt lat="44.84397" lon="-0.57009">
        <ele>1.2</ele>
        <time>2016-12-06T09:12:06Z</time>
      </trkpt>
      <trkpt lat="44.8441" lon="-0.57013">
        <ele>1</ele>
        <time>2016-12-06T09:12:08Z</time>
      </trkpt>
      <trkpt lat="44.84423" lon="-0.57017">
        <ele>0.9</ele>
        <time>2016-12-06T09:12:10Z</time>
      </trkpt>
      <trkpt lat="44.84437" lon="-0.57021">
        <ele>0.4</ele>
        <time>2016-12-06T09:12:12Z</time>
      </trkpt>
      <trkpt lat="44.8445" lon="-0.57025">
        <ele>0.3</ele>
        <time>2016-12-06T09:12:14Z</time>
      </trkpt>
      <trkpt lat="44.84464" lon="-0.57028">
        <ele>0.3</ele>
        <time>2016-12-06T09:12:16Z</time>
      </trkpt>
      <trkpt lat="44.8447" lon="-0.5703">
        <ele>0.1</ele>
        <time>2016-12-06T09:12:17Z</time>
      </trkpt>
      <trkpt lat="44.84483" lon="-0.57033">
        <ele>-0.2</ele>
        <time>2016-12-06T09:12:19Z</time>
      </trkpt>
      <trkpt lat="44.84496" lon="-0.57036">
        <ele>-0.7</ele>
        <time>2016-12-06T09:12:21Z</time>
      </trkpt>
      <trkpt lat="44.84509" lon="-0.57039">
        <ele>-1</ele>
        <time>2016-12-06T09:12:23Z</time>
      </trkpt>
      <trkpt lat="44.84523" lon="-0.57042">
        <ele>-1.2</ele>
        <time>2016-12-06T09:12:25Z</time>
      </trkpt>
      <trkpt lat="44.84529" lon="-0.57044">
        <ele>-1.3</ele>
        <time>2016-12-06T09:12:26Z</time>
      </trkpt>
      <trkpt lat="44.84542" lon="-0.57048">
        <ele>-1.2</ele>
        <time>2016-12-06T09:12:28Z</time>
      </trkpt>
      <trkpt lat="44.84554" lon="-0.57052">
        <ele>-0.8</ele>
        <time>2016-12-06T09:12:30Z</time>
      </trkpt>
      <trkpt lat="44.84566" lon="-0.57055">
        <ele>-0.6</ele>
        <time>2016-12-06T09:12:32Z</time>
      </trkpt>
      <trkpt lat="44.84572" lon="-0.57056">
        <ele>-0.4</ele>
        <time>2016-12-06T09:12:33Z</time>
      </trkpt>
      <trkpt lat="44.84578" lon="-0.57057">
        <ele>-0.3</ele>
        <time>2016-12-06T09:12:34Z</time>
      </trkpt>
      <trkpt lat="44.8459" lon="-0.57059">
        <ele>6</ele>
        <time>2016-12-06T09:12:36Z</time>
      </trkpt>
      <trkpt lat="44.84603" lon="-0.57062">
        <ele>1</ele>
        <time>2016-12-06T09:12:38Z</time>
      </trkpt>
      <trkpt lat="44.84608" lon="-0.57063">
        <ele>1.2</ele>
        <time>2016-12-06T09:12:39Z</time>
      </trkpt>
      <trkpt lat="44.8462" lon="-0.57065">
        <ele>1.5</ele>
        <time>2016-12-06T09:12:41Z</time>
      </trkpt>
      <trkpt lat="44.84631" lon="-0.57067">
        <ele>1.9</ele>
        <time>2016-12-06T09:12:43Z</time>
      </trkpt>
      <trkpt lat="44.84636" lon="-0.57068">
        <ele>1.5</ele>
        <time>2016-12-06T09:12:44Z</time>
      </trkpt>
      <trkpt lat="44.84649" lon="-0.57069">
        <ele>1</ele>
        <time>2016-12-06T09:12:46Z</time>
      </trkpt>
      <trkpt lat="44.84661" lon="-0.5707">
        <ele>0.1</ele>
        <time>2016-12-06T09:12:48Z</time>
      </trkpt>
      <trkpt lat="44.84668" lon="-0.57069">
        <ele>0.2</ele>
        <time>2016-12-06T09:12:49Z</time>
      </trkpt>
      <trkpt lat="44.84674" lon="-0.57069">
        <ele>0.3</ele>
        <time>2016-12-06T09:12:50Z</time>
      </trkpt>
      <trkpt lat="44.84681" lon="-0.57068">
        <ele>0.2</ele>
        <time>2016-12-06T09:12:51Z</time>
      </trkpt>
      <trkpt lat="44.84693" lon="-0.57068">
        <ele>6</ele>
        <time>2016-12-06T09:12:53Z</time>
      </trkpt>
      <trkpt lat="44.84699" lon="-0.57067">
        <ele>6</ele>
        <time>2016-12-06T09:12:54Z</time>
      </trkpt>
      <trkpt lat="44.84705" lon="-0.57067">
        <ele>-0.1</ele>
        <time>2016-12-06T09:12:55Z</time>
      </trkpt>
      <trkpt lat="44.84716" lon="-0.57065">
        <ele>-0.4</ele>
        <time>2016-12-06T09:12:57Z</time>
      </trkpt>
      <trkpt lat="44.84728" lon="-0.57064">
        <ele>-1</ele>
        <time>2016-12-06T09:12:59Z</time>
      </trkpt>
      <trkpt lat="44.84741" lon="-0.57063">
        <ele>-1.1</ele>
        <time>2016-12-06T09:13:01Z</time>
      </trkpt>
      <trkpt lat="44.84747" lon="-0.57061">
        <ele>-0.8</ele>
        <time>2016-12-06T09:13:02Z</time>
      </trkpt>
      <trkpt lat="44.84753" lon="-0.5706">
        <ele>-0.9</ele>
        <time>2016-12-06T09:13:03Z</time>
      </trkpt>
      <trkpt lat="44.84765" lon="-0.57057">
        <ele>-0.3</ele>
        <time>2016-12-06T09:13:05Z</time>
      </trkpt>
      <trkpt lat="44.84776" lon="-0.57055">
        <ele>-0.1</ele>
        <time>2016-12-06T09:13:07Z</time>
      </trkpt>
      <trkpt lat="44.84782" lon="-0.57053">
        <ele>-0.1</ele>
        <time>2016-12-06T09:13:08Z</time>
      </trkpt>
      <trkpt lat="44.84787" lon="-0.57052">
        <ele>0.1</ele>
        <time>2016-12-06T09:13:09Z</time>
      </trkpt>
      <trkpt lat="44.84799" lon="-0.57049">
        <ele>0.6</ele>
        <time>2016-12-06T09:13:11Z</time>
      </trkpt>
      <trkpt lat="44.84805" lon="-0.57048">
        <ele>0.3</ele>
        <time>2016-12-06T09:13:12Z</time>
      </trkpt>
      <trkpt lat="44.84817" lon="-0.57044">
        <ele>-0.3</ele>
        <time>2016-12-06T09:13:14Z</time>
      </trkpt>
      <trkpt lat="44.84823" lon="-0.57042">
        <ele>-0.2</ele>
        <time>2016-12-06T09:13:15Z</time>
      </trkpt>
      <trkpt lat="44.84835" lon="-0.57038">
        <ele>-0.7</ele>
        <time>2016-12-06T09:13:17Z</time>
      </trkpt>
      <trkpt lat="44.84848" lon="-0.57034">
        <ele>-0.3</ele>
        <time>2016-12-06T09:13:19Z</time>
      </trkpt>
      <trkpt lat="44.84861" lon="-0.57029">
        <ele>-0.2</ele>
        <time>2016-12-06T09:13:21Z</time>
      </trkpt>
      <trkpt lat="44.84874" lon="-0.57024">
        <ele>-0.7</ele>
        <time>2016-12-06T09:13:23Z</time>
      </trkpt>
      <trkpt lat="44.84886" lon="-0.57019">
        <ele>-0.5</ele>
        <time>2016-12-06T09:13:25Z</time>
      </trkpt>
      <trkpt lat="44.84898" lon="-0.57015">
        <ele>-0.4</ele>
        <time>2016-12-06T09:13:27Z</time>
      </trkpt>
      <trkpt lat="44.8491" lon="-0.5701">
        <ele>-1</ele>
        <time>2016-12-06T09:13:29Z</time>
      </trkpt>
      <trkpt lat="44.84922" lon="-0.57005">
        <ele>-0.9</ele>
        <time>2016-12-06T09:13:31Z</time>
      </trkpt>
      <trkpt lat="44.84928" lon="-0.57003">
        <ele>-1</ele>
        <time>2016-12-06T09:13:32Z</time>
      </trkpt>
      <trkpt lat="44.84939" lon="-0.56998">
        <ele>-0.9</ele>
        <time>2016-12-06T09:13:34Z</time>
      </trkpt>
      <trkpt lat="44.84951" lon="-0.56993">
        <ele>-1.1</ele>
        <time>2016-12-06T09:13:36Z</time>
      </trkpt>
      <trkpt lat="44.84957" lon="-0.56991">
        <ele>-1</ele>
        <time>2016-12-06T09:13:37Z</time>
      </trkpt>
      <trkpt lat="44.84969" lon="-0.56985">
        <ele>-0.9</ele>
        <time>2016-12-06T09:13:39Z</time>
      </trkpt>
      <trkpt lat="44.84981" lon="-0.56978">
        <ele>-1.3</ele>
        <time>2016-12-06T09:13:41Z</time>
      </trkpt>
      <trkpt lat="44.84993" lon="-0.56973">
        <ele>-1.2</ele>
        <time>2016-12-06T09:13:43Z</time>
      </trkpt>
      <trkpt lat="44.85004" lon="-0.56966">
        <ele>-1.3</ele>
        <time>2016-12-06T09:13:45Z</time>
      </trkpt>
      <trkpt lat="44.85014" lon="-0.56959">
        <ele>-0.5</ele>
        <time>2016-12-06T09:13:47Z</time>
      </trkpt>
      <trkpt lat="44.8502" lon="-0.56955">
        <ele>-0.8</ele>
        <time>2016-12-06T09:13:48Z</time>
      </trkpt>
      <trkpt lat="44.85032" lon="-0.56947">
        <ele>-1</ele>
        <time>2016-12-06T09:13:50Z</time>
      </trkpt>
      <trkpt lat="44.85037" lon="-0.56943">
        <ele>-0.9</ele>
        <time>2016-12-06T09:13:51Z</time>
      </trkpt>
      <trkpt lat="44.85048" lon="-0.56935">
        <ele>-0.6</ele>
        <time>2016-12-06T09:13:53Z</time>
      </trkpt>
      <trkpt lat="44.85059" lon="-0.56927">
        <ele>-1.1</ele>
        <time>2016-12-06T09:13:55Z</time>
      </trkpt>
      <trkpt lat="44.8507" lon="-0.56919">
        <ele>-0.9</ele>
        <time>2016-12-06T09:13:57Z</time>
      </trkpt>
      <trkpt lat="44.85081" lon="-0.5691">
        <ele>-1.2</ele>
        <time>2016-12-06T09:13:59Z</time>
      </trkpt>
      <trkpt lat="44.85087" lon="-0.56906">
        <ele>-1.1</ele>
        <time>2016-12-06T09:14:00Z</time>
      </trkpt>
      <trkpt lat="44.85093" lon="-0.56902">
        <ele>-1.7</ele>
        <time>2016-12-06T09:14:01Z</time>
      </trkpt>
      <trkpt lat="44.85104" lon="-0.56893">
        <ele>-2.4</ele>
        <time>2016-12-06T09:14:03Z</time>
      </trkpt>
      <trkpt lat="44.85115" lon="-0.56884">
        <ele>-2.6</ele>
        <time>2016-12-06T09:14:05Z</time>
      </trkpt>
      <trkpt lat="44.85127" lon="-0.56875">
        <ele>-2.9</ele>
        <time>2016-12-06T09:14:07Z</time>
      </trkpt>
      <trkpt lat="44.85133" lon="-0.5687">
        <ele>-3</ele>
        <time>2016-12-06T09:14:08Z</time>
      </trkpt>
      <trkpt lat="44.85144" lon="-0.56859">
        <ele>-2.9</ele>
        <time>2016-12-06T09:14:10Z</time>
      </trkpt>
      <trkpt lat="44.85155" lon="-0.5685">
        <ele>-2.4</ele>
        <time>2016-12-06T09:14:12Z</time>
      </trkpt>
      <trkpt lat="44.85165" lon="-0.5684">
        <ele>-2.6</ele>
        <time>2016-12-06T09:14:14Z</time>
      </trkpt>
      <trkpt lat="44.85175" lon="-0.5683">
        <ele>-2.1</ele>
        <time>2016-12-06T09:14:16Z</time>
      </trkpt>
      <trkpt lat="44.85181" lon="-0.56825">
        <ele>-2.1</ele>
        <time>2016-12-06T09:14:17Z</time>
      </trkpt>
      <trkpt lat="44.85192" lon="-0.56815">
        <ele>-1.2</ele>
        <time>2016-12-06T09:14:19Z</time>
      </trkpt>
      <trkpt lat="44.85203" lon="-0.56804">
        <ele>-1.4</ele>
        <time>2016-12-06T09:14:21Z</time>
      </trkpt>
      <trkpt lat="44.85214" lon="-0.56793">
        <ele>-1.5</ele>
        <time>2016-12-06T09:14:23Z</time>
      </trkpt>
      <trkpt lat="44.85225" lon="-0.56781">
        <ele>-1.5</ele>
        <time>2016-12-06T09:14:25Z</time>
      </trkpt>
      <trkpt lat="44.8523" lon="-0.56775">
        <ele>-1.6</ele>
        <time>2016-12-06T09:14:26Z</time>
      </trkpt>
      <trkpt lat="44.8524" lon="-0.56765">
        <ele>-1.7</ele>
        <time>2016-12-06T09:14:28Z</time>
      </trkpt>
      <trkpt lat="44.85245" lon="-0.56759">
        <ele>-1.8</ele>
        <time>2016-12-06T09:14:29Z</time>
      </trkpt>
      <trkpt lat="44.85254" lon="-0.56748">
        <ele>-1.8</ele>
        <time>2016-12-06T09:14:31Z</time>
      </trkpt>
      <trkpt lat="44.85259" lon="-0.56742">
        <ele>-2.1</ele>
        <time>2016-12-06T09:14:32Z</time>
      </trkpt>
      <trkpt lat="44.85269" lon="-0.5673">
        <ele>-2.4</ele>
        <time>2016-12-06T09:14:34Z</time>
      </trkpt>
      <trkpt lat="44.85274" lon="-0.56724">
        <ele>-2.6</ele>
        <time>2016-12-06T09:14:35Z</time>
      </trkpt>
      <trkpt lat="44.85279" lon="-0.56718">
        <ele>-2.6</ele>
        <time>2016-12-06T09:14:36Z</time>
      </trkpt>
      <trkpt lat="44.85285" lon="-0.56712">
        <ele>-2.6</ele>
        <time>2016-12-06T09:14:37Z</time>
      </trkpt>
      <trkpt lat="44.85295" lon="-0.56701">
        <ele>-2.6</ele>
        <time>2016-12-06T09:14:39Z</time>
      </trkpt>
      <trkpt lat="44.85306" lon="-0.56689">
        <ele>-2.4</ele>
        <time>2016-12-06T09:14:41Z</time>
      </trkpt>
      <trkpt lat="44.8531" lon="-0.56682">
        <ele>-2.3</ele>
        <time>2016-12-06T09:14:42Z</time>
      </trkpt>
      <trkpt lat="44.8532" lon="-0.5667">
        <ele>-2</ele>
        <time>2016-12-06T09:14:44Z</time>
      </trkpt>
      <trkpt lat="44.85325" lon="-0.56664">
        <ele>-2.4</ele>
        <time>2016-12-06T09:14:45Z</time>
      </trkpt>
      <trkpt lat="44.85335" lon="-0.56653">
        <ele>-2.3</ele>
        <time>2016-12-06T09:14:47Z</time>
      </trkpt>
      <trkpt lat="44.85345" lon="-0.5664">
        <ele>-1.4</ele>
        <time>2016-12-06T09:14:49Z</time>
      </trkpt>
      <trkpt lat="44.8535" lon="-0.56634">
        <ele>-1.1</ele>
        <time>2016-12-06T09:14:50Z</time>
      </trkpt>
      <trkpt lat="44.85355" lon="-0.56628">
        <ele>-1</ele>
        <time>2016-12-06T09:14:51Z</time>
      </trkpt>
      <trkpt lat="44.85366" lon="-0.56615">
        <ele>-0.5</ele>
        <time>2016-12-06T09:14:53Z</time>
      </trkpt>
      <trkpt lat="44.85371" lon="-0.56609">
        <ele>-0.6</ele>
        <time>2016-12-06T09:14:54Z</time>
      </trkpt>
      <trkpt lat="44.85376" lon="-0.56603">
        <ele>-0.9</ele>
        <time>2016-12-06T09:14:55Z</time>
      </trkpt>
      <trkpt lat="44.85385" lon="-0.56591">
        <ele>-1</ele>
        <time>2016-12-06T09:14:57Z</time>
      </trkpt>
      <trkpt lat="44.85395" lon="-0.56578">
        <ele>-0.6</ele>
        <time>2016-12-06T09:14:59Z</time>
      </trkpt>
      <trkpt lat="44.85405" lon="-0.56565">
        <ele>-0.8</ele>
        <time>2016-12-06T09:15:01Z</time>
      </trkpt>
      <trkpt lat="44.85414" lon="-0.56553">
        <ele>-0.9</ele>
        <time>2016-12-06T09:15:03Z</time>
      </trkpt>
      <trkpt lat="44.85424" lon="-0.56541">
        <ele>-0.7</ele>
        <time>2016-12-06T09:15:05Z</time>
      </trkpt>
      <trkpt lat="44.85428" lon="-0.56535">
        <ele>-0.7</ele>
        <time>2016-12-06T09:15:06Z</time>
      </trkpt>
      <trkpt lat="44.85437" lon="-0.56524">
        <ele>-0.9</ele>
        <time>2016-12-06T09:15:08Z</time>
      </trkpt>
      <trkpt lat="44.85445" lon="-0.56512">
        <ele>-0.6</ele>
        <time>2016-12-06T09:15:10Z</time>
      </trkpt>
      <trkpt lat="44.85453" lon="-0.565">
        <ele>-0.7</ele>
        <time>2016-12-06T09:15:12Z</time>
      </trkpt>
      <trkpt lat="44.85461" lon="-0.56487">
        <ele>-0.8</ele>
        <time>2016-12-06T09:15:14Z</time>
      </trkpt>
      <trkpt lat="44.85469" lon="-0.56475">
        <ele>-1.2</ele>
        <time>2016-12-06T09:15:16Z</time>
      </trkpt>
      <trkpt lat="44.85474" lon="-0.56469">
        <ele>-1.4</ele>
        <time>2016-12-06T09:15:17Z</time>
      </trkpt>
      <trkpt lat="44.85478" lon="-0.56463">
        <ele>-1.6</ele>
        <time>2016-12-06T09:15:18Z</time>
      </trkpt>
      <trkpt lat="44.85487" lon="-0.5645">
        <ele>-1.6</ele>
        <time>2016-12-06T09:15:20Z</time>
      </trkpt>
      <trkpt lat="44.85494" lon="-0.56437">
        <ele>-1.9</ele>
        <time>2016-12-06T09:15:22Z</time>
      </trkpt>
      <trkpt lat="44.85501" lon="-0.56424">
        <ele>-2.3</ele>
        <time>2016-12-06T09:15:24Z</time>
      </trkpt>
      <trkpt lat="44.85504" lon="-0.56418">
        <ele>-2.6</ele>
        <time>2016-12-06T09:15:25Z</time>
      </trkpt>
      <trkpt lat="44.8551" lon="-0.56406">
        <ele>-3.8</ele>
        <time>2016-12-06T09:15:27Z</time>
      </trkpt>
      <trkpt lat="44.85514" lon="-0.564">
        <ele>-4.2</ele>
        <time>2016-12-06T09:15:28Z</time>
      </trkpt>
      <trkpt lat="44.85521" lon="-0.5639">
        <ele>-5.1</ele>
        <time>2016-12-06T09:15:30Z</time>
      </trkpt>
      <trkpt lat="44.85529" lon="-0.5638">
        <ele>-5.3</ele>
        <time>2016-12-06T09:15:32Z</time>
      </trkpt>
      <trkpt lat="44.85533" lon="-0.56376">
        <ele>-5</ele>
        <time>2016-12-06T09:15:33Z</time>
      </trkpt>
      <trkpt lat="44.85539" lon="-0.56368">
        <ele>-3.3</ele>
        <time>2016-12-06T09:15:35Z</time>
      </trkpt>
      <trkpt lat="44.85545" lon="-0.5636">
        <ele>-3.2</ele>
        <time>2016-12-06T09:16:28Z</time>
      </trkpt>
      <trkpt lat="44.85548" lon="-0.56353">
        <ele>-2.9</ele>
        <time>2016-12-06T09:16:31Z</time>
      </trkpt>
      <trkpt lat="44.85552" lon="-0.56346">
        <ele>-3.3</ele>
        <time>2016-12-06T09:16:33Z</time>
      </trkpt>
      <trkpt lat="44.85557" lon="-0.56338">
        <ele>-3.3</ele>
        <time>2016-12-06T09:16:35Z</time>
      </trkpt>
      <trkpt lat="44.85562" lon="-0.5633">
        <ele>-3.4</ele>
        <time>2016-12-06T09:16:37Z</time>
      </trkpt>
      <trkpt lat="44.85567" lon="-0.56322">
        <ele>-3.7</ele>
        <time>2016-12-06T09:16:39Z</time>
      </trkpt>
      <trkpt lat="44.85572" lon="-0.56315">
        <ele>-3.9</ele>
        <time>2016-12-06T09:16:41Z</time>
      </trkpt>
      <trkpt lat="44.85577" lon="-0.56307">
        <ele>-4.3</ele>
        <time>2016-12-06T09:16:43Z</time>
      </trkpt>
      <trkpt lat="44.85581" lon="-0.563">
        <ele>-4.6</ele>
        <time>2016-12-06T09:16:45Z</time>
      </trkpt>
      <trkpt lat="44.85586" lon="-0.56294">
        <ele>-5.1</ele>
        <time>2016-12-06T09:16:47Z</time>
      </trkpt>
      <trkpt lat="44.85588" lon="-0.56287">
        <ele>-5.3</ele>
        <time>2016-12-06T09:16:49Z</time>
      </trkpt>
      <trkpt lat="44.85591" lon="-0.56278">
        <ele>-5.8</ele>
        <time>2016-12-06T09:16:51Z</time>
      </trkpt>
      <trkpt lat="44.85595" lon="-0.56267">
        <ele>-6.8</ele>
        <time>2016-12-06T09:16:53Z</time>
      </trkpt>
      <trkpt lat="44.856" lon="-0.56256">
        <ele>-7.8</ele>
        <time>2016-12-06T09:16:55Z</time>
      </trkpt>
      <trkpt lat="44.85603" lon="-0.5625">
        <ele>-8.4</ele>
        <time>2016-12-06T09:16:56Z</time>
      </trkpt>
      <trkpt lat="44.85607" lon="-0.56239">
        <ele>-9.8</ele>
        <time>2016-12-06T09:16:58Z</time>
      </trkpt>
      <trkpt lat="44.85613" lon="-0.56229">
        <ele>-11.5</ele>
        <time>2016-12-06T09:17:00Z</time>
      </trkpt>
      <trkpt lat="44.85617" lon="-0.56221">
        <ele>-13.1</ele>
        <time>2016-12-06T09:17:02Z</time>
      </trkpt>
      <trkpt lat="44.85622" lon="-0.56215">
        <ele>-15.1</ele>
        <time>2016-12-06T09:17:04Z</time>
      </trkpt>
      <trkpt lat="44.85625" lon="-0.56205">
        <ele>-16.6</ele>
        <time>2016-12-06T09:17:06Z</time>
      </trkpt>
      <trkpt lat="44.85628" lon="-0.56195">
        <ele>-16.5</ele>
        <time>2016-12-06T09:17:08Z</time>
      </trkpt>
      <trkpt lat="44.85635" lon="-0.56186">
        <ele>-16</ele>
        <time>2016-12-06T09:17:10Z</time>
      </trkpt>
      <trkpt lat="44.85641" lon="-0.56178">
        <ele>-16.7</ele>
        <time>2016-12-06T09:17:12Z</time>
      </trkpt>
      <trkpt lat="44.85645" lon="-0.56174">
        <ele>-15.6</ele>
        <time>2016-12-06T09:17:13Z</time>
      </trkpt>
      <trkpt lat="44.85651" lon="-0.56162">
        <ele>-13.2</ele>
        <time>2016-12-06T09:17:15Z</time>
      </trkpt>
      <trkpt lat="44.85654" lon="-0.56151">
        <ele>-12.9</ele>
        <time>2016-12-06T09:17:17Z</time>
      </trkpt>
      <trkpt lat="44.85657" lon="-0.56141">
        <ele>-13</ele>
        <time>2016-12-06T09:17:19Z</time>
      </trkpt>
      <trkpt lat="44.85661" lon="-0.56131">
        <ele>-12.9</ele>
        <time>2016-12-06T09:17:21Z</time>
      </trkpt>
      <trkpt lat="44.85663" lon="-0.56122">
        <ele>-13.2</ele>
        <time>2016-12-06T09:17:23Z</time>
      </trkpt>
      <trkpt lat="44.85665" lon="-0.56114">
        <ele>-13.3</ele>
        <time>2016-12-06T09:17:25Z</time>
      </trkpt>
      <trkpt lat="44.85666" lon="-0.56106">
        <ele>-13.7</ele>
        <time>2016-12-06T09:17:27Z</time>
      </trkpt>
      <trkpt lat="44.85669" lon="-0.56098">
        <ele>-14.6</ele>
        <time>2016-12-06T09:17:29Z</time>
      </trkpt>
      <trkpt lat="44.85671" lon="-0.5609">
        <ele>-15.4</ele>
        <time>2016-12-06T09:17:31Z</time>
      </trkpt>
      <trkpt lat="44.85674" lon="-0.56081">
        <ele>-16</ele>
        <time>2016-12-06T09:17:33Z</time>
      </trkpt>
      <trkpt lat="44.85676" lon="-0.56073">
        <ele>-16.6</ele>
        <time>2016-12-06T09:17:35Z</time>
      </trkpt>
      <trkpt lat="44.8568" lon="-0.56065">
        <ele>-16.9</ele>
        <time>2016-12-06T09:17:37Z</time>
      </trkpt>
      <trkpt lat="44.85684" lon="-0.56058">
        <ele>-17.4</ele>
        <time>2016-12-06T09:17:39Z</time>
      </trkpt>
      <trkpt lat="44.85687" lon="-0.56049">
        <ele>-17.6</ele>
        <time>2016-12-06T09:17:41Z</time>
      </trkpt>
      <trkpt lat="44.85689" lon="-0.5604">
        <ele>-17.4</ele>
        <time>2016-12-06T09:17:43Z</time>
      </trkpt>
      <trkpt lat="44.85693" lon="-0.56031">
        <ele>-17.5</ele>
        <time>2016-12-06T09:17:45Z</time>
      </trkpt>
      <trkpt lat="44.85699" lon="-0.56026">
        <ele>-17.9</ele>
        <time>2016-12-06T09:17:47Z</time>
      </trkpt>
      <trkpt lat="44.8571" lon="-0.56019">
        <ele>-16.5</ele>
        <time>2016-12-06T09:17:49Z</time>
      </trkpt>
      <trkpt lat="44.8572" lon="-0.56013">
        <ele>-14.4</ele>
        <time>2016-12-06T09:17:51Z</time>
      </trkpt>
      <trkpt lat="44.85726" lon="-0.56004">
        <ele>-13.8</ele>
        <time>2016-12-06T09:17:53Z</time>
      </trkpt>
      <trkpt lat="44.85729" lon="-0.55999">
        <ele>-13.4</ele>
        <time>2016-12-06T09:17:54Z</time>
      </trkpt>
      <trkpt lat="44.85733" lon="-0.55989">
        <ele>-12.7</ele>
        <time>2016-12-06T09:17:56Z</time>
      </trkpt>
      <trkpt lat="44.85737" lon="-0.55981">
        <ele>-12.5</ele>
        <time>2016-12-06T09:17:58Z</time>
      </trkpt>
      <trkpt lat="44.85741" lon="-0.55973">
        <ele>-11.6</ele>
        <time>2016-12-06T09:18:00Z</time>
      </trkpt>
      <trkpt lat="44.85743" lon="-0.55966">
        <ele>-11.8</ele>
        <time>2016-12-06T09:18:02Z</time>
      </trkpt>
      <trkpt lat="44.85748" lon="-0.55954">
        <ele>-11.5</ele>
        <time>2016-12-06T09:18:08Z</time>
      </trkpt>
      <trkpt lat="44.8575" lon="-0.55946">
        <ele>-10.8</ele>
        <time>2016-12-06T09:18:10Z</time>
      </trkpt>
      <trkpt lat="44.85753" lon="-0.55936">
        <ele>-10.7</ele>
        <time>2016-12-06T09:18:12Z</time>
      </trkpt>
      <trkpt lat="44.85756" lon="-0.55927">
        <ele>-11.3</ele>
        <time>2016-12-06T09:18:14Z</time>
      </trkpt>
      <trkpt lat="44.8576" lon="-0.55916">
        <ele>-11.1</ele>
        <time>2016-12-06T09:18:16Z</time>
      </trkpt>
      <trkpt lat="44.85764" lon="-0.55908">
        <ele>-11.2</ele>
        <time>2016-12-06T09:18:18Z</time>
      </trkpt>
      <trkpt lat="44.85766" lon="-0.55902">
        <ele>-10.9</ele>
        <time>2016-12-06T09:18:19Z</time>
      </trkpt>
      <trkpt lat="44.85769" lon="-0.55891">
        <ele>-10.7</ele>
        <time>2016-12-06T09:18:21Z</time>
      </trkpt>
      <trkpt lat="44.8577" lon="-0.55883">
        <ele>-10.6</ele>
        <time>2016-12-06T09:18:23Z</time>
      </trkpt>
      <trkpt lat="44.85772" lon="-0.55874">
        <ele>-11</ele>
        <time>2016-12-06T09:18:25Z</time>
      </trkpt>
      <trkpt lat="44.85774" lon="-0.55864">
        <ele>-11.5</ele>
        <time>2016-12-06T09:18:27Z</time>
      </trkpt>
      <trkpt lat="44.85778" lon="-0.55854">
        <ele>-11.8</ele>
        <time>2016-12-06T09:18:29Z</time>
      </trkpt>
      <trkpt lat="44.85784" lon="-0.55845">
        <ele>-12.3</ele>
        <time>2016-12-06T09:18:31Z</time>
      </trkpt>
      <trkpt lat="44.85791" lon="-0.55836">
        <ele>-12.2</ele>
        <time>2016-12-06T09:18:33Z</time>
      </trkpt>
      <trkpt lat="44.85798" lon="-0.55826">
        <ele>-11.8</ele>
        <time>2016-12-06T09:18:35Z</time>
      </trkpt>
      <trkpt lat="44.85804" lon="-0.55816">
        <ele>-10.6</ele>
        <time>2016-12-06T09:18:37Z</time>
      </trkpt>
      <trkpt lat="44.85808" lon="-0.55809">
        <ele>-9.9</ele>
        <time>2016-12-06T09:18:39Z</time>
      </trkpt>
      <trkpt lat="44.85811" lon="-0.55802">
        <ele>-9.9</ele>
        <time>2016-12-06T09:18:41Z</time>
      </trkpt>
      <trkpt lat="44.85813" lon="-0.55795">
        <ele>-9.8</ele>
        <time>2016-12-06T09:18:43Z</time>
      </trkpt>
      <trkpt lat="44.85815" lon="-0.55787">
        <ele>-9.9</ele>
        <time>2016-12-06T09:18:45Z</time>
      </trkpt>
      <trkpt lat="44.85817" lon="-0.55778">
        <ele>-10.1</ele>
        <time>2016-12-06T09:18:47Z</time>
      </trkpt>
      <trkpt lat="44.8582" lon="-0.55769">
        <ele>-10.2</ele>
        <time>2016-12-06T09:18:49Z</time>
      </trkpt>
      <trkpt lat="44.85823" lon="-0.5576">
        <ele>-10.3</ele>
        <time>2016-12-06T09:18:51Z</time>
      </trkpt>
      <trkpt lat="44.85826" lon="-0.55751">
        <ele>-10.5</ele>
        <time>2016-12-06T09:18:53Z</time>
      </trkpt>
      <trkpt lat="44.85828" lon="-0.55741">
        <ele>-9.9</ele>
        <time>2016-12-06T09:18:55Z</time>
      </trkpt>
      <trkpt lat="44.8583" lon="-0.55732">
        <ele>-10.2</ele>
        <time>2016-12-06T09:18:57Z</time>
      </trkpt>
      <trkpt lat="44.85833" lon="-0.55722">
        <ele>-10.7</ele>
        <time>2016-12-06T09:18:59Z</time>
      </trkpt>
      <trkpt lat="44.85837" lon="-0.55713">
        <ele>-10.8</ele>
        <time>2016-12-06T09:19:01Z</time>
      </trkpt>
      <trkpt lat="44.85839" lon="-0.55708">
        <ele>-11.4</ele>
        <time>2016-12-06T09:19:03Z</time>
      </trkpt>
      <trkpt lat="44.85842" lon="-0.557">
        <ele>-11.7</ele>
        <time>2016-12-06T09:19:06Z</time>
      </trkpt>
      <trkpt lat="44.85845" lon="-0.55693">
        <ele>-11.8</ele>
        <time>2016-12-06T09:19:08Z</time>
      </trkpt>
      <trkpt lat="44.85848" lon="-0.55685">
        <ele>-12.4</ele>
        <time>2016-12-06T09:19:10Z</time>
      </trkpt>
      <trkpt lat="44.85852" lon="-0.55678">
        <ele>-13.2</ele>
        <time>2016-12-06T09:19:12Z</time>
      </trkpt>
      <trkpt lat="44.85855" lon="-0.55672">
        <ele>-14</ele>
        <time>2016-12-06T09:19:14Z</time>
      </trkpt>
      <trkpt lat="44.85868" lon="-0.55668">
        <ele>-13.1</ele>
        <time>2016-12-06T09:19:16Z</time>
      </trkpt>
      <trkpt lat="44.85872" lon="-0.55664">
        <ele>-12.4</ele>
        <time>2016-12-06T09:19:17Z</time>
      </trkpt>
      <trkpt lat="44.85878" lon="-0.55654">
        <ele>-9.9</ele>
        <time>2016-12-06T09:19:19Z</time>
      </trkpt>
      <trkpt lat="44.85883" lon="-0.55646">
        <ele>-8.7</ele>
        <time>2016-12-06T09:19:21Z</time>
      </trkpt>
      <trkpt lat="44.85887" lon="-0.55639">
        <ele>-9.4</ele>
        <time>2016-12-06T09:19:23Z</time>
      </trkpt>
      <trkpt lat="44.8589" lon="-0.5563">
        <ele>-10.3</ele>
        <time>2016-12-06T09:19:25Z</time>
      </trkpt>
      <trkpt lat="44.85893" lon="-0.55618">
        <ele>-10.3</ele>
        <time>2016-12-06T09:19:27Z</time>
      </trkpt>
      <trkpt lat="44.85895" lon="-0.55606">
        <ele>-10</ele>
        <time>2016-12-06T09:19:29Z</time>
      </trkpt>
      <trkpt lat="44.85897" lon="-0.55597">
        <ele>-9.9</ele>
        <time>2016-12-06T09:19:31Z</time>
      </trkpt>
      <trkpt lat="44.85898" lon="-0.55589">
        <ele>-10.2</ele>
        <time>2016-12-06T09:19:33Z</time>
      </trkpt>
      <trkpt lat="44.859" lon="-0.55583">
        <ele>-10.5</ele>
        <time>2016-12-06T09:19:35Z</time>
      </trkpt>
      <trkpt lat="44.85904" lon="-0.55574">
        <ele>-10.4</ele>
        <time>2016-12-06T09:19:37Z</time>
      </trkpt>
      <trkpt lat="44.85907" lon="-0.55564">
        <ele>-10.5</ele>
        <time>2016-12-06T09:19:39Z</time>
      </trkpt>
      <trkpt lat="44.85912" lon="-0.55555">
        <ele>-10.6</ele>
        <time>2016-12-06T09:19:41Z</time>
      </trkpt>
      <trkpt lat="44.85916" lon="-0.55546">
        <ele>-11.1</ele>
        <time>2016-12-06T09:19:43Z</time>
      </trkpt>
      <trkpt lat="44.8592" lon="-0.55538">
        <ele>-11.8</ele>
        <time>2016-12-06T09:19:45Z</time>
      </trkpt>
      <trkpt lat="44.85923" lon="-0.55529">
        <ele>-12.4</ele>
        <time>2016-12-06T09:19:47Z</time>
      </trkpt>
      <trkpt lat="44.85927" lon="-0.55521">
        <ele>-13.1</ele>
        <time>2016-12-06T09:19:49Z</time>
      </trkpt>
      <trkpt lat="44.85931" lon="-0.55517">
        <ele>-13.7</ele>
        <time>2016-12-06T09:19:50Z</time>
      </trkpt>
      <trkpt lat="44.85936" lon="-0.55509">
        <ele>-13.4</ele>
        <time>2016-12-06T09:19:52Z</time>
      </trkpt>
      <trkpt lat="44.85939" lon="-0.55503">
        <ele>-13.1</ele>
        <time>2016-12-06T09:19:53Z</time>
      </trkpt>
      <trkpt lat="44.8595" lon="-0.55494">
        <ele>-12.9</ele>
        <time>2016-12-06T09:19:55Z</time>
      </trkpt>
      <trkpt lat="44.8596" lon="-0.55485">
        <ele>-10.9</ele>
        <time>2016-12-06T09:19:57Z</time>
      </trkpt>
      <trkpt lat="44.85966" lon="-0.55476">
        <ele>-9.5</ele>
        <time>2016-12-06T09:19:59Z</time>
      </trkpt>
      <trkpt lat="44.85968" lon="-0.55469">
        <ele>-9.4</ele>
        <time>2016-12-06T09:20:01Z</time>
      </trkpt>
      <trkpt lat="44.85971" lon="-0.55461">
        <ele>-9</ele>
        <time>2016-12-06T09:20:03Z</time>
      </trkpt>
      <trkpt lat="44.85974" lon="-0.55452">
        <ele>-9.4</ele>
        <time>2016-12-06T09:20:05Z</time>
      </trkpt>
      <trkpt lat="44.85977" lon="-0.55442">
        <ele>-10.1</ele>
        <time>2016-12-06T09:20:07Z</time>
      </trkpt>
      <trkpt lat="44.85981" lon="-0.55433">
        <ele>-10.3</ele>
        <time>2016-12-06T09:20:09Z</time>
      </trkpt>
      <trkpt lat="44.85984" lon="-0.55424">
        <ele>-10.6</ele>
        <time>2016-12-06T09:20:11Z</time>
      </trkpt>
      <trkpt lat="44.85989" lon="-0.55416">
        <ele>-10.3</ele>
        <time>2016-12-06T09:20:13Z</time>
      </trkpt>
      <trkpt lat="44.85998" lon="-0.55408">
        <ele>-7.2</ele>
        <time>2016-12-06T09:20:15Z</time>
      </trkpt>
      <trkpt lat="44.86002" lon="-0.55399">
        <ele>-5.8</ele>
        <time>2016-12-06T09:20:17Z</time>
      </trkpt>
      <trkpt lat="44.86003" lon="-0.55392">
        <ele>-4.2</ele>
        <time>2016-12-06T09:20:18Z</time>
      </trkpt>
      <trkpt lat="44.85999" lon="-0.55381">
        <ele>-2.8</ele>
        <time>2016-12-06T09:20:20Z</time>
      </trkpt>
      <trkpt lat="44.85992" lon="-0.55371">
        <ele>-1.9</ele>
        <time>2016-12-06T09:20:22Z</time>
      </trkpt>
      <trkpt lat="44.85988" lon="-0.55367">
        <ele>-2</ele>
        <time>2016-12-06T09:20:23Z</time>
      </trkpt>
      <trkpt lat="44.85979" lon="-0.55357">
        <ele>-1.7</ele>
        <time>2016-12-06T09:20:25Z</time>
      </trkpt>
      <trkpt lat="44.85975" lon="-0.55353">
        <ele>-1.7</ele>
        <time>2016-12-06T09:20:26Z</time>
      </trkpt>
      <trkpt lat="44.85966" lon="-0.55344">
        <ele>0.3</ele>
        <time>2016-12-06T09:20:28Z</time>
      </trkpt>
      <trkpt lat="44.85957" lon="-0.55335">
        <ele>1.5</ele>
        <time>2016-12-06T09:20:30Z</time>
      </trkpt>
      <trkpt lat="44.85948" lon="-0.55326">
        <ele>1.6</ele>
        <time>2016-12-06T09:20:32Z</time>
      </trkpt>
      <trkpt lat="44.85939" lon="-0.55317">
        <ele>1.9</ele>
        <time>2016-12-06T09:20:34Z</time>
      </trkpt>
      <trkpt lat="44.85934" lon="-0.55313">
        <ele>2.4</ele>
        <time>2016-12-06T09:20:35Z</time>
      </trkpt>
      <trkpt lat="44.85924" lon="-0.55303">
        <ele>2.9</ele>
        <time>2016-12-06T09:20:37Z</time>
      </trkpt>
      <trkpt lat="44.85915" lon="-0.55294">
        <ele>3.6</ele>
        <time>2016-12-06T09:20:39Z</time>
      </trkpt>
      <trkpt lat="44.8591" lon="-0.55289">
        <ele>4</ele>
        <time>2016-12-06T09:20:40Z</time>
      </trkpt>
      <trkpt lat="44.85901" lon="-0.5528">
        <ele>4.1</ele>
        <time>2016-12-06T09:20:42Z</time>
      </trkpt>
      <trkpt lat="44.85896" lon="-0.55276">
        <ele>4.4</ele>
        <time>2016-12-06T09:20:43Z</time>
      </trkpt>
      <trkpt lat="44.85887" lon="-0.55266">
        <ele>4.8</ele>
        <time>2016-12-06T09:20:45Z</time>
      </trkpt>
      <trkpt lat="44.85882" lon="-0.55262">
        <ele>5.1</ele>
        <time>2016-12-06T09:20:46Z</time>
      </trkpt>
      <trkpt lat="44.85873" lon="-0.55253">
        <ele>5.7</ele>
        <time>2016-12-06T09:20:48Z</time>
      </trkpt>
      <trkpt lat="44.85864" lon="-0.55244">
        <ele>5.9</ele>
        <time>2016-12-06T09:20:50Z</time>
      </trkpt>
      <trkpt lat="44.8586" lon="-0.55241">
        <ele>6.1</ele>
        <time>2016-12-06T09:20:51Z</time>
      </trkpt>
      <trkpt lat="44.85852" lon="-0.55233">
        <ele>6</ele>
        <time>2016-12-06T09:20:53Z</time>
      </trkpt>
      <trkpt lat="44.85845" lon="-0.55225">
        <ele>6</ele>
        <time>2016-12-06T09:20:55Z</time>
      </trkpt>
      <trkpt lat="44.85838" lon="-0.55218">
        <ele>5.9</ele>
        <time>2016-12-06T09:20:57Z</time>
      </trkpt>
      <trkpt lat="44.85831" lon="-0.55211">
        <ele>6.5</ele>
        <time>2016-12-06T09:20:59Z</time>
      </trkpt>
      <trkpt lat="44.85824" lon="-0.55205">
        <ele>6.7</ele>
        <time>2016-12-06T09:21:01Z</time>
      </trkpt>
      <trkpt lat="44.85817" lon="-0.55198">
        <ele>6.9</ele>
        <time>2016-12-06T09:21:03Z</time>
      </trkpt>
      <trkpt lat="44.85811" lon="-0.5519">
        <ele>7.1</ele>
        <time>2016-12-06T09:21:05Z</time>
      </trkpt>
      <trkpt lat="44.85805" lon="-0.55183">
        <ele>7.1</ele>
        <time>2016-12-06T09:21:07Z</time>
      </trkpt>
      <trkpt lat="44.85798" lon="-0.55175">
        <ele>6.6</ele>
        <time>2016-12-06T09:21:09Z</time>
      </trkpt>
      <trkpt lat="44.85791" lon="-0.55167">
        <ele>6.1</ele>
        <time>2016-12-06T09:21:11Z</time>
      </trkpt>
      <trkpt lat="44.85787" lon="-0.55163">
        <ele>6</ele>
        <time>2016-12-06T09:21:12Z</time>
      </trkpt>
      <trkpt lat="44.8578" lon="-0.55154">
        <ele>5</ele>
        <time>2016-12-06T09:21:14Z</time>
      </trkpt>
      <trkpt lat="44.85772" lon="-0.55145">
        <ele>4.4</ele>
        <time>2016-12-06T09:21:16Z</time>
      </trkpt>
      <trkpt lat="44.85763" lon="-0.55136">
        <ele>4.2</ele>
        <time>2016-12-06T09:21:18Z</time>
      </trkpt>
      <trkpt lat="44.85759" lon="-0.55131">
        <ele>4.2</ele>
        <time>2016-12-06T09:21:19Z</time>
      </trkpt>
      <trkpt lat="44.8575" lon="-0.55122">
        <ele>4.3</ele>
        <time>2016-12-06T09:21:21Z</time>
      </trkpt>
      <trkpt lat="44.85742" lon="-0.55112">
        <ele>4.1</ele>
        <time>2016-12-06T09:21:23Z</time>
      </trkpt>
      <trkpt lat="44.85733" lon="-0.55102">
        <ele>3.5</ele>
        <time>2016-12-06T09:21:25Z</time>
      </trkpt>
      <trkpt lat="44.85724" lon="-0.55092">
        <ele>3.1</ele>
        <time>2016-12-06T09:21:27Z</time>
      </trkpt>
      <trkpt lat="44.85715" lon="-0.55082">
        <ele>2.7</ele>
        <time>2016-12-06T09:21:29Z</time>
      </trkpt>
      <trkpt lat="44.85705" lon="-0.55072">
        <ele>2.3</ele>
        <time>2016-12-06T09:21:31Z</time>
      </trkpt>
      <trkpt lat="44.85696" lon="-0.55061">
        <ele>2.2</ele>
        <time>2016-12-06T09:21:33Z</time>
      </trkpt>
      <trkpt lat="44.85686" lon="-0.55051">
        <ele>1.8</ele>
        <time>2016-12-06T09:21:35Z</time>
      </trkpt>
      <trkpt lat="44.85681" lon="-0.55046">
        <ele>1.6</ele>
        <time>2016-12-06T09:21:36Z</time>
      </trkpt>
      <trkpt lat="44.85672" lon="-0.55036">
        <ele>1.1</ele>
        <time>2016-12-06T09:21:38Z</time>
      </trkpt>
      <trkpt lat="44.85662" lon="-0.55026">
        <ele>0.8</ele>
        <time>2016-12-06T09:21:40Z</time>
      </trkpt>
      <trkpt lat="44.85652" lon="-0.55017">
        <ele>0.5</ele>
        <time>2016-12-06T09:21:42Z</time>
      </trkpt>
      <trkpt lat="44.85643" lon="-0.55007">
        <ele>0.1</ele>
        <time>2016-12-06T09:21:44Z</time>
      </trkpt>
      <trkpt lat="44.85634" lon="-0.54997">
        <ele>-0.1</ele>
        <time>2016-12-06T09:21:46Z</time>
      </trkpt>
      <trkpt lat="44.85625" lon="-0.54989">
        <ele>-0.4</ele>
        <time>2016-12-06T09:21:48Z</time>
      </trkpt>
      <trkpt lat="44.85617" lon="-0.54981">
        <ele>-0.8</ele>
        <time>2016-12-06T09:21:50Z</time>
      </trkpt>
      <trkpt lat="44.8561" lon="-0.54975">
        <ele>-1</ele>
        <time>2016-12-06T09:21:52Z</time>
      </trkpt>
      <trkpt lat="44.85609" lon="-0.54968">
        <ele>-0.5</ele>
        <time>2016-12-06T09:21:55Z</time>
      </trkpt>
      <trkpt lat="44.85612" lon="-0.54962">
        <ele>-0.4</ele>
        <time>2016-12-06T09:21:57Z</time>
      </trkpt>
      <trkpt lat="44.85615" lon="-0.54955">
        <ele>-0.1</ele>
        <time>2016-12-06T09:21:59Z</time>
      </trkpt>
      <trkpt lat="44.85619" lon="-0.54947">
        <ele>5</ele>
        <time>2016-12-06T09:22:01Z</time>
      </trkpt>
      <trkpt lat="44.85623" lon="-0.54941">
        <ele>-0.4</ele>
        <time>2016-12-06T09:22:03Z</time>
      </trkpt>
      <trkpt lat="44.85625" lon="-0.54935">
        <ele>-0.5</ele>
        <time>2016-12-06T09:22:05Z</time>
      </trkpt>
      <trkpt lat="44.85622" lon="-0.54929">
        <ele>-0.7</ele>
        <time>2016-12-06T09:22:08Z</time>
      </trkpt>
      <trkpt lat="44.85618" lon="-0.54925">
        <ele>-1</ele>
        <time>2016-12-06T09:22:11Z</time>
      </trkpt>
      <trkpt lat="44.85615" lon="-0.54917">
        <ele>-2.1</ele>
        <time>2016-12-06T09:22:35Z</time>
      </trkpt>
      <trkpt lat="44.85619" lon="-0.54908">
        <ele>-2.5</ele>
        <time>2016-12-06T09:22:37Z</time>
      </trkpt>
      <trkpt lat="44.85625" lon="-0.54898">
        <ele>-2.5</ele>
        <time>2016-12-06T09:22:39Z</time>
      </trkpt>
      <trkpt lat="44.8563" lon="-0.54888">
        <ele>-2.3</ele>
        <time>2016-12-06T09:22:41Z</time>
      </trkpt>
      <trkpt lat="44.85636" lon="-0.54876">
        <ele>-2.4</ele>
        <time>2016-12-06T09:22:43Z</time>
      </trkpt>
      <trkpt lat="44.85642" lon="-0.54866">
        <ele>-2.7</ele>
        <time>2016-12-06T09:22:45Z</time>
      </trkpt>
      <trkpt lat="44.85647" lon="-0.54855">
        <ele>-2.9</ele>
        <time>2016-12-06T09:22:47Z</time>
      </trkpt>
      <trkpt lat="44.85652" lon="-0.54846">
        <ele>-2.8</ele>
        <time>2016-12-06T09:22:49Z</time>
      </trkpt>
      <trkpt lat="44.85659" lon="-0.54837">
        <ele>-3</ele>
        <time>2016-12-06T09:22:51Z</time>
      </trkpt>
      <trkpt lat="44.85665" lon="-0.54826">
        <ele>-3.2</ele>
        <time>2016-12-06T09:22:53Z</time>
      </trkpt>
      <trkpt lat="44.85671" lon="-0.54814">
        <ele>-3.2</ele>
        <time>2016-12-06T09:22:55Z</time>
      </trkpt>
      <trkpt lat="44.85674" lon="-0.54808">
        <ele>-3.1</ele>
        <time>2016-12-06T09:22:56Z</time>
      </trkpt>
      <trkpt lat="44.8568" lon="-0.54796">
        <ele>-3</ele>
        <time>2016-12-06T09:22:58Z</time>
      </trkpt>
      <trkpt lat="44.85685" lon="-0.54785">
        <ele>-3</ele>
        <time>2016-12-06T09:23:00Z</time>
      </trkpt>
      <trkpt lat="44.85688" lon="-0.54779">
        <ele>-3.1</ele>
        <time>2016-12-06T09:23:01Z</time>
      </trkpt>
      <trkpt lat="44.85695" lon="-0.54768">
        <ele>-3.3</ele>
        <time>2016-12-06T09:23:03Z</time>
      </trkpt>
      <trkpt lat="44.85699" lon="-0.54762">
        <ele>-3.4</ele>
        <time>2016-12-06T09:23:04Z</time>
      </trkpt>
      <trkpt lat="44.85706" lon="-0.54751">
        <ele>-3.3</ele>
        <time>2016-12-06T09:23:06Z</time>
      </trkpt>
      <trkpt lat="44.85713" lon="-0.5474">
        <ele>-3.9</ele>
        <time>2016-12-06T09:23:08Z</time>
      </trkpt>
      <trkpt lat="44.85716" lon="-0.54734">
        <ele>-4.3</ele>
        <time>2016-12-06T09:23:09Z</time>
      </trkpt>
      <trkpt lat="44.85721" lon="-0.54724">
        <ele>-4.6</ele>
        <time>2016-12-06T09:23:11Z</time>
      </trkpt>
      <trkpt lat="44.85724" lon="-0.54719">
        <ele>-4.7</ele>
        <time>2016-12-06T09:23:12Z</time>
      </trkpt>
      <trkpt lat="44.85731" lon="-0.54708">
        <ele>-5.1</ele>
        <time>2016-12-06T09:23:14Z</time>
      </trkpt>
      <trkpt lat="44.85735" lon="-0.54703">
        <ele>-4.9</ele>
        <time>2016-12-06T09:23:15Z</time>
      </trkpt>
      <trkpt lat="44.85742" lon="-0.54691">
        <ele>-4.4</ele>
        <time>2016-12-06T09:23:17Z</time>
      </trkpt>
      <trkpt lat="44.85745" lon="-0.54685">
        <ele>-4.5</ele>
        <time>2016-12-06T09:23:18Z</time>
      </trkpt>
      <trkpt lat="44.85749" lon="-0.54679">
        <ele>-3.5</ele>
        <time>2016-12-06T09:23:19Z</time>
      </trkpt>
      <trkpt lat="44.85756" lon="-0.54668">
        <ele>-3.4</ele>
        <time>2016-12-06T09:23:21Z</time>
      </trkpt>
      <trkpt lat="44.85759" lon="-0.54662">
        <ele>-3.3</ele>
        <time>2016-12-06T09:23:22Z</time>
      </trkpt>
      <trkpt lat="44.85763" lon="-0.54657">
        <ele>-3</ele>
        <time>2016-12-06T09:23:23Z</time>
      </trkpt>
      <trkpt lat="44.85766" lon="-0.54652">
        <ele>-2.6</ele>
        <time>2016-12-06T09:23:24Z</time>
      </trkpt>
      <trkpt lat="44.85773" lon="-0.54641">
        <ele>-1.9</ele>
        <time>2016-12-06T09:23:26Z</time>
      </trkpt>
      <trkpt lat="44.85777" lon="-0.54635">
        <ele>-1.8</ele>
        <time>2016-12-06T09:23:27Z</time>
      </trkpt>
      <trkpt lat="44.85783" lon="-0.54623">
        <ele>-1.7</ele>
        <time>2016-12-06T09:23:29Z</time>
      </trkpt>
      <trkpt lat="44.85787" lon="-0.54617">
        <ele>-1.7</ele>
        <time>2016-12-06T09:23:30Z</time>
      </trkpt>
      <trkpt lat="44.85793" lon="-0.54606">
        <ele>-1.3</ele>
        <time>2016-12-06T09:23:32Z</time>
      </trkpt>
      <trkpt lat="44.85797" lon="-0.546">
        <ele>-1.1</ele>
        <time>2016-12-06T09:23:33Z</time>
      </trkpt>
      <trkpt lat="44.858" lon="-0.54595">
        <ele>-1.3</ele>
        <time>2016-12-06T09:23:34Z</time>
      </trkpt>
      <trkpt lat="44.85804" lon="-0.54589">
        <ele>-1.5</ele>
        <time>2016-12-06T09:23:35Z</time>
      </trkpt>
      <trkpt lat="44.85811" lon="-0.54579">
        <ele>-1.9</ele>
        <time>2016-12-06T09:23:37Z</time>
      </trkpt>
      <trkpt lat="44.85814" lon="-0.54573">
        <ele>-2</ele>
        <time>2016-12-06T09:23:38Z</time>
      </trkpt>
      <trkpt lat="44.85818" lon="-0.54568">
        <ele>-2.1</ele>
        <time>2016-12-06T09:23:39Z</time>
      </trkpt>
      <trkpt lat="44.85825" lon="-0.54557">
        <ele>-2.2</ele>
        <time>2016-12-06T09:23:41Z</time>
      </trkpt>
      <trkpt lat="44.85832" lon="-0.54546">
        <ele>-2</ele>
        <time>2016-12-06T09:23:43Z</time>
      </trkpt>
      <trkpt lat="44.85839" lon="-0.54536">
        <ele>-1.9</ele>
        <time>2016-12-06T09:23:45Z</time>
      </trkpt>
      <trkpt lat="44.85846" lon="-0.54525">
        <ele>-1.8</ele>
        <time>2016-12-06T09:23:47Z</time>
      </trkpt>
      <trkpt lat="44.8585" lon="-0.54521">
        <ele>-1.7</ele>
        <time>2016-12-06T09:23:48Z</time>
      </trkpt>
      <trkpt lat="44.85856" lon="-0.54512">
        <ele>-1.4</ele>
        <time>2016-12-06T09:23:50Z</time>
      </trkpt>
      <trkpt lat="44.85862" lon="-0.54503">
        <ele>-1.3</ele>
        <time>2016-12-06T09:23:52Z</time>
      </trkpt>
      <trkpt lat="44.85868" lon="-0.54495">
        <ele>-1.3</ele>
        <time>2016-12-06T09:23:54Z</time>
      </trkpt>
      <trkpt lat="44.85874" lon="-0.54488">
        <ele>-1.4</ele>
        <time>2016-12-06T09:23:56Z</time>
      </trkpt>
      <trkpt lat="44.8588" lon="-0.54481">
        <ele>-1.2</ele>
        <time>2016-12-06T09:23:58Z</time>
      </trkpt>
      <trkpt lat="44.85886" lon="-0.54472">
        <ele>-1.2</ele>
        <time>2016-12-06T09:24:00Z</time>
      </trkpt>
      <trkpt lat="44.85892" lon="-0.54465">
        <ele>-1.4</ele>
        <time>2016-12-06T09:24:02Z</time>
      </trkpt>
      <trkpt lat="44.85898" lon="-0.54458">
        <ele>-1.4</ele>
        <time>2016-12-06T09:24:04Z</time>
      </trkpt>
      <trkpt lat="44.85904" lon="-0.54452">
        <ele>-1.3</ele>
        <time>2016-12-06T09:24:06Z</time>
      </trkpt>
      <trkpt lat="44.85909" lon="-0.54445">
        <ele>-1.2</ele>
        <time>2016-12-06T09:24:08Z</time>
      </trkpt>
      <trkpt lat="44.85914" lon="-0.54438">
        <ele>-1.2</ele>
        <time>2016-12-06T09:24:10Z</time>
      </trkpt>
      <trkpt lat="44.8592" lon="-0.54432">
        <ele>-1.2</ele>
        <time>2016-12-06T09:24:12Z</time>
      </trkpt>
      <trkpt lat="44.85925" lon="-0.54426">
        <ele>-1.1</ele>
        <time>2016-12-06T09:24:14Z</time>
      </trkpt>
      <trkpt lat="44.85931" lon="-0.54418">
        <ele>-1.1</ele>
        <time>2016-12-06T09:24:16Z</time>
      </trkpt>
      <trkpt lat="44.85936" lon="-0.54411">
        <ele>-1.4</ele>
        <time>2016-12-06T09:24:18Z</time>
      </trkpt>
      <trkpt lat="44.85942" lon="-0.54404">
        <ele>-1.8</ele>
        <time>2016-12-06T09:24:20Z</time>
      </trkpt>
      <trkpt lat="44.85946" lon="-0.54398">
        <ele>-2.2</ele>
        <time>2016-12-06T09:24:22Z</time>
      </trkpt>
      <trkpt lat="44.85951" lon="-0.54393">
        <ele>-2.6</ele>
        <time>2016-12-06T09:24:24Z</time>
      </trkpt>
      <trkpt lat="44.85955" lon="-0.54386">
        <ele>-2.5</ele>
        <time>2016-12-06T09:24:26Z</time>
      </trkpt>
      <trkpt lat="44.85959" lon="-0.54376">
        <ele>-2.9</ele>
        <time>2016-12-06T09:24:28Z</time>
      </trkpt>
      <trkpt lat="44.85963" lon="-0.54365">
        <ele>-2.8</ele>
        <time>2016-12-06T09:24:30Z</time>
      </trkpt>
      <trkpt lat="44.85964" lon="-0.54358">
        <ele>-2.6</ele>
        <time>2016-12-06T09:24:31Z</time>
      </trkpt>
      <trkpt lat="44.85966" lon="-0.54346">
        <ele>-2.8</ele>
        <time>2016-12-06T09:24:33Z</time>
      </trkpt>
      <trkpt lat="44.85966" lon="-0.54339">
        <ele>-3.3</ele>
        <time>2016-12-06T09:24:34Z</time>
      </trkpt>
      <trkpt lat="44.85966" lon="-0.54332">
        <ele>-3.6</ele>
        <time>2016-12-06T09:24:35Z</time>
      </trkpt>
      <trkpt lat="44.85965" lon="-0.54318">
        <ele>-3.9</ele>
        <time>2016-12-06T09:24:37Z</time>
      </trkpt>
      <trkpt lat="44.85964" lon="-0.54303">
        <ele>-3.9</ele>
        <time>2016-12-06T09:24:39Z</time>
      </trkpt>
      <trkpt lat="44.85963" lon="-0.54295">
        <ele>-3.7</ele>
        <time>2016-12-06T09:24:40Z</time>
      </trkpt>
      <trkpt lat="44.85963" lon="-0.54278">
        <ele>-3.6</ele>
        <time>2016-12-06T09:24:42Z</time>
      </trkpt>
      <trkpt lat="44.85963" lon="-0.54269">
        <ele>-3.8</ele>
        <time>2016-12-06T09:24:43Z</time>
      </trkpt>
      <trkpt lat="44.85964" lon="-0.54252">
        <ele>-3.5</ele>
        <time>2016-12-06T09:24:45Z</time>
      </trkpt>
      <trkpt lat="44.85965" lon="-0.54235">
        <ele>-3.6</ele>
        <time>2016-12-06T09:24:47Z</time>
      </trkpt>
      <trkpt lat="44.85965" lon="-0.54226">
        <ele>-3.1</ele>
        <time>2016-12-06T09:24:48Z</time>
      </trkpt>
      <trkpt lat="44.85966" lon="-0.54209">
        <ele>-2.6</ele>
        <time>2016-12-06T09:24:50Z</time>
      </trkpt>
      <trkpt lat="44.85966" lon="-0.542">
        <ele>-2.6</ele>
        <time>2016-12-06T09:24:51Z</time>
      </trkpt>
      <trkpt lat="44.85966" lon="-0.54191">
        <ele>-2.4</ele>
        <time>2016-12-06T09:24:52Z</time>
      </trkpt>
      <trkpt lat="44.85966" lon="-0.54173">
        <ele>-2.4</ele>
        <time>2016-12-06T09:24:54Z</time>
      </trkpt>
      <trkpt lat="44.85968" lon="-0.54155">
        <ele>-1.9</ele>
        <time>2016-12-06T09:24:56Z</time>
      </trkpt>
      <trkpt lat="44.85968" lon="-0.54146">
        <ele>-2.9</ele>
        <time>2016-12-06T09:24:57Z</time>
      </trkpt>
      <trkpt lat="44.85969" lon="-0.54127">
        <ele>-2.6</ele>
        <time>2016-12-06T09:24:59Z</time>
      </trkpt>
      <trkpt lat="44.8597" lon="-0.54107">
        <ele>-2.9</ele>
        <time>2016-12-06T09:25:01Z</time>
      </trkpt>
      <trkpt lat="44.85971" lon="-0.54088">
        <ele>-2.5</ele>
        <time>2016-12-06T09:25:03Z</time>
      </trkpt>
      <trkpt lat="44.85971" lon="-0.54078">
        <ele>-1.9</ele>
        <time>2016-12-06T09:25:04Z</time>
      </trkpt>
      <trkpt lat="44.85971" lon="-0.54068">
        <ele>-0.9</ele>
        <time>2016-12-06T09:25:05Z</time>
      </trkpt>
      <trkpt lat="44.85969" lon="-0.54049">
        <ele>-0.1</ele>
        <time>2016-12-06T09:25:07Z</time>
      </trkpt>
      <trkpt lat="44.85967" lon="-0.54031">
        <ele>-0.9</ele>
        <time>2016-12-06T09:25:09Z</time>
      </trkpt>
      <trkpt lat="44.85964" lon="-0.54013">
        <ele>-1</ele>
        <time>2016-12-06T09:25:11Z</time>
      </trkpt>
      <trkpt lat="44.85962" lon="-0.53996">
        <ele>-1</ele>
        <time>2016-12-06T09:25:13Z</time>
      </trkpt>
      <trkpt lat="44.85959" lon="-0.53979">
        <ele>-0.8</ele>
        <time>2016-12-06T09:25:15Z</time>
      </trkpt>
      <trkpt lat="44.85956" lon="-0.53962">
        <ele>-0.7</ele>
        <time>2016-12-06T09:25:17Z</time>
      </trkpt>
      <trkpt lat="44.85955" lon="-0.53955">
        <ele>-0.5</ele>
        <time>2016-12-06T09:25:18Z</time>
      </trkpt>
      <trkpt lat="44.85952" lon="-0.53942">
        <ele>-0.7</ele>
        <time>2016-12-06T09:25:20Z</time>
      </trkpt>
      <trkpt lat="44.85951" lon="-0.5393">
        <ele>-1.9</ele>
        <time>2016-12-06T09:25:22Z</time>
      </trkpt>
      <trkpt lat="44.85951" lon="-0.53924">
        <ele>-2.3</ele>
        <time>2016-12-06T09:25:23Z</time>
      </trkpt>
      <trkpt lat="44.8595" lon="-0.53909">
        <ele>-3.3</ele>
        <time>2016-12-06T09:25:25Z</time>
      </trkpt>
      <trkpt lat="44.85948" lon="-0.53894">
        <ele>-3.9</ele>
        <time>2016-12-06T09:25:27Z</time>
      </trkpt>
      <trkpt lat="44.85947" lon="-0.53886">
        <ele>-4.2</ele>
        <time>2016-12-06T09:25:28Z</time>
      </trkpt>
      <trkpt lat="44.85946" lon="-0.5388">
        <ele>-4.3</ele>
        <time>2016-12-06T09:25:29Z</time>
      </trkpt>
      <trkpt lat="44.85945" lon="-0.53874">
        <ele>-4.2</ele>
        <time>2016-12-06T09:25:30Z</time>
      </trkpt>
      <trkpt lat="44.85941" lon="-0.53867">
        <ele>-4.4</ele>
        <time>2016-12-06T09:25:32Z</time>
      </trkpt>
      <trkpt lat="44.85935" lon="-0.53864">
        <ele>-5.3</ele>
        <time>2016-12-06T09:25:35Z</time>
      </trkpt>
      <trkpt lat="44.8593" lon="-0.53865">
        <ele>-5.3</ele>
        <time>2016-12-06T09:25:37Z</time>
      </trkpt>
      <trkpt lat="44.85925" lon="-0.53864">
        <ele>-4.5</ele>
        <time>2016-12-06T09:25:39Z</time>
      </trkpt>
      <trkpt lat="44.8592" lon="-0.53861">
        <ele>-4.2</ele>
        <time>2016-12-06T09:25:49Z</time>
      </trkpt>
      <trkpt lat="44.85915" lon="-0.53855">
        <ele>-4.3</ele>
        <time>2016-12-06T09:25:51Z</time>
      </trkpt>
      <trkpt lat="44.85912" lon="-0.53845">
        <ele>-4.4</ele>
        <time>2016-12-06T09:25:53Z</time>
      </trkpt>
      <trkpt lat="44.85912" lon="-0.53838">
        <ele>-4.5</ele>
        <time>2016-12-06T09:25:55Z</time>
      </trkpt>
      <trkpt lat="44.85914" lon="-0.53831">
        <ele>-4.4</ele>
        <time>2016-12-06T09:25:59Z</time>
      </trkpt>
      <trkpt lat="44.85917" lon="-0.53823">
        <ele>-4.4</ele>
        <time>2016-12-06T09:26:01Z</time>
      </trkpt>
      <trkpt lat="44.85921" lon="-0.53815">
        <ele>-4.1</ele>
        <time>2016-12-06T09:26:03Z</time>
      </trkpt>
      <trkpt lat="44.85929" lon="-0.53811">
        <ele>-4.7</ele>
        <time>2016-12-06T09:26:05Z</time>
      </trkpt>
      <trkpt lat="44.85934" lon="-0.53811">
        <ele>-4.7</ele>
        <time>2016-12-06T09:26:06Z</time>
      </trkpt>
      <trkpt lat="44.85938" lon="-0.53813">
        <ele>-4.9</ele>
        <time>2016-12-06T09:26:07Z</time>
      </trkpt>
      <trkpt lat="44.85947" lon="-0.53821">
        <ele>-4.6</ele>
        <time>2016-12-06T09:26:10Z</time>
      </trkpt>
      <trkpt lat="44.85956" lon="-0.53827">
        <ele>-4.3</ele>
        <time>2016-12-06T09:26:11Z</time>
      </trkpt>
      <trkpt lat="44.85965" lon="-0.53826">
        <ele>-4.3</ele>
        <time>2016-12-06T09:26:13Z</time>
      </trkpt>
      <trkpt lat="44.85971" lon="-0.53826">
        <ele>-4.2</ele>
        <time>2016-12-06T09:26:14Z</time>
      </trkpt>
      <trkpt lat="44.85981" lon="-0.53825">
        <ele>-4.2</ele>
        <time>2016-12-06T09:26:16Z</time>
      </trkpt>
      <trkpt lat="44.85991" lon="-0.53824">
        <ele>-4.4</ele>
        <time>2016-12-06T09:26:18Z</time>
      </trkpt>
      <trkpt lat="44.86" lon="-0.53823">
        <ele>-4.4</ele>
        <time>2016-12-06T09:26:20Z</time>
      </trkpt>
      <trkpt lat="44.86009" lon="-0.53824">
        <ele>-4.6</ele>
        <time>2016-12-06T09:26:22Z</time>
      </trkpt>
      <trkpt lat="44.86018" lon="-0.53827">
        <ele>-5.3</ele>
        <time>2016-12-06T09:26:24Z</time>
      </trkpt>
      <trkpt lat="44.86023" lon="-0.53828">
        <ele>-5.4</ele>
        <time>2016-12-06T09:26:25Z</time>
      </trkpt>
      <trkpt lat="44.86032" lon="-0.53832">
        <ele>-5.7</ele>
        <time>2016-12-06T09:26:27Z</time>
      </trkpt>
      <trkpt lat="44.86037" lon="-0.53833">
        <ele>-5.8</ele>
        <time>2016-12-06T09:26:28Z</time>
      </trkpt>
      <trkpt lat="44.86047" lon="-0.53833">
        <ele>-6.1</ele>
        <time>2016-12-06T09:26:30Z</time>
      </trkpt>
      <trkpt lat="44.86058" lon="-0.53831">
        <ele>-6.2</ele>
        <time>2016-12-06T09:26:32Z</time>
      </trkpt>
      <trkpt lat="44.86063" lon="-0.5383">
        <ele>-6.4</ele>
        <time>2016-12-06T09:26:33Z</time>
      </trkpt>
      <trkpt lat="44.86075" lon="-0.53828">
        <ele>-6.7</ele>
        <time>2016-12-06T09:26:35Z</time>
      </trkpt>
      <trkpt lat="44.86086" lon="-0.53825">
        <ele>-6.9</ele>
        <time>2016-12-06T09:26:37Z</time>
      </trkpt>
      <trkpt lat="44.86096" lon="-0.53822">
        <ele>-6.8</ele>
        <time>2016-12-06T09:26:39Z</time>
      </trkpt>
      <trkpt lat="44.86101" lon="-0.53821">
        <ele>-6.6</ele>
        <time>2016-12-06T09:26:40Z</time>
      </trkpt>
      <trkpt lat="44.86112" lon="-0.53818">
        <ele>-6.4</ele>
        <time>2016-12-06T09:26:42Z</time>
      </trkpt>
      <trkpt lat="44.86118" lon="-0.53817">
        <ele>-6.2</ele>
        <time>2016-12-06T09:26:43Z</time>
      </trkpt>
      <trkpt lat="44.8613" lon="-0.53814">
        <ele>-6.1</ele>
        <time>2016-12-06T09:26:45Z</time>
      </trkpt>
      <trkpt lat="44.86142" lon="-0.53811">
        <ele>-6.3</ele>
        <time>2016-12-06T09:26:47Z</time>
      </trkpt>
      <trkpt lat="44.86155" lon="-0.53808">
        <ele>-6</ele>
        <time>2016-12-06T09:26:49Z</time>
      </trkpt>
      <trkpt lat="44.86167" lon="-0.53804">
        <ele>-6</ele>
        <time>2016-12-06T09:26:51Z</time>
      </trkpt>
      <trkpt lat="44.86173" lon="-0.53802">
        <ele>-6</ele>
        <time>2016-12-06T09:26:52Z</time>
      </trkpt>
      <trkpt lat="44.86179" lon="-0.53801">
        <ele>-5.9</ele>
        <time>2016-12-06T09:26:53Z</time>
      </trkpt>
      <trkpt lat="44.86185" lon="-0.53799">
        <ele>-6</ele>
        <time>2016-12-06T09:26:54Z</time>
      </trkpt>
      <trkpt lat="44.86197" lon="-0.53796">
        <ele>-6.1</ele>
        <time>2016-12-06T09:26:56Z</time>
      </trkpt>
      <trkpt lat="44.86209" lon="-0.53793">
        <ele>-5.7</ele>
        <time>2016-12-06T09:26:58Z</time>
      </trkpt>
      <trkpt lat="44.86215" lon="-0.5379">
        <ele>-5.6</ele>
        <time>2016-12-06T09:26:59Z</time>
      </trkpt>
      <trkpt lat="44.86221" lon="-0.53788">
        <ele>-5.4</ele>
        <time>2016-12-06T09:27:00Z</time>
      </trkpt>
      <trkpt lat="44.86233" lon="-0.53784">
        <ele>-5</ele>
        <time>2016-12-06T09:27:02Z</time>
      </trkpt>
      <trkpt lat="44.86239" lon="-0.53782">
        <ele>-4.9</ele>
        <time>2016-12-06T09:27:03Z</time>
      </trkpt>
      <trkpt lat="44.86251" lon="-0.53776">
        <ele>-4.7</ele>
        <time>2016-12-06T09:27:05Z</time>
      </trkpt>
      <trkpt lat="44.86256" lon="-0.53774">
        <ele>-4.4</ele>
        <time>2016-12-06T09:27:06Z</time>
      </trkpt>
      <trkpt lat="44.86261" lon="-0.53771">
        <ele>-4.1</ele>
        <time>2016-12-06T09:27:07Z</time>
      </trkpt>
      <trkpt lat="44.86272" lon="-0.53764">
        <ele>-4.5</ele>
        <time>2016-12-06T09:27:09Z</time>
      </trkpt>
      <trkpt lat="44.86283" lon="-0.53757">
        <ele>-4.3</ele>
        <time>2016-12-06T09:27:11Z</time>
      </trkpt>
      <trkpt lat="44.86293" lon="-0.5375">
        <ele>-4.5</ele>
        <time>2016-12-06T09:27:13Z</time>
      </trkpt>
      <trkpt lat="44.86303" lon="-0.53742">
        <ele>-4.6</ele>
        <time>2016-12-06T09:27:15Z</time>
      </trkpt>
      <trkpt lat="44.86312" lon="-0.53736">
        <ele>-5.2</ele>
        <time>2016-12-06T09:27:17Z</time>
      </trkpt>
      <trkpt lat="44.86322" lon="-0.5373">
        <ele>-5.4</ele>
        <time>2016-12-06T09:27:19Z</time>
      </trkpt>
      <trkpt lat="44.86331" lon="-0.53727">
        <ele>-5.7</ele>
        <time>2016-12-06T09:27:21Z</time>
      </trkpt>
      <trkpt lat="44.86339" lon="-0.53724">
        <ele>-6.1</ele>
        <time>2016-12-06T09:27:23Z</time>
      </trkpt>
      <trkpt lat="44.86343" lon="-0.53719">
        <ele>-7</ele>
        <time>2016-12-06T09:27:37Z</time>
      </trkpt>
      <trkpt lat="44.86345" lon="-0.53712">
        <ele>-7.7</ele>
        <time>2016-12-06T09:27:40Z</time>
      </trkpt>
      <trkpt lat="44.86348" lon="-0.53704">
        <ele>-7.7</ele>
        <time>2016-12-06T09:27:42Z</time>
      </trkpt>
      <trkpt lat="44.86349" lon="-0.53694">
        <ele>-7.8</ele>
        <time>2016-12-06T09:27:44Z</time>
      </trkpt>
      <trkpt lat="44.86349" lon="-0.53682">
        <ele>-7.7</ele>
        <time>2016-12-06T09:27:46Z</time>
      </trkpt>
      <trkpt lat="44.86349" lon="-0.53675">
        <ele>-7.6</ele>
        <time>2016-12-06T09:27:47Z</time>
      </trkpt>
      <trkpt lat="44.86349" lon="-0.53668">
        <ele>-7.6</ele>
        <time>2016-12-06T09:27:48Z</time>
      </trkpt>
      <trkpt lat="44.86347" lon="-0.53653">
        <ele>-7.8</ele>
        <time>2016-12-06T09:27:50Z</time>
      </trkpt>
      <trkpt lat="44.86346" lon="-0.53646">
        <ele>-7.9</ele>
        <time>2016-12-06T09:27:51Z</time>
      </trkpt>
      <trkpt lat="44.86344" lon="-0.53638">
        <ele>-7.8</ele>
        <time>2016-12-06T09:27:52Z</time>
      </trkpt>
      <trkpt lat="44.86341" lon="-0.53623">
        <ele>-7.6</ele>
        <time>2016-12-06T09:27:54Z</time>
      </trkpt>
      <trkpt lat="44.86338" lon="-0.53616">
        <ele>-7.3</ele>
        <time>2016-12-06T09:27:55Z</time>
      </trkpt>
      <trkpt lat="44.86334" lon="-0.536">
        <ele>-6.6</ele>
        <time>2016-12-06T09:27:57Z</time>
      </trkpt>
      <trkpt lat="44.86331" lon="-0.53593">
        <ele>-6.3</ele>
        <time>2016-12-06T09:27:58Z</time>
      </trkpt>
      <trkpt lat="44.86327" lon="-0.53578">
        <ele>-5.8</ele>
        <time>2016-12-06T09:28:00Z</time>
      </trkpt>
      <trkpt lat="44.86325" lon="-0.53571">
        <ele>-5.7</ele>
        <time>2016-12-06T09:28:01Z</time>
      </trkpt>
      <trkpt lat="44.8632" lon="-0.53556">
        <ele>-5.8</ele>
        <time>2016-12-06T09:28:03Z</time>
      </trkpt>
      <trkpt lat="44.86318" lon="-0.53549">
        <ele>-5.8</ele>
        <time>2016-12-06T09:28:04Z</time>
      </trkpt>
      <trkpt lat="44.86316" lon="-0.53536">
        <ele>-5.6</ele>
        <time>2016-12-06T09:28:06Z</time>
      </trkpt>
      <trkpt lat="44.86314" lon="-0.5353">
        <ele>-5.4</ele>
        <time>2016-12-06T09:28:07Z</time>
      </trkpt>
      <trkpt lat="44.86312" lon="-0.53523">
        <ele>-5.2</ele>
        <time>2016-12-06T09:28:08Z</time>
      </trkpt>
      <trkpt lat="44.8631" lon="-0.53517">
        <ele>-5</ele>
        <time>2016-12-06T09:28:09Z</time>
      </trkpt>
      <trkpt lat="44.86306" lon="-0.53502">
        <ele>-4.7</ele>
        <time>2016-12-06T09:28:11Z</time>
      </trkpt>
      <trkpt lat="44.86302" lon="-0.53489">
        <ele>-4</ele>
        <time>2016-12-06T09:28:13Z</time>
      </trkpt>
      <trkpt lat="44.86298" lon="-0.53476">
        <ele>-3.6</ele>
        <time>2016-12-06T09:28:15Z</time>
      </trkpt>
      <trkpt lat="44.86295" lon="-0.5347">
        <ele>-3.6</ele>
        <time>2016-12-06T09:28:16Z</time>
      </trkpt>
      <trkpt lat="44.86291" lon="-0.53458">
        <ele>-2.9</ele>
        <time>2016-12-06T09:28:18Z</time>
      </trkpt>
      <trkpt lat="44.86288" lon="-0.53453">
        <ele>-2.5</ele>
        <time>2016-12-06T09:28:19Z</time>
      </trkpt>
      <trkpt lat="44.86284" lon="-0.53442">
        <ele>-1.7</ele>
        <time>2016-12-06T09:28:21Z</time>
      </trkpt>
      <trkpt lat="44.86282" lon="-0.53436">
        <ele>-1.7</ele>
        <time>2016-12-06T09:28:22Z</time>
      </trkpt>
      <trkpt lat="44.86279" lon="-0.53426">
        <ele>-0.8</ele>
        <time>2016-12-06T09:28:24Z</time>
      </trkpt>
      <trkpt lat="44.86279" lon="-0.53416">
        <ele>-0.4</ele>
        <time>2016-12-06T09:28:26Z</time>
      </trkpt>
      <trkpt lat="44.86284" lon="-0.53406">
        <ele>-0.4</ele>
        <time>2016-12-06T09:28:28Z</time>
      </trkpt>
      <trkpt lat="44.86291" lon="-0.53399">
        <ele>5.5</ele>
        <time>2016-12-06T09:28:30Z</time>
      </trkpt>
      <trkpt lat="44.86296" lon="-0.53395">
        <ele>-0.1</ele>
        <time>2016-12-06T09:28:31Z</time>
      </trkpt>
      <trkpt lat="44.86304" lon="-0.53388">
        <ele>0.4</ele>
        <time>2016-12-06T09:28:33Z</time>
      </trkpt>
      <trkpt lat="44.86312" lon="-0.53382">
        <ele>1.7</ele>
        <time>2016-12-06T09:28:35Z</time>
      </trkpt>
      <trkpt lat="44.86321" lon="-0.53375">
        <ele>2.2</ele>
        <time>2016-12-06T09:28:37Z</time>
      </trkpt>
      <trkpt lat="44.86325" lon="-0.53371">
        <ele>2.2</ele>
        <time>2016-12-06T09:28:38Z</time>
      </trkpt>
      <trkpt lat="44.86334" lon="-0.53362">
        <ele>2.2</ele>
        <time>2016-12-06T09:28:40Z</time>
      </trkpt>
      <trkpt lat="44.86338" lon="-0.53356">
        <ele>2.2</ele>
        <time>2016-12-06T09:28:41Z</time>
      </trkpt>
      <trkpt lat="44.86344" lon="-0.53344">
        <ele>2</ele>
        <time>2016-12-06T09:28:43Z</time>
      </trkpt>
      <trkpt lat="44.86347" lon="-0.53337">
        <ele>1.8</ele>
        <time>2016-12-06T09:28:44Z</time>
      </trkpt>
      <trkpt lat="44.86352" lon="-0.53323">
        <ele>1.2</ele>
        <time>2016-12-06T09:28:46Z</time>
      </trkpt>
      <trkpt lat="44.86357" lon="-0.5331">
        <ele>0.7</ele>
        <time>2016-12-06T09:28:48Z</time>
      </trkpt>
      <trkpt lat="44.86361" lon="-0.53298">
        <ele>0.5</ele>
        <time>2016-12-06T09:28:50Z</time>
      </trkpt>
      <trkpt lat="44.86363" lon="-0.53292">
        <ele>0.3</ele>
        <time>2016-12-06T09:28:51Z</time>
      </trkpt>
      <trkpt lat="44.86368" lon="-0.5328">
        <ele>0.2</ele>
        <time>2016-12-06T09:28:53Z</time>
      </trkpt>
      <trkpt lat="44.8637" lon="-0.53274">
        <ele>-0.1</ele>
        <time>2016-12-06T09:28:54Z</time>
      </trkpt>
      <trkpt lat="44.86371" lon="-0.53268">
        <ele>6</ele>
        <time>2016-12-06T09:28:55Z</time>
      </trkpt>
      <trkpt lat="44.86374" lon="-0.53257">
        <ele>-0.2</ele>
        <time>2016-12-06T09:28:57Z</time>
      </trkpt>
      <trkpt lat="44.86377" lon="-0.53247">
        <ele>-0.2</ele>
        <time>2016-12-06T09:28:59Z</time>
      </trkpt>
      <trkpt lat="44.8638" lon="-0.53236">
        <ele>-0.1</ele>
        <time>2016-12-06T09:29:01Z</time>
      </trkpt>
      <trkpt lat="44.86383" lon="-0.53226">
        <ele>-0.2</ele>
        <time>2016-12-06T09:29:03Z</time>
      </trkpt>
      <trkpt lat="44.86385" lon="-0.53216">
        <ele>-0.6</ele>
        <time>2016-12-06T09:29:05Z</time>
      </trkpt>
      <trkpt lat="44.86388" lon="-0.53206">
        <ele>-0.8</ele>
        <time>2016-12-06T09:29:07Z</time>
      </trkpt>
      <trkpt lat="44.86391" lon="-0.53195">
        <ele>-0.5</ele>
        <time>2016-12-06T09:29:09Z</time>
      </trkpt>
      <trkpt lat="44.86393" lon="-0.53186">
        <ele>-0.2</ele>
        <time>2016-12-06T09:29:11Z</time>
      </trkpt>
      <trkpt lat="44.86395" lon="-0.53177">
        <ele>0.1</ele>
        <time>2016-12-06T09:29:13Z</time>
      </trkpt>
      <trkpt lat="44.86398" lon="-0.53169">
        <ele>0.2</ele>
        <time>2016-12-06T09:29:15Z</time>
      </trkpt>
      <trkpt lat="44.86402" lon="-0.53164">
        <ele>0.4</ele>
        <time>2016-12-06T09:29:18Z</time>
      </trkpt>
      <trkpt lat="44.86401" lon="-0.53172">
        <ele>0.7</ele>
        <time>2016-12-06T09:29:20Z</time>
      </trkpt>
      <trkpt lat="44.86398" lon="-0.53184">
        <ele>0.6</ele>
        <time>2016-12-06T09:29:22Z</time>
      </trkpt>
      <trkpt lat="44.86396" lon="-0.53191">
        <ele>0.6</ele>
        <time>2016-12-06T09:29:23Z</time>
      </trkpt>
      <trkpt lat="44.86394" lon="-0.53198">
        <ele>0.5</ele>
        <time>2016-12-06T09:29:24Z</time>
      </trkpt>
      <trkpt lat="44.8639" lon="-0.53211">
        <ele>0.9</ele>
        <time>2016-12-06T09:29:26Z</time>
      </trkpt>
      <trkpt lat="44.86388" lon="-0.53217">
        <ele>0.8</ele>
        <time>2016-12-06T09:29:27Z</time>
      </trkpt>
      <trkpt lat="44.86386" lon="-0.53228">
        <ele>1.4</ele>
        <time>2016-12-06T09:29:29Z</time>
      </trkpt>
      <trkpt lat="44.86384" lon="-0.53238">
        <ele>1.3</ele>
        <time>2016-12-06T09:29:31Z</time>
      </trkpt>
      <trkpt lat="44.86381" lon="-0.53249">
        <ele>0.7</ele>
        <time>2016-12-06T09:29:33Z</time>
      </trkpt>
      <trkpt lat="44.8638" lon="-0.53256">
        <ele>0.5</ele>
        <time>2016-12-06T09:29:34Z</time>
      </trkpt>
      <trkpt lat="44.86377" lon="-0.53263">
        <ele>6</ele>
        <time>2016-12-06T09:29:35Z</time>
      </trkpt>
      <trkpt lat="44.86373" lon="-0.53277">
        <ele>-0.2</ele>
        <time>2016-12-06T09:29:37Z</time>
      </trkpt>
      <trkpt lat="44.86368" lon="-0.53291">
        <ele>-0.4</ele>
        <time>2016-12-06T09:29:39Z</time>
      </trkpt>
      <trkpt lat="44.86363" lon="-0.53305">
        <ele>-0.5</ele>
        <time>2016-12-06T09:29:41Z</time>
      </trkpt>
      <trkpt lat="44.86358" lon="-0.53319">
        <ele>-1</ele>
        <time>2016-12-06T09:29:43Z</time>
      </trkpt>
      <trkpt lat="44.86352" lon="-0.53332">
        <ele>-1.2</ele>
        <time>2016-12-06T09:29:45Z</time>
      </trkpt>
      <trkpt lat="44.86347" lon="-0.53345">
        <ele>-1.4</ele>
        <time>2016-12-06T09:29:47Z</time>
      </trkpt>
      <trkpt lat="44.86341" lon="-0.53357">
        <ele>-1.7</ele>
        <time>2016-12-06T09:29:49Z</time>
      </trkpt>
      <trkpt lat="44.86334" lon="-0.53368">
        <ele>-1.9</ele>
        <time>2016-12-06T09:29:51Z</time>
      </trkpt>
      <trkpt lat="44.86329" lon="-0.53372">
        <ele>-2.1</ele>
        <time>2016-12-06T09:29:52Z</time>
      </trkpt>
      <trkpt lat="44.86319" lon="-0.53379">
        <ele>-2.3</ele>
        <time>2016-12-06T09:29:54Z</time>
      </trkpt>
      <trkpt lat="44.86314" lon="-0.53382">
        <ele>-2.7</ele>
        <time>2016-12-06T09:29:55Z</time>
      </trkpt>
      <trkpt lat="44.86306" lon="-0.53388">
        <ele>-2.8</ele>
        <time>2016-12-06T09:29:57Z</time>
      </trkpt>
      <trkpt lat="44.86298" lon="-0.53393">
        <ele>-3.1</ele>
        <time>2016-12-06T09:29:59Z</time>
      </trkpt>
      <trkpt lat="44.86291" lon="-0.53403">
        <ele>-3.1</ele>
        <time>2016-12-06T09:30:01Z</time>
      </trkpt>
      <trkpt lat="44.86287" lon="-0.53414">
        <ele>-3.2</ele>
        <time>2016-12-06T09:30:03Z</time>
      </trkpt>
      <trkpt lat="44.86288" lon="-0.53428">
        <ele>-3.3</ele>
        <time>2016-12-06T09:30:05Z</time>
      </trkpt>
      <trkpt lat="44.86292" lon="-0.53443">
        <ele>-3.4</ele>
        <time>2016-12-06T09:30:07Z</time>
      </trkpt>
      <trkpt lat="44.86296" lon="-0.53457">
        <ele>-4.2</ele>
        <time>2016-12-06T09:30:09Z</time>
      </trkpt>
      <trkpt lat="44.863" lon="-0.53472">
        <ele>-4.3</ele>
        <time>2016-12-06T09:30:11Z</time>
      </trkpt>
      <trkpt lat="44.86304" lon="-0.53486">
        <ele>-4.7</ele>
        <time>2016-12-06T09:30:13Z</time>
      </trkpt>
      <trkpt lat="44.86308" lon="-0.535">
        <ele>-4.8</ele>
        <time>2016-12-06T09:30:15Z</time>
      </trkpt>
      <trkpt lat="44.8631" lon="-0.53508">
        <ele>-4.7</ele>
        <time>2016-12-06T09:30:16Z</time>
      </trkpt>
      <trkpt lat="44.86314" lon="-0.53523">
        <ele>-4.7</ele>
        <time>2016-12-06T09:30:18Z</time>
      </trkpt>
      <trkpt lat="44.86316" lon="-0.5353">
        <ele>-4.5</ele>
        <time>2016-12-06T09:30:19Z</time>
      </trkpt>
      <trkpt lat="44.86321" lon="-0.53546">
        <ele>-4.3</ele>
        <time>2016-12-06T09:30:21Z</time>
      </trkpt>
      <trkpt lat="44.86325" lon="-0.5356">
        <ele>-4.3</ele>
        <time>2016-12-06T09:30:23Z</time>
      </trkpt>
      <trkpt lat="44.86329" lon="-0.53574">
        <ele>-4.8</ele>
        <time>2016-12-06T09:30:25Z</time>
      </trkpt>
      <trkpt lat="44.86333" lon="-0.53588">
        <ele>-5.3</ele>
        <time>2016-12-06T09:30:27Z</time>
      </trkpt>
      <trkpt lat="44.86336" lon="-0.53601">
        <ele>-6.2</ele>
        <time>2016-12-06T09:30:29Z</time>
      </trkpt>
      <trkpt lat="44.8634" lon="-0.53615">
        <ele>-6</ele>
        <time>2016-12-06T09:30:31Z</time>
      </trkpt>
      <trkpt lat="44.86342" lon="-0.53621">
        <ele>-5.8</ele>
        <time>2016-12-06T09:30:32Z</time>
      </trkpt>
      <trkpt lat="44.86345" lon="-0.53634">
        <ele>-5.6</ele>
        <time>2016-12-06T09:30:34Z</time>
      </trkpt>
      <trkpt lat="44.86347" lon="-0.5364">
        <ele>-5.4</ele>
        <time>2016-12-06T09:30:35Z</time>
      </trkpt>
      <trkpt lat="44.86349" lon="-0.53646">
        <ele>-5.5</ele>
        <time>2016-12-06T09:30:36Z</time>
      </trkpt>
      <trkpt lat="44.86352" lon="-0.53659">
        <ele>-3.8</ele>
        <time>2016-12-06T09:30:38Z</time>
      </trkpt>
      <trkpt lat="44.86354" lon="-0.53666">
        <ele>-2.8</ele>
        <time>2016-12-06T09:30:39Z</time>
      </trkpt>
      <trkpt lat="44.86357" lon="-0.53679">
        <ele>-1.2</ele>
        <time>2016-12-06T09:30:41Z</time>
      </trkpt>
      <trkpt lat="44.86357" lon="-0.53685">
        <ele>-0.3</ele>
        <time>2016-12-06T09:30:42Z</time>
      </trkpt>
      <trkpt lat="44.86359" lon="-0.53698">
        <ele>1</ele>
        <time>2016-12-06T09:30:44Z</time>
      </trkpt>
      <trkpt lat="44.8636" lon="-0.53704">
        <ele>1.5</ele>
        <time>2016-12-06T09:30:45Z</time>
      </trkpt>
      <trkpt lat="44.86364" lon="-0.53715">
        <ele>2.3</ele>
        <time>2016-12-06T09:30:47Z</time>
      </trkpt>
      <trkpt lat="44.8637" lon="-0.53723">
        <ele>2.4</ele>
        <time>2016-12-06T09:30:49Z</time>
      </trkpt>
      <trkpt lat="44.86378" lon="-0.53729">
        <ele>2.1</ele>
        <time>2016-12-06T09:30:51Z</time>
      </trkpt>
      <trkpt lat="44.86387" lon="-0.53733">
        <ele>1.8</ele>
        <time>2016-12-06T09:30:53Z</time>
      </trkpt>
      <trkpt lat="44.86395" lon="-0.53738">
        <ele>1.1</ele>
        <time>2016-12-06T09:30:55Z</time>
      </trkpt>
      <trkpt lat="44.86404" lon="-0.53743">
        <ele>0.8</ele>
        <time>2016-12-06T09:30:57Z</time>
      </trkpt>
      <trkpt lat="44.86408" lon="-0.53746">
        <ele>0.7</ele>
        <time>2016-12-06T09:30:58Z</time>
      </trkpt>
      <trkpt lat="44.86417" lon="-0.53749">
        <ele>5</ele>
        <time>2016-12-06T09:31:00Z</time>
      </trkpt>
      <trkpt lat="44.86426" lon="-0.53749">
        <ele>-0.2</ele>
        <time>2016-12-06T09:31:02Z</time>
      </trkpt>
      <trkpt lat="44.86432" lon="-0.53749">
        <ele>-0.6</ele>
        <time>2016-12-06T09:31:04Z</time>
      </trkpt>
      <trkpt lat="44.86425" lon="-0.53753">
        <ele>-2.1</ele>
        <time>2016-12-06T09:31:08Z</time>
      </trkpt>
      <trkpt lat="44.86418" lon="-0.53753">
        <ele>-2.5</ele>
        <time>2016-12-06T09:31:10Z</time>
      </trkpt>
      <trkpt lat="44.86411" lon="-0.53751">
        <ele>-2.8</ele>
        <time>2016-12-06T09:31:12Z</time>
      </trkpt>
      <trkpt lat="44.86403" lon="-0.53747">
        <ele>-3.2</ele>
        <time>2016-12-06T09:31:14Z</time>
      </trkpt>
      <trkpt lat="44.86398" lon="-0.53744">
        <ele>-3.4</ele>
        <time>2016-12-06T09:31:15Z</time>
      </trkpt>
      <trkpt lat="44.86389" lon="-0.53739">
        <ele>-3.7</ele>
        <time>2016-12-06T09:31:17Z</time>
      </trkpt>
      <trkpt lat="44.86384" lon="-0.53737">
        <ele>-3.9</ele>
        <time>2016-12-06T09:31:18Z</time>
      </trkpt>
      <trkpt lat="44.86376" lon="-0.53732">
        <ele>-3.9</ele>
        <time>2016-12-06T09:31:20Z</time>
      </trkpt>
      <trkpt lat="44.86372" lon="-0.53729">
        <ele>-3.9</ele>
        <time>2016-12-06T09:31:21Z</time>
      </trkpt>
      <trkpt lat="44.86364" lon="-0.53724">
        <ele>-4</ele>
        <time>2016-12-06T09:31:23Z</time>
      </trkpt>
      <trkpt lat="44.86359" lon="-0.53721">
        <ele>-4.6</ele>
        <time>2016-12-06T09:31:25Z</time>
      </trkpt>
      <trkpt lat="44.86354" lon="-0.53719">
        <ele>-4.5</ele>
        <time>2016-12-06T09:31:28Z</time>
      </trkpt>
      <trkpt lat="44.86351" lon="-0.53726">
        <ele>-5.2</ele>
        <time>2016-12-06T09:31:31Z</time>
      </trkpt>
      <trkpt lat="44.86355" lon="-0.53732">
        <ele>-6.8</ele>
        <time>2016-12-06T09:31:34Z</time>
      </trkpt>
      <trkpt lat="44.86362" lon="-0.53733">
        <ele>-7.7</ele>
        <time>2016-12-06T09:31:36Z</time>
      </trkpt>
      <trkpt lat="44.86367" lon="-0.53734">
        <ele>-8</ele>
        <time>2016-12-06T09:31:37Z</time>
      </trkpt>
      <trkpt lat="44.86376" lon="-0.53738">
        <ele>-8.8</ele>
        <time>2016-12-06T09:31:39Z</time>
      </trkpt>
      <trkpt lat="44.86381" lon="-0.53742">
        <ele>-8.7</ele>
        <time>2016-12-06T09:31:40Z</time>
      </trkpt>
      <trkpt lat="44.86391" lon="-0.53749">
        <ele>-9.3</ele>
        <time>2016-12-06T09:31:42Z</time>
      </trkpt>
      <trkpt lat="44.86396" lon="-0.53753">
        <ele>-9.5</ele>
        <time>2016-12-06T09:31:43Z</time>
      </trkpt>
      <trkpt lat="44.86406" lon="-0.53762">
        <ele>-9.7</ele>
        <time>2016-12-06T09:31:45Z</time>
      </trkpt>
      <trkpt lat="44.86414" lon="-0.53773">
        <ele>-9.9</ele>
        <time>2016-12-06T09:31:47Z</time>
      </trkpt>
      <trkpt lat="44.86422" lon="-0.53781">
        <ele>-9.7</ele>
        <time>2016-12-06T09:31:49Z</time>
      </trkpt>
      <trkpt lat="44.86431" lon="-0.5379">
        <ele>-9.8</ele>
        <time>2016-12-06T09:31:51Z</time>
      </trkpt>
      <trkpt lat="44.86435" lon="-0.53794">
        <ele>-10.1</ele>
        <time>2016-12-06T09:31:52Z</time>
      </trkpt>
      <trkpt lat="44.86439" lon="-0.53799">
        <ele>-10.2</ele>
        <time>2016-12-06T09:31:53Z</time>
      </trkpt>
      <trkpt lat="44.86448" lon="-0.53808">
        <ele>-10.4</ele>
        <time>2016-12-06T09:31:55Z</time>
      </trkpt>
      <trkpt lat="44.86455" lon="-0.53816">
        <ele>-9.9</ele>
        <time>2016-12-06T09:31:57Z</time>
      </trkpt>
      <trkpt lat="44.86459" lon="-0.5382">
        <ele>-9.3</ele>
        <time>2016-12-06T09:31:58Z</time>
      </trkpt>
      <trkpt lat="44.86463" lon="-0.53825">
        <ele>-9.1</ele>
        <time>2016-12-06T09:31:59Z</time>
      </trkpt>
      <trkpt lat="44.8647" lon="-0.53834">
        <ele>-8.5</ele>
        <time>2016-12-06T09:32:01Z</time>
      </trkpt>
      <trkpt lat="44.86474" lon="-0.53838">
        <ele>-8.3</ele>
        <time>2016-12-06T09:32:02Z</time>
      </trkpt>
      <trkpt lat="44.86478" lon="-0.53841">
        <ele>-7.9</ele>
        <time>2016-12-06T09:32:03Z</time>
      </trkpt>
      <trkpt lat="44.86485" lon="-0.53848">
        <ele>-7.7</ele>
        <time>2016-12-06T09:32:05Z</time>
      </trkpt>
      <trkpt lat="44.86492" lon="-0.53857">
        <ele>-6.5</ele>
        <time>2016-12-06T09:32:07Z</time>
      </trkpt>
      <trkpt lat="44.86495" lon="-0.53861">
        <ele>-6.2</ele>
        <time>2016-12-06T09:32:08Z</time>
      </trkpt>
      <trkpt lat="44.86504" lon="-0.53867">
        <ele>-6.1</ele>
        <time>2016-12-06T09:32:10Z</time>
      </trkpt>
      <trkpt lat="44.86509" lon="-0.5387">
        <ele>-6.3</ele>
        <time>2016-12-06T09:32:11Z</time>
      </trkpt>
      <trkpt lat="44.86513" lon="-0.53873">
        <ele>-6.3</ele>
        <time>2016-12-06T09:32:12Z</time>
      </trkpt>
      <trkpt lat="44.86523" lon="-0.53878">
        <ele>-6.1</ele>
        <time>2016-12-06T09:32:14Z</time>
      </trkpt>
      <trkpt lat="44.86528" lon="-0.53879">
        <ele>-6.4</ele>
        <time>2016-12-06T09:32:15Z</time>
      </trkpt>
      <trkpt lat="44.86538" lon="-0.53881">
        <ele>-6.3</ele>
        <time>2016-12-06T09:32:17Z</time>
      </trkpt>
      <trkpt lat="44.86544" lon="-0.53881">
        <ele>-6.4</ele>
        <time>2016-12-06T09:32:18Z</time>
      </trkpt>
      <trkpt lat="44.8655" lon="-0.53882">
        <ele>-6.3</ele>
        <time>2016-12-06T09:32:19Z</time>
      </trkpt>
      <trkpt lat="44.86561" lon="-0.53881">
        <ele>-5.4</ele>
        <time>2016-12-06T09:32:21Z</time>
      </trkpt>
      <trkpt lat="44.86571" lon="-0.5388">
        <ele>-4.6</ele>
        <time>2016-12-06T09:32:23Z</time>
      </trkpt>
      <trkpt lat="44.86582" lon="-0.53876">
        <ele>-3.5</ele>
        <time>2016-12-06T09:32:25Z</time>
      </trkpt>
      <trkpt lat="44.86592" lon="-0.53871">
        <ele>-2.7</ele>
        <time>2016-12-06T09:32:27Z</time>
      </trkpt>
      <trkpt lat="44.86601" lon="-0.53865">
        <ele>-2.1</ele>
        <time>2016-12-06T09:32:29Z</time>
      </trkpt>
      <trkpt lat="44.86606" lon="-0.53862">
        <ele>-1.4</ele>
        <time>2016-12-06T09:32:30Z</time>
      </trkpt>
      <trkpt lat="44.86611" lon="-0.5386">
        <ele>-1</ele>
        <time>2016-12-06T09:32:31Z</time>
      </trkpt>
      <trkpt lat="44.8662" lon="-0.53856">
        <ele>-0.2</ele>
        <time>2016-12-06T09:32:33Z</time>
      </trkpt>
      <trkpt lat="44.8663" lon="-0.5385">
        <ele>0.3</ele>
        <time>2016-12-06T09:32:35Z</time>
      </trkpt>
      <trkpt lat="44.86641" lon="-0.53844">
        <ele>0.1</ele>
        <time>2016-12-06T09:32:37Z</time>
      </trkpt>
      <trkpt lat="44.86653" lon="-0.5384">
        <ele>-0.4</ele>
        <time>2016-12-06T09:32:39Z</time>
      </trkpt>
      <trkpt lat="44.86665" lon="-0.53836">
        <ele>-1.6</ele>
        <time>2016-12-06T09:32:41Z</time>
      </trkpt>
      <trkpt lat="44.86671" lon="-0.53834">
        <ele>-1.8</ele>
        <time>2016-12-06T09:32:42Z</time>
      </trkpt>
      <trkpt lat="44.86683" lon="-0.5383">
        <ele>-2.8</ele>
        <time>2016-12-06T09:32:44Z</time>
      </trkpt>
      <trkpt lat="44.86689" lon="-0.53828">
        <ele>-2.9</ele>
        <time>2016-12-06T09:32:45Z</time>
      </trkpt>
      <trkpt lat="44.86695" lon="-0.53826">
        <ele>-3.1</ele>
        <time>2016-12-06T09:32:46Z</time>
      </trkpt>
      <trkpt lat="44.86706" lon="-0.53823">
        <ele>-2.6</ele>
        <time>2016-12-06T09:32:48Z</time>
      </trkpt>
      <trkpt lat="44.86712" lon="-0.53821">
        <ele>-2.6</ele>
        <time>2016-12-06T09:32:49Z</time>
      </trkpt>
      <trkpt lat="44.86723" lon="-0.53817">
        <ele>-2.7</ele>
        <time>2016-12-06T09:32:51Z</time>
      </trkpt>
      <trkpt lat="44.86729" lon="-0.53815">
        <ele>-2.7</ele>
        <time>2016-12-06T09:32:52Z</time>
      </trkpt>
      <trkpt lat="44.86735" lon="-0.53814">
        <ele>-2.5</ele>
        <time>2016-12-06T09:32:53Z</time>
      </trkpt>
      <trkpt lat="44.86748" lon="-0.53812">
        <ele>-2.1</ele>
        <time>2016-12-06T09:32:55Z</time>
      </trkpt>
      <trkpt lat="44.86758" lon="-0.53809">
        <ele>-2</ele>
        <time>2016-12-06T09:32:57Z</time>
      </trkpt>
      <trkpt lat="44.8677" lon="-0.53807">
        <ele>-2.2</ele>
        <time>2016-12-06T09:32:59Z</time>
      </trkpt>
      <trkpt lat="44.86781" lon="-0.53803">
        <ele>-2.7</ele>
        <time>2016-12-06T09:33:01Z</time>
      </trkpt>
      <trkpt lat="44.86793" lon="-0.538">
        <ele>-3.1</ele>
        <time>2016-12-06T09:33:03Z</time>
      </trkpt>
      <trkpt lat="44.86798" lon="-0.53798">
        <ele>-3.2</ele>
        <time>2016-12-06T09:33:04Z</time>
      </trkpt>
      <trkpt lat="44.86804" lon="-0.53797">
        <ele>-3.4</ele>
        <time>2016-12-06T09:33:05Z</time>
      </trkpt>
      <trkpt lat="44.8681" lon="-0.53796">
        <ele>-3.6</ele>
        <time>2016-12-06T09:33:06Z</time>
      </trkpt>
      <trkpt lat="44.86821" lon="-0.53793">
        <ele>-3.9</ele>
        <time>2016-12-06T09:33:08Z</time>
      </trkpt>
      <trkpt lat="44.8683" lon="-0.5379">
        <ele>-4.3</ele>
        <time>2016-12-06T09:33:10Z</time>
      </trkpt>
      <trkpt lat="44.86839" lon="-0.53788">
        <ele>-4.8</ele>
        <time>2016-12-06T09:33:12Z</time>
      </trkpt>
      <trkpt lat="44.86844" lon="-0.53787">
        <ele>-4.9</ele>
        <time>2016-12-06T09:33:13Z</time>
      </trkpt>
      <trkpt lat="44.86855" lon="-0.53785">
        <ele>-5.6</ele>
        <time>2016-12-06T09:33:15Z</time>
      </trkpt>
      <trkpt lat="44.86865" lon="-0.53782">
        <ele>-6.5</ele>
        <time>2016-12-06T09:33:17Z</time>
      </trkpt>
      <trkpt lat="44.8687" lon="-0.53781">
        <ele>-6.8</ele>
        <time>2016-12-06T09:33:18Z</time>
      </trkpt>
      <trkpt lat="44.86881" lon="-0.53779">
        <ele>-6.3</ele>
        <time>2016-12-06T09:33:20Z</time>
      </trkpt>
      <trkpt lat="44.8689" lon="-0.53777">
        <ele>-6.3</ele>
        <time>2016-12-06T09:33:22Z</time>
      </trkpt>
      <trkpt lat="44.86899" lon="-0.53775">
        <ele>-6.6</ele>
        <time>2016-12-06T09:33:24Z</time>
      </trkpt>
      <trkpt lat="44.86903" lon="-0.53774">
        <ele>-7</ele>
        <time>2016-12-06T09:33:25Z</time>
      </trkpt>
      <trkpt lat="44.86914" lon="-0.53772">
        <ele>-7</ele>
        <time>2016-12-06T09:33:27Z</time>
      </trkpt>
      <trkpt lat="44.86924" lon="-0.53769">
        <ele>-7.7</ele>
        <time>2016-12-06T09:33:29Z</time>
      </trkpt>
      <trkpt lat="44.86935" lon="-0.53768">
        <ele>-7.8</ele>
        <time>2016-12-06T09:33:31Z</time>
      </trkpt>
      <trkpt lat="44.8694" lon="-0.53768">
        <ele>-7.6</ele>
        <time>2016-12-06T09:33:32Z</time>
      </trkpt>
      <trkpt lat="44.86946" lon="-0.53767">
        <ele>-7.7</ele>
        <time>2016-12-06T09:33:33Z</time>
      </trkpt>
      <trkpt lat="44.86958" lon="-0.53766">
        <ele>-8.2</ele>
        <time>2016-12-06T09:33:35Z</time>
      </trkpt>
      <trkpt lat="44.86964" lon="-0.53765">
        <ele>-8.1</ele>
        <time>2016-12-06T09:33:36Z</time>
      </trkpt>
      <trkpt lat="44.86975" lon="-0.53763">
        <ele>-7.7</ele>
        <time>2016-12-06T09:33:38Z</time>
      </trkpt>
      <trkpt lat="44.86981" lon="-0.53762">
        <ele>-7.5</ele>
        <time>2016-12-06T09:33:39Z</time>
      </trkpt>
      <trkpt lat="44.86991" lon="-0.53759">
        <ele>-7.4</ele>
        <time>2016-12-06T09:33:41Z</time>
      </trkpt>
      <trkpt lat="44.87003" lon="-0.53758">
        <ele>-7.1</ele>
        <time>2016-12-06T09:33:43Z</time>
      </trkpt>
      <trkpt lat="44.87015" lon="-0.53759">
        <ele>-6.2</ele>
        <time>2016-12-06T09:33:45Z</time>
      </trkpt>
      <trkpt lat="44.87021" lon="-0.53759">
        <ele>-6</ele>
        <time>2016-12-06T09:33:46Z</time>
      </trkpt>
      <trkpt lat="44.87027" lon="-0.53759">
        <ele>-5.6</ele>
        <time>2016-12-06T09:33:47Z</time>
      </trkpt>
      <trkpt lat="44.87038" lon="-0.53759">
        <ele>-5.2</ele>
        <time>2016-12-06T09:33:49Z</time>
      </trkpt>
      <trkpt lat="44.8705" lon="-0.5376">
        <ele>-4.7</ele>
        <time>2016-12-06T09:33:51Z</time>
      </trkpt>
      <trkpt lat="44.87061" lon="-0.5376">
        <ele>-4.3</ele>
        <time>2016-12-06T09:33:53Z</time>
      </trkpt>
      <trkpt lat="44.87067" lon="-0.53759">
        <ele>-4.5</ele>
        <time>2016-12-06T09:33:54Z</time>
      </trkpt>
      <trkpt lat="44.87078" lon="-0.53758">
        <ele>-4.8</ele>
        <time>2016-12-06T09:33:56Z</time>
      </trkpt>
      <trkpt lat="44.87084" lon="-0.53758">
        <ele>-4.8</ele>
        <time>2016-12-06T09:33:57Z</time>
      </trkpt>
      <trkpt lat="44.87096" lon="-0.53758">
        <ele>-4.7</ele>
        <time>2016-12-06T09:33:59Z</time>
      </trkpt>
      <trkpt lat="44.87106" lon="-0.53758">
        <ele>-4.3</ele>
        <time>2016-12-06T09:34:01Z</time>
      </trkpt>
      <trkpt lat="44.87112" lon="-0.53757">
        <ele>-4.1</ele>
        <time>2016-12-06T09:34:02Z</time>
      </trkpt>
      <trkpt lat="44.87123" lon="-0.53757">
        <ele>-3.3</ele>
        <time>2016-12-06T09:34:04Z</time>
      </trkpt>
      <trkpt lat="44.87134" lon="-0.53757">
        <ele>-2.7</ele>
        <time>2016-12-06T09:34:06Z</time>
      </trkpt>
      <trkpt lat="44.87145" lon="-0.53758">
        <ele>-2.1</ele>
        <time>2016-12-06T09:34:08Z</time>
      </trkpt>
      <trkpt lat="44.87151" lon="-0.53758">
        <ele>-1.9</ele>
        <time>2016-12-06T09:34:09Z</time>
      </trkpt>
      <trkpt lat="44.87161" lon="-0.53759">
        <ele>-1.7</ele>
        <time>2016-12-06T09:34:11Z</time>
      </trkpt>
      <trkpt lat="44.87171" lon="-0.53758">
        <ele>-2.1</ele>
        <time>2016-12-06T09:34:13Z</time>
      </trkpt>
      <trkpt lat="44.87176" lon="-0.53758">
        <ele>-2.3</ele>
        <time>2016-12-06T09:34:14Z</time>
      </trkpt>
      <trkpt lat="44.87185" lon="-0.53759">
        <ele>-2.9</ele>
        <time>2016-12-06T09:34:16Z</time>
      </trkpt>
      <trkpt lat="44.87193" lon="-0.53758">
        <ele>-2.9</ele>
        <time>2016-12-06T09:34:18Z</time>
      </trkpt>
      <trkpt lat="44.87201" lon="-0.53756">
        <ele>-2.9</ele>
        <time>2016-12-06T09:34:20Z</time>
      </trkpt>
      <trkpt lat="44.8721" lon="-0.53753">
        <ele>-2.5</ele>
        <time>2016-12-06T09:34:22Z</time>
      </trkpt>
      <trkpt lat="44.87219" lon="-0.5375">
        <ele>-1.9</ele>
        <time>2016-12-06T09:34:24Z</time>
      </trkpt>
      <trkpt lat="44.87228" lon="-0.53746">
        <ele>-1.6</ele>
        <time>2016-12-06T09:34:26Z</time>
      </trkpt>
      <trkpt lat="44.87232" lon="-0.53744">
        <ele>-1.4</ele>
        <time>2016-12-06T09:34:27Z</time>
      </trkpt>
      <trkpt lat="44.87242" lon="-0.53742">
        <ele>-1.7</ele>
        <time>2016-12-06T09:34:29Z</time>
      </trkpt>
      <trkpt lat="44.8725" lon="-0.53742">
        <ele>-2.1</ele>
        <time>2016-12-06T09:34:31Z</time>
      </trkpt>
      <trkpt lat="44.87259" lon="-0.53742">
        <ele>-1.8</ele>
        <time>2016-12-06T09:34:33Z</time>
      </trkpt>
      <trkpt lat="44.87268" lon="-0.53741">
        <ele>-1.6</ele>
        <time>2016-12-06T09:34:35Z</time>
      </trkpt>
      <trkpt lat="44.87272" lon="-0.5374">
        <ele>-1.6</ele>
        <time>2016-12-06T09:34:36Z</time>
      </trkpt>
      <trkpt lat="44.87281" lon="-0.53739">
        <ele>-1.3</ele>
        <time>2016-12-06T09:34:38Z</time>
      </trkpt>
      <trkpt lat="44.87289" lon="-0.53736">
        <ele>-1.5</ele>
        <time>2016-12-06T09:34:40Z</time>
      </trkpt>
      <trkpt lat="44.87298" lon="-0.53733">
        <ele>-1.5</ele>
        <time>2016-12-06T09:34:42Z</time>
      </trkpt>
      <trkpt lat="44.87307" lon="-0.53729">
        <ele>-1.1</ele>
        <time>2016-12-06T09:34:44Z</time>
      </trkpt>
      <trkpt lat="44.87316" lon="-0.53725">
        <ele>-0.9</ele>
        <time>2016-12-06T09:34:46Z</time>
      </trkpt>
      <trkpt lat="44.87325" lon="-0.53721">
        <ele>-0.6</ele>
        <time>2016-12-06T09:34:48Z</time>
      </trkpt>
      <trkpt lat="44.87329" lon="-0.53718">
        <ele>-0.6</ele>
        <time>2016-12-06T09:34:49Z</time>
      </trkpt>
      <trkpt lat="44.87339" lon="-0.53715">
        <ele>0.1</ele>
        <time>2016-12-06T09:34:51Z</time>
      </trkpt>
      <trkpt lat="44.87345" lon="-0.53713">
        <ele>0.3</ele>
        <time>2016-12-06T09:34:52Z</time>
      </trkpt>
      <trkpt lat="44.8735" lon="-0.53711">
        <ele>0.5</ele>
        <time>2016-12-06T09:34:53Z</time>
      </trkpt>
      <trkpt lat="44.8736" lon="-0.53705">
        <ele>0.9</ele>
        <time>2016-12-06T09:34:55Z</time>
      </trkpt>
      <trkpt lat="44.8737" lon="-0.53699">
        <ele>1.4</ele>
        <time>2016-12-06T09:34:57Z</time>
      </trkpt>
      <trkpt lat="44.87381" lon="-0.53692">
        <ele>1.2</ele>
        <time>2016-12-06T09:34:59Z</time>
      </trkpt>
      <trkpt lat="44.87386" lon="-0.53689">
        <ele>1.2</ele>
        <time>2016-12-06T09:35:00Z</time>
      </trkpt>
      <trkpt lat="44.87397" lon="-0.53684">
        <ele>1.6</ele>
        <time>2016-12-06T09:35:02Z</time>
      </trkpt>
      <trkpt lat="44.87402" lon="-0.53681">
        <ele>1.8</ele>
        <time>2016-12-06T09:35:03Z</time>
      </trkpt>
      <trkpt lat="44.87413" lon="-0.53674">
        <ele>1.9</ele>
        <time>2016-12-06T09:35:05Z</time>
      </trkpt>
      <trkpt lat="44.87419" lon="-0.53671">
        <ele>2</ele>
        <time>2016-12-06T09:35:06Z</time>
      </trkpt>
      <trkpt lat="44.87429" lon="-0.53664">
        <ele>2.6</ele>
        <time>2016-12-06T09:35:08Z</time>
      </trkpt>
      <trkpt lat="44.87435" lon="-0.53661">
        <ele>3</ele>
        <time>2016-12-06T09:35:09Z</time>
      </trkpt>
      <trkpt lat="44.87446" lon="-0.53655">
        <ele>3.4</ele>
        <time>2016-12-06T09:35:11Z</time>
      </trkpt>
      <trkpt lat="44.87457" lon="-0.53648">
        <ele>4</ele>
        <time>2016-12-06T09:35:13Z</time>
      </trkpt>
      <trkpt lat="44.87467" lon="-0.53642">
        <ele>4.1</ele>
        <time>2016-12-06T09:35:15Z</time>
      </trkpt>
      <trkpt lat="44.87477" lon="-0.53635">
        <ele>4.6</ele>
        <time>2016-12-06T09:35:17Z</time>
      </trkpt>
      <trkpt lat="44.87482" lon="-0.53632">
        <ele>4.8</ele>
        <time>2016-12-06T09:35:18Z</time>
      </trkpt>
      <trkpt lat="44.87492" lon="-0.53625">
        <ele>5.3</ele>
        <time>2016-12-06T09:35:20Z</time>
      </trkpt>
      <trkpt lat="44.87501" lon="-0.53618">
        <ele>6.2</ele>
        <time>2016-12-06T09:35:22Z</time>
      </trkpt>
      <trkpt lat="44.87506" lon="-0.53615">
        <ele>6.7</ele>
        <time>2016-12-06T09:35:23Z</time>
      </trkpt>
      <trkpt lat="44.87512" lon="-0.53612">
        <ele>7.1</ele>
        <time>2016-12-06T09:35:24Z</time>
      </trkpt>
      <trkpt lat="44.87522" lon="-0.53604">
        <ele>7.6</ele>
        <time>2016-12-06T09:35:26Z</time>
      </trkpt>
      <trkpt lat="44.87527" lon="-0.536">
        <ele>7.8</ele>
        <time>2016-12-06T09:35:27Z</time>
      </trkpt>
      <trkpt lat="44.87537" lon="-0.53592">
        <ele>7.3</ele>
        <time>2016-12-06T09:35:29Z</time>
      </trkpt>
      <trkpt lat="44.87542" lon="-0.53588">
        <ele>6.6</ele>
        <time>2016-12-06T09:35:30Z</time>
      </trkpt>
      <trkpt lat="44.87551" lon="-0.53581">
        <ele>6.9</ele>
        <time>2016-12-06T09:35:32Z</time>
      </trkpt>
      <trkpt lat="44.87556" lon="-0.53578">
        <ele>7.2</ele>
        <time>2016-12-06T09:35:33Z</time>
      </trkpt>
      <trkpt lat="44.87565" lon="-0.53571">
        <ele>7.9</ele>
        <time>2016-12-06T09:35:35Z</time>
      </trkpt>
      <trkpt lat="44.87574" lon="-0.53565">
        <ele>8.2</ele>
        <time>2016-12-06T09:35:37Z</time>
      </trkpt>
      <trkpt lat="44.87582" lon="-0.53559">
        <ele>8.3</ele>
        <time>2016-12-06T09:35:39Z</time>
      </trkpt>
      <trkpt lat="44.8759" lon="-0.53553">
        <ele>9.1</ele>
        <time>2016-12-06T09:35:41Z</time>
      </trkpt>
      <trkpt lat="44.87599" lon="-0.53547">
        <ele>9.4</ele>
        <time>2016-12-06T09:35:43Z</time>
      </trkpt>
      <trkpt lat="44.87608" lon="-0.53541">
        <ele>9.8</ele>
        <time>2016-12-06T09:35:45Z</time>
      </trkpt>
      <trkpt lat="44.87613" lon="-0.53538">
        <ele>10.1</ele>
        <time>2016-12-06T09:35:46Z</time>
      </trkpt>
      <trkpt lat="44.87618" lon="-0.53535">
        <ele>10.5</ele>
        <time>2016-12-06T09:35:47Z</time>
      </trkpt>
      <trkpt lat="44.87623" lon="-0.53532">
        <ele>11.1</ele>
        <time>2016-12-06T09:35:48Z</time>
      </trkpt>
      <trkpt lat="44.87632" lon="-0.53525">
        <ele>12.2</ele>
        <time>2016-12-06T09:35:50Z</time>
      </trkpt>
      <trkpt lat="44.87638" lon="-0.53522">
        <ele>12.7</ele>
        <time>2016-12-06T09:35:51Z</time>
      </trkpt>
      <trkpt lat="44.87648" lon="-0.53514">
        <ele>13.6</ele>
        <time>2016-12-06T09:35:53Z</time>
      </trkpt>
      <trkpt lat="44.87657" lon="-0.53507">
        <ele>14.8</ele>
        <time>2016-12-06T09:35:55Z</time>
      </trkpt>
      <trkpt lat="44.87667" lon="-0.53502">
        <ele>16.2</ele>
        <time>2016-12-06T09:35:57Z</time>
      </trkpt>
      <trkpt lat="44.87675" lon="-0.53495">
        <ele>16.3</ele>
        <time>2016-12-06T09:35:59Z</time>
      </trkpt>
      <trkpt lat="44.87684" lon="-0.53489">
        <ele>17.2</ele>
        <time>2016-12-06T09:36:01Z</time>
      </trkpt>
      <trkpt lat="44.87693" lon="-0.53483">
        <ele>17.3</ele>
        <time>2016-12-06T09:36:03Z</time>
      </trkpt>
      <trkpt lat="44.87697" lon="-0.53479">
        <ele>17.8</ele>
        <time>2016-12-06T09:36:04Z</time>
      </trkpt>
      <trkpt lat="44.87701" lon="-0.53476">
        <ele>17.8</ele>
        <time>2016-12-06T09:36:05Z</time>
      </trkpt>
      <trkpt lat="44.8771" lon="-0.53469">
        <ele>18.7</ele>
        <time>2016-12-06T09:36:07Z</time>
      </trkpt>
      <trkpt lat="44.87718" lon="-0.53463">
        <ele>19.2</ele>
        <time>2016-12-06T09:36:09Z</time>
      </trkpt>
      <trkpt lat="44.87723" lon="-0.5346">
        <ele>19.6</ele>
        <time>2016-12-06T09:36:10Z</time>
      </trkpt>
      <trkpt lat="44.87728" lon="-0.53457">
        <ele>19.4</ele>
        <time>2016-12-06T09:36:11Z</time>
      </trkpt>
      <trkpt lat="44.87737" lon="-0.53451">
        <ele>17.5</ele>
        <time>2016-12-06T09:36:13Z</time>
      </trkpt>
      <trkpt lat="44.87744" lon="-0.53445">
        <ele>15.9</ele>
        <time>2016-12-06T09:36:15Z</time>
      </trkpt>
      <trkpt lat="44.87751" lon="-0.53442">
        <ele>15.2</ele>
        <time>2016-12-06T09:36:17Z</time>
      </trkpt>
      <trkpt lat="44.87758" lon="-0.53438">
        <ele>13.3</ele>
        <time>2016-12-06T09:36:19Z</time>
      </trkpt>
      <trkpt lat="44.87765" lon="-0.53434">
        <ele>11.8</ele>
        <time>2016-12-06T09:36:21Z</time>
      </trkpt>
      <trkpt lat="44.8777" lon="-0.53431">
        <ele>10.6</ele>
        <time>2016-12-06T09:36:23Z</time>
      </trkpt>
      <trkpt lat="44.87775" lon="-0.53426">
        <ele>9.7</ele>
        <time>2016-12-06T09:36:25Z</time>
      </trkpt>
      <trkpt lat="44.87779" lon="-0.5342">
        <ele>8.3</ele>
        <time>2016-12-06T09:36:28Z</time>
      </trkpt>
      <trkpt lat="44.87778" lon="-0.53411">
        <ele>4.6</ele>
        <time>2016-12-06T09:36:36Z</time>
      </trkpt>
      <trkpt lat="44.87781" lon="-0.53406">
        <ele>4.3</ele>
        <time>2016-12-06T09:36:38Z</time>
      </trkpt>
      <trkpt lat="44.87787" lon="-0.53401">
        <ele>4</ele>
        <time>2016-12-06T09:36:40Z</time>
      </trkpt>
      <trkpt lat="44.87795" lon="-0.53398">
        <ele>3.7</ele>
        <time>2016-12-06T09:36:42Z</time>
      </trkpt>
      <trkpt lat="44.87804" lon="-0.53396">
        <ele>3.3</ele>
        <time>2016-12-06T09:36:44Z</time>
      </trkpt>
      <trkpt lat="44.87813" lon="-0.53393">
        <ele>2.9</ele>
        <time>2016-12-06T09:36:46Z</time>
      </trkpt>
      <trkpt lat="44.87817" lon="-0.53391">
        <ele>2.5</ele>
        <time>2016-12-06T09:36:47Z</time>
      </trkpt>
      <trkpt lat="44.87826" lon="-0.53387">
        <ele>2.1</ele>
        <time>2016-12-06T09:36:49Z</time>
      </trkpt>
      <trkpt lat="44.87835" lon="-0.5338">
        <ele>1</ele>
        <time>2016-12-06T09:36:51Z</time>
      </trkpt>
      <trkpt lat="44.8784" lon="-0.53377">
        <ele>0.6</ele>
        <time>2016-12-06T09:36:52Z</time>
      </trkpt>
      <trkpt lat="44.87845" lon="-0.53373">
        <ele>-0.8</ele>
        <time>2016-12-06T09:36:53Z</time>
      </trkpt>
      <trkpt lat="44.87856" lon="-0.53367">
        <ele>-1.4</ele>
        <time>2016-12-06T09:36:55Z</time>
      </trkpt>
      <trkpt lat="44.87869" lon="-0.5336">
        <ele>-1.6</ele>
        <time>2016-12-06T09:36:57Z</time>
      </trkpt>
      <trkpt lat="44.87881" lon="-0.53352">
        <ele>-2.2</ele>
        <time>2016-12-06T09:36:59Z</time>
      </trkpt>
      <trkpt lat="44.87894" lon="-0.53345">
        <ele>-2.2</ele>
        <time>2016-12-06T09:37:01Z</time>
      </trkpt>
      <trkpt lat="44.87907" lon="-0.53337">
        <ele>-2.1</ele>
        <time>2016-12-06T09:37:03Z</time>
      </trkpt>
      <trkpt lat="44.87919" lon="-0.53328">
        <ele>-2.4</ele>
        <time>2016-12-06T09:37:05Z</time>
      </trkpt>
      <trkpt lat="44.8793" lon="-0.53318">
        <ele>-3.5</ele>
        <time>2016-12-06T09:37:07Z</time>
      </trkpt>
      <trkpt lat="44.87936" lon="-0.53311">
        <ele>-4</ele>
        <time>2016-12-06T09:37:08Z</time>
      </trkpt>
      <trkpt lat="44.8794" lon="-0.53304">
        <ele>-4.5</ele>
        <time>2016-12-06T09:37:09Z</time>
      </trkpt>
      <trkpt lat="44.87948" lon="-0.53288">
        <ele>-4.9</ele>
        <time>2016-12-06T09:37:11Z</time>
      </trkpt>
      <trkpt lat="44.87957" lon="-0.53273">
        <ele>-4.4</ele>
        <time>2016-12-06T09:37:13Z</time>
      </trkpt>
      <trkpt lat="44.87967" lon="-0.5326">
        <ele>-4.2</ele>
        <time>2016-12-06T09:37:15Z</time>
      </trkpt>
      <trkpt lat="44.87973" lon="-0.53255">
        <ele>-4.2</ele>
        <time>2016-12-06T09:37:16Z</time>
      </trkpt>
      <trkpt lat="44.87985" lon="-0.53247">
        <ele>-4</ele>
        <time>2016-12-06T09:37:18Z</time>
      </trkpt>
      <trkpt lat="44.87997" lon="-0.53238">
        <ele>-3.9</ele>
        <time>2016-12-06T09:37:20Z</time>
      </trkpt>
      <trkpt lat="44.88009" lon="-0.5323">
        <ele>-3.2</ele>
        <time>2016-12-06T09:37:22Z</time>
      </trkpt>
      <trkpt lat="44.88021" lon="-0.53221">
        <ele>-3.3</ele>
        <time>2016-12-06T09:37:24Z</time>
      </trkpt>
      <trkpt lat="44.88034" lon="-0.53212">
        <ele>-3</ele>
        <time>2016-12-06T09:37:26Z</time>
      </trkpt>
      <trkpt lat="44.88041" lon="-0.53207">
        <ele>-2.8</ele>
        <time>2016-12-06T09:37:27Z</time>
      </trkpt>
      <trkpt lat="44.88053" lon="-0.53198">
        <ele>-2.6</ele>
        <time>2016-12-06T09:37:29Z</time>
      </trkpt>
      <trkpt lat="44.88059" lon="-0.53193">
        <ele>-2.4</ele>
        <time>2016-12-06T09:37:30Z</time>
      </trkpt>
      <trkpt lat="44.88065" lon="-0.53189">
        <ele>-2.4</ele>
        <time>2016-12-06T09:37:31Z</time>
      </trkpt>
      <trkpt lat="44.88078" lon="-0.53182">
        <ele>-2.4</ele>
        <time>2016-12-06T09:37:33Z</time>
      </trkpt>
      <trkpt lat="44.88091" lon="-0.53174">
        <ele>-2.3</ele>
        <time>2016-12-06T09:37:35Z</time>
      </trkpt>
      <trkpt lat="44.88097" lon="-0.53171">
        <ele>-2.1</ele>
        <time>2016-12-06T09:37:36Z</time>
      </trkpt>
      <trkpt lat="44.88109" lon="-0.53164">
        <ele>-2</ele>
        <time>2016-12-06T09:37:38Z</time>
      </trkpt>
      <trkpt lat="44.88115" lon="-0.5316">
        <ele>-1.9</ele>
        <time>2016-12-06T09:37:39Z</time>
      </trkpt>
      <trkpt lat="44.88121" lon="-0.53156">
        <ele>-2</ele>
        <time>2016-12-06T09:37:40Z</time>
      </trkpt>
      <trkpt lat="44.88132" lon="-0.53149">
        <ele>-1.7</ele>
        <time>2016-12-06T09:37:42Z</time>
      </trkpt>
      <trkpt lat="44.88144" lon="-0.53142">
        <ele>-1.5</ele>
        <time>2016-12-06T09:37:44Z</time>
      </trkpt>
      <trkpt lat="44.88149" lon="-0.53137">
        <ele>-1.6</ele>
        <time>2016-12-06T09:37:45Z</time>
      </trkpt>
      <trkpt lat="44.88155" lon="-0.53133">
        <ele>-1.6</ele>
        <time>2016-12-06T09:37:46Z</time>
      </trkpt>
      <trkpt lat="44.88161" lon="-0.53129">
        <ele>-1.5</ele>
        <time>2016-12-06T09:37:47Z</time>
      </trkpt>
      <trkpt lat="44.88173" lon="-0.53122">
        <ele>-1.2</ele>
        <time>2016-12-06T09:37:49Z</time>
      </trkpt>
      <trkpt lat="44.88185" lon="-0.53115">
        <ele>-0.4</ele>
        <time>2016-12-06T09:37:51Z</time>
      </trkpt>
      <trkpt lat="44.88198" lon="-0.53109">
        <ele>-0.4</ele>
        <time>2016-12-06T09:37:53Z</time>
      </trkpt>
      <trkpt lat="44.88204" lon="-0.53106">
        <ele>-0.1</ele>
        <time>2016-12-06T09:37:54Z</time>
      </trkpt>
      <trkpt lat="44.88214" lon="-0.53101">
        <ele>-0.4</ele>
        <time>2016-12-06T09:37:56Z</time>
      </trkpt>
      <trkpt lat="44.88222" lon="-0.53098">
        <ele>-0.9</ele>
        <time>2016-12-06T09:37:58Z</time>
      </trkpt>
      <trkpt lat="44.88231" lon="-0.53094">
        <ele>-0.4</ele>
        <time>2016-12-06T09:38:00Z</time>
      </trkpt>
      <trkpt lat="44.88236" lon="-0.53092">
        <ele>6.4</ele>
        <time>2016-12-06T09:38:01Z</time>
      </trkpt>
      <trkpt lat="44.88246" lon="-0.53088">
        <ele>6.1</ele>
        <time>2016-12-06T09:38:03Z</time>
      </trkpt>
      <trkpt lat="44.88258" lon="-0.53083">
        <ele>-0.2</ele>
        <time>2016-12-06T09:38:05Z</time>
      </trkpt>
      <trkpt lat="44.88264" lon="-0.53081">
        <ele>-0.4</ele>
        <time>2016-12-06T09:38:06Z</time>
      </trkpt>
      <trkpt lat="44.88276" lon="-0.53076">
        <ele>-0.8</ele>
        <time>2016-12-06T09:38:08Z</time>
      </trkpt>
      <trkpt lat="44.88282" lon="-0.53073">
        <ele>-1.1</ele>
        <time>2016-12-06T09:38:09Z</time>
      </trkpt>
      <trkpt lat="44.88288" lon="-0.5307">
        <ele>-1.7</ele>
        <time>2016-12-06T09:38:10Z</time>
      </trkpt>
      <trkpt lat="44.88301" lon="-0.53065">
        <ele>-0.9</ele>
        <time>2016-12-06T09:38:12Z</time>
      </trkpt>
      <trkpt lat="44.88313" lon="-0.5306">
        <ele>-0.7</ele>
        <time>2016-12-06T09:38:14Z</time>
      </trkpt>
      <trkpt lat="44.8832" lon="-0.53057">
        <ele>-0.7</ele>
        <time>2016-12-06T09:38:15Z</time>
      </trkpt>
      <trkpt lat="44.88326" lon="-0.53055">
        <ele>-0.5</ele>
        <time>2016-12-06T09:38:16Z</time>
      </trkpt>
      <trkpt lat="44.88338" lon="-0.5305">
        <ele>-0.3</ele>
        <time>2016-12-06T09:38:18Z</time>
      </trkpt>
      <trkpt lat="44.88344" lon="-0.53048">
        <ele>-0.2</ele>
        <time>2016-12-06T09:38:19Z</time>
      </trkpt>
      <trkpt lat="44.88357" lon="-0.53042">
        <ele>-0.1</ele>
        <time>2016-12-06T09:38:21Z</time>
      </trkpt>
      <trkpt lat="44.8837" lon="-0.53037">
        <ele>5.9</ele>
        <time>2016-12-06T09:38:23Z</time>
      </trkpt>
      <trkpt lat="44.88382" lon="-0.53032">
        <ele>0.1</ele>
        <time>2016-12-06T09:38:25Z</time>
      </trkpt>
      <trkpt lat="44.88389" lon="-0.5303">
        <ele>5</ele>
        <time>2016-12-06T09:38:26Z</time>
      </trkpt>
      <trkpt lat="44.88395" lon="-0.53028">
        <ele>-0.1</ele>
        <time>2016-12-06T09:38:27Z</time>
      </trkpt>
      <trkpt lat="44.88406" lon="-0.53023">
        <ele>-1</ele>
        <time>2016-12-06T09:38:29Z</time>
      </trkpt>
      <trkpt lat="44.88417" lon="-0.5302">
        <ele>-1.6</ele>
        <time>2016-12-06T09:38:31Z</time>
      </trkpt>
      <trkpt lat="44.88422" lon="-0.53018">
        <ele>-1.4</ele>
        <time>2016-12-06T09:38:32Z</time>
      </trkpt>
      <trkpt lat="44.88433" lon="-0.53015">
        <ele>-1.8</ele>
        <time>2016-12-06T09:38:34Z</time>
      </trkpt>
      <trkpt lat="44.88445" lon="-0.53011">
        <ele>-1.9</ele>
        <time>2016-12-06T09:38:36Z</time>
      </trkpt>
      <trkpt lat="44.8845" lon="-0.53009">
        <ele>-2</ele>
        <time>2016-12-06T09:38:37Z</time>
      </trkpt>
      <trkpt lat="44.88461" lon="-0.53006">
        <ele>-2</ele>
        <time>2016-12-06T09:38:39Z</time>
      </trkpt>
      <trkpt lat="44.88471" lon="-0.53003">
        <ele>-2.4</ele>
        <time>2016-12-06T09:38:41Z</time>
      </trkpt>
      <trkpt lat="44.8848" lon="-0.53">
        <ele>-2.6</ele>
        <time>2016-12-06T09:38:43Z</time>
      </trkpt>
      <trkpt lat="44.88485" lon="-0.52999">
        <ele>-2.7</ele>
        <time>2016-12-06T09:38:44Z</time>
      </trkpt>
      <trkpt lat="44.8849" lon="-0.52998">
        <ele>-2.8</ele>
        <time>2016-12-06T09:38:45Z</time>
      </trkpt>
      <trkpt lat="44.88498" lon="-0.52995">
        <ele>-2.7</ele>
        <time>2016-12-06T09:38:47Z</time>
      </trkpt>
      <trkpt lat="44.88506" lon="-0.52993">
        <ele>-2.7</ele>
        <time>2016-12-06T09:38:49Z</time>
      </trkpt>
      <trkpt lat="44.88514" lon="-0.52989">
        <ele>-3.1</ele>
        <time>2016-12-06T09:38:51Z</time>
      </trkpt>
      <trkpt lat="44.8852" lon="-0.52987">
        <ele>-3.3</ele>
        <time>2016-12-06T09:38:53Z</time>
      </trkpt>
      <trkpt lat="44.88526" lon="-0.52986">
        <ele>-2.7</ele>
        <time>2016-12-06T09:41:38Z</time>
      </trkpt>
      <trkpt lat="44.88533" lon="-0.52984">
        <ele>-2.9</ele>
        <time>2016-12-06T09:41:40Z</time>
      </trkpt>
      <trkpt lat="44.88541" lon="-0.52982">
        <ele>-3.2</ele>
        <time>2016-12-06T09:41:42Z</time>
      </trkpt>
      <trkpt lat="44.88544" lon="-0.52977">
        <ele>-3.7</ele>
        <time>2016-12-06T09:41:44Z</time>
      </trkpt>
      <trkpt lat="44.88543" lon="-0.5297">
        <ele>-3.9</ele>
        <time>2016-12-06T09:41:46Z</time>
      </trkpt>
      <trkpt lat="44.88541" lon="-0.52961">
        <ele>-4</ele>
        <time>2016-12-06T09:41:48Z</time>
      </trkpt>
      <trkpt lat="44.8854" lon="-0.52951">
        <ele>-4</ele>
        <time>2016-12-06T09:41:50Z</time>
      </trkpt>
      <trkpt lat="44.88538" lon="-0.52941">
        <ele>-4</ele>
        <time>2016-12-06T09:41:52Z</time>
      </trkpt>
      <trkpt lat="44.88536" lon="-0.52929">
        <ele>-4.1</ele>
        <time>2016-12-06T09:41:54Z</time>
      </trkpt>
      <trkpt lat="44.88534" lon="-0.52917">
        <ele>-3.9</ele>
        <time>2016-12-06T09:41:56Z</time>
      </trkpt>
      <trkpt lat="44.88533" lon="-0.52905">
        <ele>-2.5</ele>
        <time>2016-12-06T09:41:58Z</time>
      </trkpt>
      <trkpt lat="44.88531" lon="-0.52893">
        <ele>-1.7</ele>
        <time>2016-12-06T09:42:00Z</time>
      </trkpt>
      <trkpt lat="44.88529" lon="-0.5288">
        <ele>-1.2</ele>
        <time>2016-12-06T09:42:02Z</time>
      </trkpt>
      <trkpt lat="44.88527" lon="-0.52868">
        <ele>-0.3</ele>
        <time>2016-12-06T09:42:04Z</time>
      </trkpt>
      <trkpt lat="44.88525" lon="-0.52856">
        <ele>-0.1</ele>
        <time>2016-12-06T09:42:06Z</time>
      </trkpt>
      <trkpt lat="44.88524" lon="-0.52844">
        <ele>0.9</ele>
        <time>2016-12-06T09:42:08Z</time>
      </trkpt>
      <trkpt lat="44.88527" lon="-0.52834">
        <ele>1</ele>
        <time>2016-12-06T09:42:10Z</time>
      </trkpt>
      <trkpt lat="44.88531" lon="-0.52826">
        <ele>1</ele>
        <time>2016-12-06T09:42:12Z</time>
      </trkpt>
      <trkpt lat="44.88533" lon="-0.5282">
        <ele>0.7</ele>
        <time>2016-12-06T09:42:14Z</time>
      </trkpt>
      <trkpt lat="44.88531" lon="-0.52812">
        <ele>0.5</ele>
        <time>2016-12-06T09:42:16Z</time>
      </trkpt>
      <trkpt lat="44.88529" lon="-0.52802">
        <ele>0.6</ele>
        <time>2016-12-06T09:42:18Z</time>
      </trkpt>
      <trkpt lat="44.88527" lon="-0.52794">
        <ele>0.4</ele>
        <time>2016-12-06T09:42:20Z</time>
      </trkpt>
      <trkpt lat="44.88524" lon="-0.52784">
        <ele>0.6</ele>
        <time>2016-12-06T09:42:22Z</time>
      </trkpt>
      <trkpt lat="44.88519" lon="-0.52778">
        <ele>0.4</ele>
        <time>2016-12-06T09:42:24Z</time>
      </trkpt>
      <trkpt lat="44.88512" lon="-0.52771">
        <ele>0.2</ele>
        <time>2016-12-06T09:42:26Z</time>
      </trkpt>
      <trkpt lat="44.88508" lon="-0.52764">
        <ele>0.7</ele>
        <time>2016-12-06T09:42:28Z</time>
      </trkpt>
      <trkpt lat="44.88508" lon="-0.52754">
        <ele>1</ele>
        <time>2016-12-06T09:42:30Z</time>
      </trkpt>
      <trkpt lat="44.88508" lon="-0.52742">
        <ele>0.7</ele>
        <time>2016-12-06T09:42:32Z</time>
      </trkpt>
      <trkpt lat="44.88507" lon="-0.52736">
        <ele>0.5</ele>
        <time>2016-12-06T09:42:33Z</time>
      </trkpt>
      <trkpt lat="44.88505" lon="-0.52724">
        <ele>-0.2</ele>
        <time>2016-12-06T09:42:35Z</time>
      </trkpt>
      <trkpt lat="44.88503" lon="-0.52714">
        <ele>-0.6</ele>
        <time>2016-12-06T09:42:37Z</time>
      </trkpt>
      <trkpt lat="44.885" lon="-0.52707">
        <ele>-0.5</ele>
        <time>2016-12-06T09:42:39Z</time>
      </trkpt>
      <trkpt lat="44.88497" lon="-0.52703">
        <ele>1.3</ele>
        <time>2016-12-06T09:42:41Z</time>
      </trkpt>
      <trkpt lat="44.88492" lon="-0.527">
        <ele>3.8</ele>
        <time>2016-12-06T09:43:00Z</time>
      </trkpt>
      <trkpt lat="44.88488" lon="-0.52695">
        <ele>3.4</ele>
        <time>2016-12-06T09:43:03Z</time>
      </trkpt>
      <trkpt lat="44.88486" lon="-0.52687">
        <ele>3.1</ele>
        <time>2016-12-06T09:43:05Z</time>
      </trkpt>
      <trkpt lat="44.88485" lon="-0.52675">
        <ele>3</ele>
        <time>2016-12-06T09:43:07Z</time>
      </trkpt>
      <trkpt lat="44.88482" lon="-0.52664">
        <ele>3</ele>
        <time>2016-12-06T09:43:09Z</time>
      </trkpt>
      <trkpt lat="44.88479" lon="-0.52652">
        <ele>3.1</ele>
        <time>2016-12-06T09:43:11Z</time>
      </trkpt>
      <trkpt lat="44.88477" lon="-0.52646">
        <ele>3.4</ele>
        <time>2016-12-06T09:43:12Z</time>
      </trkpt>
      <trkpt lat="44.88476" lon="-0.52639">
        <ele>3.7</ele>
        <time>2016-12-06T09:43:13Z</time>
      </trkpt>
      <trkpt lat="44.88473" lon="-0.52623">
        <ele>3.6</ele>
        <time>2016-12-06T09:43:15Z</time>
      </trkpt>
      <trkpt lat="44.8847" lon="-0.52608">
        <ele>4.2</ele>
        <time>2016-12-06T09:43:17Z</time>
      </trkpt>
      <trkpt lat="44.88467" lon="-0.52592">
        <ele>4.4</ele>
        <time>2016-12-06T09:43:19Z</time>
      </trkpt>
      <trkpt lat="44.88465" lon="-0.52579">
        <ele>4.8</ele>
        <time>2016-12-06T09:43:21Z</time>
      </trkpt>
      <trkpt lat="44.88464" lon="-0.52563">
        <ele>5.3</ele>
        <time>2016-12-06T09:43:23Z</time>
      </trkpt>
      <trkpt lat="44.88462" lon="-0.52547">
        <ele>5.8</ele>
        <time>2016-12-06T09:43:25Z</time>
      </trkpt>
      <trkpt lat="44.88461" lon="-0.52539">
        <ele>6</ele>
        <time>2016-12-06T09:43:26Z</time>
      </trkpt>
      <trkpt lat="44.8846" lon="-0.52531">
        <ele>6.4</ele>
        <time>2016-12-06T09:43:27Z</time>
      </trkpt>
      <trkpt lat="44.8846" lon="-0.52523">
        <ele>6.8</ele>
        <time>2016-12-06T09:43:28Z</time>
      </trkpt>
      <trkpt lat="44.88459" lon="-0.52508">
        <ele>7.8</ele>
        <time>2016-12-06T09:43:30Z</time>
      </trkpt>
      <trkpt lat="44.88457" lon="-0.52495">
        <ele>8.9</ele>
        <time>2016-12-06T09:43:32Z</time>
      </trkpt>
      <trkpt lat="44.88451" lon="-0.52486">
        <ele>9.6</ele>
        <time>2016-12-06T09:43:34Z</time>
      </trkpt>
      <trkpt lat="44.88443" lon="-0.52488">
        <ele>10.6</ele>
        <time>2016-12-06T09:43:36Z</time>
      </trkpt>
      <trkpt lat="44.88436" lon="-0.52489">
        <ele>11.2</ele>
        <time>2016-12-06T09:43:38Z</time>
      </trkpt>
      <trkpt lat="44.8843" lon="-0.5249">
        <ele>11.6</ele>
        <time>2016-12-06T09:43:40Z</time>
      </trkpt>
      <trkpt lat="44.88424" lon="-0.52493">
        <ele>12</ele>
        <time>2016-12-06T09:43:42Z</time>
      </trkpt>
      <trkpt lat="44.88419" lon="-0.52498">
        <ele>13.1</ele>
        <time>2016-12-06T09:43:44Z</time>
      </trkpt>
      <trkpt lat="44.88414" lon="-0.525">
        <ele>13.5</ele>
        <time>2016-12-06T09:43:46Z</time>
      </trkpt>
      <trkpt lat="44.88411" lon="-0.52496">
        <ele>13.9</ele>
        <time>2016-12-06T09:43:49Z</time>
      </trkpt>
      <trkpt lat="44.88414" lon="-0.52503">
        <ele>13.2</ele>
        <time>2016-12-06T09:44:17Z</time>
      </trkpt>
      <trkpt lat="44.8841" lon="-0.52509">
        <ele>13</ele>
        <time>2016-12-06T09:44:20Z</time>
      </trkpt>
      <trkpt lat="44.88407" lon="-0.52515">
        <ele>13.5</ele>
        <time>2016-12-06T09:44:22Z</time>
      </trkpt>
      <trkpt lat="44.88405" lon="-0.5252">
        <ele>13.6</ele>
        <time>2016-12-06T09:44:24Z</time>
      </trkpt>
      <trkpt lat="44.88402" lon="-0.52526">
        <ele>13.9</ele>
        <time>2016-12-06T09:44:26Z</time>
      </trkpt>
      <trkpt lat="44.88398" lon="-0.52533">
        <ele>14.3</ele>
        <time>2016-12-06T09:44:28Z</time>
      </trkpt>
      <trkpt lat="44.88394" lon="-0.5254">
        <ele>14.6</ele>
        <time>2016-12-06T09:44:30Z</time>
      </trkpt>
      <trkpt lat="44.8839" lon="-0.52548">
        <ele>15.1</ele>
        <time>2016-12-06T09:44:32Z</time>
      </trkpt>
      <trkpt lat="44.88386" lon="-0.52555">
        <ele>15.3</ele>
        <time>2016-12-06T09:44:34Z</time>
      </trkpt>
      <trkpt lat="44.88382" lon="-0.52561">
        <ele>16.4</ele>
        <time>2016-12-06T09:44:36Z</time>
      </trkpt>
      <trkpt lat="44.88378" lon="-0.52567">
        <ele>18.1</ele>
        <time>2016-12-06T09:44:38Z</time>
      </trkpt>
      <trkpt lat="44.88374" lon="-0.52574">
        <ele>18.4</ele>
        <time>2016-12-06T09:44:40Z</time>
      </trkpt>
      <trkpt lat="44.88369" lon="-0.52579">
        <ele>19.1</ele>
        <time>2016-12-06T09:44:42Z</time>
      </trkpt>
      <trkpt lat="44.88364" lon="-0.52584">
        <ele>19</ele>
        <time>2016-12-06T09:44:44Z</time>
      </trkpt>
      <trkpt lat="44.88359" lon="-0.52588">
        <ele>19.1</ele>
        <time>2016-12-06T09:44:46Z</time>
      </trkpt>
      <trkpt lat="44.88354" lon="-0.52593">
        <ele>19.6</ele>
        <time>2016-12-06T09:44:48Z</time>
      </trkpt>
      <trkpt lat="44.88349" lon="-0.52598">
        <ele>20.1</ele>
        <time>2016-12-06T09:44:50Z</time>
      </trkpt>
      <trkpt lat="44.88345" lon="-0.52603">
        <ele>20.7</ele>
        <time>2016-12-06T09:44:52Z</time>
      </trkpt>
      <trkpt lat="44.88341" lon="-0.5261">
        <ele>21.3</ele>
        <time>2016-12-06T09:44:54Z</time>
      </trkpt>
      <trkpt lat="44.88339" lon="-0.52617">
        <ele>22</ele>
        <time>2016-12-06T09:44:56Z</time>
      </trkpt>
      <trkpt lat="44.88338" lon="-0.52624">
        <ele>22.8</ele>
        <time>2016-12-06T09:44:58Z</time>
      </trkpt>
      <trkpt lat="44.88338" lon="-0.52632">
        <ele>23.7</ele>
        <time>2016-12-06T09:45:00Z</time>
      </trkpt>
      <trkpt lat="44.88338" lon="-0.52641">
        <ele>24</ele>
        <time>2016-12-06T09:45:02Z</time>
      </trkpt>
      <trkpt lat="44.88338" lon="-0.52649">
        <ele>24.3</ele>
        <time>2016-12-06T09:45:04Z</time>
      </trkpt>
      <trkpt lat="44.88337" lon="-0.52657">
        <ele>24.9</ele>
        <time>2016-12-06T09:45:06Z</time>
      </trkpt>
      <trkpt lat="44.88336" lon="-0.52664">
        <ele>25.1</ele>
        <time>2016-12-06T09:45:08Z</time>
      </trkpt>
      <trkpt lat="44.88334" lon="-0.5267">
        <ele>25.4</ele>
        <time>2016-12-06T09:45:10Z</time>
      </trkpt>
      <trkpt lat="44.88329" lon="-0.52676">
        <ele>25.6</ele>
        <time>2016-12-06T09:45:13Z</time>
      </trkpt>
      <trkpt lat="44.88326" lon="-0.5268">
        <ele>25.8</ele>
        <time>2016-12-06T09:45:15Z</time>
      </trkpt>
      <trkpt lat="44.8832" lon="-0.52685">
        <ele>25.8</ele>
        <time>2016-12-06T09:45:18Z</time>
      </trkpt>
      <trkpt lat="44.88316" lon="-0.52686">
        <ele>26</ele>
        <time>2016-12-06T09:45:20Z</time>
      </trkpt>
      <trkpt lat="44.88311" lon="-0.52686">
        <ele>26.2</ele>
        <time>2016-12-06T09:45:22Z</time>
      </trkpt>
      <trkpt lat="44.88305" lon="-0.52685">
        <ele>25.7</ele>
        <time>2016-12-06T09:45:25Z</time>
      </trkpt>
      <trkpt lat="44.88299" lon="-0.52681">
        <ele>25.8</ele>
        <time>2016-12-06T09:45:28Z</time>
      </trkpt>
      <trkpt lat="44.88295" lon="-0.52679">
        <ele>26.4</ele>
        <time>2016-12-06T09:45:30Z</time>
      </trkpt>
      <trkpt lat="44.8829" lon="-0.52675">
        <ele>26.8</ele>
        <time>2016-12-06T09:45:32Z</time>
      </trkpt>
      <trkpt lat="44.88286" lon="-0.52672">
        <ele>27.4</ele>
        <time>2016-12-06T09:45:34Z</time>
      </trkpt>
      <trkpt lat="44.88282" lon="-0.52668">
        <ele>27.9</ele>
        <time>2016-12-06T09:45:36Z</time>
      </trkpt>
      <trkpt lat="44.88278" lon="-0.52664">
        <ele>29.1</ele>
        <time>2016-12-06T09:45:38Z</time>
      </trkpt>
      <trkpt lat="44.88274" lon="-0.52659">
        <ele>29.7</ele>
        <time>2016-12-06T09:45:40Z</time>
      </trkpt>
      <trkpt lat="44.8827" lon="-0.52655">
        <ele>30.9</ele>
        <time>2016-12-06T09:45:42Z</time>
      </trkpt>
      <trkpt lat="44.88267" lon="-0.5265">
        <ele>32.2</ele>
        <time>2016-12-06T09:45:44Z</time>
      </trkpt>
      <trkpt lat="44.88263" lon="-0.52646">
        <ele>33</ele>
        <time>2016-12-06T09:45:46Z</time>
      </trkpt>
      <trkpt lat="44.8826" lon="-0.52641">
        <ele>34</ele>
        <time>2016-12-06T09:45:48Z</time>
      </trkpt>
      <trkpt lat="44.88256" lon="-0.52636">
        <ele>34.8</ele>
        <time>2016-12-06T09:45:50Z</time>
      </trkpt>
      <trkpt lat="44.88253" lon="-0.5263">
        <ele>35.2</ele>
        <time>2016-12-06T09:45:52Z</time>
      </trkpt>
      <trkpt lat="44.8825" lon="-0.52625">
        <ele>35.4</ele>
        <time>2016-12-06T09:45:54Z</time>
      </trkpt>
      <trkpt lat="44.88247" lon="-0.52619">
        <ele>35.5</ele>
        <time>2016-12-06T09:45:56Z</time>
      </trkpt>
      <trkpt lat="44.88243" lon="-0.52614">
        <ele>35.1</ele>
        <time>2016-12-06T09:45:58Z</time>
      </trkpt>
      <trkpt lat="44.88238" lon="-0.52609">
        <ele>34.4</ele>
        <time>2016-12-06T09:46:01Z</time>
      </trkpt>
      <trkpt lat="44.88232" lon="-0.52605">
        <ele>34</ele>
        <time>2016-12-06T09:46:04Z</time>
      </trkpt>
      <trkpt lat="44.88227" lon="-0.52602">
        <ele>33.9</ele>
        <time>2016-12-06T09:46:06Z</time>
      </trkpt>
      <trkpt lat="44.88221" lon="-0.52598">
        <ele>33.8</ele>
        <time>2016-12-06T09:46:09Z</time>
      </trkpt>
      <trkpt lat="44.88216" lon="-0.52596">
        <ele>34.8</ele>
        <time>2016-12-06T09:46:11Z</time>
      </trkpt>
      <trkpt lat="44.88211" lon="-0.52595">
        <ele>35.3</ele>
        <time>2016-12-06T09:46:13Z</time>
      </trkpt>
      <trkpt lat="44.88205" lon="-0.52595">
        <ele>36</ele>
        <time>2016-12-06T09:46:15Z</time>
      </trkpt>
      <trkpt lat="44.88199" lon="-0.52593">
        <ele>35.9</ele>
        <time>2016-12-06T09:46:18Z</time>
      </trkpt>
      <trkpt lat="44.88194" lon="-0.52593">
        <ele>36.4</ele>
        <time>2016-12-06T09:46:20Z</time>
      </trkpt>
      <trkpt lat="44.88189" lon="-0.52592">
        <ele>36.2</ele>
        <time>2016-12-06T09:46:22Z</time>
      </trkpt>
      <trkpt lat="44.88184" lon="-0.52591">
        <ele>36.2</ele>
        <time>2016-12-06T09:46:24Z</time>
      </trkpt>
      <trkpt lat="44.88179" lon="-0.52591">
        <ele>36.7</ele>
        <time>2016-12-06T09:46:26Z</time>
      </trkpt>
      <trkpt lat="44.88175" lon="-0.52591">
        <ele>37</ele>
        <time>2016-12-06T09:46:28Z</time>
      </trkpt>
      <trkpt lat="44.8817" lon="-0.52591">
        <ele>36.8</ele>
        <time>2016-12-06T09:46:30Z</time>
      </trkpt>
      <trkpt lat="44.88165" lon="-0.52591">
        <ele>36.6</ele>
        <time>2016-12-06T09:46:32Z</time>
      </trkpt>
      <trkpt lat="44.88159" lon="-0.52591">
        <ele>35.7</ele>
        <time>2016-12-06T09:46:35Z</time>
      </trkpt>
      <trkpt lat="44.88155" lon="-0.52591">
        <ele>36.1</ele>
        <time>2016-12-06T09:46:37Z</time>
      </trkpt>
      <trkpt lat="44.8815" lon="-0.52592">
        <ele>36.6</ele>
        <time>2016-12-06T09:46:39Z</time>
      </trkpt>
      <trkpt lat="44.88145" lon="-0.52594">
        <ele>37.3</ele>
        <time>2016-12-06T09:46:41Z</time>
      </trkpt>
      <trkpt lat="44.8814" lon="-0.52596">
        <ele>38.1</ele>
        <time>2016-12-06T09:46:43Z</time>
      </trkpt>
      <trkpt lat="44.88136" lon="-0.52598">
        <ele>38.8</ele>
        <time>2016-12-06T09:46:45Z</time>
      </trkpt>
      <trkpt lat="44.88129" lon="-0.52601">
        <ele>39.4</ele>
        <time>2016-12-06T09:46:48Z</time>
      </trkpt>
      <trkpt lat="44.88124" lon="-0.52603">
        <ele>39.9</ele>
        <time>2016-12-06T09:46:50Z</time>
      </trkpt>
      <trkpt lat="44.8812" lon="-0.52605">
        <ele>40.2</ele>
        <time>2016-12-06T09:46:52Z</time>
      </trkpt>
      <trkpt lat="44.88113" lon="-0.52608">
        <ele>41.6</ele>
        <time>2016-12-06T09:46:55Z</time>
      </trkpt>
      <trkpt lat="44.88108" lon="-0.5261">
        <ele>42</ele>
        <time>2016-12-06T09:46:57Z</time>
      </trkpt>
      <trkpt lat="44.88102" lon="-0.52612">
        <ele>42.3</ele>
        <time>2016-12-06T09:47:00Z</time>
      </trkpt>
      <trkpt lat="44.88097" lon="-0.52613">
        <ele>42.9</ele>
        <time>2016-12-06T09:47:02Z</time>
      </trkpt>
      <trkpt lat="44.88093" lon="-0.52615">
        <ele>43.5</ele>
        <time>2016-12-06T09:47:04Z</time>
      </trkpt>
      <trkpt lat="44.88087" lon="-0.52617">
        <ele>44.2</ele>
        <time>2016-12-06T09:47:07Z</time>
      </trkpt>
      <trkpt lat="44.88081" lon="-0.52619">
        <ele>45.1</ele>
        <time>2016-12-06T09:47:10Z</time>
      </trkpt>
      <trkpt lat="44.88076" lon="-0.52621">
        <ele>45.6</ele>
        <time>2016-12-06T09:47:13Z</time>
      </trkpt>
      <trkpt lat="44.88071" lon="-0.52623">
        <ele>46.1</ele>
        <time>2016-12-06T09:47:16Z</time>
      </trkpt>
      <trkpt lat="44.88066" lon="-0.52624">
        <ele>46.2</ele>
        <time>2016-12-06T09:47:18Z</time>
      </trkpt>
      <trkpt lat="44.88061" lon="-0.52627">
        <ele>46.6</ele>
        <time>2016-12-06T09:47:20Z</time>
      </trkpt>
      <trkpt lat="44.88055" lon="-0.52632">
        <ele>47</ele>
        <time>2016-12-06T09:47:22Z</time>
      </trkpt>
      <trkpt lat="44.88052" lon="-0.5264">
        <ele>47.3</ele>
        <time>2016-12-06T09:47:24Z</time>
      </trkpt>
      <trkpt lat="44.88051" lon="-0.5265">
        <ele>47.2</ele>
        <time>2016-12-06T09:47:26Z</time>
      </trkpt>
      <trkpt lat="44.88049" lon="-0.5266">
        <ele>46.6</ele>
        <time>2016-12-06T09:47:28Z</time>
      </trkpt>
      <trkpt lat="44.88046" lon="-0.52669">
        <ele>46.2</ele>
        <time>2016-12-06T09:47:30Z</time>
      </trkpt>
      <trkpt lat="44.88043" lon="-0.52678">
        <ele>46</ele>
        <time>2016-12-06T09:47:32Z</time>
      </trkpt>
      <trkpt lat="44.88039" lon="-0.52686">
        <ele>46</ele>
        <time>2016-12-06T09:47:34Z</time>
      </trkpt>
      <trkpt lat="44.88035" lon="-0.52694">
        <ele>46.5</ele>
        <time>2016-12-06T09:47:36Z</time>
      </trkpt>
      <trkpt lat="44.88029" lon="-0.52701">
        <ele>47.1</ele>
        <time>2016-12-06T09:47:39Z</time>
      </trkpt>
      <trkpt lat="44.88024" lon="-0.52705">
        <ele>47.2</ele>
        <time>2016-12-06T09:47:40Z</time>
      </trkpt>
      <trkpt lat="44.88018" lon="-0.52709">
        <ele>47.3</ele>
        <time>2016-12-06T09:47:42Z</time>
      </trkpt>
      <trkpt lat="44.88012" lon="-0.52713">
        <ele>47.5</ele>
        <time>2016-12-06T09:47:44Z</time>
      </trkpt>
      <trkpt lat="44.88005" lon="-0.52718">
        <ele>47.4</ele>
        <time>2016-12-06T09:47:46Z</time>
      </trkpt>
      <trkpt lat="44.88" lon="-0.52726">
        <ele>48.2</ele>
        <time>2016-12-06T09:47:48Z</time>
      </trkpt>
      <trkpt lat="44.87996" lon="-0.52736">
        <ele>48.6</ele>
        <time>2016-12-06T09:47:50Z</time>
      </trkpt>
      <trkpt lat="44.87994" lon="-0.52748">
        <ele>49.2</ele>
        <time>2016-12-06T09:47:52Z</time>
      </trkpt>
      <trkpt lat="44.87993" lon="-0.5276">
        <ele>49</ele>
        <time>2016-12-06T09:47:54Z</time>
      </trkpt>
      <trkpt lat="44.87992" lon="-0.52772">
        <ele>49.1</ele>
        <time>2016-12-06T09:47:56Z</time>
      </trkpt>
      <trkpt lat="44.87992" lon="-0.52784">
        <ele>48.9</ele>
        <time>2016-12-06T09:47:58Z</time>
      </trkpt>
      <trkpt lat="44.87992" lon="-0.52796">
        <ele>48.9</ele>
        <time>2016-12-06T09:48:00Z</time>
      </trkpt>
      <trkpt lat="44.87993" lon="-0.52808">
        <ele>48.9</ele>
        <time>2016-12-06T09:48:02Z</time>
      </trkpt>
      <trkpt lat="44.87993" lon="-0.52821">
        <ele>48.6</ele>
        <time>2016-12-06T09:48:04Z</time>
      </trkpt>
      <trkpt lat="44.87995" lon="-0.52833">
        <ele>48.1</ele>
        <time>2016-12-06T09:48:06Z</time>
      </trkpt>
      <trkpt lat="44.87998" lon="-0.52844">
        <ele>47.8</ele>
        <time>2016-12-06T09:48:08Z</time>
      </trkpt>
      <trkpt lat="44.88002" lon="-0.5285">
        <ele>47.8</ele>
        <time>2016-12-06T09:48:09Z</time>
      </trkpt>
      <trkpt lat="44.8801" lon="-0.52858">
        <ele>47.7</ele>
        <time>2016-12-06T09:48:11Z</time>
      </trkpt>
      <trkpt lat="44.88014" lon="-0.52862">
        <ele>47.7</ele>
        <time>2016-12-06T09:48:12Z</time>
      </trkpt>
      <trkpt lat="44.88023" lon="-0.52868">
        <ele>47.9</ele>
        <time>2016-12-06T09:48:14Z</time>
      </trkpt>
      <trkpt lat="44.88032" lon="-0.52874">
        <ele>48</ele>
        <time>2016-12-06T09:48:16Z</time>
      </trkpt>
      <trkpt lat="44.8804" lon="-0.52879">
        <ele>48.3</ele>
        <time>2016-12-06T09:48:18Z</time>
      </trkpt>
      <trkpt lat="44.88047" lon="-0.52881">
        <ele>47.9</ele>
        <time>2016-12-06T09:48:20Z</time>
      </trkpt>
      <trkpt lat="44.88052" lon="-0.52884">
        <ele>47.7</ele>
        <time>2016-12-06T09:48:22Z</time>
      </trkpt>
      <trkpt lat="44.88046" lon="-0.52881">
        <ele>48</ele>
        <time>2016-12-06T09:48:26Z</time>
      </trkpt>
      <trkpt lat="44.8804" lon="-0.52877">
        <ele>47.8</ele>
        <time>2016-12-06T09:48:28Z</time>
      </trkpt>
      <trkpt lat="44.88032" lon="-0.52872">
        <ele>47.2</ele>
        <time>2016-12-06T09:48:30Z</time>
      </trkpt>
      <trkpt lat="44.88023" lon="-0.52867">
        <ele>47</ele>
        <time>2016-12-06T09:48:32Z</time>
      </trkpt>
      <trkpt lat="44.88014" lon="-0.52861">
        <ele>46.6</ele>
        <time>2016-12-06T09:48:34Z</time>
      </trkpt>
      <trkpt lat="44.88007" lon="-0.52853">
        <ele>46.7</ele>
        <time>2016-12-06T09:48:36Z</time>
      </trkpt>
      <trkpt lat="44.88001" lon="-0.52844">
        <ele>46.3</ele>
        <time>2016-12-06T09:48:38Z</time>
      </trkpt>
      <trkpt lat="44.87997" lon="-0.52835">
        <ele>46.3</ele>
        <time>2016-12-06T09:48:40Z</time>
      </trkpt>
      <trkpt lat="44.87995" lon="-0.52825">
        <ele>46.9</ele>
        <time>2016-12-06T09:48:42Z</time>
      </trkpt>
      <trkpt lat="44.87993" lon="-0.52814">
        <ele>47.7</ele>
        <time>2016-12-06T09:48:44Z</time>
      </trkpt>
      <trkpt lat="44.87992" lon="-0.52803">
        <ele>48.7</ele>
        <time>2016-12-06T09:48:46Z</time>
      </trkpt>
      <trkpt lat="44.87991" lon="-0.52797">
        <ele>48.8</ele>
        <time>2016-12-06T09:48:47Z</time>
      </trkpt>
      <trkpt lat="44.87991" lon="-0.52784">
        <ele>48.8</ele>
        <time>2016-12-06T09:48:49Z</time>
      </trkpt>
      <trkpt lat="44.8799" lon="-0.52773">
        <ele>48.6</ele>
        <time>2016-12-06T09:48:51Z</time>
      </trkpt>
      <trkpt lat="44.8799" lon="-0.52763">
        <ele>48.3</ele>
        <time>2016-12-06T09:48:53Z</time>
      </trkpt>
      <trkpt lat="44.87991" lon="-0.52751">
        <ele>48.1</ele>
        <time>2016-12-06T09:48:55Z</time>
      </trkpt>
      <trkpt lat="44.87994" lon="-0.52736">
        <ele>48.3</ele>
        <time>2016-12-06T09:48:57Z</time>
      </trkpt>
      <trkpt lat="44.87998" lon="-0.52727">
        <ele>48.1</ele>
        <time>2016-12-06T09:48:59Z</time>
      </trkpt>
      <trkpt lat="44.88004" lon="-0.52719">
        <ele>47.8</ele>
        <time>2016-12-06T09:49:01Z</time>
      </trkpt>
      <trkpt lat="44.88011" lon="-0.52711">
        <ele>47.7</ele>
        <time>2016-12-06T09:49:03Z</time>
      </trkpt>
      <trkpt lat="44.88014" lon="-0.52707">
        <ele>48.1</ele>
        <time>2016-12-06T09:49:04Z</time>
      </trkpt>
      <trkpt lat="44.8802" lon="-0.52702">
        <ele>48.3</ele>
        <time>2016-12-06T09:49:06Z</time>
      </trkpt>
      <trkpt lat="44.88026" lon="-0.52696">
        <ele>48.5</ele>
        <time>2016-12-06T09:49:08Z</time>
      </trkpt>
      <trkpt lat="44.88031" lon="-0.52689">
        <ele>48.9</ele>
        <time>2016-12-06T09:49:10Z</time>
      </trkpt>
      <trkpt lat="44.88035" lon="-0.52682">
        <ele>49.4</ele>
        <time>2016-12-06T09:49:12Z</time>
      </trkpt>
      <trkpt lat="44.88037" lon="-0.52676">
        <ele>49.7</ele>
        <time>2016-12-06T09:49:14Z</time>
      </trkpt>
      <trkpt lat="44.8804" lon="-0.52666">
        <ele>50.7</ele>
        <time>2016-12-06T09:49:20Z</time>
      </trkpt>
      <trkpt lat="44.88042" lon="-0.52659">
        <ele>50.6</ele>
        <time>2016-12-06T09:49:22Z</time>
      </trkpt>
      <trkpt lat="44.88043" lon="-0.52651">
        <ele>50.7</ele>
        <time>2016-12-06T09:49:24Z</time>
      </trkpt>
      <trkpt lat="44.88044" lon="-0.52642">
        <ele>50.9</ele>
        <time>2016-12-06T09:49:26Z</time>
      </trkpt>
      <trkpt lat="44.88039" lon="-0.52639">
        <ele>51</ele>
        <time>2016-12-06T09:49:29Z</time>
      </trkpt>
      <trkpt lat="44.88034" lon="-0.52645">
        <ele>50.9</ele>
        <time>2016-12-06T09:49:31Z</time>
      </trkpt>
      <trkpt lat="44.88025" lon="-0.5265">
        <ele>50.3</ele>
        <time>2016-12-06T09:49:33Z</time>
      </trkpt>
      <trkpt lat="44.88017" lon="-0.52654">
        <ele>49.3</ele>
        <time>2016-12-06T09:49:35Z</time>
      </trkpt>
      <trkpt lat="44.88008" lon="-0.52657">
        <ele>48.4</ele>
        <time>2016-12-06T09:49:37Z</time>
      </trkpt>
      <trkpt lat="44.87998" lon="-0.52659">
        <ele>46.9</ele>
        <time>2016-12-06T09:49:39Z</time>
      </trkpt>
      <trkpt lat="44.87993" lon="-0.5266">
        <ele>46.4</ele>
        <time>2016-12-06T09:49:40Z</time>
      </trkpt>
      <trkpt lat="44.87987" lon="-0.52662">
        <ele>46.2</ele>
        <time>2016-12-06T09:49:41Z</time>
      </trkpt>
      <trkpt lat="44.87976" lon="-0.52665">
        <ele>45.6</ele>
        <time>2016-12-06T09:49:43Z</time>
      </trkpt>
      <trkpt lat="44.87965" lon="-0.52673">
        <ele>45.1</ele>
        <time>2016-12-06T09:49:45Z</time>
      </trkpt>
      <trkpt lat="44.87961" lon="-0.52677">
        <ele>44.8</ele>
        <time>2016-12-06T09:49:46Z</time>
      </trkpt>
      <trkpt lat="44.87953" lon="-0.5269">
        <ele>44.5</ele>
        <time>2016-12-06T09:49:48Z</time>
      </trkpt>
      <trkpt lat="44.8795" lon="-0.52697">
        <ele>44.3</ele>
        <time>2016-12-06T09:49:49Z</time>
      </trkpt>
      <trkpt lat="44.87944" lon="-0.52712">
        <ele>43.5</ele>
        <time>2016-12-06T09:49:51Z</time>
      </trkpt>
      <trkpt lat="44.87938" lon="-0.52727">
        <ele>43.5</ele>
        <time>2016-12-06T09:49:53Z</time>
      </trkpt>
      <trkpt lat="44.87935" lon="-0.52735">
        <ele>43.3</ele>
        <time>2016-12-06T09:49:54Z</time>
      </trkpt>
      <trkpt lat="44.87932" lon="-0.52743">
        <ele>43.4</ele>
        <time>2016-12-06T09:49:55Z</time>
      </trkpt>
      <trkpt lat="44.87929" lon="-0.52751">
        <ele>43.1</ele>
        <time>2016-12-06T09:49:56Z</time>
      </trkpt>
      <trkpt lat="44.87924" lon="-0.52768">
        <ele>42.6</ele>
        <time>2016-12-06T09:49:58Z</time>
      </trkpt>
      <trkpt lat="44.87922" lon="-0.52777">
        <ele>42.4</ele>
        <time>2016-12-06T09:49:59Z</time>
      </trkpt>
      <trkpt lat="44.87917" lon="-0.52795">
        <ele>42.5</ele>
        <time>2016-12-06T09:50:01Z</time>
      </trkpt>
      <trkpt lat="44.87912" lon="-0.52814">
        <ele>43.1</ele>
        <time>2016-12-06T09:50:03Z</time>
      </trkpt>
      <trkpt lat="44.87907" lon="-0.52832">
        <ele>43.3</ele>
        <time>2016-12-06T09:50:05Z</time>
      </trkpt>
      <trkpt lat="44.87903" lon="-0.52851">
        <ele>43.4</ele>
        <time>2016-12-06T09:50:07Z</time>
      </trkpt>
      <trkpt lat="44.87899" lon="-0.52871">
        <ele>43.3</ele>
        <time>2016-12-06T09:50:09Z</time>
      </trkpt>
      <trkpt lat="44.87895" lon="-0.52891">
        <ele>43.6</ele>
        <time>2016-12-06T09:50:11Z</time>
      </trkpt>
      <trkpt lat="44.87892" lon="-0.5291">
        <ele>43.1</ele>
        <time>2016-12-06T09:50:13Z</time>
      </trkpt>
      <trkpt lat="44.87889" lon="-0.5293">
        <ele>42.6</ele>
        <time>2016-12-06T09:50:15Z</time>
      </trkpt>
      <trkpt lat="44.87887" lon="-0.52949">
        <ele>42.2</ele>
        <time>2016-12-06T09:50:17Z</time>
      </trkpt>
      <trkpt lat="44.87885" lon="-0.52969">
        <ele>42.4</ele>
        <time>2016-12-06T09:50:19Z</time>
      </trkpt>
      <trkpt lat="44.87883" lon="-0.52989">
        <ele>41.9</ele>
        <time>2016-12-06T09:50:21Z</time>
      </trkpt>
      <trkpt lat="44.87883" lon="-0.5301">
        <ele>41.9</ele>
        <time>2016-12-06T09:50:23Z</time>
      </trkpt>
      <trkpt lat="44.87883" lon="-0.53031">
        <ele>41.9</ele>
        <time>2016-12-06T09:50:25Z</time>
      </trkpt>
      <trkpt lat="44.87884" lon="-0.53042">
        <ele>42</ele>
        <time>2016-12-06T09:50:26Z</time>
      </trkpt>
      <trkpt lat="44.87885" lon="-0.53063">
        <ele>42.3</ele>
        <time>2016-12-06T09:50:28Z</time>
      </trkpt>
      <trkpt lat="44.87885" lon="-0.53074">
        <ele>42.5</ele>
        <time>2016-12-06T09:50:29Z</time>
      </trkpt>
      <trkpt lat="44.87887" lon="-0.53094">
        <ele>42.1</ele>
        <time>2016-12-06T09:50:31Z</time>
      </trkpt>
      <trkpt lat="44.8789" lon="-0.53115">
        <ele>42.3</ele>
        <time>2016-12-06T09:50:33Z</time>
      </trkpt>
      <trkpt lat="44.87893" lon="-0.53137">
        <ele>42.9</ele>
        <time>2016-12-06T09:50:35Z</time>
      </trkpt>
      <trkpt lat="44.87896" lon="-0.53157">
        <ele>43.4</ele>
        <time>2016-12-06T09:50:37Z</time>
      </trkpt>
      <trkpt lat="44.879" lon="-0.53178">
        <ele>44.2</ele>
        <time>2016-12-06T09:50:39Z</time>
      </trkpt>
      <trkpt lat="44.87902" lon="-0.53187">
        <ele>44.8</ele>
        <time>2016-12-06T09:50:40Z</time>
      </trkpt>
      <trkpt lat="44.87904" lon="-0.53197">
        <ele>45.3</ele>
        <time>2016-12-06T09:50:41Z</time>
      </trkpt>
      <trkpt lat="44.87907" lon="-0.53216">
        <ele>47.2</ele>
        <time>2016-12-06T09:50:43Z</time>
      </trkpt>
      <trkpt lat="44.8791" lon="-0.53236">
        <ele>48.8</ele>
        <time>2016-12-06T09:50:45Z</time>
      </trkpt>
      <trkpt lat="44.87913" lon="-0.53255">
        <ele>50.9</ele>
        <time>2016-12-06T09:50:47Z</time>
      </trkpt>
      <trkpt lat="44.87917" lon="-0.53275">
        <ele>52</ele>
        <time>2016-12-06T09:50:49Z</time>
      </trkpt>
      <trkpt lat="44.87921" lon="-0.53294">
        <ele>51.3</ele>
        <time>2016-12-06T09:50:51Z</time>
      </trkpt>
      <trkpt lat="44.87923" lon="-0.53311">
        <ele>51.2</ele>
        <time>2016-12-06T09:50:53Z</time>
      </trkpt>
      <trkpt lat="44.87926" lon="-0.53327">
        <ele>50.8</ele>
        <time>2016-12-06T09:50:55Z</time>
      </trkpt>
      <trkpt lat="44.87928" lon="-0.53339">
        <ele>51.6</ele>
        <time>2016-12-06T09:50:57Z</time>
      </trkpt>
      <trkpt lat="44.87932" lon="-0.53348">
        <ele>50.4</ele>
        <time>2016-12-06T09:50:59Z</time>
      </trkpt>
      <trkpt lat="44.87934" lon="-0.53355">
        <ele>47.2</ele>
        <time>2016-12-06T09:51:01Z</time>
      </trkpt>
      <trkpt lat="44.87934" lon="-0.53362">
        <ele>46</ele>
        <time>2016-12-06T09:51:03Z</time>
      </trkpt>
      <trkpt lat="44.87934" lon="-0.53372">
        <ele>45.8</ele>
        <time>2016-12-06T09:51:05Z</time>
      </trkpt>
      <trkpt lat="44.87936" lon="-0.53381">
        <ele>46.5</ele>
        <time>2016-12-06T09:51:07Z</time>
      </trkpt>
      <trkpt lat="44.87939" lon="-0.53392">
        <ele>47.7</ele>
        <time>2016-12-06T09:51:09Z</time>
      </trkpt>
      <trkpt lat="44.87942" lon="-0.53402">
        <ele>48.8</ele>
        <time>2016-12-06T09:51:11Z</time>
      </trkpt>
      <trkpt lat="44.87944" lon="-0.53412">
        <ele>50.1</ele>
        <time>2016-12-06T09:51:13Z</time>
      </trkpt>
      <trkpt lat="44.87946" lon="-0.53423">
        <ele>50.7</ele>
        <time>2016-12-06T09:51:15Z</time>
      </trkpt>
      <trkpt lat="44.87947" lon="-0.53432">
        <ele>50.7</ele>
        <time>2016-12-06T09:51:17Z</time>
      </trkpt>
      <trkpt lat="44.87948" lon="-0.53442">
        <ele>50.6</ele>
        <time>2016-12-06T09:51:19Z</time>
      </trkpt>
      <trkpt lat="44.8795" lon="-0.53451">
        <ele>50.3</ele>
        <time>2016-12-06T09:51:21Z</time>
      </trkpt>
      <trkpt lat="44.87953" lon="-0.53462">
        <ele>50.7</ele>
        <time>2016-12-06T09:51:23Z</time>
      </trkpt>
      <trkpt lat="44.87955" lon="-0.53473">
        <ele>51</ele>
        <time>2016-12-06T09:51:25Z</time>
      </trkpt>
      <trkpt lat="44.87957" lon="-0.53483">
        <ele>51.8</ele>
        <time>2016-12-06T09:51:27Z</time>
      </trkpt>
      <trkpt lat="44.87959" lon="-0.53493">
        <ele>52.4</ele>
        <time>2016-12-06T09:51:29Z</time>
      </trkpt>
      <trkpt lat="44.87961" lon="-0.53503">
        <ele>52.6</ele>
        <time>2016-12-06T09:51:31Z</time>
      </trkpt>
      <trkpt lat="44.87963" lon="-0.53514">
        <ele>53</ele>
        <time>2016-12-06T09:51:33Z</time>
      </trkpt>
      <trkpt lat="44.87965" lon="-0.53525">
        <ele>52.8</ele>
        <time>2016-12-06T09:51:35Z</time>
      </trkpt>
      <trkpt lat="44.87966" lon="-0.53534">
        <ele>52.4</ele>
        <time>2016-12-06T09:51:37Z</time>
      </trkpt>
      <trkpt lat="44.87966" lon="-0.53541">
        <ele>51.6</ele>
        <time>2016-12-06T09:51:39Z</time>
      </trkpt>
      <trkpt lat="44.87969" lon="-0.53549">
        <ele>52.1</ele>
        <time>2016-12-06T09:51:41Z</time>
      </trkpt>
      <trkpt lat="44.87971" lon="-0.53556">
        <ele>51</ele>
        <time>2016-12-06T09:51:43Z</time>
      </trkpt>
      <trkpt lat="44.87973" lon="-0.53566">
        <ele>51.1</ele>
        <time>2016-12-06T09:51:45Z</time>
      </trkpt>
      <trkpt lat="44.87975" lon="-0.53577">
        <ele>51.9</ele>
        <time>2016-12-06T09:51:47Z</time>
      </trkpt>
      <trkpt lat="44.87976" lon="-0.53588">
        <ele>52</ele>
        <time>2016-12-06T09:51:49Z</time>
      </trkpt>
      <trkpt lat="44.87977" lon="-0.53596">
        <ele>52.7</ele>
        <time>2016-12-06T09:51:51Z</time>
      </trkpt>
      <trkpt lat="44.87979" lon="-0.53603">
        <ele>52.9</ele>
        <time>2016-12-06T09:51:53Z</time>
      </trkpt>
      <trkpt lat="44.8798" lon="-0.5361">
        <ele>51.4</ele>
        <time>2016-12-06T09:51:55Z</time>
      </trkpt>
      <trkpt lat="44.87982" lon="-0.53618">
        <ele>50.6</ele>
        <time>2016-12-06T09:51:57Z</time>
      </trkpt>
      <trkpt lat="44.87984" lon="-0.53626">
        <ele>50.3</ele>
        <time>2016-12-06T09:51:59Z</time>
      </trkpt>
      <trkpt lat="44.87987" lon="-0.53634">
        <ele>48.9</ele>
        <time>2016-12-06T09:52:01Z</time>
      </trkpt>
      <trkpt lat="44.87988" lon="-0.53641">
        <ele>47.9</ele>
        <time>2016-12-06T09:52:03Z</time>
      </trkpt>
      <trkpt lat="44.87989" lon="-0.53649">
        <ele>46.9</ele>
        <time>2016-12-06T09:52:05Z</time>
      </trkpt>
      <trkpt lat="44.87991" lon="-0.53656">
        <ele>45.4</ele>
        <time>2016-12-06T09:52:07Z</time>
      </trkpt>
      <trkpt lat="44.87993" lon="-0.53666">
        <ele>44.7</ele>
        <time>2016-12-06T09:52:09Z</time>
      </trkpt>
      <trkpt lat="44.87995" lon="-0.53678">
        <ele>44.8</ele>
        <time>2016-12-06T09:52:11Z</time>
      </trkpt>
      <trkpt lat="44.87997" lon="-0.53691">
        <ele>45.4</ele>
        <time>2016-12-06T09:52:13Z</time>
      </trkpt>
      <trkpt lat="44.87999" lon="-0.53704">
        <ele>44.9</ele>
        <time>2016-12-06T09:52:15Z</time>
      </trkpt>
      <trkpt lat="44.88001" lon="-0.53718">
        <ele>44.9</ele>
        <time>2016-12-06T09:52:17Z</time>
      </trkpt>
      <trkpt lat="44.88002" lon="-0.53724">
        <ele>44.4</ele>
        <time>2016-12-06T09:52:18Z</time>
      </trkpt>
      <trkpt lat="44.88003" lon="-0.53732">
        <ele>45</ele>
        <time>2016-12-06T09:52:19Z</time>
      </trkpt>
      <trkpt lat="44.88004" lon="-0.53739">
        <ele>45.2</ele>
        <time>2016-12-06T09:52:20Z</time>
      </trkpt>
      <trkpt lat="44.88007" lon="-0.53753">
        <ele>45.4</ele>
        <time>2016-12-06T09:52:22Z</time>
      </trkpt>
      <trkpt lat="44.88009" lon="-0.53765">
        <ele>44.8</ele>
        <time>2016-12-06T09:52:24Z</time>
      </trkpt>
      <trkpt lat="44.88011" lon="-0.53777">
        <ele>43.6</ele>
        <time>2016-12-06T09:52:26Z</time>
      </trkpt>
      <trkpt lat="44.88013" lon="-0.53791">
        <ele>43</ele>
        <time>2016-12-06T09:52:28Z</time>
      </trkpt>
      <trkpt lat="44.88017" lon="-0.53805">
        <ele>43.4</ele>
        <time>2016-12-06T09:52:30Z</time>
      </trkpt>
      <trkpt lat="44.88018" lon="-0.53811">
        <ele>43.5</ele>
        <time>2016-12-06T09:52:31Z</time>
      </trkpt>
      <trkpt lat="44.88022" lon="-0.53823">
        <ele>43.5</ele>
        <time>2016-12-06T09:52:33Z</time>
      </trkpt>
      <trkpt lat="44.88024" lon="-0.53834">
        <ele>43.3</ele>
        <time>2016-12-06T09:52:35Z</time>
      </trkpt>
      <trkpt lat="44.88024" lon="-0.53845">
        <ele>42.3</ele>
        <time>2016-12-06T09:52:37Z</time>
      </trkpt>
      <trkpt lat="44.88027" lon="-0.53858">
        <ele>43.2</ele>
        <time>2016-12-06T09:52:39Z</time>
      </trkpt>
      <trkpt lat="44.8803" lon="-0.53872">
        <ele>42.9</ele>
        <time>2016-12-06T09:52:41Z</time>
      </trkpt>
      <trkpt lat="44.88033" lon="-0.53888">
        <ele>43.1</ele>
        <time>2016-12-06T09:52:43Z</time>
      </trkpt>
      <trkpt lat="44.88036" lon="-0.53903">
        <ele>42.3</ele>
        <time>2016-12-06T09:52:45Z</time>
      </trkpt>
      <trkpt lat="44.88038" lon="-0.53911">
        <ele>42.2</ele>
        <time>2016-12-06T09:52:46Z</time>
      </trkpt>
      <trkpt lat="44.8804" lon="-0.53919">
        <ele>41.9</ele>
        <time>2016-12-06T09:52:47Z</time>
      </trkpt>
      <trkpt lat="44.88044" lon="-0.53937">
        <ele>41.7</ele>
        <time>2016-12-06T09:52:49Z</time>
      </trkpt>
      <trkpt lat="44.88045" lon="-0.53947">
        <ele>41.3</ele>
        <time>2016-12-06T09:52:50Z</time>
      </trkpt>
      <trkpt lat="44.88049" lon="-0.53968">
        <ele>41.2</ele>
        <time>2016-12-06T09:52:52Z</time>
      </trkpt>
      <trkpt lat="44.88051" lon="-0.53978">
        <ele>40.2</ele>
        <time>2016-12-06T09:52:53Z</time>
      </trkpt>
      <trkpt lat="44.88056" lon="-0.54">
        <ele>40.1</ele>
        <time>2016-12-06T09:52:55Z</time>
      </trkpt>
      <trkpt lat="44.88058" lon="-0.54011">
        <ele>39.8</ele>
        <time>2016-12-06T09:52:56Z</time>
      </trkpt>
      <trkpt lat="44.88063" lon="-0.54034">
        <ele>39</ele>
        <time>2016-12-06T09:52:58Z</time>
      </trkpt>
      <trkpt lat="44.88068" lon="-0.54057">
        <ele>37.8</ele>
        <time>2016-12-06T09:53:00Z</time>
      </trkpt>
      <trkpt lat="44.88071" lon="-0.5407">
        <ele>37.6</ele>
        <time>2016-12-06T09:53:01Z</time>
      </trkpt>
      <trkpt lat="44.88076" lon="-0.54096">
        <ele>37.6</ele>
        <time>2016-12-06T09:53:03Z</time>
      </trkpt>
      <trkpt lat="44.8808" lon="-0.54123">
        <ele>36.7</ele>
        <time>2016-12-06T09:53:05Z</time>
      </trkpt>
      <trkpt lat="44.88082" lon="-0.54135">
        <ele>36.5</ele>
        <time>2016-12-06T09:53:06Z</time>
      </trkpt>
      <trkpt lat="44.88086" lon="-0.54162">
        <ele>36.1</ele>
        <time>2016-12-06T09:53:08Z</time>
      </trkpt>
      <trkpt lat="44.88089" lon="-0.54176">
        <ele>36.3</ele>
        <time>2016-12-06T09:53:09Z</time>
      </trkpt>
      <trkpt lat="44.88094" lon="-0.54205">
        <ele>38.9</ele>
        <time>2016-12-06T09:53:11Z</time>
      </trkpt>
      <trkpt lat="44.88097" lon="-0.5422">
        <ele>39</ele>
        <time>2016-12-06T09:53:12Z</time>
      </trkpt>
      <trkpt lat="44.881" lon="-0.54233">
        <ele>39.2</ele>
        <time>2016-12-06T09:53:13Z</time>
      </trkpt>
      <trkpt lat="44.88104" lon="-0.54246">
        <ele>38.7</ele>
        <time>2016-12-06T09:53:14Z</time>
      </trkpt>
      <trkpt lat="44.88108" lon="-0.54276">
        <ele>38.5</ele>
        <time>2016-12-06T09:53:16Z</time>
      </trkpt>
      <trkpt lat="44.88111" lon="-0.5429">
        <ele>38.2</ele>
        <time>2016-12-06T09:53:17Z</time>
      </trkpt>
      <trkpt lat="44.88117" lon="-0.54318">
        <ele>38.3</ele>
        <time>2016-12-06T09:53:19Z</time>
      </trkpt>
      <trkpt lat="44.88123" lon="-0.54346">
        <ele>36</ele>
        <time>2016-12-06T09:53:21Z</time>
      </trkpt>
      <trkpt lat="44.88126" lon="-0.54361">
        <ele>35.3</ele>
        <time>2016-12-06T09:53:22Z</time>
      </trkpt>
      <trkpt lat="44.88132" lon="-0.5439">
        <ele>34.3</ele>
        <time>2016-12-06T09:53:24Z</time>
      </trkpt>
      <trkpt lat="44.88135" lon="-0.54404">
        <ele>34.4</ele>
        <time>2016-12-06T09:53:25Z</time>
      </trkpt>
      <trkpt lat="44.88141" lon="-0.54433">
        <ele>35.2</ele>
        <time>2016-12-06T09:53:27Z</time>
      </trkpt>
      <trkpt lat="44.88144" lon="-0.54448">
        <ele>35.2</ele>
        <time>2016-12-06T09:53:28Z</time>
      </trkpt>
      <trkpt lat="44.88146" lon="-0.54462">
        <ele>34.4</ele>
        <time>2016-12-06T09:53:29Z</time>
      </trkpt>
      <trkpt lat="44.88152" lon="-0.54491">
        <ele>33.6</ele>
        <time>2016-12-06T09:53:31Z</time>
      </trkpt>
      <trkpt lat="44.88158" lon="-0.54519">
        <ele>32</ele>
        <time>2016-12-06T09:53:33Z</time>
      </trkpt>
      <trkpt lat="44.88163" lon="-0.54547">
        <ele>31.1</ele>
        <time>2016-12-06T09:53:35Z</time>
      </trkpt>
      <trkpt lat="44.88168" lon="-0.54577">
        <ele>29.7</ele>
        <time>2016-12-06T09:53:37Z</time>
      </trkpt>
      <trkpt lat="44.8817" lon="-0.54591">
        <ele>29.1</ele>
        <time>2016-12-06T09:53:38Z</time>
      </trkpt>
      <trkpt lat="44.88176" lon="-0.54619">
        <ele>28.5</ele>
        <time>2016-12-06T09:53:40Z</time>
      </trkpt>
      <trkpt lat="44.88179" lon="-0.54633">
        <ele>28.2</ele>
        <time>2016-12-06T09:53:41Z</time>
      </trkpt>
      <trkpt lat="44.88185" lon="-0.54664">
        <ele>26.8</ele>
        <time>2016-12-06T09:53:43Z</time>
      </trkpt>
      <trkpt lat="44.88187" lon="-0.54678">
        <ele>27.3</ele>
        <time>2016-12-06T09:53:44Z</time>
      </trkpt>
      <trkpt lat="44.88192" lon="-0.54709">
        <ele>26.5</ele>
        <time>2016-12-06T09:53:46Z</time>
      </trkpt>
      <trkpt lat="44.88195" lon="-0.54723">
        <ele>26.9</ele>
        <time>2016-12-06T09:53:47Z</time>
      </trkpt>
      <trkpt lat="44.88201" lon="-0.54752">
        <ele>23.8</ele>
        <time>2016-12-06T09:53:49Z</time>
      </trkpt>
      <trkpt lat="44.88207" lon="-0.5478">
        <ele>23</ele>
        <time>2016-12-06T09:53:51Z</time>
      </trkpt>
      <trkpt lat="44.88211" lon="-0.54794">
        <ele>22.4</ele>
        <time>2016-12-06T09:53:52Z</time>
      </trkpt>
      <trkpt lat="44.88216" lon="-0.54824">
        <ele>21.7</ele>
        <time>2016-12-06T09:53:54Z</time>
      </trkpt>
      <trkpt lat="44.88218" lon="-0.54837">
        <ele>22</ele>
        <time>2016-12-06T09:53:55Z</time>
      </trkpt>
      <trkpt lat="44.88221" lon="-0.54851">
        <ele>21.6</ele>
        <time>2016-12-06T09:53:56Z</time>
      </trkpt>
      <trkpt lat="44.88227" lon="-0.5488">
        <ele>21.2</ele>
        <time>2016-12-06T09:53:58Z</time>
      </trkpt>
      <trkpt lat="44.8823" lon="-0.54896">
        <ele>20.6</ele>
        <time>2016-12-06T09:53:59Z</time>
      </trkpt>
      <trkpt lat="44.88236" lon="-0.54923">
        <ele>19.8</ele>
        <time>2016-12-06T09:54:01Z</time>
      </trkpt>
      <trkpt lat="44.88238" lon="-0.54939">
        <ele>19.1</ele>
        <time>2016-12-06T09:54:02Z</time>
      </trkpt>
      <trkpt lat="44.88243" lon="-0.54966">
        <ele>20.1</ele>
        <time>2016-12-06T09:54:04Z</time>
      </trkpt>
      <trkpt lat="44.8825" lon="-0.54994">
        <ele>19.4</ele>
        <time>2016-12-06T09:54:06Z</time>
      </trkpt>
      <trkpt lat="44.88253" lon="-0.55009">
        <ele>18.2</ele>
        <time>2016-12-06T09:54:07Z</time>
      </trkpt>
      <trkpt lat="44.88257" lon="-0.55039">
        <ele>17.7</ele>
        <time>2016-12-06T09:54:09Z</time>
      </trkpt>
      <trkpt lat="44.8826" lon="-0.55054">
        <ele>17.4</ele>
        <time>2016-12-06T09:54:10Z</time>
      </trkpt>
      <trkpt lat="44.88266" lon="-0.55083">
        <ele>17.6</ele>
        <time>2016-12-06T09:54:12Z</time>
      </trkpt>
      <trkpt lat="44.88267" lon="-0.55097">
        <ele>18.4</ele>
        <time>2016-12-06T09:54:13Z</time>
      </trkpt>
      <trkpt lat="44.88272" lon="-0.55127">
        <ele>16.6</ele>
        <time>2016-12-06T09:54:15Z</time>
      </trkpt>
      <trkpt lat="44.88274" lon="-0.55142">
        <ele>17</ele>
        <time>2016-12-06T09:54:16Z</time>
      </trkpt>
      <trkpt lat="44.8828" lon="-0.55172">
        <ele>16.8</ele>
        <time>2016-12-06T09:54:18Z</time>
      </trkpt>
      <trkpt lat="44.88284" lon="-0.55187">
        <ele>16</ele>
        <time>2016-12-06T09:54:19Z</time>
      </trkpt>
      <trkpt lat="44.88288" lon="-0.55201">
        <ele>14.3</ele>
        <time>2016-12-06T09:54:20Z</time>
      </trkpt>
      <trkpt lat="44.88294" lon="-0.55232">
        <ele>13.1</ele>
        <time>2016-12-06T09:54:22Z</time>
      </trkpt>
      <trkpt lat="44.88297" lon="-0.55246">
        <ele>12.2</ele>
        <time>2016-12-06T09:54:23Z</time>
      </trkpt>
      <trkpt lat="44.88304" lon="-0.55274">
        <ele>11.4</ele>
        <time>2016-12-06T09:54:25Z</time>
      </trkpt>
      <trkpt lat="44.88306" lon="-0.55288">
        <ele>10.8</ele>
        <time>2016-12-06T09:54:26Z</time>
      </trkpt>
      <trkpt lat="44.88312" lon="-0.55315">
        <ele>8.1</ele>
        <time>2016-12-06T09:54:28Z</time>
      </trkpt>
      <trkpt lat="44.88314" lon="-0.55345">
        <ele>7.4</ele>
        <time>2016-12-06T09:54:30Z</time>
      </trkpt>
      <trkpt lat="44.88317" lon="-0.5536">
        <ele>7</ele>
        <time>2016-12-06T09:54:31Z</time>
      </trkpt>
      <trkpt lat="44.88324" lon="-0.55382">
        <ele>4.9</ele>
        <time>2016-12-06T09:54:33Z</time>
      </trkpt>
      <trkpt lat="44.88328" lon="-0.55392">
        <ele>3.8</ele>
        <time>2016-12-06T09:54:35Z</time>
      </trkpt>
      <trkpt lat="44.88333" lon="-0.55395">
        <ele>1.7</ele>
        <time>2016-12-06T09:54:38Z</time>
      </trkpt>
      <trkpt lat="44.88337" lon="-0.554">
        <ele>-0.1</ele>
        <time>2016-12-06T09:54:40Z</time>
      </trkpt>
      <trkpt lat="44.8834" lon="-0.55408">
        <ele>-1.2</ele>
        <time>2016-12-06T09:54:42Z</time>
      </trkpt>
      <trkpt lat="44.88343" lon="-0.55418">
        <ele>-2.1</ele>
        <time>2016-12-06T09:54:44Z</time>
      </trkpt>
      <trkpt lat="44.88347" lon="-0.5543">
        <ele>-2.9</ele>
        <time>2016-12-06T09:54:46Z</time>
      </trkpt>
      <trkpt lat="44.88348" lon="-0.55436">
        <ele>-3.1</ele>
        <time>2016-12-06T09:54:47Z</time>
      </trkpt>
      <trkpt lat="44.88352" lon="-0.5545">
        <ele>-3.5</ele>
        <time>2016-12-06T09:54:49Z</time>
      </trkpt>
      <trkpt lat="44.88355" lon="-0.55462">
        <ele>-3.8</ele>
        <time>2016-12-06T09:54:51Z</time>
      </trkpt>
      <trkpt lat="44.88356" lon="-0.55468">
        <ele>-4.1</ele>
        <time>2016-12-06T09:54:52Z</time>
      </trkpt>
      <trkpt lat="44.88359" lon="-0.55481">
        <ele>-4.7</ele>
        <time>2016-12-06T09:54:54Z</time>
      </trkpt>
      <trkpt lat="44.88361" lon="-0.55487">
        <ele>-5</ele>
        <time>2016-12-06T09:54:55Z</time>
      </trkpt>
      <trkpt lat="44.88365" lon="-0.55501">
        <ele>-5.8</ele>
        <time>2016-12-06T09:54:57Z</time>
      </trkpt>
      <trkpt lat="44.88369" lon="-0.55515">
        <ele>-6.2</ele>
        <time>2016-12-06T09:54:59Z</time>
      </trkpt>
      <trkpt lat="44.8837" lon="-0.55522">
        <ele>-6.3</ele>
        <time>2016-12-06T09:55:00Z</time>
      </trkpt>
      <trkpt lat="44.88373" lon="-0.55536">
        <ele>-7</ele>
        <time>2016-12-06T09:55:02Z</time>
      </trkpt>
      <trkpt lat="44.88375" lon="-0.5555">
        <ele>-7.7</ele>
        <time>2016-12-06T09:55:04Z</time>
      </trkpt>
      <trkpt lat="44.88376" lon="-0.55556">
        <ele>-8.1</ele>
        <time>2016-12-06T09:55:05Z</time>
      </trkpt>
      <trkpt lat="44.88379" lon="-0.55571">
        <ele>-9.2</ele>
        <time>2016-12-06T09:55:07Z</time>
      </trkpt>
      <trkpt lat="44.88382" lon="-0.55587">
        <ele>-9.8</ele>
        <time>2016-12-06T09:55:09Z</time>
      </trkpt>
      <trkpt lat="44.88383" lon="-0.55596">
        <ele>-9.5</ele>
        <time>2016-12-06T09:55:10Z</time>
      </trkpt>
      <trkpt lat="44.88387" lon="-0.55614">
        <ele>-8.8</ele>
        <time>2016-12-06T09:55:12Z</time>
      </trkpt>
      <trkpt lat="44.8839" lon="-0.55631">
        <ele>-8.4</ele>
        <time>2016-12-06T09:55:14Z</time>
      </trkpt>
      <trkpt lat="44.88391" lon="-0.55639">
        <ele>-8.3</ele>
        <time>2016-12-06T09:55:15Z</time>
      </trkpt>
      <trkpt lat="44.88393" lon="-0.55646">
        <ele>-8.5</ele>
        <time>2016-12-06T09:55:16Z</time>
      </trkpt>
      <trkpt lat="44.88398" lon="-0.55662">
        <ele>-8.5</ele>
        <time>2016-12-06T09:55:18Z</time>
      </trkpt>
      <trkpt lat="44.88405" lon="-0.55677">
        <ele>-6.9</ele>
        <time>2016-12-06T09:55:20Z</time>
      </trkpt>
      <trkpt lat="44.88412" lon="-0.55692">
        <ele>-6.4</ele>
        <time>2016-12-06T09:55:22Z</time>
      </trkpt>
      <trkpt lat="44.88416" lon="-0.55699">
        <ele>-6.1</ele>
        <time>2016-12-06T09:55:23Z</time>
      </trkpt>
      <trkpt lat="44.88425" lon="-0.55714">
        <ele>-5.9</ele>
        <time>2016-12-06T09:55:25Z</time>
      </trkpt>
      <trkpt lat="44.88435" lon="-0.55728">
        <ele>-6.5</ele>
        <time>2016-12-06T09:55:27Z</time>
      </trkpt>
      <trkpt lat="44.88444" lon="-0.55741">
        <ele>-6.3</ele>
        <time>2016-12-06T09:55:29Z</time>
      </trkpt>
      <trkpt lat="44.88455" lon="-0.55754">
        <ele>-6.6</ele>
        <time>2016-12-06T09:55:31Z</time>
      </trkpt>
      <trkpt lat="44.8846" lon="-0.5576">
        <ele>-6.9</ele>
        <time>2016-12-06T09:55:32Z</time>
      </trkpt>
      <trkpt lat="44.88471" lon="-0.55772">
        <ele>-7.3</ele>
        <time>2016-12-06T09:55:34Z</time>
      </trkpt>
      <trkpt lat="44.88482" lon="-0.55783">
        <ele>-8</ele>
        <time>2016-12-06T09:55:36Z</time>
      </trkpt>
      <trkpt lat="44.88488" lon="-0.55789">
        <ele>-8.2</ele>
        <time>2016-12-06T09:55:37Z</time>
      </trkpt>
      <trkpt lat="44.88494" lon="-0.55794">
        <ele>-8</ele>
        <time>2016-12-06T09:55:38Z</time>
      </trkpt>
      <trkpt lat="44.88505" lon="-0.55805">
        <ele>-8.3</ele>
        <time>2016-12-06T09:55:40Z</time>
      </trkpt>
      <trkpt lat="44.88515" lon="-0.55814">
        <ele>-8.6</ele>
        <time>2016-12-06T09:55:42Z</time>
      </trkpt>
      <trkpt lat="44.8852" lon="-0.55819">
        <ele>-8.9</ele>
        <time>2016-12-06T09:55:43Z</time>
      </trkpt>
      <trkpt lat="44.88529" lon="-0.55828">
        <ele>-9.1</ele>
        <time>2016-12-06T09:55:45Z</time>
      </trkpt>
      <trkpt lat="44.88534" lon="-0.55833">
        <ele>-9.1</ele>
        <time>2016-12-06T09:55:46Z</time>
      </trkpt>
      <trkpt lat="44.88542" lon="-0.55842">
        <ele>-9.7</ele>
        <time>2016-12-06T09:55:48Z</time>
      </trkpt>
      <trkpt lat="44.88547" lon="-0.55847">
        <ele>-10.1</ele>
        <time>2016-12-06T09:55:49Z</time>
      </trkpt>
      <trkpt lat="44.88552" lon="-0.55851">
        <ele>-9.6</ele>
        <time>2016-12-06T09:55:50Z</time>
      </trkpt>
      <trkpt lat="44.88561" lon="-0.5586">
        <ele>-9</ele>
        <time>2016-12-06T09:55:52Z</time>
      </trkpt>
      <trkpt lat="44.8857" lon="-0.55868">
        <ele>-8.9</ele>
        <time>2016-12-06T09:55:54Z</time>
      </trkpt>
      <trkpt lat="44.88573" lon="-0.55872">
        <ele>-9.4</ele>
        <time>2016-12-06T09:55:55Z</time>
      </trkpt>
      <trkpt lat="44.8858" lon="-0.55881">
        <ele>-10.1</ele>
        <time>2016-12-06T09:55:57Z</time>
      </trkpt>
      <trkpt lat="44.88586" lon="-0.5589">
        <ele>-10.6</ele>
        <time>2016-12-06T09:55:59Z</time>
      </trkpt>
      <trkpt lat="44.88593" lon="-0.55898">
        <ele>-11.3</ele>
        <time>2016-12-06T09:56:01Z</time>
      </trkpt>
      <trkpt lat="44.88599" lon="-0.55908">
        <ele>-12</ele>
        <time>2016-12-06T09:56:03Z</time>
      </trkpt>
      <trkpt lat="44.88603" lon="-0.55912">
        <ele>-11.6</ele>
        <time>2016-12-06T09:56:04Z</time>
      </trkpt>
      <trkpt lat="44.8861" lon="-0.55923">
        <ele>-11.1</ele>
        <time>2016-12-06T09:56:06Z</time>
      </trkpt>
      <trkpt lat="44.88612" lon="-0.55928">
        <ele>-11</ele>
        <time>2016-12-06T09:56:07Z</time>
      </trkpt>
      <trkpt lat="44.88616" lon="-0.55939">
        <ele>-10.7</ele>
        <time>2016-12-06T09:56:09Z</time>
      </trkpt>
      <trkpt lat="44.88621" lon="-0.55948">
        <ele>-10.8</ele>
        <time>2016-12-06T09:56:11Z</time>
      </trkpt>
      <trkpt lat="44.88625" lon="-0.55958">
        <ele>-11.8</ele>
        <time>2016-12-06T09:56:13Z</time>
      </trkpt>
      <trkpt lat="44.8863" lon="-0.55969">
        <ele>-12.2</ele>
        <time>2016-12-06T09:56:15Z</time>
      </trkpt>
      <trkpt lat="44.88635" lon="-0.55982">
        <ele>-12.6</ele>
        <time>2016-12-06T09:56:17Z</time>
      </trkpt>
      <trkpt lat="44.88639" lon="-0.55997">
        <ele>-12.7</ele>
        <time>2016-12-06T09:56:19Z</time>
      </trkpt>
      <trkpt lat="44.88642" lon="-0.56005">
        <ele>-12.7</ele>
        <time>2016-12-06T09:56:20Z</time>
      </trkpt>
      <trkpt lat="44.88647" lon="-0.5602">
        <ele>-12.6</ele>
        <time>2016-12-06T09:56:22Z</time>
      </trkpt>
      <trkpt lat="44.88652" lon="-0.56033">
        <ele>-13.1</ele>
        <time>2016-12-06T09:56:24Z</time>
      </trkpt>
      <trkpt lat="44.88655" lon="-0.5604">
        <ele>-13.4</ele>
        <time>2016-12-06T09:56:25Z</time>
      </trkpt>
      <trkpt lat="44.88659" lon="-0.56052">
        <ele>-13.9</ele>
        <time>2016-12-06T09:56:27Z</time>
      </trkpt>
      <trkpt lat="44.88663" lon="-0.56064">
        <ele>-14.3</ele>
        <time>2016-12-06T09:56:29Z</time>
      </trkpt>
      <trkpt lat="44.88664" lon="-0.56071">
        <ele>-14.5</ele>
        <time>2016-12-06T09:56:30Z</time>
      </trkpt>
      <trkpt lat="44.88665" lon="-0.56077">
        <ele>-14.3</ele>
        <time>2016-12-06T09:56:31Z</time>
      </trkpt>
      <trkpt lat="44.8867" lon="-0.56083">
        <ele>-13.9</ele>
        <time>2016-12-06T09:56:33Z</time>
      </trkpt>
      <trkpt lat="44.88678" lon="-0.56081">
        <ele>-13.1</ele>
        <time>2016-12-06T09:56:35Z</time>
      </trkpt>
      <trkpt lat="44.88686" lon="-0.56077">
        <ele>-12.5</ele>
        <time>2016-12-06T09:56:37Z</time>
      </trkpt>
      <trkpt lat="44.88694" lon="-0.56073">
        <ele>-12</ele>
        <time>2016-12-06T09:56:39Z</time>
      </trkpt>
      <trkpt lat="44.88701" lon="-0.56069">
        <ele>-11.7</ele>
        <time>2016-12-06T09:56:41Z</time>
      </trkpt>
      <trkpt lat="44.88707" lon="-0.56065">
        <ele>-11.4</ele>
        <time>2016-12-06T09:56:43Z</time>
      </trkpt>
      <trkpt lat="44.88714" lon="-0.56062">
        <ele>-10</ele>
        <time>2016-12-06T09:56:45Z</time>
      </trkpt>
      <trkpt lat="44.88722" lon="-0.56061">
        <ele>-9.2</ele>
        <time>2016-12-06T09:56:47Z</time>
      </trkpt>
      <trkpt lat="44.88729" lon="-0.56059">
        <ele>-8.7</ele>
        <time>2016-12-06T09:56:49Z</time>
      </trkpt>
      <trkpt lat="44.88735" lon="-0.56056">
        <ele>-8</ele>
        <time>2016-12-06T09:56:51Z</time>
      </trkpt>
      <trkpt lat="44.8874" lon="-0.56053">
        <ele>-7.4</ele>
        <time>2016-12-06T09:56:53Z</time>
      </trkpt>
      <trkpt lat="44.88746" lon="-0.56051">
        <ele>-7.2</ele>
        <time>2016-12-06T09:56:55Z</time>
      </trkpt>
      <trkpt lat="44.88753" lon="-0.56047">
        <ele>-7.4</ele>
        <time>2016-12-06T09:56:57Z</time>
      </trkpt>
      <trkpt lat="44.88759" lon="-0.56044">
        <ele>-8.1</ele>
        <time>2016-12-06T09:56:59Z</time>
      </trkpt>
      <trkpt lat="44.88766" lon="-0.56041">
        <ele>-8.6</ele>
        <time>2016-12-06T09:57:01Z</time>
      </trkpt>
      <trkpt lat="44.88772" lon="-0.56038">
        <ele>-8.8</ele>
        <time>2016-12-06T09:57:03Z</time>
      </trkpt>
      <trkpt lat="44.88778" lon="-0.56037">
        <ele>-9.2</ele>
        <time>2016-12-06T09:57:05Z</time>
      </trkpt>
      <trkpt lat="44.88784" lon="-0.56035">
        <ele>-9.2</ele>
        <time>2016-12-06T09:57:07Z</time>
      </trkpt>
      <trkpt lat="44.8879" lon="-0.56035">
        <ele>-8.9</ele>
        <time>2016-12-06T09:57:09Z</time>
      </trkpt>
      <trkpt lat="44.88796" lon="-0.56037">
        <ele>-7.9</ele>
        <time>2016-12-06T09:57:11Z</time>
      </trkpt>
      <trkpt lat="44.88802" lon="-0.56042">
        <ele>-7.8</ele>
        <time>2016-12-06T09:57:13Z</time>
      </trkpt>
      <trkpt lat="44.88807" lon="-0.56044">
        <ele>-7.7</ele>
        <time>2016-12-06T09:57:16Z</time>
      </trkpt>
      <trkpt lat="44.88814" lon="-0.56044">
        <ele>-7.6</ele>
        <time>2016-12-06T09:57:19Z</time>
      </trkpt>
      <trkpt lat="44.88822" lon="-0.56044">
        <ele>-6.4</ele>
        <time>2016-12-06T09:57:21Z</time>
      </trkpt>
      <trkpt lat="44.88828" lon="-0.56043">
        <ele>-5.8</ele>
        <time>2016-12-06T09:57:23Z</time>
      </trkpt>
      <trkpt lat="44.88834" lon="-0.5604">
        <ele>-5.3</ele>
        <time>2016-12-06T09:57:25Z</time>
      </trkpt>
      <trkpt lat="44.8884" lon="-0.56038">
        <ele>-5.2</ele>
        <time>2016-12-06T09:57:27Z</time>
      </trkpt>
      <trkpt lat="44.88846" lon="-0.5604">
        <ele>-4.4</ele>
        <time>2016-12-06T09:57:29Z</time>
      </trkpt>
      <trkpt lat="44.8885" lon="-0.56038">
        <ele>-4.3</ele>
        <time>2016-12-06T09:57:32Z</time>
      </trkpt>
      <trkpt lat="44.88853" lon="-0.5603">
        <ele>-3.5</ele>
        <time>2016-12-06T09:57:36Z</time>
      </trkpt>
      <trkpt lat="44.88856" lon="-0.56025">
        <ele>-3.3</ele>
        <time>2016-12-06T09:57:38Z</time>
      </trkpt>
      <trkpt lat="44.8886" lon="-0.56015">
        <ele>-2.5</ele>
        <time>2016-12-06T09:57:45Z</time>
      </trkpt>
      <trkpt lat="44.88858" lon="-0.56009">
        <ele>-2.4</ele>
        <time>2016-12-06T09:57:47Z</time>
      </trkpt>
      <trkpt lat="44.88855" lon="-0.56001">
        <ele>-1.9</ele>
        <time>2016-12-06T09:57:49Z</time>
      </trkpt>
      <trkpt lat="44.88853" lon="-0.55992">
        <ele>-1.5</ele>
        <time>2016-12-06T09:57:51Z</time>
      </trkpt>
      <trkpt lat="44.88851" lon="-0.55981">
        <ele>-1.4</ele>
        <time>2016-12-06T09:57:53Z</time>
      </trkpt>
      <trkpt lat="44.88849" lon="-0.55972">
        <ele>-1.2</ele>
        <time>2016-12-06T09:57:55Z</time>
      </trkpt>
      <trkpt lat="44.88845" lon="-0.55964">
        <ele>-1.3</ele>
        <time>2016-12-06T09:57:57Z</time>
      </trkpt>
      <trkpt lat="44.88839" lon="-0.55957">
        <ele>-1.2</ele>
        <time>2016-12-06T09:57:59Z</time>
      </trkpt>
      <trkpt lat="44.88832" lon="-0.55951">
        <ele>-1.9</ele>
        <time>2016-12-06T09:58:01Z</time>
      </trkpt>
      <trkpt lat="44.88825" lon="-0.55948">
        <ele>-2.3</ele>
        <time>2016-12-06T09:58:03Z</time>
      </trkpt>
      <trkpt lat="44.88819" lon="-0.55943">
        <ele>-2.2</ele>
        <time>2016-12-06T09:58:05Z</time>
      </trkpt>
      <trkpt lat="44.88817" lon="-0.55935">
        <ele>-2</ele>
        <time>2016-12-06T09:58:07Z</time>
      </trkpt>
      <trkpt lat="44.88815" lon="-0.55928">
        <ele>-1.9</ele>
        <time>2016-12-06T09:58:09Z</time>
      </trkpt>
      <trkpt lat="44.88815" lon="-0.55921">
        <ele>-1.7</ele>
        <time>2016-12-06T09:58:11Z</time>
      </trkpt>
      <trkpt lat="44.88814" lon="-0.55914">
        <ele>-1.5</ele>
        <time>2016-12-06T09:58:13Z</time>
      </trkpt>
      <trkpt lat="44.88818" lon="-0.55919">
        <ele>-1.8</ele>
        <time>2016-12-06T09:59:26Z</time>
      </trkpt>
      <trkpt lat="44.8882" lon="-0.55927">
        <ele>-1.9</ele>
        <time>2016-12-06T09:59:28Z</time>
      </trkpt>
      <trkpt lat="44.88819" lon="-0.55934">
        <ele>-2.1</ele>
        <time>2016-12-06T09:59:30Z</time>
      </trkpt>
      <trkpt lat="44.8882" lon="-0.55942">
        <ele>-2.3</ele>
        <time>2016-12-06T09:59:33Z</time>
      </trkpt>
      <trkpt lat="44.88826" lon="-0.55947">
        <ele>-2.8</ele>
        <time>2016-12-06T09:59:35Z</time>
      </trkpt>
      <trkpt lat="44.88833" lon="-0.55951">
        <ele>-2.9</ele>
        <time>2016-12-06T09:59:37Z</time>
      </trkpt>
      <trkpt lat="44.88839" lon="-0.55957">
        <ele>-4</ele>
        <time>2016-12-06T09:59:39Z</time>
      </trkpt>
      <trkpt lat="44.88844" lon="-0.55965">
        <ele>-5.6</ele>
        <time>2016-12-06T09:59:41Z</time>
      </trkpt>
      <trkpt lat="44.88848" lon="-0.55973">
        <ele>-7</ele>
        <time>2016-12-06T09:59:43Z</time>
      </trkpt>
      <trkpt lat="44.8885" lon="-0.5598">
        <ele>-8.7</ele>
        <time>2016-12-06T09:59:45Z</time>
      </trkpt>
      <trkpt lat="44.88852" lon="-0.55987">
        <ele>-9.2</ele>
        <time>2016-12-06T09:59:47Z</time>
      </trkpt>
      <trkpt lat="44.88854" lon="-0.55995">
        <ele>-9.7</ele>
        <time>2016-12-06T09:59:49Z</time>
      </trkpt>
      <trkpt lat="44.88858" lon="-0.56002">
        <ele>-9.5</ele>
        <time>2016-12-06T09:59:51Z</time>
      </trkpt>
      <trkpt lat="44.88859" lon="-0.56009">
        <ele>-8.7</ele>
        <time>2016-12-06T10:00:01Z</time>
      </trkpt>
      <trkpt lat="44.88856" lon="-0.5602">
        <ele>-8.6</ele>
        <time>2016-12-06T10:00:07Z</time>
      </trkpt>
      <trkpt lat="44.88853" lon="-0.56027">
        <ele>-8.8</ele>
        <time>2016-12-06T10:00:09Z</time>
      </trkpt>
      <trkpt lat="44.88848" lon="-0.56031">
        <ele>-8.8</ele>
        <time>2016-12-06T10:00:11Z</time>
      </trkpt>
      <trkpt lat="44.88842" lon="-0.56035">
        <ele>-9.1</ele>
        <time>2016-12-06T10:00:13Z</time>
      </trkpt>
      <trkpt lat="44.88835" lon="-0.56039">
        <ele>-9.1</ele>
        <time>2016-12-06T10:00:15Z</time>
      </trkpt>
      <trkpt lat="44.8883" lon="-0.56042">
        <ele>-9.4</ele>
        <time>2016-12-06T10:00:17Z</time>
      </trkpt>
      <trkpt lat="44.88824" lon="-0.56044">
        <ele>-8.5</ele>
        <time>2016-12-06T10:00:21Z</time>
      </trkpt>
      <trkpt lat="44.88818" lon="-0.56045">
        <ele>-7.9</ele>
        <time>2016-12-06T10:00:24Z</time>
      </trkpt>
      <trkpt lat="44.88811" lon="-0.56045">
        <ele>-7</ele>
        <time>2016-12-06T10:00:26Z</time>
      </trkpt>
      <trkpt lat="44.88805" lon="-0.56042">
        <ele>-5.9</ele>
        <time>2016-12-06T10:00:28Z</time>
      </trkpt>
      <trkpt lat="44.888" lon="-0.56038">
        <ele>-5.6</ele>
        <time>2016-12-06T10:00:30Z</time>
      </trkpt>
      <trkpt lat="44.88794" lon="-0.56036">
        <ele>-6.2</ele>
        <time>2016-12-06T10:00:32Z</time>
      </trkpt>
      <trkpt lat="44.88789" lon="-0.56036">
        <ele>-7</ele>
        <time>2016-12-06T10:00:34Z</time>
      </trkpt>
      <trkpt lat="44.88783" lon="-0.56038">
        <ele>-6.8</ele>
        <time>2016-12-06T10:00:36Z</time>
      </trkpt>
      <trkpt lat="44.88778" lon="-0.5604">
        <ele>-6.3</ele>
        <time>2016-12-06T10:00:38Z</time>
      </trkpt>
      <trkpt lat="44.88773" lon="-0.56041">
        <ele>-6.5</ele>
        <time>2016-12-06T10:00:40Z</time>
      </trkpt>
      <trkpt lat="44.88769" lon="-0.56042">
        <ele>-6.8</ele>
        <time>2016-12-06T10:00:42Z</time>
      </trkpt>
      <trkpt lat="44.88764" lon="-0.56045">
        <ele>-5.4</ele>
        <time>2016-12-06T10:00:44Z</time>
      </trkpt>
      <trkpt lat="44.88758" lon="-0.56047">
        <ele>-5.3</ele>
        <time>2016-12-06T10:00:47Z</time>
      </trkpt>
      <trkpt lat="44.88753" lon="-0.56049">
        <ele>-5.3</ele>
        <time>2016-12-06T10:00:49Z</time>
      </trkpt>
      <trkpt lat="44.88746" lon="-0.56051">
        <ele>-5</ele>
        <time>2016-12-06T10:00:51Z</time>
      </trkpt>
      <trkpt lat="44.88739" lon="-0.56053">
        <ele>-4.8</ele>
        <time>2016-12-06T10:00:53Z</time>
      </trkpt>
      <trkpt lat="44.88732" lon="-0.56055">
        <ele>-5</ele>
        <time>2016-12-06T10:00:55Z</time>
      </trkpt>
      <trkpt lat="44.88726" lon="-0.56056">
        <ele>-5.1</ele>
        <time>2016-12-06T10:00:57Z</time>
      </trkpt>
      <trkpt lat="44.8872" lon="-0.56058">
        <ele>-5.7</ele>
        <time>2016-12-06T10:00:59Z</time>
      </trkpt>
      <trkpt lat="44.88715" lon="-0.5606">
        <ele>-6.2</ele>
        <time>2016-12-06T10:01:01Z</time>
      </trkpt>
      <trkpt lat="44.88709" lon="-0.56063">
        <ele>-7.1</ele>
        <time>2016-12-06T10:01:03Z</time>
      </trkpt>
      <trkpt lat="44.88702" lon="-0.56067">
        <ele>-7.4</ele>
        <time>2016-12-06T10:01:05Z</time>
      </trkpt>
      <trkpt lat="44.88695" lon="-0.56072">
        <ele>-8.1</ele>
        <time>2016-12-06T10:01:07Z</time>
      </trkpt>
      <trkpt lat="44.88688" lon="-0.56078">
        <ele>-8.9</ele>
        <time>2016-12-06T10:01:09Z</time>
      </trkpt>
      <trkpt lat="44.88682" lon="-0.56084">
        <ele>-9.4</ele>
        <time>2016-12-06T10:01:11Z</time>
      </trkpt>
      <trkpt lat="44.88676" lon="-0.56087">
        <ele>-9.6</ele>
        <time>2016-12-06T10:01:13Z</time>
      </trkpt>
      <trkpt lat="44.88672" lon="-0.56083">
        <ele>-9.8</ele>
        <time>2016-12-06T10:01:16Z</time>
      </trkpt>
      <trkpt lat="44.8867" lon="-0.56076">
        <ele>-9.9</ele>
        <time>2016-12-06T10:01:18Z</time>
      </trkpt>
      <trkpt lat="44.88667" lon="-0.56068">
        <ele>-10.3</ele>
        <time>2016-12-06T10:01:20Z</time>
      </trkpt>
      <trkpt lat="44.88665" lon="-0.56061">
        <ele>-10.7</ele>
        <time>2016-12-06T10:01:22Z</time>
      </trkpt>
      <trkpt lat="44.88662" lon="-0.56052">
        <ele>-11.2</ele>
        <time>2016-12-06T10:01:24Z</time>
      </trkpt>
      <trkpt lat="44.88659" lon="-0.56043">
        <ele>-11.4</ele>
        <time>2016-12-06T10:01:25Z</time>
      </trkpt>
      <trkpt lat="44.88654" lon="-0.5603">
        <ele>-11.7</ele>
        <time>2016-12-06T10:01:27Z</time>
      </trkpt>
      <trkpt lat="44.88649" lon="-0.56017">
        <ele>-11.6</ele>
        <time>2016-12-06T10:01:29Z</time>
      </trkpt>
      <trkpt lat="44.88643" lon="-0.56004">
        <ele>-11.1</ele>
        <time>2016-12-06T10:01:31Z</time>
      </trkpt>
      <trkpt lat="44.88641" lon="-0.55998">
        <ele>-10.6</ele>
        <time>2016-12-06T10:01:32Z</time>
      </trkpt>
      <trkpt lat="44.88639" lon="-0.5599">
        <ele>-10.3</ele>
        <time>2016-12-06T10:01:33Z</time>
      </trkpt>
      <trkpt lat="44.88635" lon="-0.55977">
        <ele>-9.7</ele>
        <time>2016-12-06T10:01:35Z</time>
      </trkpt>
      <trkpt lat="44.88633" lon="-0.5597">
        <ele>-9.6</ele>
        <time>2016-12-06T10:01:36Z</time>
      </trkpt>
      <trkpt lat="44.88628" lon="-0.55955">
        <ele>-9.3</ele>
        <time>2016-12-06T10:01:38Z</time>
      </trkpt>
      <trkpt lat="44.88624" lon="-0.55942">
        <ele>-8.4</ele>
        <time>2016-12-06T10:01:40Z</time>
      </trkpt>
      <trkpt lat="44.88622" lon="-0.55936">
        <ele>-8</ele>
        <time>2016-12-06T10:01:41Z</time>
      </trkpt>
      <trkpt lat="44.88617" lon="-0.55923">
        <ele>-7.2</ele>
        <time>2016-12-06T10:01:43Z</time>
      </trkpt>
      <trkpt lat="44.88614" lon="-0.55917">
        <ele>-6.7</ele>
        <time>2016-12-06T10:01:44Z</time>
      </trkpt>
      <trkpt lat="44.88607" lon="-0.55904">
        <ele>-6.1</ele>
        <time>2016-12-06T10:01:46Z</time>
      </trkpt>
      <trkpt lat="44.88604" lon="-0.55899">
        <ele>-5.8</ele>
        <time>2016-12-06T10:01:47Z</time>
      </trkpt>
      <trkpt lat="44.88597" lon="-0.55889">
        <ele>-4.9</ele>
        <time>2016-12-06T10:01:49Z</time>
      </trkpt>
      <trkpt lat="44.88591" lon="-0.5588">
        <ele>-4.5</ele>
        <time>2016-12-06T10:01:51Z</time>
      </trkpt>
      <trkpt lat="44.88582" lon="-0.55871">
        <ele>-4.6</ele>
        <time>2016-12-06T10:01:53Z</time>
      </trkpt>
      <trkpt lat="44.88574" lon="-0.55864">
        <ele>-4.4</ele>
        <time>2016-12-06T10:01:55Z</time>
      </trkpt>
      <trkpt lat="44.88567" lon="-0.55855">
        <ele>-3.9</ele>
        <time>2016-12-06T10:01:57Z</time>
      </trkpt>
      <trkpt lat="44.88562" lon="-0.55851">
        <ele>-3.7</ele>
        <time>2016-12-06T10:01:58Z</time>
      </trkpt>
      <trkpt lat="44.88554" lon="-0.55842">
        <ele>-2.9</ele>
        <time>2016-12-06T10:02:00Z</time>
      </trkpt>
      <trkpt lat="44.88549" lon="-0.55837">
        <ele>-2.6</ele>
        <time>2016-12-06T10:02:01Z</time>
      </trkpt>
      <trkpt lat="44.8854" lon="-0.55829">
        <ele>-2.2</ele>
        <time>2016-12-06T10:02:03Z</time>
      </trkpt>
      <trkpt lat="44.88535" lon="-0.55825">
        <ele>-2</ele>
        <time>2016-12-06T10:02:04Z</time>
      </trkpt>
      <trkpt lat="44.88526" lon="-0.55817">
        <ele>-1.5</ele>
        <time>2016-12-06T10:02:06Z</time>
      </trkpt>
      <trkpt lat="44.88522" lon="-0.55813">
        <ele>-1.3</ele>
        <time>2016-12-06T10:02:07Z</time>
      </trkpt>
      <trkpt lat="44.88518" lon="-0.55809">
        <ele>-1</ele>
        <time>2016-12-06T10:02:08Z</time>
      </trkpt>
      <trkpt lat="44.8851" lon="-0.55801">
        <ele>-0.5</ele>
        <time>2016-12-06T10:02:10Z</time>
      </trkpt>
      <trkpt lat="44.88506" lon="-0.55797">
        <ele>-0.4</ele>
        <time>2016-12-06T10:02:11Z</time>
      </trkpt>
      <trkpt lat="44.88497" lon="-0.55788">
        <ele>-0.3</ele>
        <time>2016-12-06T10:02:13Z</time>
      </trkpt>
      <trkpt lat="44.88488" lon="-0.5578">
        <ele>0.1</ele>
        <time>2016-12-06T10:02:15Z</time>
      </trkpt>
      <trkpt lat="44.88479" lon="-0.55772">
        <ele>0.4</ele>
        <time>2016-12-06T10:02:17Z</time>
      </trkpt>
      <trkpt lat="44.8847" lon="-0.55764">
        <ele>0.3</ele>
        <time>2016-12-06T10:02:19Z</time>
      </trkpt>
      <trkpt lat="44.88466" lon="-0.5576">
        <ele>-0.2</ele>
        <time>2016-12-06T10:02:20Z</time>
      </trkpt>
      <trkpt lat="44.88457" lon="-0.55752">
        <ele>-0.7</ele>
        <time>2016-12-06T10:02:22Z</time>
      </trkpt>
      <trkpt lat="44.88449" lon="-0.55743">
        <ele>-0.8</ele>
        <time>2016-12-06T10:02:24Z</time>
      </trkpt>
      <trkpt lat="44.88445" lon="-0.55738">
        <ele>-1</ele>
        <time>2016-12-06T10:02:25Z</time>
      </trkpt>
      <trkpt lat="44.88437" lon="-0.55728">
        <ele>-1</ele>
        <time>2016-12-06T10:02:27Z</time>
      </trkpt>
      <trkpt lat="44.88429" lon="-0.55718">
        <ele>-1.6</ele>
        <time>2016-12-06T10:02:29Z</time>
      </trkpt>
      <trkpt lat="44.88421" lon="-0.55706">
        <ele>-2.1</ele>
        <time>2016-12-06T10:02:31Z</time>
      </trkpt>
      <trkpt lat="44.88418" lon="-0.55701">
        <ele>-2.1</ele>
        <time>2016-12-06T10:02:32Z</time>
      </trkpt>
      <trkpt lat="44.88412" lon="-0.55691">
        <ele>-2.3</ele>
        <time>2016-12-06T10:02:34Z</time>
      </trkpt>
      <trkpt lat="44.88409" lon="-0.55686">
        <ele>-2.5</ele>
        <time>2016-12-06T10:02:35Z</time>
      </trkpt>
      <trkpt lat="44.88404" lon="-0.55675">
        <ele>-2.5</ele>
        <time>2016-12-06T10:02:37Z</time>
      </trkpt>
      <trkpt lat="44.88401" lon="-0.5567">
        <ele>-2.4</ele>
        <time>2016-12-06T10:02:38Z</time>
      </trkpt>
      <trkpt lat="44.88396" lon="-0.55658">
        <ele>-2.8</ele>
        <time>2016-12-06T10:02:40Z</time>
      </trkpt>
      <trkpt lat="44.88393" lon="-0.55647">
        <ele>-3</ele>
        <time>2016-12-06T10:02:42Z</time>
      </trkpt>
      <trkpt lat="44.88391" lon="-0.55635">
        <ele>-4</ele>
        <time>2016-12-06T10:02:44Z</time>
      </trkpt>
      <trkpt lat="44.88388" lon="-0.55623">
        <ele>-3.4</ele>
        <time>2016-12-06T10:02:46Z</time>
      </trkpt>
      <trkpt lat="44.88387" lon="-0.55612">
        <ele>-3</ele>
        <time>2016-12-06T10:02:48Z</time>
      </trkpt>
      <trkpt lat="44.88385" lon="-0.55601">
        <ele>-2.4</ele>
        <time>2016-12-06T10:02:50Z</time>
      </trkpt>
      <trkpt lat="44.88382" lon="-0.55589">
        <ele>-2</ele>
        <time>2016-12-06T10:02:52Z</time>
      </trkpt>
      <trkpt lat="44.8838" lon="-0.55576">
        <ele>-1.2</ele>
        <time>2016-12-06T10:02:54Z</time>
      </trkpt>
      <trkpt lat="44.88378" lon="-0.5557">
        <ele>-0.8</ele>
        <time>2016-12-06T10:02:55Z</time>
      </trkpt>
      <trkpt lat="44.88375" lon="-0.55556">
        <ele>-0.2</ele>
        <time>2016-12-06T10:02:57Z</time>
      </trkpt>
      <trkpt lat="44.88373" lon="-0.55542">
        <ele>3.6</ele>
        <time>2016-12-06T10:02:59Z</time>
      </trkpt>
      <trkpt lat="44.8837" lon="-0.5553">
        <ele>-0.1</ele>
        <time>2016-12-06T10:03:01Z</time>
      </trkpt>
      <trkpt lat="44.88368" lon="-0.55518">
        <ele>0.6</ele>
        <time>2016-12-06T10:03:03Z</time>
      </trkpt>
      <trkpt lat="44.88366" lon="-0.55507">
        <ele>1.7</ele>
        <time>2016-12-06T10:03:05Z</time>
      </trkpt>
      <trkpt lat="44.88363" lon="-0.55495">
        <ele>1.3</ele>
        <time>2016-12-06T10:03:07Z</time>
      </trkpt>
      <trkpt lat="44.88362" lon="-0.55489">
        <ele>0.8</ele>
        <time>2016-12-06T10:03:08Z</time>
      </trkpt>
      <trkpt lat="44.8836" lon="-0.55483">
        <ele>0.4</ele>
        <time>2016-12-06T10:03:09Z</time>
      </trkpt>
      <trkpt lat="44.88357" lon="-0.5547">
        <ele>-0.1</ele>
        <time>2016-12-06T10:03:11Z</time>
      </trkpt>
      <trkpt lat="44.88356" lon="-0.55464">
        <ele>-0.8</ele>
        <time>2016-12-06T10:03:12Z</time>
      </trkpt>
      <trkpt lat="44.88354" lon="-0.55458">
        <ele>-1.5</ele>
        <time>2016-12-06T10:03:13Z</time>
      </trkpt>
      <trkpt lat="44.88351" lon="-0.55446">
        <ele>-2.3</ele>
        <time>2016-12-06T10:03:15Z</time>
      </trkpt>
      <trkpt lat="44.88347" lon="-0.55434">
        <ele>-2.3</ele>
        <time>2016-12-06T10:03:17Z</time>
      </trkpt>
      <trkpt lat="44.88346" lon="-0.55428">
        <ele>-2.3</ele>
        <time>2016-12-06T10:03:18Z</time>
      </trkpt>
      <trkpt lat="44.88344" lon="-0.55421">
        <ele>-2.6</ele>
        <time>2016-12-06T10:03:19Z</time>
      </trkpt>
      <trkpt lat="44.88339" lon="-0.55407">
        <ele>-2.2</ele>
        <time>2016-12-06T10:03:21Z</time>
      </trkpt>
      <trkpt lat="44.88335" lon="-0.55394">
        <ele>-1.7</ele>
        <time>2016-12-06T10:03:23Z</time>
      </trkpt>
      <trkpt lat="44.88333" lon="-0.55387">
        <ele>-1.4</ele>
        <time>2016-12-06T10:03:24Z</time>
      </trkpt>
      <trkpt lat="44.88331" lon="-0.5538">
        <ele>-1.1</ele>
        <time>2016-12-06T10:03:25Z</time>
      </trkpt>
      <trkpt lat="44.88328" lon="-0.55367">
        <ele>-1</ele>
        <time>2016-12-06T10:03:27Z</time>
      </trkpt>
      <trkpt lat="44.88326" lon="-0.55361">
        <ele>-1</ele>
        <time>2016-12-06T10:03:28Z</time>
      </trkpt>
      <trkpt lat="44.88322" lon="-0.55349">
        <ele>-1.4</ele>
        <time>2016-12-06T10:03:30Z</time>
      </trkpt>
      <trkpt lat="44.8832" lon="-0.55338">
        <ele>-1.6</ele>
        <time>2016-12-06T10:03:32Z</time>
      </trkpt>
      <trkpt lat="44.88318" lon="-0.55329">
        <ele>-1.8</ele>
        <time>2016-12-06T10:03:34Z</time>
      </trkpt>
      <trkpt lat="44.88316" lon="-0.5532">
        <ele>-2.3</ele>
        <time>2016-12-06T10:03:36Z</time>
      </trkpt>
      <trkpt lat="44.88315" lon="-0.55311">
        <ele>-3.3</ele>
        <time>2016-12-06T10:03:38Z</time>
      </trkpt>
      <trkpt lat="44.88313" lon="-0.55302">
        <ele>-4.7</ele>
        <time>2016-12-06T10:03:40Z</time>
      </trkpt>
      <trkpt lat="44.8831" lon="-0.55291">
        <ele>-5.9</ele>
        <time>2016-12-06T10:03:42Z</time>
      </trkpt>
      <trkpt lat="44.88307" lon="-0.5528">
        <ele>-7.2</ele>
        <time>2016-12-06T10:03:44Z</time>
      </trkpt>
      <trkpt lat="44.88303" lon="-0.55273">
        <ele>-9</ele>
        <time>2016-12-06T10:03:46Z</time>
      </trkpt>
      <trkpt lat="44.88298" lon="-0.55268">
        <ele>-10.3</ele>
        <time>2016-12-06T10:03:48Z</time>
      </trkpt>
      <trkpt lat="44.88292" lon="-0.55268">
        <ele>-11.6</ele>
        <time>2016-12-06T10:03:50Z</time>
      </trkpt>
      <trkpt lat="44.88287" lon="-0.55271">
        <ele>-12.6</ele>
        <time>2016-12-06T10:03:52Z</time>
      </trkpt>
      <trkpt lat="44.88282" lon="-0.55276">
        <ele>-13.7</ele>
        <time>2016-12-06T10:03:54Z</time>
      </trkpt>
      <trkpt lat="44.88277" lon="-0.55281">
        <ele>-15</ele>
        <time>2016-12-06T10:03:56Z</time>
      </trkpt>
      <trkpt lat="44.88276" lon="-0.55292">
        <ele>-14.6</ele>
        <time>2016-12-06T10:03:58Z</time>
      </trkpt>
      <trkpt lat="44.88277" lon="-0.55303">
        <ele>-13.8</ele>
        <time>2016-12-06T10:04:00Z</time>
      </trkpt>
      <trkpt lat="44.88279" lon="-0.55314">
        <ele>-12.9</ele>
        <time>2016-12-06T10:04:02Z</time>
      </trkpt>
      <trkpt lat="44.88281" lon="-0.55326">
        <ele>-11.5</ele>
        <time>2016-12-06T10:04:04Z</time>
      </trkpt>
      <trkpt lat="44.88283" lon="-0.5534">
        <ele>-10.2</ele>
        <time>2016-12-06T10:04:06Z</time>
      </trkpt>
      <trkpt lat="44.88286" lon="-0.55352">
        <ele>-9.4</ele>
        <time>2016-12-06T10:04:08Z</time>
      </trkpt>
      <trkpt lat="44.88288" lon="-0.55364">
        <ele>-9.4</ele>
        <time>2016-12-06T10:04:10Z</time>
      </trkpt>
      <trkpt lat="44.8829" lon="-0.55377">
        <ele>-8.5</ele>
        <time>2016-12-06T10:04:12Z</time>
      </trkpt>
      <trkpt lat="44.88292" lon="-0.55383">
        <ele>-8.2</ele>
        <time>2016-12-06T10:04:13Z</time>
      </trkpt>
      <trkpt lat="44.88295" lon="-0.55396">
        <ele>-7.7</ele>
        <time>2016-12-06T10:04:15Z</time>
      </trkpt>
      <trkpt lat="44.88297" lon="-0.55402">
        <ele>-7.5</ele>
        <time>2016-12-06T10:04:16Z</time>
      </trkpt>
      <trkpt lat="44.88301" lon="-0.55415">
        <ele>-7.3</ele>
        <time>2016-12-06T10:04:18Z</time>
      </trkpt>
      <trkpt lat="44.88302" lon="-0.55421">
        <ele>-7.3</ele>
        <time>2016-12-06T10:04:19Z</time>
      </trkpt>
      <trkpt lat="44.88305" lon="-0.55434">
        <ele>-7</ele>
        <time>2016-12-06T10:04:21Z</time>
      </trkpt>
      <trkpt lat="44.88307" lon="-0.55441">
        <ele>-6.7</ele>
        <time>2016-12-06T10:04:22Z</time>
      </trkpt>
      <trkpt lat="44.88308" lon="-0.55448">
        <ele>-6.2</ele>
        <time>2016-12-06T10:04:23Z</time>
      </trkpt>
      <trkpt lat="44.8831" lon="-0.55462">
        <ele>-5.8</ele>
        <time>2016-12-06T10:04:25Z</time>
      </trkpt>
      <trkpt lat="44.88311" lon="-0.55477">
        <ele>-6.5</ele>
        <time>2016-12-06T10:04:27Z</time>
      </trkpt>
      <trkpt lat="44.88312" lon="-0.55491">
        <ele>-6.3</ele>
        <time>2016-12-06T10:04:29Z</time>
      </trkpt>
      <trkpt lat="44.88313" lon="-0.55504">
        <ele>-6.4</ele>
        <time>2016-12-06T10:04:31Z</time>
      </trkpt>
      <trkpt lat="44.88314" lon="-0.55512">
        <ele>-6.3</ele>
        <time>2016-12-06T10:04:32Z</time>
      </trkpt>
      <trkpt lat="44.88314" lon="-0.55519">
        <ele>-6.9</ele>
        <time>2016-12-06T10:04:33Z</time>
      </trkpt>
      <trkpt lat="44.88317" lon="-0.55534">
        <ele>-7.4</ele>
        <time>2016-12-06T10:04:35Z</time>
      </trkpt>
      <trkpt lat="44.88318" lon="-0.55541">
        <ele>-7.8</ele>
        <time>2016-12-06T10:04:36Z</time>
      </trkpt>
      <trkpt lat="44.88319" lon="-0.55549">
        <ele>-7.8</ele>
        <time>2016-12-06T10:04:37Z</time>
      </trkpt>
      <trkpt lat="44.88321" lon="-0.55563">
        <ele>-8</ele>
        <time>2016-12-06T10:04:39Z</time>
      </trkpt>
      <trkpt lat="44.88324" lon="-0.55577">
        <ele>-8.7</ele>
        <time>2016-12-06T10:04:41Z</time>
      </trkpt>
      <trkpt lat="44.88326" lon="-0.55583">
        <ele>-7.6</ele>
        <time>2016-12-06T10:04:42Z</time>
      </trkpt>
      <trkpt lat="44.88328" lon="-0.55595">
        <ele>-7.3</ele>
        <time>2016-12-06T10:04:44Z</time>
      </trkpt>
      <trkpt lat="44.8833" lon="-0.55607">
        <ele>-7.7</ele>
        <time>2016-12-06T10:04:46Z</time>
      </trkpt>
      <trkpt lat="44.88332" lon="-0.55613">
        <ele>-7.7</ele>
        <time>2016-12-06T10:04:47Z</time>
      </trkpt>
      <trkpt lat="44.88334" lon="-0.55627">
        <ele>-7.4</ele>
        <time>2016-12-06T10:04:49Z</time>
      </trkpt>
      <trkpt lat="44.88337" lon="-0.55641">
        <ele>-7.3</ele>
        <time>2016-12-06T10:04:51Z</time>
      </trkpt>
      <trkpt lat="44.88339" lon="-0.55655">
        <ele>-7.1</ele>
        <time>2016-12-06T10:04:53Z</time>
      </trkpt>
      <trkpt lat="44.88341" lon="-0.55662">
        <ele>-7</ele>
        <time>2016-12-06T10:04:54Z</time>
      </trkpt>
      <trkpt lat="44.88342" lon="-0.55669">
        <ele>-6.8</ele>
        <time>2016-12-06T10:04:55Z</time>
      </trkpt>
      <trkpt lat="44.88345" lon="-0.55682">
        <ele>-6.5</ele>
        <time>2016-12-06T10:04:57Z</time>
      </trkpt>
      <trkpt lat="44.88346" lon="-0.55689">
        <ele>-6.3</ele>
        <time>2016-12-06T10:04:58Z</time>
      </trkpt>
      <trkpt lat="44.88348" lon="-0.55704">
        <ele>-6.1</ele>
        <time>2016-12-06T10:05:00Z</time>
      </trkpt>
      <trkpt lat="44.8835" lon="-0.55712">
        <ele>-5.8</ele>
        <time>2016-12-06T10:05:01Z</time>
      </trkpt>
      <trkpt lat="44.88353" lon="-0.55725">
        <ele>-5.3</ele>
        <time>2016-12-06T10:05:03Z</time>
      </trkpt>
      <trkpt lat="44.88354" lon="-0.55732">
        <ele>-5</ele>
        <time>2016-12-06T10:05:04Z</time>
      </trkpt>
      <trkpt lat="44.88357" lon="-0.55745">
        <ele>-4.7</ele>
        <time>2016-12-06T10:05:06Z</time>
      </trkpt>
      <trkpt lat="44.88358" lon="-0.55751">
        <ele>-4.6</ele>
        <time>2016-12-06T10:05:07Z</time>
      </trkpt>
      <trkpt lat="44.88361" lon="-0.55763">
        <ele>-4.5</ele>
        <time>2016-12-06T10:05:09Z</time>
      </trkpt>
      <trkpt lat="44.88364" lon="-0.55773">
        <ele>-4</ele>
        <time>2016-12-06T10:05:11Z</time>
      </trkpt>
      <trkpt lat="44.88365" lon="-0.55785">
        <ele>-3.4</ele>
        <time>2016-12-06T10:05:13Z</time>
      </trkpt>
      <trkpt lat="44.88366" lon="-0.55798">
        <ele>-3.3</ele>
        <time>2016-12-06T10:05:15Z</time>
      </trkpt>
      <trkpt lat="44.88365" lon="-0.55804">
        <ele>-3</ele>
        <time>2016-12-06T10:05:16Z</time>
      </trkpt>
      <trkpt lat="44.88365" lon="-0.55812">
        <ele>-2.8</ele>
        <time>2016-12-06T10:05:17Z</time>
      </trkpt>
      <trkpt lat="44.88364" lon="-0.55826">
        <ele>-2.5</ele>
        <time>2016-12-06T10:05:19Z</time>
      </trkpt>
      <trkpt lat="44.88362" lon="-0.5584">
        <ele>-2</ele>
        <time>2016-12-06T10:05:21Z</time>
      </trkpt>
      <trkpt lat="44.8836" lon="-0.55854">
        <ele>-1.9</ele>
        <time>2016-12-06T10:05:23Z</time>
      </trkpt>
      <trkpt lat="44.88357" lon="-0.55868">
        <ele>-1.7</ele>
        <time>2016-12-06T10:05:25Z</time>
      </trkpt>
      <trkpt lat="44.88355" lon="-0.55883">
        <ele>-1.5</ele>
        <time>2016-12-06T10:05:27Z</time>
      </trkpt>
      <trkpt lat="44.88353" lon="-0.5589">
        <ele>-1.4</ele>
        <time>2016-12-06T10:05:28Z</time>
      </trkpt>
      <trkpt lat="44.88352" lon="-0.55897">
        <ele>-1.4</ele>
        <time>2016-12-06T10:05:29Z</time>
      </trkpt>
      <trkpt lat="44.88349" lon="-0.5591">
        <ele>-1.3</ele>
        <time>2016-12-06T10:05:31Z</time>
      </trkpt>
      <trkpt lat="44.88345" lon="-0.55923">
        <ele>-1.4</ele>
        <time>2016-12-06T10:05:33Z</time>
      </trkpt>
      <trkpt lat="44.88341" lon="-0.55937">
        <ele>-1.6</ele>
        <time>2016-12-06T10:05:35Z</time>
      </trkpt>
      <trkpt lat="44.88337" lon="-0.55951">
        <ele>-1.7</ele>
        <time>2016-12-06T10:05:37Z</time>
      </trkpt>
      <trkpt lat="44.88333" lon="-0.55965">
        <ele>-1.6</ele>
        <time>2016-12-06T10:05:39Z</time>
      </trkpt>
      <trkpt lat="44.88328" lon="-0.55979">
        <ele>-1.8</ele>
        <time>2016-12-06T10:05:41Z</time>
      </trkpt>
      <trkpt lat="44.88325" lon="-0.55986">
        <ele>-1.7</ele>
        <time>2016-12-06T10:05:42Z</time>
      </trkpt>
      <trkpt lat="44.88323" lon="-0.55993">
        <ele>-1.6</ele>
        <time>2016-12-06T10:05:43Z</time>
      </trkpt>
      <trkpt lat="44.88318" lon="-0.56005">
        <ele>-1.6</ele>
        <time>2016-12-06T10:05:45Z</time>
      </trkpt>
      <trkpt lat="44.88315" lon="-0.56011">
        <ele>-1.3</ele>
        <time>2016-12-06T10:05:46Z</time>
      </trkpt>
      <trkpt lat="44.88309" lon="-0.56023">
        <ele>-1.5</ele>
        <time>2016-12-06T10:05:48Z</time>
      </trkpt>
      <trkpt lat="44.88305" lon="-0.56029">
        <ele>-2.4</ele>
        <time>2016-12-06T10:05:49Z</time>
      </trkpt>
      <trkpt lat="44.88296" lon="-0.56039">
        <ele>-2.6</ele>
        <time>2016-12-06T10:05:51Z</time>
      </trkpt>
      <trkpt lat="44.88288" lon="-0.56048">
        <ele>-2.4</ele>
        <time>2016-12-06T10:05:53Z</time>
      </trkpt>
      <trkpt lat="44.88278" lon="-0.56055">
        <ele>-2.3</ele>
        <time>2016-12-06T10:05:55Z</time>
      </trkpt>
      <trkpt lat="44.88268" lon="-0.56058">
        <ele>-2.4</ele>
        <time>2016-12-06T10:05:57Z</time>
      </trkpt>
      <trkpt lat="44.88258" lon="-0.56059">
        <ele>-2.7</ele>
        <time>2016-12-06T10:05:59Z</time>
      </trkpt>
      <trkpt lat="44.88246" lon="-0.56061">
        <ele>-2.9</ele>
        <time>2016-12-06T10:06:01Z</time>
      </trkpt>
      <trkpt lat="44.88241" lon="-0.56063">
        <ele>-3</ele>
        <time>2016-12-06T10:06:02Z</time>
      </trkpt>
      <trkpt lat="44.88231" lon="-0.5607">
        <ele>-3</ele>
        <time>2016-12-06T10:06:04Z</time>
      </trkpt>
      <trkpt lat="44.88223" lon="-0.56078">
        <ele>-2.7</ele>
        <time>2016-12-06T10:06:06Z</time>
      </trkpt>
      <trkpt lat="44.88219" lon="-0.56083">
        <ele>-2.6</ele>
        <time>2016-12-06T10:06:07Z</time>
      </trkpt>
      <trkpt lat="44.88215" lon="-0.56087">
        <ele>-2.6</ele>
        <time>2016-12-06T10:06:08Z</time>
      </trkpt>
      <trkpt lat="44.88207" lon="-0.56097">
        <ele>-2.3</ele>
        <time>2016-12-06T10:06:10Z</time>
      </trkpt>
      <trkpt lat="44.88203" lon="-0.56102">
        <ele>-2.1</ele>
        <time>2016-12-06T10:06:11Z</time>
      </trkpt>
      <trkpt lat="44.88199" lon="-0.56107">
        <ele>-1.9</ele>
        <time>2016-12-06T10:06:12Z</time>
      </trkpt>
      <trkpt lat="44.8819" lon="-0.56117">
        <ele>-1.3</ele>
        <time>2016-12-06T10:06:14Z</time>
      </trkpt>
      <trkpt lat="44.88182" lon="-0.56126">
        <ele>-0.8</ele>
        <time>2016-12-06T10:06:16Z</time>
      </trkpt>
      <trkpt lat="44.88178" lon="-0.56131">
        <ele>-0.4</ele>
        <time>2016-12-06T10:06:17Z</time>
      </trkpt>
      <trkpt lat="44.8817" lon="-0.5614">
        <ele>-0.2</ele>
        <time>2016-12-06T10:06:19Z</time>
      </trkpt>
      <trkpt lat="44.88166" lon="-0.56144">
        <ele>-0.2</ele>
        <time>2016-12-06T10:06:20Z</time>
      </trkpt>
      <trkpt lat="44.8816" lon="-0.56151">
        <ele>-0.3</ele>
        <time>2016-12-06T10:06:22Z</time>
      </trkpt>
      <trkpt lat="44.88153" lon="-0.56158">
        <ele>-0.5</ele>
        <time>2016-12-06T10:06:24Z</time>
      </trkpt>
      <trkpt lat="44.88145" lon="-0.56166">
        <ele>-0.8</ele>
        <time>2016-12-06T10:06:26Z</time>
      </trkpt>
      <trkpt lat="44.88136" lon="-0.56175">
        <ele>-1.7</ele>
        <time>2016-12-06T10:06:28Z</time>
      </trkpt>
      <trkpt lat="44.8813" lon="-0.56179">
        <ele>-1.7</ele>
        <time>2016-12-06T10:06:29Z</time>
      </trkpt>
      <trkpt lat="44.8812" lon="-0.56186">
        <ele>-1.9</ele>
        <time>2016-12-06T10:06:31Z</time>
      </trkpt>
      <trkpt lat="44.88109" lon="-0.56192">
        <ele>-2.1</ele>
        <time>2016-12-06T10:06:33Z</time>
      </trkpt>
      <trkpt lat="44.88104" lon="-0.56195">
        <ele>-2</ele>
        <time>2016-12-06T10:06:34Z</time>
      </trkpt>
      <trkpt lat="44.88099" lon="-0.56198">
        <ele>-2</ele>
        <time>2016-12-06T10:06:35Z</time>
      </trkpt>
      <trkpt lat="44.88089" lon="-0.56204">
        <ele>-2.1</ele>
        <time>2016-12-06T10:06:37Z</time>
      </trkpt>
      <trkpt lat="44.88078" lon="-0.5621">
        <ele>-2.1</ele>
        <time>2016-12-06T10:06:39Z</time>
      </trkpt>
      <trkpt lat="44.88073" lon="-0.56212">
        <ele>-2.1</ele>
        <time>2016-12-06T10:06:40Z</time>
      </trkpt>
      <trkpt lat="44.88068" lon="-0.56215">
        <ele>-2.2</ele>
        <time>2016-12-06T10:06:41Z</time>
      </trkpt>
      <trkpt lat="44.88057" lon="-0.5622">
        <ele>-2.2</ele>
        <time>2016-12-06T10:06:43Z</time>
      </trkpt>
      <trkpt lat="44.88046" lon="-0.56225">
        <ele>-2.1</ele>
        <time>2016-12-06T10:06:45Z</time>
      </trkpt>
      <trkpt lat="44.88036" lon="-0.56229">
        <ele>-2.2</ele>
        <time>2016-12-06T10:06:47Z</time>
      </trkpt>
      <trkpt lat="44.88027" lon="-0.56232">
        <ele>-2.2</ele>
        <time>2016-12-06T10:06:49Z</time>
      </trkpt>
      <trkpt lat="44.88022" lon="-0.56234">
        <ele>-2.3</ele>
        <time>2016-12-06T10:06:50Z</time>
      </trkpt>
      <trkpt lat="44.88011" lon="-0.56239">
        <ele>-2.3</ele>
        <time>2016-12-06T10:06:52Z</time>
      </trkpt>
      <trkpt lat="44.88" lon="-0.56244">
        <ele>-2.3</ele>
        <time>2016-12-06T10:06:54Z</time>
      </trkpt>
      <trkpt lat="44.87995" lon="-0.56246">
        <ele>-2.4</ele>
        <time>2016-12-06T10:06:55Z</time>
      </trkpt>
      <trkpt lat="44.87989" lon="-0.56249">
        <ele>-2.4</ele>
        <time>2016-12-06T10:06:56Z</time>
      </trkpt>
      <trkpt lat="44.87978" lon="-0.56253">
        <ele>-2.3</ele>
        <time>2016-12-06T10:06:58Z</time>
      </trkpt>
      <trkpt lat="44.87973" lon="-0.56255">
        <ele>-2.3</ele>
        <time>2016-12-06T10:06:59Z</time>
      </trkpt>
      <trkpt lat="44.87963" lon="-0.56257">
        <ele>-2</ele>
        <time>2016-12-06T10:07:01Z</time>
      </trkpt>
      <trkpt lat="44.87953" lon="-0.56258">
        <ele>-1.9</ele>
        <time>2016-12-06T10:07:03Z</time>
      </trkpt>
      <trkpt lat="44.87943" lon="-0.56255">
        <ele>-1.7</ele>
        <time>2016-12-06T10:07:05Z</time>
      </trkpt>
      <trkpt lat="44.87934" lon="-0.56252">
        <ele>-1.5</ele>
        <time>2016-12-06T10:07:07Z</time>
      </trkpt>
      <trkpt lat="44.87927" lon="-0.5625">
        <ele>-1.3</ele>
        <time>2016-12-06T10:07:09Z</time>
      </trkpt>
      <trkpt lat="44.87922" lon="-0.56253">
        <ele>-1</ele>
        <time>2016-12-06T10:07:11Z</time>
      </trkpt>
      <trkpt lat="44.87921" lon="-0.56259">
        <ele>-0.7</ele>
        <time>2016-12-06T10:07:23Z</time>
      </trkpt>
      <trkpt lat="44.87919" lon="-0.56266">
        <ele>-1.1</ele>
        <time>2016-12-06T10:07:25Z</time>
      </trkpt>
      <trkpt lat="44.87917" lon="-0.56273">
        <ele>-1</ele>
        <time>2016-12-06T10:07:27Z</time>
      </trkpt>
      <trkpt lat="44.87912" lon="-0.56279">
        <ele>-1</ele>
        <time>2016-12-06T10:07:29Z</time>
      </trkpt>
      <trkpt lat="44.87905" lon="-0.56284">
        <ele>-1.2</ele>
        <time>2016-12-06T10:07:31Z</time>
      </trkpt>
      <trkpt lat="44.87899" lon="-0.56288">
        <ele>-0.9</ele>
        <time>2016-12-06T10:07:33Z</time>
      </trkpt>
      <trkpt lat="44.87892" lon="-0.56291">
        <ele>-0.9</ele>
        <time>2016-12-06T10:07:35Z</time>
      </trkpt>
      <trkpt lat="44.87885" lon="-0.56294">
        <ele>-1.1</ele>
        <time>2016-12-06T10:07:37Z</time>
      </trkpt>
      <trkpt lat="44.87878" lon="-0.56297">
        <ele>-1.3</ele>
        <time>2016-12-06T10:07:39Z</time>
      </trkpt>
      <trkpt lat="44.87871" lon="-0.56299">
        <ele>-1.4</ele>
        <time>2016-12-06T10:07:41Z</time>
      </trkpt>
      <trkpt lat="44.87864" lon="-0.56302">
        <ele>-1.2</ele>
        <time>2016-12-06T10:07:43Z</time>
      </trkpt>
      <trkpt lat="44.87857" lon="-0.56305">
        <ele>-1.2</ele>
        <time>2016-12-06T10:07:45Z</time>
      </trkpt>
      <trkpt lat="44.87851" lon="-0.56308">
        <ele>-1</ele>
        <time>2016-12-06T10:07:47Z</time>
      </trkpt>
      <trkpt lat="44.87847" lon="-0.56309">
        <ele>-0.9</ele>
        <time>2016-12-06T10:07:49Z</time>
      </trkpt>
      <trkpt lat="44.87841" lon="-0.56303">
        <ele>-1.2</ele>
        <time>2016-12-06T10:08:10Z</time>
      </trkpt>
      <trkpt lat="44.87835" lon="-0.56296">
        <ele>-1.5</ele>
        <time>2016-12-06T10:08:12Z</time>
      </trkpt>
      <trkpt lat="44.87826" lon="-0.56294">
        <ele>-1.8</ele>
        <time>2016-12-06T10:08:14Z</time>
      </trkpt>
      <trkpt lat="44.87822" lon="-0.56296">
        <ele>-1.4</ele>
        <time>2016-12-06T10:08:15Z</time>
      </trkpt>
      <trkpt lat="44.87817" lon="-0.563">
        <ele>-1.4</ele>
        <time>2016-12-06T10:08:16Z</time>
      </trkpt>
      <trkpt lat="44.87808" lon="-0.56309">
        <ele>-1.4</ele>
        <time>2016-12-06T10:08:18Z</time>
      </trkpt>
      <trkpt lat="44.87804" lon="-0.56312">
        <ele>-1.9</ele>
        <time>2016-12-06T10:08:19Z</time>
      </trkpt>
      <trkpt lat="44.87795" lon="-0.56319">
        <ele>-1.7</ele>
        <time>2016-12-06T10:08:21Z</time>
      </trkpt>
      <trkpt lat="44.87785" lon="-0.56325">
        <ele>-1.5</ele>
        <time>2016-12-06T10:08:23Z</time>
      </trkpt>
      <trkpt lat="44.87774" lon="-0.56331">
        <ele>-1.6</ele>
        <time>2016-12-06T10:08:25Z</time>
      </trkpt>
      <trkpt lat="44.87765" lon="-0.56336">
        <ele>-1.3</ele>
        <time>2016-12-06T10:08:27Z</time>
      </trkpt>
      <trkpt lat="44.8776" lon="-0.56338">
        <ele>-1.3</ele>
        <time>2016-12-06T10:08:28Z</time>
      </trkpt>
      <trkpt lat="44.87756" lon="-0.5634">
        <ele>-1.1</ele>
        <time>2016-12-06T10:08:29Z</time>
      </trkpt>
      <trkpt lat="44.87747" lon="-0.56343">
        <ele>-0.9</ele>
        <time>2016-12-06T10:08:31Z</time>
      </trkpt>
      <trkpt lat="44.87738" lon="-0.56345">
        <ele>-1</ele>
        <time>2016-12-06T10:08:33Z</time>
      </trkpt>
      <trkpt lat="44.87728" lon="-0.56348">
        <ele>-1.6</ele>
        <time>2016-12-06T10:08:35Z</time>
      </trkpt>
      <trkpt lat="44.87724" lon="-0.56351">
        <ele>-1.7</ele>
        <time>2016-12-06T10:08:36Z</time>
      </trkpt>
      <trkpt lat="44.87714" lon="-0.56356">
        <ele>-1.5</ele>
        <time>2016-12-06T10:08:38Z</time>
      </trkpt>
      <trkpt lat="44.8771" lon="-0.56359">
        <ele>-1.3</ele>
        <time>2016-12-06T10:08:39Z</time>
      </trkpt>
      <trkpt lat="44.87701" lon="-0.56364">
        <ele>-1.4</ele>
        <time>2016-12-06T10:08:41Z</time>
      </trkpt>
      <trkpt lat="44.87692" lon="-0.56369">
        <ele>-1.4</ele>
        <time>2016-12-06T10:08:43Z</time>
      </trkpt>
      <trkpt lat="44.87682" lon="-0.56373">
        <ele>-1.2</ele>
        <time>2016-12-06T10:08:45Z</time>
      </trkpt>
      <trkpt lat="44.87673" lon="-0.56378">
        <ele>-0.9</ele>
        <time>2016-12-06T10:08:47Z</time>
      </trkpt>
      <trkpt lat="44.87668" lon="-0.5638">
        <ele>-1</ele>
        <time>2016-12-06T10:08:48Z</time>
      </trkpt>
      <trkpt lat="44.87658" lon="-0.56385">
        <ele>-0.7</ele>
        <time>2016-12-06T10:08:50Z</time>
      </trkpt>
      <trkpt lat="44.87648" lon="-0.5639">
        <ele>-0.8</ele>
        <time>2016-12-06T10:08:52Z</time>
      </trkpt>
      <trkpt lat="44.87636" lon="-0.56396">
        <ele>-0.9</ele>
        <time>2016-12-06T10:08:54Z</time>
      </trkpt>
      <trkpt lat="44.87631" lon="-0.56398">
        <ele>-0.9</ele>
        <time>2016-12-06T10:08:55Z</time>
      </trkpt>
      <trkpt lat="44.8762" lon="-0.56403">
        <ele>-1</ele>
        <time>2016-12-06T10:08:57Z</time>
      </trkpt>
      <trkpt lat="44.87608" lon="-0.56409">
        <ele>-1</ele>
        <time>2016-12-06T10:08:59Z</time>
      </trkpt>
      <trkpt lat="44.87596" lon="-0.56414">
        <ele>-1.3</ele>
        <time>2016-12-06T10:09:01Z</time>
      </trkpt>
      <trkpt lat="44.87584" lon="-0.5642">
        <ele>-1.1</ele>
        <time>2016-12-06T10:09:03Z</time>
      </trkpt>
      <trkpt lat="44.87578" lon="-0.56422">
        <ele>-1</ele>
        <time>2016-12-06T10:09:04Z</time>
      </trkpt>
      <trkpt lat="44.87572" lon="-0.56425">
        <ele>-0.9</ele>
        <time>2016-12-06T10:09:05Z</time>
      </trkpt>
      <trkpt lat="44.8756" lon="-0.5643">
        <ele>-0.7</ele>
        <time>2016-12-06T10:09:07Z</time>
      </trkpt>
      <trkpt lat="44.87548" lon="-0.56435">
        <ele>-0.4</ele>
        <time>2016-12-06T10:09:09Z</time>
      </trkpt>
      <trkpt lat="44.87536" lon="-0.56439">
        <ele>-0.4</ele>
        <time>2016-12-06T10:09:11Z</time>
      </trkpt>
      <trkpt lat="44.8753" lon="-0.56441">
        <ele>-0.4</ele>
        <time>2016-12-06T10:09:12Z</time>
      </trkpt>
      <trkpt lat="44.87525" lon="-0.56443">
        <ele>-0.4</ele>
        <time>2016-12-06T10:09:13Z</time>
      </trkpt>
      <trkpt lat="44.87514" lon="-0.56447">
        <ele>-0.4</ele>
        <time>2016-12-06T10:09:15Z</time>
      </trkpt>
      <trkpt lat="44.87508" lon="-0.56449">
        <ele>-0.4</ele>
        <time>2016-12-06T10:09:16Z</time>
      </trkpt>
      <trkpt lat="44.8749" lon="-0.56456">
        <ele>-0.4</ele>
        <time>2016-12-06T10:09:19Z</time>
      </trkpt>
      <trkpt lat="44.87478" lon="-0.56461">
        <ele>-0.4</ele>
        <time>2016-12-06T10:09:21Z</time>
      </trkpt>
      <trkpt lat="44.87467" lon="-0.56465">
        <ele>-0.1</ele>
        <time>2016-12-06T10:09:23Z</time>
      </trkpt>
      <trkpt lat="44.87456" lon="-0.56469">
        <ele>4.2</ele>
        <time>2016-12-06T10:09:25Z</time>
      </trkpt>
      <trkpt lat="44.87444" lon="-0.56474">
        <ele>-0.1</ele>
        <time>2016-12-06T10:09:27Z</time>
      </trkpt>
      <trkpt lat="44.87438" lon="-0.56476">
        <ele>-0.1</ele>
        <time>2016-12-06T10:09:28Z</time>
      </trkpt>
      <trkpt lat="44.87432" lon="-0.56478">
        <ele>-0.3</ele>
        <time>2016-12-06T10:09:29Z</time>
      </trkpt>
      <trkpt lat="44.87426" lon="-0.5648">
        <ele>-0.4</ele>
        <time>2016-12-06T10:09:30Z</time>
      </trkpt>
      <trkpt lat="44.87414" lon="-0.56485">
        <ele>-0.2</ele>
        <time>2016-12-06T10:09:32Z</time>
      </trkpt>
      <trkpt lat="44.87408" lon="-0.56488">
        <ele>-0.3</ele>
        <time>2016-12-06T10:09:33Z</time>
      </trkpt>
      <trkpt lat="44.87396" lon="-0.56492">
        <ele>-0.3</ele>
        <time>2016-12-06T10:09:35Z</time>
      </trkpt>
      <trkpt lat="44.87383" lon="-0.56495">
        <ele>-0.4</ele>
        <time>2016-12-06T10:09:37Z</time>
      </trkpt>
      <trkpt lat="44.87372" lon="-0.565">
        <ele>-0.5</ele>
        <time>2016-12-06T10:09:39Z</time>
      </trkpt>
      <trkpt lat="44.8736" lon="-0.56505">
        <ele>-0.4</ele>
        <time>2016-12-06T10:09:41Z</time>
      </trkpt>
      <trkpt lat="44.87354" lon="-0.56508">
        <ele>-0.5</ele>
        <time>2016-12-06T10:09:42Z</time>
      </trkpt>
      <trkpt lat="44.87349" lon="-0.5651">
        <ele>-0.4</ele>
        <time>2016-12-06T10:09:43Z</time>
      </trkpt>
      <trkpt lat="44.87337" lon="-0.56514">
        <ele>-0.1</ele>
        <time>2016-12-06T10:09:45Z</time>
      </trkpt>
      <trkpt lat="44.87325" lon="-0.56518">
        <ele>0.2</ele>
        <time>2016-12-06T10:09:47Z</time>
      </trkpt>
      <trkpt lat="44.8732" lon="-0.5652">
        <ele>0.3</ele>
        <time>2016-12-06T10:09:48Z</time>
      </trkpt>
      <trkpt lat="44.8731" lon="-0.56524">
        <ele>0.3</ele>
        <time>2016-12-06T10:09:50Z</time>
      </trkpt>
      <trkpt lat="44.87304" lon="-0.56526">
        <ele>0.2</ele>
        <time>2016-12-06T10:09:51Z</time>
      </trkpt>
      <trkpt lat="44.87294" lon="-0.5653">
        <ele>0.2</ele>
        <time>2016-12-06T10:09:53Z</time>
      </trkpt>
      <trkpt lat="44.87283" lon="-0.56535">
        <ele>0.3</ele>
        <time>2016-12-06T10:09:55Z</time>
      </trkpt>
      <trkpt lat="44.87273" lon="-0.56539">
        <ele>0.3</ele>
        <time>2016-12-06T10:09:57Z</time>
      </trkpt>
      <trkpt lat="44.87264" lon="-0.56542">
        <ele>0.1</ele>
        <time>2016-12-06T10:09:59Z</time>
      </trkpt>
      <trkpt lat="44.87254" lon="-0.56545">
        <ele>0.5</ele>
        <time>2016-12-06T10:10:01Z</time>
      </trkpt>
      <trkpt lat="44.87244" lon="-0.56548">
        <ele>0.3</ele>
        <time>2016-12-06T10:10:03Z</time>
      </trkpt>
      <trkpt lat="44.87233" lon="-0.56552">
        <ele>0.1</ele>
        <time>2016-12-06T10:10:05Z</time>
      </trkpt>
      <trkpt lat="44.87229" lon="-0.56553">
        <ele>0.1</ele>
        <time>2016-12-06T10:10:06Z</time>
      </trkpt>
      <trkpt lat="44.87219" lon="-0.56556">
        <ele>0.3</ele>
        <time>2016-12-06T10:10:08Z</time>
      </trkpt>
      <trkpt lat="44.8721" lon="-0.56559">
        <ele>0.3</ele>
        <time>2016-12-06T10:10:10Z</time>
      </trkpt>
      <trkpt lat="44.87205" lon="-0.56561">
        <ele>0.2</ele>
        <time>2016-12-06T10:10:11Z</time>
      </trkpt>
      <trkpt lat="44.87194" lon="-0.56565">
        <ele>0.1</ele>
        <time>2016-12-06T10:10:13Z</time>
      </trkpt>
      <trkpt lat="44.87189" lon="-0.56567">
        <ele>0.2</ele>
        <time>2016-12-06T10:10:14Z</time>
      </trkpt>
      <trkpt lat="44.87178" lon="-0.5657">
        <ele>4.3</ele>
        <time>2016-12-06T10:10:16Z</time>
      </trkpt>
      <trkpt lat="44.87173" lon="-0.56572">
        <ele>4.3</ele>
        <time>2016-12-06T10:10:17Z</time>
      </trkpt>
      <trkpt lat="44.87164" lon="-0.56575">
        <ele>-0.1</ele>
        <time>2016-12-06T10:10:19Z</time>
      </trkpt>
      <trkpt lat="44.87159" lon="-0.56577">
        <ele>-0.3</ele>
        <time>2016-12-06T10:10:20Z</time>
      </trkpt>
      <trkpt lat="44.87154" lon="-0.56579">
        <ele>-0.3</ele>
        <time>2016-12-06T10:10:21Z</time>
      </trkpt>
      <trkpt lat="44.87144" lon="-0.56582">
        <ele>0.2</ele>
        <time>2016-12-06T10:10:23Z</time>
      </trkpt>
      <trkpt lat="44.87139" lon="-0.56583">
        <ele>-0.1</ele>
        <time>2016-12-06T10:10:24Z</time>
      </trkpt>
      <trkpt lat="44.87129" lon="-0.56587">
        <ele>4</ele>
        <time>2016-12-06T10:10:26Z</time>
      </trkpt>
      <trkpt lat="44.87119" lon="-0.5659">
        <ele>0.2</ele>
        <time>2016-12-06T10:10:28Z</time>
      </trkpt>
      <trkpt lat="44.8711" lon="-0.56593">
        <ele>0.4</ele>
        <time>2016-12-06T10:10:30Z</time>
      </trkpt>
      <trkpt lat="44.87101" lon="-0.56596">
        <ele>0.4</ele>
        <time>2016-12-06T10:10:32Z</time>
      </trkpt>
      <trkpt lat="44.87092" lon="-0.566">
        <ele>0.6</ele>
        <time>2016-12-06T10:10:34Z</time>
      </trkpt>
      <trkpt lat="44.87084" lon="-0.56603">
        <ele>1</ele>
        <time>2016-12-06T10:10:36Z</time>
      </trkpt>
      <trkpt lat="44.87076" lon="-0.56606">
        <ele>1</ele>
        <time>2016-12-06T10:10:38Z</time>
      </trkpt>
      <trkpt lat="44.87068" lon="-0.56608">
        <ele>1</ele>
        <time>2016-12-06T10:10:40Z</time>
      </trkpt>
      <trkpt lat="44.8706" lon="-0.56608">
        <ele>1.1</ele>
        <time>2016-12-06T10:10:42Z</time>
      </trkpt>
      <trkpt lat="44.87053" lon="-0.56605">
        <ele>1.4</ele>
        <time>2016-12-06T10:10:44Z</time>
      </trkpt>
      <trkpt lat="44.87046" lon="-0.56601">
        <ele>1.6</ele>
        <time>2016-12-06T10:10:46Z</time>
      </trkpt>
      <trkpt lat="44.8704" lon="-0.56596">
        <ele>0.7</ele>
        <time>2016-12-06T10:10:48Z</time>
      </trkpt>
      <trkpt lat="44.87034" lon="-0.56593">
        <ele>0.7</ele>
        <time>2016-12-06T10:10:50Z</time>
      </trkpt>
      <trkpt lat="44.87028" lon="-0.56593">
        <ele>0.5</ele>
        <time>2016-12-06T10:10:52Z</time>
      </trkpt>
      <trkpt lat="44.87023" lon="-0.56592">
        <ele>0.2</ele>
        <time>2016-12-06T10:10:54Z</time>
      </trkpt>
      <trkpt lat="44.87018" lon="-0.5659">
        <ele>-0.4</ele>
        <time>2016-12-06T10:10:56Z</time>
      </trkpt>
      <trkpt lat="44.87013" lon="-0.56586">
        <ele>-0.6</ele>
        <time>2016-12-06T10:11:19Z</time>
      </trkpt>
      <trkpt lat="44.87014" lon="-0.56578">
        <ele>-0.5</ele>
        <time>2016-12-06T10:11:21Z</time>
      </trkpt>
      <trkpt lat="44.87019" lon="-0.56569">
        <ele>-0.5</ele>
        <time>2016-12-06T10:11:23Z</time>
      </trkpt>
      <trkpt lat="44.87022" lon="-0.56559">
        <ele>-0.3</ele>
        <time>2016-12-06T10:11:25Z</time>
      </trkpt>
      <trkpt lat="44.87027" lon="-0.56548">
        <ele>-0.3</ele>
        <time>2016-12-06T10:11:27Z</time>
      </trkpt>
      <trkpt lat="44.87032" lon="-0.56535">
        <ele>-0.4</ele>
        <time>2016-12-06T10:11:29Z</time>
      </trkpt>
      <trkpt lat="44.87034" lon="-0.56529">
        <ele>-0.3</ele>
        <time>2016-12-06T10:11:30Z</time>
      </trkpt>
      <trkpt lat="44.87037" lon="-0.56521">
        <ele>-0.2</ele>
        <time>2016-12-06T10:11:31Z</time>
      </trkpt>
      <trkpt lat="44.8704" lon="-0.56514">
        <ele>-0.5</ele>
        <time>2016-12-06T10:11:32Z</time>
      </trkpt>
      <trkpt lat="44.87046" lon="-0.56499">
        <ele>-1.1</ele>
        <time>2016-12-06T10:11:34Z</time>
      </trkpt>
      <trkpt lat="44.87052" lon="-0.56484">
        <ele>-1.4</ele>
        <time>2016-12-06T10:11:36Z</time>
      </trkpt>
      <trkpt lat="44.87058" lon="-0.5647">
        <ele>-1.5</ele>
        <time>2016-12-06T10:11:38Z</time>
      </trkpt>
      <trkpt lat="44.87061" lon="-0.56462">
        <ele>-1.9</ele>
        <time>2016-12-06T10:11:39Z</time>
      </trkpt>
      <trkpt lat="44.87065" lon="-0.56454">
        <ele>-2.3</ele>
        <time>2016-12-06T10:11:40Z</time>
      </trkpt>
      <trkpt lat="44.87068" lon="-0.56447">
        <ele>-2.5</ele>
        <time>2016-12-06T10:11:41Z</time>
      </trkpt>
      <trkpt lat="44.87074" lon="-0.56432">
        <ele>-2.5</ele>
        <time>2016-12-06T10:11:43Z</time>
      </trkpt>
      <trkpt lat="44.87081" lon="-0.56417">
        <ele>-2.6</ele>
        <time>2016-12-06T10:11:45Z</time>
      </trkpt>
      <trkpt lat="44.87087" lon="-0.56402">
        <ele>-2</ele>
        <time>2016-12-06T10:11:47Z</time>
      </trkpt>
      <trkpt lat="44.87093" lon="-0.56387">
        <ele>-1.6</ele>
        <time>2016-12-06T10:11:49Z</time>
      </trkpt>
      <trkpt lat="44.871" lon="-0.56372">
        <ele>-1.2</ele>
        <time>2016-12-06T10:11:51Z</time>
      </trkpt>
      <trkpt lat="44.87106" lon="-0.56357">
        <ele>-1</ele>
        <time>2016-12-06T10:11:53Z</time>
      </trkpt>
      <trkpt lat="44.87113" lon="-0.56342">
        <ele>-1.6</ele>
        <time>2016-12-06T10:11:55Z</time>
      </trkpt>
      <trkpt lat="44.87119" lon="-0.56327">
        <ele>-2.2</ele>
        <time>2016-12-06T10:11:57Z</time>
      </trkpt>
      <trkpt lat="44.87122" lon="-0.5632">
        <ele>-2.5</ele>
        <time>2016-12-06T10:11:58Z</time>
      </trkpt>
      <trkpt lat="44.87128" lon="-0.56306">
        <ele>-2.4</ele>
        <time>2016-12-06T10:12:00Z</time>
      </trkpt>
      <trkpt lat="44.87131" lon="-0.56298">
        <ele>-2.5</ele>
        <time>2016-12-06T10:12:01Z</time>
      </trkpt>
      <trkpt lat="44.87134" lon="-0.56291">
        <ele>-2.1</ele>
        <time>2016-12-06T10:12:02Z</time>
      </trkpt>
      <trkpt lat="44.8714" lon="-0.56277">
        <ele>-2.6</ele>
        <time>2016-12-06T10:12:04Z</time>
      </trkpt>
      <trkpt lat="44.87146" lon="-0.56261">
        <ele>-2.7</ele>
        <time>2016-12-06T10:12:06Z</time>
      </trkpt>
      <trkpt lat="44.87149" lon="-0.56254">
        <ele>-2.7</ele>
        <time>2016-12-06T10:12:07Z</time>
      </trkpt>
      <trkpt lat="44.87155" lon="-0.56239">
        <ele>-3</ele>
        <time>2016-12-06T10:12:09Z</time>
      </trkpt>
      <trkpt lat="44.87161" lon="-0.56225">
        <ele>-2.8</ele>
        <time>2016-12-06T10:12:11Z</time>
      </trkpt>
      <trkpt lat="44.87166" lon="-0.56212">
        <ele>-2.1</ele>
        <time>2016-12-06T10:12:13Z</time>
      </trkpt>
      <trkpt lat="44.87172" lon="-0.56198">
        <ele>-2.1</ele>
        <time>2016-12-06T10:12:15Z</time>
      </trkpt>
      <trkpt lat="44.87177" lon="-0.56185">
        <ele>-2.2</ele>
        <time>2016-12-06T10:12:17Z</time>
      </trkpt>
      <trkpt lat="44.87183" lon="-0.56171">
        <ele>-1.9</ele>
        <time>2016-12-06T10:12:19Z</time>
      </trkpt>
      <trkpt lat="44.87189" lon="-0.56158">
        <ele>-1.7</ele>
        <time>2016-12-06T10:12:21Z</time>
      </trkpt>
      <trkpt lat="44.87191" lon="-0.56151">
        <ele>-1.2</ele>
        <time>2016-12-06T10:12:22Z</time>
      </trkpt>
      <trkpt lat="44.87197" lon="-0.56137">
        <ele>-0.7</ele>
        <time>2016-12-06T10:12:24Z</time>
      </trkpt>
      <trkpt lat="44.87202" lon="-0.56124">
        <ele>-0.2</ele>
        <time>2016-12-06T10:12:26Z</time>
      </trkpt>
      <trkpt lat="44.87205" lon="-0.56118">
        <ele>-0.3</ele>
        <time>2016-12-06T10:12:27Z</time>
      </trkpt>
      <trkpt lat="44.8721" lon="-0.56105">
        <ele>-0.5</ele>
        <time>2016-12-06T10:12:29Z</time>
      </trkpt>
      <trkpt lat="44.87213" lon="-0.56098">
        <ele>-0.7</ele>
        <time>2016-12-06T10:12:30Z</time>
      </trkpt>
      <trkpt lat="44.87216" lon="-0.56091">
        <ele>-0.3</ele>
        <time>2016-12-06T10:12:31Z</time>
      </trkpt>
      <trkpt lat="44.87219" lon="-0.56085">
        <ele>-0.7</ele>
        <time>2016-12-06T10:12:32Z</time>
      </trkpt>
      <trkpt lat="44.87225" lon="-0.56071">
        <ele>-0.6</ele>
        <time>2016-12-06T10:12:34Z</time>
      </trkpt>
      <trkpt lat="44.87228" lon="-0.56064">
        <ele>-0.3</ele>
        <time>2016-12-06T10:12:35Z</time>
      </trkpt>
      <trkpt lat="44.87234" lon="-0.56049">
        <ele>0.4</ele>
        <time>2016-12-06T10:12:37Z</time>
      </trkpt>
      <trkpt lat="44.8724" lon="-0.56036">
        <ele>0.5</ele>
        <time>2016-12-06T10:12:39Z</time>
      </trkpt>
      <trkpt lat="44.87243" lon="-0.56029">
        <ele>0.6</ele>
        <time>2016-12-06T10:12:40Z</time>
      </trkpt>
      <trkpt lat="44.87248" lon="-0.56016">
        <ele>0.4</ele>
        <time>2016-12-06T10:12:42Z</time>
      </trkpt>
      <trkpt lat="44.87254" lon="-0.56002">
        <ele>0.1</ele>
        <time>2016-12-06T10:12:44Z</time>
      </trkpt>
      <trkpt lat="44.87257" lon="-0.55995">
        <ele>-0.2</ele>
        <time>2016-12-06T10:12:45Z</time>
      </trkpt>
      <trkpt lat="44.87264" lon="-0.5598">
        <ele>-0.1</ele>
        <time>2016-12-06T10:12:47Z</time>
      </trkpt>
      <trkpt lat="44.87269" lon="-0.55966">
        <ele>4</ele>
        <time>2016-12-06T10:12:49Z</time>
      </trkpt>
      <trkpt lat="44.87273" lon="-0.55959">
        <ele>0.1</ele>
        <time>2016-12-06T10:12:50Z</time>
      </trkpt>
      <trkpt lat="44.87275" lon="-0.55953">
        <ele>0.1</ele>
        <time>2016-12-06T10:12:51Z</time>
      </trkpt>
      <trkpt lat="44.87281" lon="-0.55941">
        <ele>4</ele>
        <time>2016-12-06T10:12:53Z</time>
      </trkpt>
      <trkpt lat="44.87287" lon="-0.55929">
        <ele>-0.2</ele>
        <time>2016-12-06T10:12:55Z</time>
      </trkpt>
      <trkpt lat="44.87292" lon="-0.55917">
        <ele>-0.2</ele>
        <time>2016-12-06T10:12:57Z</time>
      </trkpt>
      <trkpt lat="44.87295" lon="-0.5591">
        <ele>-0.6</ele>
        <time>2016-12-06T10:12:58Z</time>
      </trkpt>
      <trkpt lat="44.873" lon="-0.55899">
        <ele>-0.2</ele>
        <time>2016-12-06T10:13:00Z</time>
      </trkpt>
      <trkpt lat="44.87302" lon="-0.55889">
        <ele>-0.3</ele>
        <time>2016-12-06T10:13:02Z</time>
      </trkpt>
      <trkpt lat="44.87302" lon="-0.55877">
        <ele>-0.5</ele>
        <time>2016-12-06T10:13:04Z</time>
      </trkpt>
      <trkpt lat="44.87301" lon="-0.5587">
        <ele>-0.4</ele>
        <time>2016-12-06T10:13:05Z</time>
      </trkpt>
      <trkpt lat="44.87302" lon="-0.55855">
        <ele>-0.4</ele>
        <time>2016-12-06T10:13:07Z</time>
      </trkpt>
      <trkpt lat="44.87304" lon="-0.55849">
        <ele>-0.5</ele>
        <time>2016-12-06T10:13:08Z</time>
      </trkpt>
      <trkpt lat="44.87308" lon="-0.55843">
        <ele>-0.4</ele>
        <time>2016-12-06T10:13:09Z</time>
      </trkpt>
      <trkpt lat="44.87313" lon="-0.55839">
        <ele>-0.5</ele>
        <time>2016-12-06T10:13:10Z</time>
      </trkpt>
      <trkpt lat="44.87324" lon="-0.55838">
        <ele>-0.5</ele>
        <time>2016-12-06T10:13:12Z</time>
      </trkpt>
      <trkpt lat="44.87328" lon="-0.5584">
        <ele>-0.2</ele>
        <time>2016-12-06T10:13:13Z</time>
      </trkpt>
      <trkpt lat="44.87336" lon="-0.55845">
        <ele>-0.7</ele>
        <time>2016-12-06T10:13:15Z</time>
      </trkpt>
      <trkpt lat="44.87343" lon="-0.55849">
        <ele>-1.2</ele>
        <time>2016-12-06T10:13:17Z</time>
      </trkpt>
      <trkpt lat="44.87351" lon="-0.5585">
        <ele>-0.7</ele>
        <time>2016-12-06T10:13:19Z</time>
      </trkpt>
      <trkpt lat="44.8736" lon="-0.55847">
        <ele>-0.3</ele>
        <time>2016-12-06T10:13:21Z</time>
      </trkpt>
      <trkpt lat="44.87371" lon="-0.55842">
        <ele>-0.2</ele>
        <time>2016-12-06T10:13:23Z</time>
      </trkpt>
      <trkpt lat="44.87382" lon="-0.55836">
        <ele>-0.5</ele>
        <time>2016-12-06T10:13:25Z</time>
      </trkpt>
      <trkpt lat="44.87387" lon="-0.55834">
        <ele>-0.7</ele>
        <time>2016-12-06T10:13:26Z</time>
      </trkpt>
      <trkpt lat="44.87399" lon="-0.55829">
        <ele>-1.5</ele>
        <time>2016-12-06T10:13:28Z</time>
      </trkpt>
      <trkpt lat="44.87411" lon="-0.55824">
        <ele>-1.3</ele>
        <time>2016-12-06T10:13:30Z</time>
      </trkpt>
      <trkpt lat="44.87418" lon="-0.55822">
        <ele>-1.1</ele>
        <time>2016-12-06T10:13:31Z</time>
      </trkpt>
      <trkpt lat="44.87431" lon="-0.55817">
        <ele>-0.5</ele>
        <time>2016-12-06T10:13:33Z</time>
      </trkpt>
      <trkpt lat="44.87443" lon="-0.55813">
        <ele>-0.9</ele>
        <time>2016-12-06T10:13:35Z</time>
      </trkpt>
      <trkpt lat="44.87456" lon="-0.55809">
        <ele>-0.7</ele>
        <time>2016-12-06T10:13:37Z</time>
      </trkpt>
      <trkpt lat="44.87469" lon="-0.55803">
        <ele>4</ele>
        <time>2016-12-06T10:13:39Z</time>
      </trkpt>
      <trkpt lat="44.87482" lon="-0.55798">
        <ele>-0.2</ele>
        <time>2016-12-06T10:13:41Z</time>
      </trkpt>
      <trkpt lat="44.87494" lon="-0.55793">
        <ele>-0.5</ele>
        <time>2016-12-06T10:13:43Z</time>
      </trkpt>
      <trkpt lat="44.87506" lon="-0.55789">
        <ele>-0.4</ele>
        <time>2016-12-06T10:13:45Z</time>
      </trkpt>
      <trkpt lat="44.87517" lon="-0.55785">
        <ele>-0.5</ele>
        <time>2016-12-06T10:13:47Z</time>
      </trkpt>
      <trkpt lat="44.87528" lon="-0.5578">
        <ele>-0.5</ele>
        <time>2016-12-06T10:13:49Z</time>
      </trkpt>
      <trkpt lat="44.87535" lon="-0.55774">
        <ele>-0.2</ele>
        <time>2016-12-06T10:13:51Z</time>
      </trkpt>
      <trkpt lat="44.8754" lon="-0.55767">
        <ele>-1.1</ele>
        <time>2016-12-06T10:13:53Z</time>
      </trkpt>
      <trkpt lat="44.87543" lon="-0.55764">
        <ele>-1.3</ele>
        <time>2016-12-06T10:13:54Z</time>
      </trkpt>
      <trkpt lat="44.87548" lon="-0.55761">
        <ele>-1.1</ele>
        <time>2016-12-06T10:13:55Z</time>
      </trkpt>
      <trkpt lat="44.87559" lon="-0.5576">
        <ele>-0.8</ele>
        <time>2016-12-06T10:13:57Z</time>
      </trkpt>
      <trkpt lat="44.87572" lon="-0.55762">
        <ele>-0.8</ele>
        <time>2016-12-06T10:13:59Z</time>
      </trkpt>
      <trkpt lat="44.87579" lon="-0.55761">
        <ele>-0.9</ele>
        <time>2016-12-06T10:14:00Z</time>
      </trkpt>
      <trkpt lat="44.87585" lon="-0.55759">
        <ele>-1.1</ele>
        <time>2016-12-06T10:14:01Z</time>
      </trkpt>
      <trkpt lat="44.87598" lon="-0.55754">
        <ele>-1.1</ele>
        <time>2016-12-06T10:14:03Z</time>
      </trkpt>
      <trkpt lat="44.87611" lon="-0.55749">
        <ele>-1.2</ele>
        <time>2016-12-06T10:14:05Z</time>
      </trkpt>
      <trkpt lat="44.87623" lon="-0.55745">
        <ele>-1.3</ele>
        <time>2016-12-06T10:14:07Z</time>
      </trkpt>
      <trkpt lat="44.87636" lon="-0.5574">
        <ele>-1.4</ele>
        <time>2016-12-06T10:14:09Z</time>
      </trkpt>
      <trkpt lat="44.87649" lon="-0.55735">
        <ele>-1.6</ele>
        <time>2016-12-06T10:14:11Z</time>
      </trkpt>
      <trkpt lat="44.87662" lon="-0.5573">
        <ele>-1.5</ele>
        <time>2016-12-06T10:14:13Z</time>
      </trkpt>
      <trkpt lat="44.87676" lon="-0.55725">
        <ele>-1.5</ele>
        <time>2016-12-06T10:14:15Z</time>
      </trkpt>
      <trkpt lat="44.87689" lon="-0.5572">
        <ele>-0.9</ele>
        <time>2016-12-06T10:14:17Z</time>
      </trkpt>
      <trkpt lat="44.87702" lon="-0.55715">
        <ele>-1.1</ele>
        <time>2016-12-06T10:14:19Z</time>
      </trkpt>
      <trkpt lat="44.87714" lon="-0.5571">
        <ele>-0.6</ele>
        <time>2016-12-06T10:14:21Z</time>
      </trkpt>
      <trkpt lat="44.87726" lon="-0.55706">
        <ele>-0.5</ele>
        <time>2016-12-06T10:14:23Z</time>
      </trkpt>
      <trkpt lat="44.87737" lon="-0.55701">
        <ele>-0.7</ele>
        <time>2016-12-06T10:14:25Z</time>
      </trkpt>
      <trkpt lat="44.87747" lon="-0.55696">
        <ele>-0.6</ele>
        <time>2016-12-06T10:14:27Z</time>
      </trkpt>
      <trkpt lat="44.87752" lon="-0.55694">
        <ele>-0.4</ele>
        <time>2016-12-06T10:14:28Z</time>
      </trkpt>
      <trkpt lat="44.87762" lon="-0.55691">
        <ele>-0.1</ele>
        <time>2016-12-06T10:14:30Z</time>
      </trkpt>
      <trkpt lat="44.8777" lon="-0.55689">
        <ele>0.2</ele>
        <time>2016-12-06T10:14:32Z</time>
      </trkpt>
      <trkpt lat="44.87779" lon="-0.55686">
        <ele>0.4</ele>
        <time>2016-12-06T10:14:34Z</time>
      </trkpt>
      <trkpt lat="44.87787" lon="-0.55683">
        <ele>0.6</ele>
        <time>2016-12-06T10:14:36Z</time>
      </trkpt>
      <trkpt lat="44.87795" lon="-0.55681">
        <ele>0.6</ele>
        <time>2016-12-06T10:14:38Z</time>
      </trkpt>
      <trkpt lat="44.87804" lon="-0.5568">
        <ele>0.2</ele>
        <time>2016-12-06T10:14:40Z</time>
      </trkpt>
      <trkpt lat="44.87809" lon="-0.55681">
        <ele>4</ele>
        <time>2016-12-06T10:14:41Z</time>
      </trkpt>
      <trkpt lat="44.87815" lon="-0.55688">
        <ele>4</ele>
        <time>2016-12-06T10:14:43Z</time>
      </trkpt>
      <trkpt lat="44.87811" lon="-0.55695">
        <ele>-0.4</ele>
        <time>2016-12-06T10:14:45Z</time>
      </trkpt>
      <trkpt lat="44.87804" lon="-0.55695">
        <ele>-0.8</ele>
        <time>2016-12-06T10:14:47Z</time>
      </trkpt>
      <trkpt lat="44.87795" lon="-0.55697">
        <ele>-1</ele>
        <time>2016-12-06T10:14:49Z</time>
      </trkpt>
      <trkpt lat="44.87791" lon="-0.55699">
        <ele>-0.7</ele>
        <time>2016-12-06T10:14:50Z</time>
      </trkpt>
      <trkpt lat="44.87781" lon="-0.55704">
        <ele>-1.3</ele>
        <time>2016-12-06T10:14:52Z</time>
      </trkpt>
      <trkpt lat="44.87776" lon="-0.55706">
        <ele>-1.1</ele>
        <time>2016-12-06T10:14:53Z</time>
      </trkpt>
      <trkpt lat="44.87766" lon="-0.5571">
        <ele>-0.5</ele>
        <time>2016-12-06T10:14:55Z</time>
      </trkpt>
      <trkpt lat="44.87755" lon="-0.55714">
        <ele>-0.3</ele>
        <time>2016-12-06T10:14:57Z</time>
      </trkpt>
      <trkpt lat="44.87744" lon="-0.55719">
        <ele>4</ele>
        <time>2016-12-06T10:14:59Z</time>
      </trkpt>
      <trkpt lat="44.87734" lon="-0.55723">
        <ele>0.3</ele>
        <time>2016-12-06T10:15:01Z</time>
      </trkpt>
      <trkpt lat="44.87723" lon="-0.55727">
        <ele>0.2</ele>
        <time>2016-12-06T10:15:03Z</time>
      </trkpt>
      <trkpt lat="44.87718" lon="-0.55729">
        <ele>0.2</ele>
        <time>2016-12-06T10:15:04Z</time>
      </trkpt>
      <trkpt lat="44.87713" lon="-0.55731">
        <ele>0.2</ele>
        <time>2016-12-06T10:15:05Z</time>
      </trkpt>
      <trkpt lat="44.87702" lon="-0.55735">
        <ele>0.3</ele>
        <time>2016-12-06T10:15:07Z</time>
      </trkpt>
      <trkpt lat="44.87691" lon="-0.55739">
        <ele>0.3</ele>
        <time>2016-12-06T10:15:09Z</time>
      </trkpt>
      <trkpt lat="44.87686" lon="-0.55741">
        <ele>0.2</ele>
        <time>2016-12-06T10:15:10Z</time>
      </trkpt>
      <trkpt lat="44.8768" lon="-0.55743">
        <ele>0.3</ele>
        <time>2016-12-06T10:15:11Z</time>
      </trkpt>
      <trkpt lat="44.8767" lon="-0.55747">
        <ele>0.4</ele>
        <time>2016-12-06T10:15:13Z</time>
      </trkpt>
      <trkpt lat="44.87659" lon="-0.55751">
        <ele>0.5</ele>
        <time>2016-12-06T10:15:15Z</time>
      </trkpt>
      <trkpt lat="44.87648" lon="-0.55755">
        <ele>0.6</ele>
        <time>2016-12-06T10:15:17Z</time>
      </trkpt>
      <trkpt lat="44.87637" lon="-0.55759">
        <ele>0.6</ele>
        <time>2016-12-06T10:15:19Z</time>
      </trkpt>
      <trkpt lat="44.87625" lon="-0.55763">
        <ele>0.9</ele>
        <time>2016-12-06T10:15:21Z</time>
      </trkpt>
      <trkpt lat="44.87614" lon="-0.55767">
        <ele>1</ele>
        <time>2016-12-06T10:15:23Z</time>
      </trkpt>
      <trkpt lat="44.87604" lon="-0.55771">
        <ele>0.8</ele>
        <time>2016-12-06T10:15:25Z</time>
      </trkpt>
      <trkpt lat="44.87598" lon="-0.55773">
        <ele>0.9</ele>
        <time>2016-12-06T10:15:26Z</time>
      </trkpt>
      <trkpt lat="44.87589" lon="-0.55777">
        <ele>0.9</ele>
        <time>2016-12-06T10:15:28Z</time>
      </trkpt>
      <trkpt lat="44.8758" lon="-0.5578">
        <ele>0.9</ele>
        <time>2016-12-06T10:15:30Z</time>
      </trkpt>
      <trkpt lat="44.87575" lon="-0.55783">
        <ele>1.3</ele>
        <time>2016-12-06T10:15:32Z</time>
      </trkpt>
      <trkpt lat="44.8757" lon="-0.55788">
        <ele>1.3</ele>
        <time>2016-12-06T10:15:37Z</time>
      </trkpt>
      <trkpt lat="44.87565" lon="-0.55795">
        <ele>1.4</ele>
        <time>2016-12-06T10:15:39Z</time>
      </trkpt>
      <trkpt lat="44.87556" lon="-0.55802">
        <ele>1.5</ele>
        <time>2016-12-06T10:15:41Z</time>
      </trkpt>
      <trkpt lat="44.8755" lon="-0.55802">
        <ele>0.8</ele>
        <time>2016-12-06T10:15:42Z</time>
      </trkpt>
      <trkpt lat="44.87538" lon="-0.558">
        <ele>0.8</ele>
        <time>2016-12-06T10:15:44Z</time>
      </trkpt>
      <trkpt lat="44.87526" lon="-0.55802">
        <ele>0.5</ele>
        <time>2016-12-06T10:15:46Z</time>
      </trkpt>
      <trkpt lat="44.87513" lon="-0.55806">
        <ele>0.2</ele>
        <time>2016-12-06T10:15:48Z</time>
      </trkpt>
      <trkpt lat="44.87501" lon="-0.55811">
        <ele>0.2</ele>
        <time>2016-12-06T10:15:50Z</time>
      </trkpt>
      <trkpt lat="44.87488" lon="-0.55816">
        <ele>0.2</ele>
        <time>2016-12-06T10:15:52Z</time>
      </trkpt>
      <trkpt lat="44.87482" lon="-0.55818">
        <ele>0.2</ele>
        <time>2016-12-06T10:15:53Z</time>
      </trkpt>
      <trkpt lat="44.87476" lon="-0.5582">
        <ele>0.2</ele>
        <time>2016-12-06T10:15:54Z</time>
      </trkpt>
      <trkpt lat="44.87464" lon="-0.55825">
        <ele>0.3</ele>
        <time>2016-12-06T10:15:56Z</time>
      </trkpt>
      <trkpt lat="44.87458" lon="-0.55827">
        <ele>0.2</ele>
        <time>2016-12-06T10:15:57Z</time>
      </trkpt>
      <trkpt lat="44.87445" lon="-0.55832">
        <ele>0.3</ele>
        <time>2016-12-06T10:15:59Z</time>
      </trkpt>
      <trkpt lat="44.87439" lon="-0.55835">
        <ele>0.3</ele>
        <time>2016-12-06T10:16:00Z</time>
      </trkpt>
      <trkpt lat="44.87433" lon="-0.55837">
        <ele>0.4</ele>
        <time>2016-12-06T10:16:01Z</time>
      </trkpt>
      <trkpt lat="44.8742" lon="-0.55841">
        <ele>0.4</ele>
        <time>2016-12-06T10:16:03Z</time>
      </trkpt>
      <trkpt lat="44.87409" lon="-0.55845">
        <ele>0.3</ele>
        <time>2016-12-06T10:16:05Z</time>
      </trkpt>
      <trkpt lat="44.87403" lon="-0.55847">
        <ele>0.2</ele>
        <time>2016-12-06T10:16:06Z</time>
      </trkpt>
      <trkpt lat="44.87391" lon="-0.55852">
        <ele>0.2</ele>
        <time>2016-12-06T10:16:08Z</time>
      </trkpt>
      <trkpt lat="44.87378" lon="-0.55856">
        <ele>0.1</ele>
        <time>2016-12-06T10:16:10Z</time>
      </trkpt>
      <trkpt lat="44.87372" lon="-0.55858">
        <ele>0.3</ele>
        <time>2016-12-06T10:16:11Z</time>
      </trkpt>
      <trkpt lat="44.87359" lon="-0.55863">
        <ele>0.2</ele>
        <time>2016-12-06T10:16:13Z</time>
      </trkpt>
      <trkpt lat="44.87347" lon="-0.55869">
        <ele>0.2</ele>
        <time>2016-12-06T10:16:15Z</time>
      </trkpt>
      <trkpt lat="44.87341" lon="-0.55874">
        <ele>0.2</ele>
        <time>2016-12-06T10:16:16Z</time>
      </trkpt>
      <trkpt lat="44.87337" lon="-0.5588">
        <ele>0.2</ele>
        <time>2016-12-06T10:16:17Z</time>
      </trkpt>
      <trkpt lat="44.87327" lon="-0.55892">
        <ele>0.3</ele>
        <time>2016-12-06T10:16:19Z</time>
      </trkpt>
      <trkpt lat="44.87313" lon="-0.55895">
        <ele>0.6</ele>
        <time>2016-12-06T10:16:21Z</time>
      </trkpt>
      <trkpt lat="44.87307" lon="-0.55892">
        <ele>1.5</ele>
        <time>2016-12-06T10:16:22Z</time>
      </trkpt>
      <trkpt lat="44.87299" lon="-0.55878">
        <ele>2.1</ele>
        <time>2016-12-06T10:16:24Z</time>
      </trkpt>
      <trkpt lat="44.87302" lon="-0.5586">
        <ele>2.2</ele>
        <time>2016-12-06T10:16:26Z</time>
      </trkpt>
      <trkpt lat="44.87306" lon="-0.55852">
        <ele>2.2</ele>
        <time>2016-12-06T10:16:27Z</time>
      </trkpt>
      <trkpt lat="44.87318" lon="-0.5584">
        <ele>2</ele>
        <time>2016-12-06T10:16:29Z</time>
      </trkpt>
      <trkpt lat="44.8733" lon="-0.55827">
        <ele>2</ele>
        <time>2016-12-06T10:16:31Z</time>
      </trkpt>
      <trkpt lat="44.87338" lon="-0.55809">
        <ele>2.2</ele>
        <time>2016-12-06T10:16:33Z</time>
      </trkpt>
      <trkpt lat="44.87346" lon="-0.5579">
        <ele>2.1</ele>
        <time>2016-12-06T10:16:35Z</time>
      </trkpt>
      <trkpt lat="44.87354" lon="-0.55772">
        <ele>2</ele>
        <time>2016-12-06T10:16:37Z</time>
      </trkpt>
      <trkpt lat="44.87361" lon="-0.55755">
        <ele>1</ele>
        <time>2016-12-06T10:16:39Z</time>
      </trkpt>
      <trkpt lat="44.87368" lon="-0.55739">
        <ele>0.7</ele>
        <time>2016-12-06T10:16:41Z</time>
      </trkpt>
      <trkpt lat="44.87372" lon="-0.5573">
        <ele>0.9</ele>
        <time>2016-12-06T10:16:42Z</time>
      </trkpt>
      <trkpt lat="44.87375" lon="-0.55722">
        <ele>0.7</ele>
        <time>2016-12-06T10:16:43Z</time>
      </trkpt>
      <trkpt lat="44.87378" lon="-0.55714">
        <ele>0.3</ele>
        <time>2016-12-06T10:16:44Z</time>
      </trkpt>
      <trkpt lat="44.87385" lon="-0.55697">
        <ele>-0.2</ele>
        <time>2016-12-06T10:16:46Z</time>
      </trkpt>
      <trkpt lat="44.87392" lon="-0.55681">
        <ele>-0.7</ele>
        <time>2016-12-06T10:16:48Z</time>
      </trkpt>
      <trkpt lat="44.87398" lon="-0.55666">
        <ele>-1.2</ele>
        <time>2016-12-06T10:16:50Z</time>
      </trkpt>
      <trkpt lat="44.87404" lon="-0.55651">
        <ele>-1.5</ele>
        <time>2016-12-06T10:16:52Z</time>
      </trkpt>
      <trkpt lat="44.8741" lon="-0.55636">
        <ele>-1.6</ele>
        <time>2016-12-06T10:16:54Z</time>
      </trkpt>
      <trkpt lat="44.87416" lon="-0.55621">
        <ele>-1.4</ele>
        <time>2016-12-06T10:16:56Z</time>
      </trkpt>
      <trkpt lat="44.87419" lon="-0.55614">
        <ele>-1.7</ele>
        <time>2016-12-06T10:16:57Z</time>
      </trkpt>
      <trkpt lat="44.87425" lon="-0.55599">
        <ele>-1.7</ele>
        <time>2016-12-06T10:16:59Z</time>
      </trkpt>
      <trkpt lat="44.87428" lon="-0.55591">
        <ele>-1.5</ele>
        <time>2016-12-06T10:17:00Z</time>
      </trkpt>
      <trkpt lat="44.87434" lon="-0.55577">
        <ele>-2.3</ele>
        <time>2016-12-06T10:17:02Z</time>
      </trkpt>
      <trkpt lat="44.8744" lon="-0.55564">
        <ele>-2.5</ele>
        <time>2016-12-06T10:17:04Z</time>
      </trkpt>
      <trkpt lat="44.87445" lon="-0.5555">
        <ele>-2.6</ele>
        <time>2016-12-06T10:17:06Z</time>
      </trkpt>
      <trkpt lat="44.87448" lon="-0.55544">
        <ele>-2.3</ele>
        <time>2016-12-06T10:17:07Z</time>
      </trkpt>
      <trkpt lat="44.87451" lon="-0.55536">
        <ele>-1.4</ele>
        <time>2016-12-06T10:17:08Z</time>
      </trkpt>
      <trkpt lat="44.87453" lon="-0.55529">
        <ele>-1.5</ele>
        <time>2016-12-06T10:17:09Z</time>
      </trkpt>
      <trkpt lat="44.87456" lon="-0.55523">
        <ele>-1.8</ele>
        <time>2016-12-06T10:17:10Z</time>
      </trkpt>
      <trkpt lat="44.8746" lon="-0.55516">
        <ele>-1.6</ele>
        <time>2016-12-06T10:17:11Z</time>
      </trkpt>
      <trkpt lat="44.87463" lon="-0.55509">
        <ele>-1.5</ele>
        <time>2016-12-06T10:17:12Z</time>
      </trkpt>
      <trkpt lat="44.87469" lon="-0.55496">
        <ele>-1</ele>
        <time>2016-12-06T10:17:14Z</time>
      </trkpt>
      <trkpt lat="44.87472" lon="-0.55491">
        <ele>-1.1</ele>
        <time>2016-12-06T10:17:15Z</time>
      </trkpt>
      <trkpt lat="44.87478" lon="-0.55477">
        <ele>-1.3</ele>
        <time>2016-12-06T10:17:17Z</time>
      </trkpt>
      <trkpt lat="44.87481" lon="-0.5547">
        <ele>-1.4</ele>
        <time>2016-12-06T10:17:18Z</time>
      </trkpt>
      <trkpt lat="44.87487" lon="-0.55456">
        <ele>-1.5</ele>
        <time>2016-12-06T10:17:20Z</time>
      </trkpt>
      <trkpt lat="44.87493" lon="-0.55441">
        <ele>-1.9</ele>
        <time>2016-12-06T10:17:22Z</time>
      </trkpt>
      <trkpt lat="44.87499" lon="-0.55427">
        <ele>-2</ele>
        <time>2016-12-06T10:17:24Z</time>
      </trkpt>
      <trkpt lat="44.87505" lon="-0.55413">
        <ele>-2.1</ele>
        <time>2016-12-06T10:17:26Z</time>
      </trkpt>
      <trkpt lat="44.87508" lon="-0.55406">
        <ele>-2.2</ele>
        <time>2016-12-06T10:17:27Z</time>
      </trkpt>
      <trkpt lat="44.87514" lon="-0.55393">
        <ele>-1.8</ele>
        <time>2016-12-06T10:17:29Z</time>
      </trkpt>
      <trkpt lat="44.87516" lon="-0.55388">
        <ele>-1.8</ele>
        <time>2016-12-06T10:17:30Z</time>
      </trkpt>
      <trkpt lat="44.87519" lon="-0.55382">
        <ele>-2</ele>
        <time>2016-12-06T10:17:31Z</time>
      </trkpt>
      <trkpt lat="44.87524" lon="-0.5537">
        <ele>-2.2</ele>
        <time>2016-12-06T10:17:33Z</time>
      </trkpt>
      <trkpt lat="44.87528" lon="-0.5536">
        <ele>-2.5</ele>
        <time>2016-12-06T10:17:35Z</time>
      </trkpt>
      <trkpt lat="44.8753" lon="-0.55348">
        <ele>-3</ele>
        <time>2016-12-06T10:17:37Z</time>
      </trkpt>
      <trkpt lat="44.87528" lon="-0.55335">
        <ele>-3.6</ele>
        <time>2016-12-06T10:17:39Z</time>
      </trkpt>
      <trkpt lat="44.87527" lon="-0.55328">
        <ele>-3.7</ele>
        <time>2016-12-06T10:17:40Z</time>
      </trkpt>
      <trkpt lat="44.87531" lon="-0.55314">
        <ele>-4.1</ele>
        <time>2016-12-06T10:17:42Z</time>
      </trkpt>
      <trkpt lat="44.87539" lon="-0.55305">
        <ele>-4.1</ele>
        <time>2016-12-06T10:17:44Z</time>
      </trkpt>
      <trkpt lat="44.8755" lon="-0.553">
        <ele>-4.3</ele>
        <time>2016-12-06T10:17:46Z</time>
      </trkpt>
      <trkpt lat="44.87559" lon="-0.55292">
        <ele>-3.7</ele>
        <time>2016-12-06T10:17:48Z</time>
      </trkpt>
      <trkpt lat="44.87564" lon="-0.55279">
        <ele>-3.3</ele>
        <time>2016-12-06T10:17:50Z</time>
      </trkpt>
      <trkpt lat="44.87567" lon="-0.55272">
        <ele>-3.1</ele>
        <time>2016-12-06T10:17:51Z</time>
      </trkpt>
      <trkpt lat="44.87573" lon="-0.55258">
        <ele>-3.2</ele>
        <time>2016-12-06T10:17:53Z</time>
      </trkpt>
      <trkpt lat="44.87576" lon="-0.55251">
        <ele>-2.9</ele>
        <time>2016-12-06T10:17:54Z</time>
      </trkpt>
      <trkpt lat="44.87578" lon="-0.55243">
        <ele>-2.7</ele>
        <time>2016-12-06T10:17:55Z</time>
      </trkpt>
      <trkpt lat="44.87584" lon="-0.5523">
        <ele>-3</ele>
        <time>2016-12-06T10:17:57Z</time>
      </trkpt>
      <trkpt lat="44.87588" lon="-0.55218">
        <ele>-3.8</ele>
        <time>2016-12-06T10:17:59Z</time>
      </trkpt>
      <trkpt lat="44.87591" lon="-0.55212">
        <ele>-3.9</ele>
        <time>2016-12-06T10:18:00Z</time>
      </trkpt>
      <trkpt lat="44.87596" lon="-0.55199">
        <ele>-4.1</ele>
        <time>2016-12-06T10:18:02Z</time>
      </trkpt>
      <trkpt lat="44.87598" lon="-0.55193">
        <ele>-4.2</ele>
        <time>2016-12-06T10:18:03Z</time>
      </trkpt>
      <trkpt lat="44.87604" lon="-0.5518">
        <ele>-4.4</ele>
        <time>2016-12-06T10:18:05Z</time>
      </trkpt>
      <trkpt lat="44.87609" lon="-0.55168">
        <ele>-4.8</ele>
        <time>2016-12-06T10:18:07Z</time>
      </trkpt>
      <trkpt lat="44.87614" lon="-0.55157">
        <ele>-5</ele>
        <time>2016-12-06T10:18:09Z</time>
      </trkpt>
      <trkpt lat="44.87619" lon="-0.55145">
        <ele>-5.7</ele>
        <time>2016-12-06T10:18:11Z</time>
      </trkpt>
      <trkpt lat="44.87621" lon="-0.55139">
        <ele>-5.8</ele>
        <time>2016-12-06T10:18:12Z</time>
      </trkpt>
      <trkpt lat="44.87623" lon="-0.55132">
        <ele>-5.9</ele>
        <time>2016-12-06T10:18:13Z</time>
      </trkpt>
      <trkpt lat="44.87626" lon="-0.55118">
        <ele>-6.1</ele>
        <time>2016-12-06T10:18:15Z</time>
      </trkpt>
      <trkpt lat="44.87628" lon="-0.55103">
        <ele>-6.2</ele>
        <time>2016-12-06T10:18:17Z</time>
      </trkpt>
      <trkpt lat="44.87628" lon="-0.55088">
        <ele>-6.8</ele>
        <time>2016-12-06T10:18:19Z</time>
      </trkpt>
      <trkpt lat="44.87627" lon="-0.55074">
        <ele>-6.7</ele>
        <time>2016-12-06T10:18:21Z</time>
      </trkpt>
      <trkpt lat="44.87625" lon="-0.5506">
        <ele>-6.9</ele>
        <time>2016-12-06T10:18:23Z</time>
      </trkpt>
      <trkpt lat="44.87623" lon="-0.55046">
        <ele>-7.1</ele>
        <time>2016-12-06T10:18:25Z</time>
      </trkpt>
      <trkpt lat="44.87622" lon="-0.55038">
        <ele>-7</ele>
        <time>2016-12-06T10:18:26Z</time>
      </trkpt>
      <trkpt lat="44.8762" lon="-0.55023">
        <ele>-5.9</ele>
        <time>2016-12-06T10:18:28Z</time>
      </trkpt>
      <trkpt lat="44.87618" lon="-0.55007">
        <ele>-5.2</ele>
        <time>2016-12-06T10:18:30Z</time>
      </trkpt>
      <trkpt lat="44.87615" lon="-0.54991">
        <ele>-5.3</ele>
        <time>2016-12-06T10:18:32Z</time>
      </trkpt>
      <trkpt lat="44.87613" lon="-0.54976">
        <ele>-4.8</ele>
        <time>2016-12-06T10:18:34Z</time>
      </trkpt>
      <trkpt lat="44.8761" lon="-0.54962">
        <ele>-4.8</ele>
        <time>2016-12-06T10:18:36Z</time>
      </trkpt>
      <trkpt lat="44.87609" lon="-0.54955">
        <ele>-4.2</ele>
        <time>2016-12-06T10:18:37Z</time>
      </trkpt>
      <trkpt lat="44.87608" lon="-0.54948">
        <ele>-3.9</ele>
        <time>2016-12-06T10:18:38Z</time>
      </trkpt>
      <trkpt lat="44.87606" lon="-0.54941">
        <ele>-3.7</ele>
        <time>2016-12-06T10:18:39Z</time>
      </trkpt>
      <trkpt lat="44.87604" lon="-0.54927">
        <ele>-3.5</ele>
        <time>2016-12-06T10:18:41Z</time>
      </trkpt>
      <trkpt lat="44.87601" lon="-0.54914">
        <ele>-2.7</ele>
        <time>2016-12-06T10:18:43Z</time>
      </trkpt>
      <trkpt lat="44.876" lon="-0.54908">
        <ele>-2.6</ele>
        <time>2016-12-06T10:18:44Z</time>
      </trkpt>
      <trkpt lat="44.87597" lon="-0.54897">
        <ele>-2.4</ele>
        <time>2016-12-06T10:18:46Z</time>
      </trkpt>
      <trkpt lat="44.87595" lon="-0.54886">
        <ele>-2.4</ele>
        <time>2016-12-06T10:18:48Z</time>
      </trkpt>
      <trkpt lat="44.87594" lon="-0.54878">
        <ele>-3.1</ele>
        <time>2016-12-06T10:18:50Z</time>
      </trkpt>
      <trkpt lat="44.87594" lon="-0.54871">
        <ele>-3.1</ele>
        <time>2016-12-06T10:18:52Z</time>
      </trkpt>
      <trkpt lat="44.87593" lon="-0.54862">
        <ele>-3</ele>
        <time>2016-12-06T10:18:59Z</time>
      </trkpt>
      <trkpt lat="44.87592" lon="-0.54853">
        <ele>-2.5</ele>
        <time>2016-12-06T10:19:01Z</time>
      </trkpt>
      <trkpt lat="44.8759" lon="-0.54843">
        <ele>-2.4</ele>
        <time>2016-12-06T10:19:03Z</time>
      </trkpt>
      <trkpt lat="44.87588" lon="-0.54831">
        <ele>-2.4</ele>
        <time>2016-12-06T10:19:05Z</time>
      </trkpt>
      <trkpt lat="44.87586" lon="-0.54818">
        <ele>-2.5</ele>
        <time>2016-12-06T10:19:07Z</time>
      </trkpt>
      <trkpt lat="44.87583" lon="-0.54806">
        <ele>-2.5</ele>
        <time>2016-12-06T10:19:09Z</time>
      </trkpt>
      <trkpt lat="44.87582" lon="-0.548">
        <ele>-2.7</ele>
        <time>2016-12-06T10:19:10Z</time>
      </trkpt>
      <trkpt lat="44.8758" lon="-0.54788">
        <ele>-3</ele>
        <time>2016-12-06T10:19:12Z</time>
      </trkpt>
      <trkpt lat="44.87579" lon="-0.54781">
        <ele>-2.6</ele>
        <time>2016-12-06T10:19:13Z</time>
      </trkpt>
      <trkpt lat="44.87577" lon="-0.54768">
        <ele>-2.9</ele>
        <time>2016-12-06T10:19:15Z</time>
      </trkpt>
      <trkpt lat="44.87576" lon="-0.54761">
        <ele>-3</ele>
        <time>2016-12-06T10:19:16Z</time>
      </trkpt>
      <trkpt lat="44.87575" lon="-0.54755">
        <ele>-3</ele>
        <time>2016-12-06T10:19:17Z</time>
      </trkpt>
      <trkpt lat="44.87573" lon="-0.54741">
        <ele>-3.3</ele>
        <time>2016-12-06T10:19:19Z</time>
      </trkpt>
      <trkpt lat="44.8757" lon="-0.5473">
        <ele>-3.4</ele>
        <time>2016-12-06T10:19:21Z</time>
      </trkpt>
      <trkpt lat="44.87568" lon="-0.54718">
        <ele>-3.5</ele>
        <time>2016-12-06T10:19:23Z</time>
      </trkpt>
      <trkpt lat="44.87566" lon="-0.54705">
        <ele>-3.7</ele>
        <time>2016-12-06T10:19:25Z</time>
      </trkpt>
      <trkpt lat="44.87563" lon="-0.54691">
        <ele>-3.8</ele>
        <time>2016-12-06T10:19:27Z</time>
      </trkpt>
      <trkpt lat="44.87562" lon="-0.54679">
        <ele>-3.2</ele>
        <time>2016-12-06T10:19:29Z</time>
      </trkpt>
      <trkpt lat="44.8756" lon="-0.54666">
        <ele>-3.2</ele>
        <time>2016-12-06T10:19:31Z</time>
      </trkpt>
      <trkpt lat="44.87558" lon="-0.54653">
        <ele>-3.4</ele>
        <time>2016-12-06T10:19:33Z</time>
      </trkpt>
      <trkpt lat="44.87555" lon="-0.5464">
        <ele>-3.6</ele>
        <time>2016-12-06T10:19:35Z</time>
      </trkpt>
      <trkpt lat="44.87552" lon="-0.54628">
        <ele>-4.2</ele>
        <time>2016-12-06T10:19:37Z</time>
      </trkpt>
      <trkpt lat="44.8755" lon="-0.54616">
        <ele>-4.2</ele>
        <time>2016-12-06T10:19:39Z</time>
      </trkpt>
      <trkpt lat="44.87547" lon="-0.54605">
        <ele>-4.1</ele>
        <time>2016-12-06T10:19:41Z</time>
      </trkpt>
      <trkpt lat="44.87544" lon="-0.54589">
        <ele>-5.3</ele>
        <time>2016-12-06T10:19:44Z</time>
      </trkpt>
      <trkpt lat="44.87542" lon="-0.54579">
        <ele>-6.7</ele>
        <time>2016-12-06T10:19:46Z</time>
      </trkpt>
      <trkpt lat="44.8754" lon="-0.5457">
        <ele>-7.8</ele>
        <time>2016-12-06T10:19:48Z</time>
      </trkpt>
      <trkpt lat="44.87539" lon="-0.54561">
        <ele>-7.9</ele>
        <time>2016-12-06T10:19:50Z</time>
      </trkpt>
      <trkpt lat="44.87539" lon="-0.54555">
        <ele>-8.3</ele>
        <time>2016-12-06T10:19:52Z</time>
      </trkpt>
      <trkpt lat="44.87539" lon="-0.54546">
        <ele>-5.5</ele>
        <time>2016-12-06T10:20:12Z</time>
      </trkpt>
      <trkpt lat="44.87539" lon="-0.54538">
        <ele>-5.5</ele>
        <time>2016-12-06T10:20:14Z</time>
      </trkpt>
      <trkpt lat="44.87539" lon="-0.54528">
        <ele>-5.5</ele>
        <time>2016-12-06T10:20:16Z</time>
      </trkpt>
      <trkpt lat="44.87539" lon="-0.54518">
        <ele>-5.5</ele>
        <time>2016-12-06T10:20:18Z</time>
      </trkpt>
      <trkpt lat="44.87537" lon="-0.54511">
        <ele>-5.6</ele>
        <time>2016-12-06T10:20:20Z</time>
      </trkpt>
      <trkpt lat="44.87531" lon="-0.54507">
        <ele>-5.5</ele>
        <time>2016-12-06T10:20:22Z</time>
      </trkpt>
      <trkpt lat="44.87524" lon="-0.54511">
        <ele>-5.5</ele>
        <time>2016-12-06T10:20:24Z</time>
      </trkpt>
      <trkpt lat="44.87516" lon="-0.54517">
        <ele>-5.4</ele>
        <time>2016-12-06T10:20:26Z</time>
      </trkpt>
      <trkpt lat="44.87507" lon="-0.54521">
        <ele>-5.2</ele>
        <time>2016-12-06T10:20:28Z</time>
      </trkpt>
      <trkpt lat="44.87499" lon="-0.54526">
        <ele>-5.1</ele>
        <time>2016-12-06T10:20:30Z</time>
      </trkpt>
      <trkpt lat="44.87491" lon="-0.5453">
        <ele>-5</ele>
        <time>2016-12-06T10:20:32Z</time>
      </trkpt>
      <trkpt lat="44.87483" lon="-0.54534">
        <ele>-5.1</ele>
        <time>2016-12-06T10:20:34Z</time>
      </trkpt>
      <trkpt lat="44.87477" lon="-0.54537">
        <ele>-4.9</ele>
        <time>2016-12-06T10:20:36Z</time>
      </trkpt>
      <trkpt lat="44.87469" lon="-0.54541">
        <ele>-4.6</ele>
        <time>2016-12-06T10:20:38Z</time>
      </trkpt>
      <trkpt lat="44.87462" lon="-0.54544">
        <ele>-4.4</ele>
        <time>2016-12-06T10:20:40Z</time>
      </trkpt>
      <trkpt lat="44.87454" lon="-0.54548">
        <ele>-4.6</ele>
        <time>2016-12-06T10:20:42Z</time>
      </trkpt>
      <trkpt lat="44.87448" lon="-0.54552">
        <ele>-4.3</ele>
        <time>2016-12-06T10:20:44Z</time>
      </trkpt>
      <trkpt lat="44.87441" lon="-0.54555">
        <ele>-4.1</ele>
        <time>2016-12-06T10:20:46Z</time>
      </trkpt>
      <trkpt lat="44.87435" lon="-0.54558">
        <ele>-3.7</ele>
        <time>2016-12-06T10:20:48Z</time>
      </trkpt>
      <trkpt lat="44.87429" lon="-0.54562">
        <ele>-3.3</ele>
        <time>2016-12-06T10:20:50Z</time>
      </trkpt>
      <trkpt lat="44.87423" lon="-0.54567">
        <ele>-3.2</ele>
        <time>2016-12-06T10:20:52Z</time>
      </trkpt>
      <trkpt lat="44.87416" lon="-0.54572">
        <ele>-3.1</ele>
        <time>2016-12-06T10:20:54Z</time>
      </trkpt>
      <trkpt lat="44.87408" lon="-0.54576">
        <ele>-3</ele>
        <time>2016-12-06T10:20:56Z</time>
      </trkpt>
      <trkpt lat="44.874" lon="-0.54579">
        <ele>-3.2</ele>
        <time>2016-12-06T10:20:58Z</time>
      </trkpt>
      <trkpt lat="44.87392" lon="-0.5458">
        <ele>-3</ele>
        <time>2016-12-06T10:21:00Z</time>
      </trkpt>
      <trkpt lat="44.87384" lon="-0.54578">
        <ele>-3</ele>
        <time>2016-12-06T10:21:02Z</time>
      </trkpt>
      <trkpt lat="44.87377" lon="-0.54578">
        <ele>-2.9</ele>
        <time>2016-12-06T10:21:04Z</time>
      </trkpt>
      <trkpt lat="44.8737" lon="-0.5458">
        <ele>-3</ele>
        <time>2016-12-06T10:21:06Z</time>
      </trkpt>
      <trkpt lat="44.87365" lon="-0.54586">
        <ele>-3.1</ele>
        <time>2016-12-06T10:21:08Z</time>
      </trkpt>
      <trkpt lat="44.87363" lon="-0.54594">
        <ele>-3.3</ele>
        <time>2016-12-06T10:21:10Z</time>
      </trkpt>
      <trkpt lat="44.87364" lon="-0.54606">
        <ele>-3.2</ele>
        <time>2016-12-06T10:21:39Z</time>
      </trkpt>
      <trkpt lat="44.87366" lon="-0.54615">
        <ele>-2.8</ele>
        <time>2016-12-06T10:21:41Z</time>
      </trkpt>
      <trkpt lat="44.87369" lon="-0.54625">
        <ele>-2.7</ele>
        <time>2016-12-06T10:21:43Z</time>
      </trkpt>
      <trkpt lat="44.87371" lon="-0.54636">
        <ele>-2.2</ele>
        <time>2016-12-06T10:21:45Z</time>
      </trkpt>
      <trkpt lat="44.87374" lon="-0.54648">
        <ele>-2</ele>
        <time>2016-12-06T10:21:47Z</time>
      </trkpt>
      <trkpt lat="44.87377" lon="-0.54659">
        <ele>-2</ele>
        <time>2016-12-06T10:21:49Z</time>
      </trkpt>
      <trkpt lat="44.8738" lon="-0.54672">
        <ele>-1.9</ele>
        <time>2016-12-06T10:21:51Z</time>
      </trkpt>
      <trkpt lat="44.87383" lon="-0.54684">
        <ele>-2.3</ele>
        <time>2016-12-06T10:21:53Z</time>
      </trkpt>
      <trkpt lat="44.87385" lon="-0.54691">
        <ele>-2.4</ele>
        <time>2016-12-06T10:21:54Z</time>
      </trkpt>
      <trkpt lat="44.87388" lon="-0.54697">
        <ele>-2.8</ele>
        <time>2016-12-06T10:21:55Z</time>
      </trkpt>
      <trkpt lat="44.87392" lon="-0.54711">
        <ele>-3.1</ele>
        <time>2016-12-06T10:21:57Z</time>
      </trkpt>
      <trkpt lat="44.87395" lon="-0.54724">
        <ele>-3.4</ele>
        <time>2016-12-06T10:21:59Z</time>
      </trkpt>
      <trkpt lat="44.87398" lon="-0.54736">
        <ele>-3.5</ele>
        <time>2016-12-06T10:22:01Z</time>
      </trkpt>
      <trkpt lat="44.87401" lon="-0.54748">
        <ele>-3.5</ele>
        <time>2016-12-06T10:22:03Z</time>
      </trkpt>
      <trkpt lat="44.87405" lon="-0.54758">
        <ele>-3.8</ele>
        <time>2016-12-06T10:22:05Z</time>
      </trkpt>
      <trkpt lat="44.87408" lon="-0.54769">
        <ele>-3.7</ele>
        <time>2016-12-06T10:22:07Z</time>
      </trkpt>
      <trkpt lat="44.8741" lon="-0.54779">
        <ele>-3.5</ele>
        <time>2016-12-06T10:22:09Z</time>
      </trkpt>
      <trkpt lat="44.87413" lon="-0.54789">
        <ele>-3.1</ele>
        <time>2016-12-06T10:22:11Z</time>
      </trkpt>
      <trkpt lat="44.87415" lon="-0.54795">
        <ele>-2.6</ele>
        <time>2016-12-06T10:22:13Z</time>
      </trkpt>
      <trkpt lat="44.87416" lon="-0.54803">
        <ele>-3.1</ele>
        <time>2016-12-06T10:22:17Z</time>
      </trkpt>
      <trkpt lat="44.87417" lon="-0.54812">
        <ele>-2.9</ele>
        <time>2016-12-06T10:22:19Z</time>
      </trkpt>
      <trkpt lat="44.8742" lon="-0.54822">
        <ele>-2.8</ele>
        <time>2016-12-06T10:22:21Z</time>
      </trkpt>
      <trkpt lat="44.87424" lon="-0.54834">
        <ele>-3.3</ele>
        <time>2016-12-06T10:22:23Z</time>
      </trkpt>
      <trkpt lat="44.87427" lon="-0.54846">
        <ele>-3.7</ele>
        <time>2016-12-06T10:22:25Z</time>
      </trkpt>
      <trkpt lat="44.8743" lon="-0.54857">
        <ele>-4</ele>
        <time>2016-12-06T10:22:27Z</time>
      </trkpt>
      <trkpt lat="44.87433" lon="-0.54868">
        <ele>-4</ele>
        <time>2016-12-06T10:22:29Z</time>
      </trkpt>
      <trkpt lat="44.87436" lon="-0.54878">
        <ele>-3.6</ele>
        <time>2016-12-06T10:22:31Z</time>
      </trkpt>
      <trkpt lat="44.87439" lon="-0.54887">
        <ele>-3.1</ele>
        <time>2016-12-06T10:22:33Z</time>
      </trkpt>
      <trkpt lat="44.8744" lon="-0.54893">
        <ele>-2.8</ele>
        <time>2016-12-06T10:22:35Z</time>
      </trkpt>
      <trkpt lat="44.87441" lon="-0.54902">
        <ele>-1.2</ele>
        <time>2016-12-06T10:22:44Z</time>
      </trkpt>
      <trkpt lat="44.87438" lon="-0.54909">
        <ele>-0.8</ele>
        <time>2016-12-06T10:22:46Z</time>
      </trkpt>
      <trkpt lat="44.87431" lon="-0.54914">
        <ele>-0.7</ele>
        <time>2016-12-06T10:22:48Z</time>
      </trkpt>
      <trkpt lat="44.87423" lon="-0.54917">
        <ele>-0.6</ele>
        <time>2016-12-06T10:22:50Z</time>
      </trkpt>
      <trkpt lat="44.87414" lon="-0.5492">
        <ele>-0.4</ele>
        <time>2016-12-06T10:22:52Z</time>
      </trkpt>
      <trkpt lat="44.87406" lon="-0.54923">
        <ele>-0.3</ele>
        <time>2016-12-06T10:22:54Z</time>
      </trkpt>
      <trkpt lat="44.87397" lon="-0.54927">
        <ele>4</ele>
        <time>2016-12-06T10:22:56Z</time>
      </trkpt>
      <trkpt lat="44.87389" lon="-0.5493">
        <ele>0.3</ele>
        <time>2016-12-06T10:22:58Z</time>
      </trkpt>
      <trkpt lat="44.87381" lon="-0.54935">
        <ele>4</ele>
        <time>2016-12-06T10:23:00Z</time>
      </trkpt>
      <trkpt lat="44.87373" lon="-0.54939">
        <ele>0.2</ele>
        <time>2016-12-06T10:23:02Z</time>
      </trkpt>
      <trkpt lat="44.87366" lon="-0.54943">
        <ele>0.2</ele>
        <time>2016-12-06T10:23:04Z</time>
      </trkpt>
      <trkpt lat="44.87362" lon="-0.5495">
        <ele>-0.1</ele>
        <time>2016-12-06T10:23:06Z</time>
      </trkpt>
      <trkpt lat="44.87362" lon="-0.54962">
        <ele>-0.6</ele>
        <time>2016-12-06T10:23:08Z</time>
      </trkpt>
      <trkpt lat="44.87367" lon="-0.54973">
        <ele>-1.3</ele>
        <time>2016-12-06T10:23:10Z</time>
      </trkpt>
      <trkpt lat="44.87371" lon="-0.54986">
        <ele>-1.9</ele>
        <time>2016-12-06T10:23:12Z</time>
      </trkpt>
      <trkpt lat="44.87375" lon="-0.55">
        <ele>-2.4</ele>
        <time>2016-12-06T10:23:14Z</time>
      </trkpt>
      <trkpt lat="44.87377" lon="-0.55006">
        <ele>-2.9</ele>
        <time>2016-12-06T10:23:15Z</time>
      </trkpt>
      <trkpt lat="44.87378" lon="-0.55012">
        <ele>-3.6</ele>
        <time>2016-12-06T10:23:16Z</time>
      </trkpt>
      <trkpt lat="44.8738" lon="-0.55018">
        <ele>-4</ele>
        <time>2016-12-06T10:23:17Z</time>
      </trkpt>
      <trkpt lat="44.87382" lon="-0.55024">
        <ele>-3</ele>
        <time>2016-12-06T10:23:18Z</time>
      </trkpt>
      <trkpt lat="44.87386" lon="-0.55037">
        <ele>-3.3</ele>
        <time>2016-12-06T10:23:20Z</time>
      </trkpt>
      <trkpt lat="44.87389" lon="-0.55049">
        <ele>-3.4</ele>
        <time>2016-12-06T10:23:22Z</time>
      </trkpt>
      <trkpt lat="44.87392" lon="-0.55062">
        <ele>-3.5</ele>
        <time>2016-12-06T10:23:24Z</time>
      </trkpt>
      <trkpt lat="44.87397" lon="-0.55075">
        <ele>-2.8</ele>
        <time>2016-12-06T10:23:26Z</time>
      </trkpt>
      <trkpt lat="44.874" lon="-0.55086">
        <ele>-3.6</ele>
        <time>2016-12-06T10:23:28Z</time>
      </trkpt>
      <trkpt lat="44.87403" lon="-0.55098">
        <ele>-3.7</ele>
        <time>2016-12-06T10:23:30Z</time>
      </trkpt>
      <trkpt lat="44.87405" lon="-0.55104">
        <ele>-3.9</ele>
        <time>2016-12-06T10:23:31Z</time>
      </trkpt>
      <trkpt lat="44.87408" lon="-0.55115">
        <ele>-4.2</ele>
        <time>2016-12-06T10:23:33Z</time>
      </trkpt>
      <trkpt lat="44.8741" lon="-0.55126">
        <ele>-4.1</ele>
        <time>2016-12-06T10:23:35Z</time>
      </trkpt>
      <trkpt lat="44.87413" lon="-0.55137">
        <ele>-4.2</ele>
        <time>2016-12-06T10:23:37Z</time>
      </trkpt>
      <trkpt lat="44.87415" lon="-0.55148">
        <ele>-4.4</ele>
        <time>2016-12-06T10:23:39Z</time>
      </trkpt>
      <trkpt lat="44.87418" lon="-0.5516">
        <ele>-4.8</ele>
        <time>2016-12-06T10:23:41Z</time>
      </trkpt>
      <trkpt lat="44.8742" lon="-0.55166">
        <ele>-4.7</ele>
        <time>2016-12-06T10:23:42Z</time>
      </trkpt>
      <trkpt lat="44.87423" lon="-0.55179">
        <ele>-4.8</ele>
        <time>2016-12-06T10:23:44Z</time>
      </trkpt>
      <trkpt lat="44.87426" lon="-0.55192">
        <ele>-4.1</ele>
        <time>2016-12-06T10:23:46Z</time>
      </trkpt>
      <trkpt lat="44.87428" lon="-0.55198">
        <ele>-4</ele>
        <time>2016-12-06T10:23:47Z</time>
      </trkpt>
      <trkpt lat="44.87431" lon="-0.55209">
        <ele>-3.8</ele>
        <time>2016-12-06T10:23:49Z</time>
      </trkpt>
      <trkpt lat="44.87434" lon="-0.55221">
        <ele>-4.1</ele>
        <time>2016-12-06T10:23:51Z</time>
      </trkpt>
      <trkpt lat="44.87435" lon="-0.55227">
        <ele>-4.1</ele>
        <time>2016-12-06T10:23:52Z</time>
      </trkpt>
      <trkpt lat="44.87437" lon="-0.55234">
        <ele>-4.1</ele>
        <time>2016-12-06T10:23:53Z</time>
      </trkpt>
      <trkpt lat="44.8744" lon="-0.55245">
        <ele>-4.8</ele>
        <time>2016-12-06T10:23:55Z</time>
      </trkpt>
      <trkpt lat="44.87443" lon="-0.55257">
        <ele>-4.9</ele>
        <time>2016-12-06T10:23:57Z</time>
      </trkpt>
      <trkpt lat="44.87446" lon="-0.55268">
        <ele>-4.3</ele>
        <time>2016-12-06T10:23:59Z</time>
      </trkpt>
      <trkpt lat="44.87449" lon="-0.5528">
        <ele>-4.3</ele>
        <time>2016-12-06T10:24:01Z</time>
      </trkpt>
      <trkpt lat="44.87452" lon="-0.55292">
        <ele>-4.7</ele>
        <time>2016-12-06T10:24:03Z</time>
      </trkpt>
      <trkpt lat="44.87455" lon="-0.55304">
        <ele>-4.9</ele>
        <time>2016-12-06T10:24:05Z</time>
      </trkpt>
      <trkpt lat="44.87457" lon="-0.55316">
        <ele>-5.3</ele>
        <time>2016-12-06T10:24:07Z</time>
      </trkpt>
      <trkpt lat="44.8746" lon="-0.55328">
        <ele>-5.4</ele>
        <time>2016-12-06T10:24:09Z</time>
      </trkpt>
      <trkpt lat="44.87463" lon="-0.55338">
        <ele>-5.4</ele>
        <time>2016-12-06T10:24:11Z</time>
      </trkpt>
      <trkpt lat="44.87465" lon="-0.55346">
        <ele>-5.1</ele>
        <time>2016-12-06T10:24:13Z</time>
      </trkpt>
      <trkpt lat="44.87464" lon="-0.55355">
        <ele>-6.3</ele>
        <time>2016-12-06T10:24:24Z</time>
      </trkpt>
      <trkpt lat="44.87458" lon="-0.55362">
        <ele>-6.5</ele>
        <time>2016-12-06T10:24:26Z</time>
      </trkpt>
      <trkpt lat="44.87451" lon="-0.55369">
        <ele>-6.5</ele>
        <time>2016-12-06T10:24:28Z</time>
      </trkpt>
      <trkpt lat="44.87444" lon="-0.55377">
        <ele>-6.5</ele>
        <time>2016-12-06T10:24:30Z</time>
      </trkpt>
      <trkpt lat="44.87439" lon="-0.5538">
        <ele>-6.3</ele>
        <time>2016-12-06T10:24:31Z</time>
      </trkpt>
      <trkpt lat="44.8743" lon="-0.55386">
        <ele>-6.1</ele>
        <time>2016-12-06T10:24:33Z</time>
      </trkpt>
      <trkpt lat="44.87425" lon="-0.55389">
        <ele>-6.1</ele>
        <time>2016-12-06T10:24:34Z</time>
      </trkpt>
      <trkpt lat="44.87414" lon="-0.55395">
        <ele>-5.7</ele>
        <time>2016-12-06T10:24:36Z</time>
      </trkpt>
      <trkpt lat="44.87408" lon="-0.55398">
        <ele>-5.8</ele>
        <time>2016-12-06T10:24:37Z</time>
      </trkpt>
      <trkpt lat="44.87397" lon="-0.55404">
        <ele>-5.5</ele>
        <time>2016-12-06T10:24:39Z</time>
      </trkpt>
      <trkpt lat="44.87385" lon="-0.55411">
        <ele>-5.2</ele>
        <time>2016-12-06T10:24:41Z</time>
      </trkpt>
      <trkpt lat="44.87379" lon="-0.55414">
        <ele>-5.3</ele>
        <time>2016-12-06T10:24:42Z</time>
      </trkpt>
      <trkpt lat="44.87373" lon="-0.55417">
        <ele>-5.2</ele>
        <time>2016-12-06T10:24:43Z</time>
      </trkpt>
      <trkpt lat="44.87361" lon="-0.55424">
        <ele>-5.4</ele>
        <time>2016-12-06T10:24:45Z</time>
      </trkpt>
      <trkpt lat="44.87349" lon="-0.5543">
        <ele>-5.2</ele>
        <time>2016-12-06T10:24:47Z</time>
      </trkpt>
      <trkpt lat="44.87344" lon="-0.55434">
        <ele>-5.2</ele>
        <time>2016-12-06T10:24:48Z</time>
      </trkpt>
      <trkpt lat="44.87338" lon="-0.55437">
        <ele>-5.2</ele>
        <time>2016-12-06T10:24:49Z</time>
      </trkpt>
      <trkpt lat="44.87326" lon="-0.55444">
        <ele>-4.8</ele>
        <time>2016-12-06T10:24:51Z</time>
      </trkpt>
      <trkpt lat="44.8732" lon="-0.55448">
        <ele>-4.5</ele>
        <time>2016-12-06T10:24:52Z</time>
      </trkpt>
      <trkpt lat="44.87308" lon="-0.55454">
        <ele>-4.3</ele>
        <time>2016-12-06T10:24:54Z</time>
      </trkpt>
      <trkpt lat="44.87301" lon="-0.55457">
        <ele>-4</ele>
        <time>2016-12-06T10:24:55Z</time>
      </trkpt>
      <trkpt lat="44.87289" lon="-0.55459">
        <ele>-3.4</ele>
        <time>2016-12-06T10:24:57Z</time>
      </trkpt>
      <trkpt lat="44.87277" lon="-0.5546">
        <ele>-3.4</ele>
        <time>2016-12-06T10:24:59Z</time>
      </trkpt>
      <trkpt lat="44.87266" lon="-0.5546">
        <ele>-3.1</ele>
        <time>2016-12-06T10:25:01Z</time>
      </trkpt>
      <trkpt lat="44.87254" lon="-0.5546">
        <ele>-2.9</ele>
        <time>2016-12-06T10:25:03Z</time>
      </trkpt>
      <trkpt lat="44.87241" lon="-0.5546">
        <ele>-2.9</ele>
        <time>2016-12-06T10:25:05Z</time>
      </trkpt>
      <trkpt lat="44.87235" lon="-0.5546">
        <ele>-2.8</ele>
        <time>2016-12-06T10:25:06Z</time>
      </trkpt>
      <trkpt lat="44.87229" lon="-0.55461">
        <ele>-2.7</ele>
        <time>2016-12-06T10:25:07Z</time>
      </trkpt>
      <trkpt lat="44.87216" lon="-0.55462">
        <ele>-2.6</ele>
        <time>2016-12-06T10:25:09Z</time>
      </trkpt>
      <trkpt lat="44.87204" lon="-0.55462">
        <ele>-2.4</ele>
        <time>2016-12-06T10:25:11Z</time>
      </trkpt>
      <trkpt lat="44.87197" lon="-0.55462">
        <ele>-2.1</ele>
        <time>2016-12-06T10:25:12Z</time>
      </trkpt>
      <trkpt lat="44.87185" lon="-0.55462">
        <ele>-1.6</ele>
        <time>2016-12-06T10:25:14Z</time>
      </trkpt>
      <trkpt lat="44.87179" lon="-0.55462">
        <ele>-2</ele>
        <time>2016-12-06T10:25:15Z</time>
      </trkpt>
      <trkpt lat="44.87173" lon="-0.55462">
        <ele>-1.9</ele>
        <time>2016-12-06T10:25:16Z</time>
      </trkpt>
      <trkpt lat="44.8716" lon="-0.55463">
        <ele>-2.4</ele>
        <time>2016-12-06T10:25:18Z</time>
      </trkpt>
      <trkpt lat="44.87154" lon="-0.55463">
        <ele>-2.3</ele>
        <time>2016-12-06T10:25:19Z</time>
      </trkpt>
      <trkpt lat="44.87141" lon="-0.55463">
        <ele>-2.3</ele>
        <time>2016-12-06T10:25:21Z</time>
      </trkpt>
      <trkpt lat="44.87135" lon="-0.55462">
        <ele>-2.4</ele>
        <time>2016-12-06T10:25:22Z</time>
      </trkpt>
      <trkpt lat="44.87122" lon="-0.55462">
        <ele>-2.3</ele>
        <time>2016-12-06T10:25:24Z</time>
      </trkpt>
      <trkpt lat="44.87109" lon="-0.55462">
        <ele>-2.3</ele>
        <time>2016-12-06T10:25:26Z</time>
      </trkpt>
      <trkpt lat="44.87096" lon="-0.55462">
        <ele>-2.5</ele>
        <time>2016-12-06T10:25:28Z</time>
      </trkpt>
      <trkpt lat="44.8709" lon="-0.55463">
        <ele>-2.7</ele>
        <time>2016-12-06T10:25:29Z</time>
      </trkpt>
      <trkpt lat="44.87085" lon="-0.55464">
        <ele>-2.5</ele>
        <time>2016-12-06T10:25:30Z</time>
      </trkpt>
      <trkpt lat="44.87075" lon="-0.55466">
        <ele>-2</ele>
        <time>2016-12-06T10:25:32Z</time>
      </trkpt>
      <trkpt lat="44.87065" lon="-0.5547">
        <ele>-1.8</ele>
        <time>2016-12-06T10:25:34Z</time>
      </trkpt>
      <trkpt lat="44.87062" lon="-0.55473">
        <ele>-1.7</ele>
        <time>2016-12-06T10:25:35Z</time>
      </trkpt>
      <trkpt lat="44.87058" lon="-0.55477">
        <ele>-1.5</ele>
        <time>2016-12-06T10:25:36Z</time>
      </trkpt>
      <trkpt lat="44.8705" lon="-0.55481">
        <ele>-2.6</ele>
        <time>2016-12-06T10:25:38Z</time>
      </trkpt>
      <trkpt lat="44.87042" lon="-0.55476">
        <ele>-2.5</ele>
        <time>2016-12-06T10:25:40Z</time>
      </trkpt>
      <trkpt lat="44.8704" lon="-0.55465">
        <ele>-2.7</ele>
        <time>2016-12-06T10:25:42Z</time>
      </trkpt>
      <trkpt lat="44.87042" lon="-0.55458">
        <ele>-3.1</ele>
        <time>2016-12-06T10:25:43Z</time>
      </trkpt>
      <trkpt lat="44.87043" lon="-0.55451">
        <ele>-2</ele>
        <time>2016-12-06T10:25:44Z</time>
      </trkpt>
      <trkpt lat="44.87045" lon="-0.55437">
        <ele>-1.2</ele>
        <time>2016-12-06T10:25:46Z</time>
      </trkpt>
      <trkpt lat="44.87045" lon="-0.55423">
        <ele>-1.2</ele>
        <time>2016-12-06T10:25:48Z</time>
      </trkpt>
      <trkpt lat="44.87044" lon="-0.55416">
        <ele>-0.5</ele>
        <time>2016-12-06T10:25:49Z</time>
      </trkpt>
      <trkpt lat="44.87042" lon="-0.55409">
        <ele>-0.1</ele>
        <time>2016-12-06T10:25:50Z</time>
      </trkpt>
      <trkpt lat="44.87039" lon="-0.55395">
        <ele>1</ele>
        <time>2016-12-06T10:25:52Z</time>
      </trkpt>
      <trkpt lat="44.87036" lon="-0.55379">
        <ele>1.2</ele>
        <time>2016-12-06T10:25:54Z</time>
      </trkpt>
      <trkpt lat="44.87035" lon="-0.55371">
        <ele>1.3</ele>
        <time>2016-12-06T10:25:55Z</time>
      </trkpt>
      <trkpt lat="44.87032" lon="-0.55356">
        <ele>1.5</ele>
        <time>2016-12-06T10:25:57Z</time>
      </trkpt>
      <trkpt lat="44.87031" lon="-0.55349">
        <ele>1.4</ele>
        <time>2016-12-06T10:25:58Z</time>
      </trkpt>
      <trkpt lat="44.87029" lon="-0.55335">
        <ele>1.2</ele>
        <time>2016-12-06T10:26:00Z</time>
      </trkpt>
      <trkpt lat="44.87027" lon="-0.5532">
        <ele>0.2</ele>
        <time>2016-12-06T10:26:02Z</time>
      </trkpt>
      <trkpt lat="44.87026" lon="-0.55313">
        <ele>-0.2</ele>
        <time>2016-12-06T10:26:03Z</time>
      </trkpt>
      <trkpt lat="44.87024" lon="-0.55299">
        <ele>-0.9</ele>
        <time>2016-12-06T10:26:05Z</time>
      </trkpt>
      <trkpt lat="44.87023" lon="-0.55284">
        <ele>-1.9</ele>
        <time>2016-12-06T10:26:07Z</time>
      </trkpt>
      <trkpt lat="44.87022" lon="-0.55277">
        <ele>-1.8</ele>
        <time>2016-12-06T10:26:08Z</time>
      </trkpt>
      <trkpt lat="44.8702" lon="-0.55263">
        <ele>-1.8</ele>
        <time>2016-12-06T10:26:10Z</time>
      </trkpt>
      <trkpt lat="44.87018" lon="-0.55249">
        <ele>-1.3</ele>
        <time>2016-12-06T10:26:12Z</time>
      </trkpt>
      <trkpt lat="44.87017" lon="-0.55243">
        <ele>-1.7</ele>
        <time>2016-12-06T10:26:13Z</time>
      </trkpt>
      <trkpt lat="44.87015" lon="-0.5523">
        <ele>-2.2</ele>
        <time>2016-12-06T10:26:15Z</time>
      </trkpt>
      <trkpt lat="44.87013" lon="-0.55218">
        <ele>-2.8</ele>
        <time>2016-12-06T10:26:17Z</time>
      </trkpt>
      <trkpt lat="44.87012" lon="-0.55208">
        <ele>-3.3</ele>
        <time>2016-12-06T10:26:19Z</time>
      </trkpt>
      <trkpt lat="44.87012" lon="-0.55197">
        <ele>-3</ele>
        <time>2016-12-06T10:26:21Z</time>
      </trkpt>
      <trkpt lat="44.87011" lon="-0.55186">
        <ele>-2.9</ele>
        <time>2016-12-06T10:26:23Z</time>
      </trkpt>
      <trkpt lat="44.87012" lon="-0.55177">
        <ele>-1.4</ele>
        <time>2016-12-06T10:26:25Z</time>
      </trkpt>
      <trkpt lat="44.87018" lon="-0.55172">
        <ele>-1.1</ele>
        <time>2016-12-06T10:26:27Z</time>
      </trkpt>
      <trkpt lat="44.87026" lon="-0.55168">
        <ele>-1.6</ele>
        <time>2016-12-06T10:26:29Z</time>
      </trkpt>
      <trkpt lat="44.87031" lon="-0.55167">
        <ele>-1.6</ele>
        <time>2016-12-06T10:26:30Z</time>
      </trkpt>
      <trkpt lat="44.8704" lon="-0.55164">
        <ele>-2.4</ele>
        <time>2016-12-06T10:26:32Z</time>
      </trkpt>
      <trkpt lat="44.87049" lon="-0.5516">
        <ele>-2.4</ele>
        <time>2016-12-06T10:26:34Z</time>
      </trkpt>
      <trkpt lat="44.87057" lon="-0.55157">
        <ele>-2.5</ele>
        <time>2016-12-06T10:26:36Z</time>
      </trkpt>
      <trkpt lat="44.87066" lon="-0.55154">
        <ele>-2.4</ele>
        <time>2016-12-06T10:26:38Z</time>
      </trkpt>
      <trkpt lat="44.87074" lon="-0.55151">
        <ele>-2.6</ele>
        <time>2016-12-06T10:26:40Z</time>
      </trkpt>
      <trkpt lat="44.87082" lon="-0.55148">
        <ele>-2.7</ele>
        <time>2016-12-06T10:26:42Z</time>
      </trkpt>
      <trkpt lat="44.8709" lon="-0.55145">
        <ele>-3</ele>
        <time>2016-12-06T10:26:44Z</time>
      </trkpt>
      <trkpt lat="44.87099" lon="-0.55142">
        <ele>-2.5</ele>
        <time>2016-12-06T10:26:46Z</time>
      </trkpt>
      <trkpt lat="44.87107" lon="-0.55139">
        <ele>-2.2</ele>
        <time>2016-12-06T10:26:48Z</time>
      </trkpt>
      <trkpt lat="44.87115" lon="-0.55135">
        <ele>-2.1</ele>
        <time>2016-12-06T10:26:50Z</time>
      </trkpt>
      <trkpt lat="44.87123" lon="-0.55131">
        <ele>-2.3</ele>
        <time>2016-12-06T10:26:52Z</time>
      </trkpt>
      <trkpt lat="44.87131" lon="-0.55128">
        <ele>-2.2</ele>
        <time>2016-12-06T10:26:54Z</time>
      </trkpt>
      <trkpt lat="44.87139" lon="-0.55125">
        <ele>-2.3</ele>
        <time>2016-12-06T10:26:56Z</time>
      </trkpt>
      <trkpt lat="44.87147" lon="-0.55122">
        <ele>-2.3</ele>
        <time>2016-12-06T10:26:58Z</time>
      </trkpt>
      <trkpt lat="44.87152" lon="-0.55121">
        <ele>-2</ele>
        <time>2016-12-06T10:26:59Z</time>
      </trkpt>
      <trkpt lat="44.87156" lon="-0.55119">
        <ele>-1.8</ele>
        <time>2016-12-06T10:27:00Z</time>
      </trkpt>
      <trkpt lat="44.87165" lon="-0.55115">
        <ele>-1.8</ele>
        <time>2016-12-06T10:27:02Z</time>
      </trkpt>
      <trkpt lat="44.87169" lon="-0.55113">
        <ele>-1.6</ele>
        <time>2016-12-06T10:27:03Z</time>
      </trkpt>
      <trkpt lat="44.87178" lon="-0.5511">
        <ele>-1.3</ele>
        <time>2016-12-06T10:27:05Z</time>
      </trkpt>
      <trkpt lat="44.87187" lon="-0.55107">
        <ele>-1</ele>
        <time>2016-12-06T10:27:07Z</time>
      </trkpt>
      <trkpt lat="44.87195" lon="-0.55104">
        <ele>-1.1</ele>
        <time>2016-12-06T10:27:09Z</time>
      </trkpt>
      <trkpt lat="44.87204" lon="-0.55101">
        <ele>-1.5</ele>
        <time>2016-12-06T10:27:11Z</time>
      </trkpt>
      <trkpt lat="44.87212" lon="-0.55098">
        <ele>-1.4</ele>
        <time>2016-12-06T10:27:13Z</time>
      </trkpt>
      <trkpt lat="44.8722" lon="-0.55095">
        <ele>-1.6</ele>
        <time>2016-12-06T10:27:15Z</time>
      </trkpt>
      <trkpt lat="44.87225" lon="-0.55094">
        <ele>-1.4</ele>
        <time>2016-12-06T10:27:16Z</time>
      </trkpt>
      <trkpt lat="44.87234" lon="-0.5509">
        <ele>-1.3</ele>
        <time>2016-12-06T10:27:18Z</time>
      </trkpt>
      <trkpt lat="44.87243" lon="-0.55086">
        <ele>-1.2</ele>
        <time>2016-12-06T10:27:20Z</time>
      </trkpt>
      <trkpt lat="44.87251" lon="-0.55083">
        <ele>-1.2</ele>
        <time>2016-12-06T10:27:22Z</time>
      </trkpt>
      <trkpt lat="44.8726" lon="-0.55081">
        <ele>-1</ele>
        <time>2016-12-06T10:27:24Z</time>
      </trkpt>
      <trkpt lat="44.87265" lon="-0.55079">
        <ele>-0.9</ele>
        <time>2016-12-06T10:27:25Z</time>
      </trkpt>
      <trkpt lat="44.87274" lon="-0.55076">
        <ele>-1</ele>
        <time>2016-12-06T10:27:27Z</time>
      </trkpt>
      <trkpt lat="44.87283" lon="-0.55071">
        <ele>-0.8</ele>
        <time>2016-12-06T10:27:29Z</time>
      </trkpt>
      <trkpt lat="44.87292" lon="-0.55068">
        <ele>-0.5</ele>
        <time>2016-12-06T10:27:31Z</time>
      </trkpt>
      <trkpt lat="44.87297" lon="-0.55067">
        <ele>-0.5</ele>
        <time>2016-12-06T10:27:32Z</time>
      </trkpt>
      <trkpt lat="44.87306" lon="-0.55063">
        <ele>-0.7</ele>
        <time>2016-12-06T10:27:34Z</time>
      </trkpt>
      <trkpt lat="44.87315" lon="-0.55059">
        <ele>-0.7</ele>
        <time>2016-12-06T10:27:36Z</time>
      </trkpt>
      <trkpt lat="44.87323" lon="-0.55056">
        <ele>-0.5</ele>
        <time>2016-12-06T10:27:38Z</time>
      </trkpt>
      <trkpt lat="44.87331" lon="-0.55053">
        <ele>-1</ele>
        <time>2016-12-06T10:27:40Z</time>
      </trkpt>
      <trkpt lat="44.8734" lon="-0.5505">
        <ele>-1.1</ele>
        <time>2016-12-06T10:27:42Z</time>
      </trkpt>
      <trkpt lat="44.87349" lon="-0.55047">
        <ele>-1.4</ele>
        <time>2016-12-06T10:27:44Z</time>
      </trkpt>
      <trkpt lat="44.87358" lon="-0.55043">
        <ele>-0.8</ele>
        <time>2016-12-06T10:27:46Z</time>
      </trkpt>
      <trkpt lat="44.87366" lon="-0.55039">
        <ele>-0.2</ele>
        <time>2016-12-06T10:27:48Z</time>
      </trkpt>
      <trkpt lat="44.87374" lon="-0.55035">
        <ele>0.1</ele>
        <time>2016-12-06T10:27:50Z</time>
      </trkpt>
      <trkpt lat="44.8738" lon="-0.55033">
        <ele>0.3</ele>
        <time>2016-12-06T10:27:53Z</time>
      </trkpt>
      <trkpt lat="44.87384" lon="-0.55037">
        <ele>0.1</ele>
        <time>2016-12-06T10:27:55Z</time>
      </trkpt>
      <trkpt lat="44.87387" lon="-0.55046">
        <ele>-0.4</ele>
        <time>2016-12-06T10:27:57Z</time>
      </trkpt>
      <trkpt lat="44.8739" lon="-0.55057">
        <ele>-0.6</ele>
        <time>2016-12-06T10:27:59Z</time>
      </trkpt>
      <trkpt lat="44.87392" lon="-0.55069">
        <ele>-0.6</ele>
        <time>2016-12-06T10:28:01Z</time>
      </trkpt>
      <trkpt lat="44.87395" lon="-0.5508">
        <ele>-1.5</ele>
        <time>2016-12-06T10:28:03Z</time>
      </trkpt>
      <trkpt lat="44.87398" lon="-0.55089">
        <ele>-2.5</ele>
        <time>2016-12-06T10:28:05Z</time>
      </trkpt>
      <trkpt lat="44.87401" lon="-0.55098">
        <ele>-2.9</ele>
        <time>2016-12-06T10:28:07Z</time>
      </trkpt>
      <trkpt lat="44.87405" lon="-0.55108">
        <ele>-2.2</ele>
        <time>2016-12-06T10:28:09Z</time>
      </trkpt>
      <trkpt lat="44.87407" lon="-0.55118">
        <ele>-2.7</ele>
        <time>2016-12-06T10:28:11Z</time>
      </trkpt>
      <trkpt lat="44.8741" lon="-0.55129">
        <ele>-3.4</ele>
        <time>2016-12-06T10:28:13Z</time>
      </trkpt>
      <trkpt lat="44.87412" lon="-0.5514">
        <ele>-3.7</ele>
        <time>2016-12-06T10:28:15Z</time>
      </trkpt>
      <trkpt lat="44.87415" lon="-0.55151">
        <ele>-3.8</ele>
        <time>2016-12-06T10:28:17Z</time>
      </trkpt>
      <trkpt lat="44.87418" lon="-0.55161">
        <ele>-3.7</ele>
        <time>2016-12-06T10:28:19Z</time>
      </trkpt>
      <trkpt lat="44.8742" lon="-0.55169">
        <ele>-3.9</ele>
        <time>2016-12-06T10:28:21Z</time>
      </trkpt>
      <trkpt lat="44.87421" lon="-0.55177">
        <ele>-3.5</ele>
        <time>2016-12-06T10:28:26Z</time>
      </trkpt>
      <trkpt lat="44.87422" lon="-0.55184">
        <ele>-3.3</ele>
        <time>2016-12-06T10:28:28Z</time>
      </trkpt>
      <trkpt lat="44.87425" lon="-0.55193">
        <ele>-4</ele>
        <time>2016-12-06T10:28:30Z</time>
      </trkpt>
      <trkpt lat="44.87428" lon="-0.55205">
        <ele>-4.7</ele>
        <time>2016-12-06T10:28:32Z</time>
      </trkpt>
      <trkpt lat="44.87429" lon="-0.55211">
        <ele>-4.8</ele>
        <time>2016-12-06T10:28:33Z</time>
      </trkpt>
      <trkpt lat="44.87431" lon="-0.55217">
        <ele>-5.1</ele>
        <time>2016-12-06T10:28:34Z</time>
      </trkpt>
      <trkpt lat="44.87432" lon="-0.55223">
        <ele>-5.6</ele>
        <time>2016-12-06T10:28:35Z</time>
      </trkpt>
      <trkpt lat="44.87435" lon="-0.55236">
        <ele>-5.7</ele>
        <time>2016-12-06T10:28:37Z</time>
      </trkpt>
      <trkpt lat="44.87439" lon="-0.55247">
        <ele>-5.8</ele>
        <time>2016-12-06T10:28:39Z</time>
      </trkpt>
      <trkpt lat="44.87441" lon="-0.55259">
        <ele>-6</ele>
        <time>2016-12-06T10:28:41Z</time>
      </trkpt>
      <trkpt lat="44.87444" lon="-0.55271">
        <ele>-6.3</ele>
        <time>2016-12-06T10:28:43Z</time>
      </trkpt>
      <trkpt lat="44.87448" lon="-0.55283">
        <ele>-6.5</ele>
        <time>2016-12-06T10:28:45Z</time>
      </trkpt>
      <trkpt lat="44.87451" lon="-0.55294">
        <ele>-6.5</ele>
        <time>2016-12-06T10:28:47Z</time>
      </trkpt>
      <trkpt lat="44.87454" lon="-0.55306">
        <ele>-6.5</ele>
        <time>2016-12-06T10:28:49Z</time>
      </trkpt>
      <trkpt lat="44.87456" lon="-0.55318">
        <ele>-6.4</ele>
        <time>2016-12-06T10:28:51Z</time>
      </trkpt>
      <trkpt lat="44.87459" lon="-0.5533">
        <ele>-6.6</ele>
        <time>2016-12-06T10:28:53Z</time>
      </trkpt>
      <trkpt lat="44.87462" lon="-0.55339">
        <ele>-7.3</ele>
        <time>2016-12-06T10:28:55Z</time>
      </trkpt>
      <trkpt lat="44.87464" lon="-0.55346">
        <ele>-6.9</ele>
        <time>2016-12-06T10:28:57Z</time>
      </trkpt>
      <trkpt lat="44.87465" lon="-0.55353">
        <ele>-6.8</ele>
        <time>2016-12-06T10:28:59Z</time>
      </trkpt>
      <trkpt lat="44.87466" lon="-0.5536">
        <ele>-7</ele>
        <time>2016-12-06T10:29:01Z</time>
      </trkpt>
      <trkpt lat="44.87471" lon="-0.55367">
        <ele>-7.5</ele>
        <time>2016-12-06T10:29:03Z</time>
      </trkpt>
      <trkpt lat="44.87475" lon="-0.55376">
        <ele>-8.4</ele>
        <time>2016-12-06T10:29:05Z</time>
      </trkpt>
      <trkpt lat="44.87479" lon="-0.55387">
        <ele>-9.2</ele>
        <time>2016-12-06T10:29:07Z</time>
      </trkpt>
      <trkpt lat="44.87483" lon="-0.55398">
        <ele>-9.9</ele>
        <time>2016-12-06T10:29:09Z</time>
      </trkpt>
      <trkpt lat="44.87488" lon="-0.55407">
        <ele>-9.2</ele>
        <time>2016-12-06T10:29:11Z</time>
      </trkpt>
      <trkpt lat="44.87492" lon="-0.55414">
        <ele>-10.3</ele>
        <time>2016-12-06T10:29:13Z</time>
      </trkpt>
      <trkpt lat="44.87495" lon="-0.55419">
        <ele>-11.7</ele>
        <time>2016-12-06T10:29:15Z</time>
      </trkpt>
      <trkpt lat="44.87502" lon="-0.55428">
        <ele>-12.9</ele>
        <time>2016-12-06T10:29:26Z</time>
      </trkpt>
      <trkpt lat="44.87505" lon="-0.55434">
        <ele>-12</ele>
        <time>2016-12-06T10:29:28Z</time>
      </trkpt>
      <trkpt lat="44.87504" lon="-0.55443">
        <ele>-12</ele>
        <time>2016-12-06T10:29:30Z</time>
      </trkpt>
      <trkpt lat="44.87501" lon="-0.5545">
        <ele>-12.4</ele>
        <time>2016-12-06T10:29:32Z</time>
      </trkpt>
      <trkpt lat="44.87497" lon="-0.55459">
        <ele>-12.7</ele>
        <time>2016-12-06T10:29:34Z</time>
      </trkpt>
      <trkpt lat="44.87493" lon="-0.55469">
        <ele>-12.5</ele>
        <time>2016-12-06T10:29:36Z</time>
      </trkpt>
      <trkpt lat="44.87489" lon="-0.5548">
        <ele>-12.9</ele>
        <time>2016-12-06T10:29:38Z</time>
      </trkpt>
      <trkpt lat="44.87484" lon="-0.5549">
        <ele>-13.7</ele>
        <time>2016-12-06T10:29:40Z</time>
      </trkpt>
      <trkpt lat="44.87479" lon="-0.55501">
        <ele>-13.8</ele>
        <time>2016-12-06T10:29:42Z</time>
      </trkpt>
      <trkpt lat="44.87474" lon="-0.55512">
        <ele>-13.8</ele>
        <time>2016-12-06T10:29:44Z</time>
      </trkpt>
      <trkpt lat="44.87469" lon="-0.55523">
        <ele>-11</ele>
        <time>2016-12-06T10:29:46Z</time>
      </trkpt>
      <trkpt lat="44.87465" lon="-0.55536">
        <ele>-9.4</ele>
        <time>2016-12-06T10:29:48Z</time>
      </trkpt>
      <trkpt lat="44.87463" lon="-0.55543">
        <ele>-9.6</ele>
        <time>2016-12-06T10:29:49Z</time>
      </trkpt>
      <trkpt lat="44.87457" lon="-0.55557">
        <ele>-9</ele>
        <time>2016-12-06T10:29:51Z</time>
      </trkpt>
      <trkpt lat="44.87452" lon="-0.55569">
        <ele>-9</ele>
        <time>2016-12-06T10:29:53Z</time>
      </trkpt>
      <trkpt lat="44.87449" lon="-0.55575">
        <ele>-8.7</ele>
        <time>2016-12-06T10:29:54Z</time>
      </trkpt>
      <trkpt lat="44.87444" lon="-0.55587">
        <ele>-8.2</ele>
        <time>2016-12-06T10:29:56Z</time>
      </trkpt>
      <trkpt lat="44.87442" lon="-0.55593">
        <ele>-8.1</ele>
        <time>2016-12-06T10:29:57Z</time>
      </trkpt>
      <trkpt lat="44.87436" lon="-0.55605">
        <ele>-7.9</ele>
        <time>2016-12-06T10:29:59Z</time>
      </trkpt>
      <trkpt lat="44.87431" lon="-0.55618">
        <ele>-7.8</ele>
        <time>2016-12-06T10:30:01Z</time>
      </trkpt>
      <trkpt lat="44.87423" lon="-0.55637">
        <ele>-6.4</ele>
        <time>2016-12-06T10:30:04Z</time>
      </trkpt>
      <trkpt lat="44.87417" lon="-0.55648">
        <ele>-6.7</ele>
        <time>2016-12-06T10:30:06Z</time>
      </trkpt>
      <trkpt lat="44.87412" lon="-0.5566">
        <ele>-6.6</ele>
        <time>2016-12-06T10:30:08Z</time>
      </trkpt>
      <trkpt lat="44.87407" lon="-0.55673">
        <ele>-6.2</ele>
        <time>2016-12-06T10:30:10Z</time>
      </trkpt>
      <trkpt lat="44.87402" lon="-0.55685">
        <ele>-7.3</ele>
        <time>2016-12-06T10:30:12Z</time>
      </trkpt>
      <trkpt lat="44.87397" lon="-0.55698">
        <ele>-8.7</ele>
        <time>2016-12-06T10:30:14Z</time>
      </trkpt>
      <trkpt lat="44.87391" lon="-0.55712">
        <ele>-8.6</ele>
        <time>2016-12-06T10:30:16Z</time>
      </trkpt>
      <trkpt lat="44.87385" lon="-0.55725">
        <ele>-9.3</ele>
        <time>2016-12-06T10:30:18Z</time>
      </trkpt>
      <trkpt lat="44.8738" lon="-0.55739">
        <ele>-9.3</ele>
        <time>2016-12-06T10:30:20Z</time>
      </trkpt>
      <trkpt lat="44.87377" lon="-0.55746">
        <ele>-9</ele>
        <time>2016-12-06T10:30:21Z</time>
      </trkpt>
      <trkpt lat="44.87371" lon="-0.5576">
        <ele>-8.9</ele>
        <time>2016-12-06T10:30:23Z</time>
      </trkpt>
      <trkpt lat="44.87369" lon="-0.55766">
        <ele>-8.8</ele>
        <time>2016-12-06T10:30:24Z</time>
      </trkpt>
      <trkpt lat="44.87364" lon="-0.55779">
        <ele>-8.5</ele>
        <time>2016-12-06T10:30:26Z</time>
      </trkpt>
      <trkpt lat="44.87361" lon="-0.55786">
        <ele>-8.6</ele>
        <time>2016-12-06T10:30:27Z</time>
      </trkpt>
      <trkpt lat="44.87356" lon="-0.55798">
        <ele>-8.2</ele>
        <time>2016-12-06T10:30:29Z</time>
      </trkpt>
      <trkpt lat="44.8735" lon="-0.55811">
        <ele>-7.4</ele>
        <time>2016-12-06T10:30:31Z</time>
      </trkpt>
      <trkpt lat="44.87347" lon="-0.55818">
        <ele>-7.5</ele>
        <time>2016-12-06T10:30:32Z</time>
      </trkpt>
      <trkpt lat="44.87342" lon="-0.55833">
        <ele>-7.4</ele>
        <time>2016-12-06T10:30:34Z</time>
      </trkpt>
      <trkpt lat="44.87341" lon="-0.55848">
        <ele>-7.1</ele>
        <time>2016-12-06T10:30:36Z</time>
      </trkpt>
      <trkpt lat="44.87342" lon="-0.55856">
        <ele>-6.8</ele>
        <time>2016-12-06T10:30:37Z</time>
      </trkpt>
      <trkpt lat="44.87342" lon="-0.55873">
        <ele>-5.8</ele>
        <time>2016-12-06T10:30:39Z</time>
      </trkpt>
      <trkpt lat="44.87339" lon="-0.5588">
        <ele>-5.3</ele>
        <time>2016-12-06T10:30:40Z</time>
      </trkpt>
      <trkpt lat="44.87335" lon="-0.55887">
        <ele>-4.2</ele>
        <time>2016-12-06T10:30:41Z</time>
      </trkpt>
      <trkpt lat="44.87324" lon="-0.55895">
        <ele>-3.7</ele>
        <time>2016-12-06T10:30:43Z</time>
      </trkpt>
      <trkpt lat="44.87313" lon="-0.55902">
        <ele>-3.2</ele>
        <time>2016-12-06T10:30:45Z</time>
      </trkpt>
      <trkpt lat="44.87305" lon="-0.55914">
        <ele>-3</ele>
        <time>2016-12-06T10:30:47Z</time>
      </trkpt>
      <trkpt lat="44.87302" lon="-0.55922">
        <ele>-3</ele>
        <time>2016-12-06T10:30:48Z</time>
      </trkpt>
      <trkpt lat="44.87295" lon="-0.55937">
        <ele>-2.6</ele>
        <time>2016-12-06T10:30:50Z</time>
      </trkpt>
      <trkpt lat="44.87289" lon="-0.55952">
        <ele>-2.2</ele>
        <time>2016-12-06T10:30:52Z</time>
      </trkpt>
      <trkpt lat="44.87283" lon="-0.55966">
        <ele>-2</ele>
        <time>2016-12-06T10:30:54Z</time>
      </trkpt>
      <trkpt lat="44.8728" lon="-0.55973">
        <ele>-1.9</ele>
        <time>2016-12-06T10:30:55Z</time>
      </trkpt>
      <trkpt lat="44.87274" lon="-0.55988">
        <ele>-2.1</ele>
        <time>2016-12-06T10:30:57Z</time>
      </trkpt>
      <trkpt lat="44.8727" lon="-0.55995">
        <ele>-2.2</ele>
        <time>2016-12-06T10:30:58Z</time>
      </trkpt>
      <trkpt lat="44.87265" lon="-0.56009">
        <ele>-2.6</ele>
        <time>2016-12-06T10:31:00Z</time>
      </trkpt>
      <trkpt lat="44.87262" lon="-0.56015">
        <ele>-3.2</ele>
        <time>2016-12-06T10:31:01Z</time>
      </trkpt>
      <trkpt lat="44.8726" lon="-0.56022">
        <ele>-3.5</ele>
        <time>2016-12-06T10:31:02Z</time>
      </trkpt>
      <trkpt lat="44.87254" lon="-0.56035">
        <ele>-4.5</ele>
        <time>2016-12-06T10:31:04Z</time>
      </trkpt>
      <trkpt lat="44.87249" lon="-0.56048">
        <ele>-4</ele>
        <time>2016-12-06T10:31:06Z</time>
      </trkpt>
      <trkpt lat="44.87245" lon="-0.56059">
        <ele>-3.7</ele>
        <time>2016-12-06T10:31:08Z</time>
      </trkpt>
      <trkpt lat="44.87243" lon="-0.56068">
        <ele>-3.5</ele>
        <time>2016-12-06T10:31:10Z</time>
      </trkpt>
      <trkpt lat="44.87241" lon="-0.56079">
        <ele>-4.5</ele>
        <time>2016-12-06T10:31:48Z</time>
      </trkpt>
      <trkpt lat="44.8724" lon="-0.56085">
        <ele>-4.3</ele>
        <time>2016-12-06T10:31:51Z</time>
      </trkpt>
      <trkpt lat="44.87235" lon="-0.56085">
        <ele>-4.6</ele>
        <time>2016-12-06T10:33:40Z</time>
      </trkpt>
      <trkpt lat="44.87231" lon="-0.56092">
        <ele>-5.6</ele>
        <time>2016-12-06T10:33:43Z</time>
      </trkpt>
      <trkpt lat="44.87228" lon="-0.561">
        <ele>-5.9</ele>
        <time>2016-12-06T10:33:45Z</time>
      </trkpt>
      <trkpt lat="44.87224" lon="-0.5611">
        <ele>-6.3</ele>
        <time>2016-12-06T10:33:47Z</time>
      </trkpt>
      <trkpt lat="44.8722" lon="-0.56119">
        <ele>-6.6</ele>
        <time>2016-12-06T10:33:49Z</time>
      </trkpt>
      <trkpt lat="44.87215" lon="-0.5613">
        <ele>-6.1</ele>
        <time>2016-12-06T10:33:51Z</time>
      </trkpt>
      <trkpt lat="44.8721" lon="-0.5614">
        <ele>-6.2</ele>
        <time>2016-12-06T10:33:53Z</time>
      </trkpt>
      <trkpt lat="44.87205" lon="-0.56151">
        <ele>-6.2</ele>
        <time>2016-12-06T10:33:55Z</time>
      </trkpt>
      <trkpt lat="44.872" lon="-0.56162">
        <ele>-6.1</ele>
        <time>2016-12-06T10:33:57Z</time>
      </trkpt>
      <trkpt lat="44.87198" lon="-0.56168">
        <ele>-5.6</ele>
        <time>2016-12-06T10:33:58Z</time>
      </trkpt>
      <trkpt lat="44.87195" lon="-0.56174">
        <ele>-5.3</ele>
        <time>2016-12-06T10:33:59Z</time>
      </trkpt>
      <trkpt lat="44.8719" lon="-0.56187">
        <ele>-6.3</ele>
        <time>2016-12-06T10:34:01Z</time>
      </trkpt>
      <trkpt lat="44.87187" lon="-0.56194">
        <ele>-6.1</ele>
        <time>2016-12-06T10:34:02Z</time>
      </trkpt>
      <trkpt lat="44.87181" lon="-0.56208">
        <ele>-6.2</ele>
        <time>2016-12-06T10:34:04Z</time>
      </trkpt>
      <trkpt lat="44.87178" lon="-0.56214">
        <ele>-6.8</ele>
        <time>2016-12-06T10:34:05Z</time>
      </trkpt>
      <trkpt lat="44.87173" lon="-0.56227">
        <ele>-5.8</ele>
        <time>2016-12-06T10:34:07Z</time>
      </trkpt>
      <trkpt lat="44.87167" lon="-0.56239">
        <ele>-5.9</ele>
        <time>2016-12-06T10:34:09Z</time>
      </trkpt>
      <trkpt lat="44.87162" lon="-0.56251">
        <ele>-5.9</ele>
        <time>2016-12-06T10:34:11Z</time>
      </trkpt>
      <trkpt lat="44.87158" lon="-0.56261">
        <ele>-6.1</ele>
        <time>2016-12-06T10:34:13Z</time>
      </trkpt>
      <trkpt lat="44.87152" lon="-0.56273">
        <ele>-5.9</ele>
        <time>2016-12-06T10:34:15Z</time>
      </trkpt>
      <trkpt lat="44.87146" lon="-0.56287">
        <ele>-5.2</ele>
        <time>2016-12-06T10:34:17Z</time>
      </trkpt>
      <trkpt lat="44.87143" lon="-0.56295">
        <ele>-4.6</ele>
        <time>2016-12-06T10:34:18Z</time>
      </trkpt>
      <trkpt lat="44.8714" lon="-0.56302">
        <ele>-4.9</ele>
        <time>2016-12-06T10:34:19Z</time>
      </trkpt>
      <trkpt lat="44.87134" lon="-0.56316">
        <ele>-4.8</ele>
        <time>2016-12-06T10:34:21Z</time>
      </trkpt>
      <trkpt lat="44.87131" lon="-0.56322">
        <ele>-4.5</ele>
        <time>2016-12-06T10:34:22Z</time>
      </trkpt>
      <trkpt lat="44.87125" lon="-0.56336">
        <ele>-4.6</ele>
        <time>2016-12-06T10:34:24Z</time>
      </trkpt>
      <trkpt lat="44.87123" lon="-0.56342">
        <ele>-4.2</ele>
        <time>2016-12-06T10:34:25Z</time>
      </trkpt>
      <trkpt lat="44.87118" lon="-0.56355">
        <ele>-4.6</ele>
        <time>2016-12-06T10:34:27Z</time>
      </trkpt>
      <trkpt lat="44.87115" lon="-0.56361">
        <ele>-4.3</ele>
        <time>2016-12-06T10:34:28Z</time>
      </trkpt>
      <trkpt lat="44.8711" lon="-0.56372">
        <ele>-4.5</ele>
        <time>2016-12-06T10:34:30Z</time>
      </trkpt>
      <trkpt lat="44.87105" lon="-0.56384">
        <ele>-4.7</ele>
        <time>2016-12-06T10:34:32Z</time>
      </trkpt>
      <trkpt lat="44.87101" lon="-0.56394">
        <ele>-5.4</ele>
        <time>2016-12-06T10:34:34Z</time>
      </trkpt>
      <trkpt lat="44.87097" lon="-0.56404">
        <ele>-6.8</ele>
        <time>2016-12-06T10:34:36Z</time>
      </trkpt>
      <trkpt lat="44.87093" lon="-0.56414">
        <ele>-5.9</ele>
        <time>2016-12-06T10:34:38Z</time>
      </trkpt>
      <trkpt lat="44.87089" lon="-0.56425">
        <ele>-4.5</ele>
        <time>2016-12-06T10:34:40Z</time>
      </trkpt>
      <trkpt lat="44.87085" lon="-0.56432">
        <ele>-5.5</ele>
        <time>2016-12-06T10:34:42Z</time>
      </trkpt>
      <trkpt lat="44.87081" lon="-0.56441">
        <ele>-6.4</ele>
        <time>2016-12-06T10:34:44Z</time>
      </trkpt>
      <trkpt lat="44.87078" lon="-0.5645">
        <ele>-7.5</ele>
        <time>2016-12-06T10:34:46Z</time>
      </trkpt>
      <trkpt lat="44.87076" lon="-0.56455">
        <ele>-7.6</ele>
        <time>2016-12-06T10:34:47Z</time>
      </trkpt>
      <trkpt lat="44.87071" lon="-0.56466">
        <ele>-8.5</ele>
        <time>2016-12-06T10:34:49Z</time>
      </trkpt>
      <trkpt lat="44.87067" lon="-0.56476">
        <ele>-10.2</ele>
        <time>2016-12-06T10:34:51Z</time>
      </trkpt>
      <trkpt lat="44.87063" lon="-0.56488">
        <ele>-9.8</ele>
        <time>2016-12-06T10:34:53Z</time>
      </trkpt>
      <trkpt lat="44.87058" lon="-0.56499">
        <ele>-9.9</ele>
        <time>2016-12-06T10:34:55Z</time>
      </trkpt>
      <trkpt lat="44.87054" lon="-0.56509">
        <ele>-10.7</ele>
        <time>2016-12-06T10:34:57Z</time>
      </trkpt>
      <trkpt lat="44.8705" lon="-0.56519">
        <ele>-11.4</ele>
        <time>2016-12-06T10:34:59Z</time>
      </trkpt>
      <trkpt lat="44.87046" lon="-0.5653">
        <ele>-12</ele>
        <time>2016-12-06T10:35:01Z</time>
      </trkpt>
      <trkpt lat="44.87043" lon="-0.56536">
        <ele>-10.5</ele>
        <time>2016-12-06T10:35:02Z</time>
      </trkpt>
      <trkpt lat="44.8704" lon="-0.56549">
        <ele>-10</ele>
        <time>2016-12-06T10:35:04Z</time>
      </trkpt>
      <trkpt lat="44.87038" lon="-0.56562">
        <ele>-9.4</ele>
        <time>2016-12-06T10:35:06Z</time>
      </trkpt>
      <trkpt lat="44.87037" lon="-0.56568">
        <ele>-9</ele>
        <time>2016-12-06T10:35:07Z</time>
      </trkpt>
      <trkpt lat="44.87038" lon="-0.5658">
        <ele>-8</ele>
        <time>2016-12-06T10:35:09Z</time>
      </trkpt>
      <trkpt lat="44.87039" lon="-0.56592">
        <ele>-7.1</ele>
        <time>2016-12-06T10:35:11Z</time>
      </trkpt>
      <trkpt lat="44.87041" lon="-0.56604">
        <ele>-6.9</ele>
        <time>2016-12-06T10:35:13Z</time>
      </trkpt>
      <trkpt lat="44.87043" lon="-0.56616">
        <ele>-6.9</ele>
        <time>2016-12-06T10:35:15Z</time>
      </trkpt>
      <trkpt lat="44.87044" lon="-0.56627">
        <ele>-6.7</ele>
        <time>2016-12-06T10:35:17Z</time>
      </trkpt>
      <trkpt lat="44.87046" lon="-0.56639">
        <ele>-7</ele>
        <time>2016-12-06T10:35:19Z</time>
      </trkpt>
      <trkpt lat="44.87043" lon="-0.5665">
        <ele>-7.4</ele>
        <time>2016-12-06T10:35:21Z</time>
      </trkpt>
      <trkpt lat="44.87035" lon="-0.56656">
        <ele>-8</ele>
        <time>2016-12-06T10:35:23Z</time>
      </trkpt>
      <trkpt lat="44.87024" lon="-0.5666">
        <ele>-8.6</ele>
        <time>2016-12-06T10:35:25Z</time>
      </trkpt>
      <trkpt lat="44.87013" lon="-0.56665">
        <ele>-8.9</ele>
        <time>2016-12-06T10:35:27Z</time>
      </trkpt>
      <trkpt lat="44.87001" lon="-0.56668">
        <ele>-8.4</ele>
        <time>2016-12-06T10:35:29Z</time>
      </trkpt>
      <trkpt lat="44.86991" lon="-0.56668">
        <ele>-8.3</ele>
        <time>2016-12-06T10:35:31Z</time>
      </trkpt>
      <trkpt lat="44.86982" lon="-0.56664">
        <ele>-8.3</ele>
        <time>2016-12-06T10:35:33Z</time>
      </trkpt>
      <trkpt lat="44.86972" lon="-0.56659">
        <ele>-8.2</ele>
        <time>2016-12-06T10:35:35Z</time>
      </trkpt>
      <trkpt lat="44.86962" lon="-0.56649">
        <ele>-7.6</ele>
        <time>2016-12-06T10:35:37Z</time>
      </trkpt>
      <trkpt lat="44.86952" lon="-0.56637">
        <ele>-7.7</ele>
        <time>2016-12-06T10:35:39Z</time>
      </trkpt>
      <trkpt lat="44.86947" lon="-0.56631">
        <ele>-7.5</ele>
        <time>2016-12-06T10:35:40Z</time>
      </trkpt>
      <trkpt lat="44.86937" lon="-0.56618">
        <ele>-7.2</ele>
        <time>2016-12-06T10:35:42Z</time>
      </trkpt>
      <trkpt lat="44.86928" lon="-0.56604">
        <ele>-6.8</ele>
        <time>2016-12-06T10:35:44Z</time>
      </trkpt>
      <trkpt lat="44.86924" lon="-0.56597">
        <ele>-7</ele>
        <time>2016-12-06T10:35:45Z</time>
      </trkpt>
      <trkpt lat="44.86919" lon="-0.56591">
        <ele>-7.3</ele>
        <time>2016-12-06T10:35:46Z</time>
      </trkpt>
      <trkpt lat="44.86915" lon="-0.56584">
        <ele>-7.4</ele>
        <time>2016-12-06T10:35:47Z</time>
      </trkpt>
      <trkpt lat="44.86906" lon="-0.5657">
        <ele>-7.6</ele>
        <time>2016-12-06T10:35:49Z</time>
      </trkpt>
      <trkpt lat="44.86901" lon="-0.56563">
        <ele>-7.6</ele>
        <time>2016-12-06T10:35:50Z</time>
      </trkpt>
      <trkpt lat="44.86892" lon="-0.5655">
        <ele>-7.6</ele>
        <time>2016-12-06T10:35:52Z</time>
      </trkpt>
      <trkpt lat="44.86883" lon="-0.56537">
        <ele>-7.5</ele>
        <time>2016-12-06T10:35:54Z</time>
      </trkpt>
      <trkpt lat="44.86874" lon="-0.56523">
        <ele>-6.6</ele>
        <time>2016-12-06T10:35:56Z</time>
      </trkpt>
      <trkpt lat="44.86869" lon="-0.56516">
        <ele>-6.5</ele>
        <time>2016-12-06T10:35:57Z</time>
      </trkpt>
      <trkpt lat="44.8686" lon="-0.56502">
        <ele>-6</ele>
        <time>2016-12-06T10:35:59Z</time>
      </trkpt>
      <trkpt lat="44.86851" lon="-0.56488">
        <ele>-6.3</ele>
        <time>2016-12-06T10:36:01Z</time>
      </trkpt>
      <trkpt lat="44.86846" lon="-0.56481">
        <ele>-6.2</ele>
        <time>2016-12-06T10:36:02Z</time>
      </trkpt>
      <trkpt lat="44.86837" lon="-0.56467">
        <ele>-6.2</ele>
        <time>2016-12-06T10:36:04Z</time>
      </trkpt>
      <trkpt lat="44.86832" lon="-0.5646">
        <ele>-5.9</ele>
        <time>2016-12-06T10:36:05Z</time>
      </trkpt>
      <trkpt lat="44.86822" lon="-0.56446">
        <ele>-5.9</ele>
        <time>2016-12-06T10:36:07Z</time>
      </trkpt>
      <trkpt lat="44.86818" lon="-0.56439">
        <ele>-6</ele>
        <time>2016-12-06T10:36:08Z</time>
      </trkpt>
      <trkpt lat="44.86813" lon="-0.56432">
        <ele>-5.9</ele>
        <time>2016-12-06T10:36:09Z</time>
      </trkpt>
      <trkpt lat="44.86805" lon="-0.56418">
        <ele>-6.1</ele>
        <time>2016-12-06T10:36:11Z</time>
      </trkpt>
      <trkpt lat="44.86796" lon="-0.56404">
        <ele>-6.1</ele>
        <time>2016-12-06T10:36:13Z</time>
      </trkpt>
      <trkpt lat="44.86791" lon="-0.56397">
        <ele>-5.8</ele>
        <time>2016-12-06T10:36:14Z</time>
      </trkpt>
      <trkpt lat="44.86782" lon="-0.56382">
        <ele>-5.4</ele>
        <time>2016-12-06T10:36:16Z</time>
      </trkpt>
      <trkpt lat="44.86772" lon="-0.56367">
        <ele>-5.5</ele>
        <time>2016-12-06T10:36:18Z</time>
      </trkpt>
      <trkpt lat="44.86763" lon="-0.56353">
        <ele>-5.5</ele>
        <time>2016-12-06T10:36:20Z</time>
      </trkpt>
      <trkpt lat="44.86758" lon="-0.56346">
        <ele>-5.7</ele>
        <time>2016-12-06T10:36:21Z</time>
      </trkpt>
      <trkpt lat="44.86748" lon="-0.56332">
        <ele>-5.5</ele>
        <time>2016-12-06T10:36:23Z</time>
      </trkpt>
      <trkpt lat="44.86743" lon="-0.56325">
        <ele>-5.8</ele>
        <time>2016-12-06T10:36:24Z</time>
      </trkpt>
      <trkpt lat="44.86734" lon="-0.56312">
        <ele>-6</ele>
        <time>2016-12-06T10:36:26Z</time>
      </trkpt>
      <trkpt lat="44.8673" lon="-0.56306">
        <ele>-6.1</ele>
        <time>2016-12-06T10:36:27Z</time>
      </trkpt>
      <trkpt lat="44.86726" lon="-0.56299">
        <ele>-6.1</ele>
        <time>2016-12-06T10:36:28Z</time>
      </trkpt>
      <trkpt lat="44.86717" lon="-0.56286">
        <ele>-6.3</ele>
        <time>2016-12-06T10:36:30Z</time>
      </trkpt>
      <trkpt lat="44.86709" lon="-0.56274">
        <ele>-6.3</ele>
        <time>2016-12-06T10:36:32Z</time>
      </trkpt>
      <trkpt lat="44.867" lon="-0.56261">
        <ele>-6.3</ele>
        <time>2016-12-06T10:36:34Z</time>
      </trkpt>
      <trkpt lat="44.86691" lon="-0.56248">
        <ele>-6.4</ele>
        <time>2016-12-06T10:36:36Z</time>
      </trkpt>
      <trkpt lat="44.86687" lon="-0.56241">
        <ele>-6</ele>
        <time>2016-12-06T10:36:37Z</time>
      </trkpt>
      <trkpt lat="44.86677" lon="-0.56228">
        <ele>-5.6</ele>
        <time>2016-12-06T10:36:39Z</time>
      </trkpt>
      <trkpt lat="44.86672" lon="-0.56222">
        <ele>-5.4</ele>
        <time>2016-12-06T10:36:40Z</time>
      </trkpt>
      <trkpt lat="44.86667" lon="-0.56216">
        <ele>-5.3</ele>
        <time>2016-12-06T10:36:41Z</time>
      </trkpt>
      <trkpt lat="44.86658" lon="-0.56205">
        <ele>-5.1</ele>
        <time>2016-12-06T10:36:43Z</time>
      </trkpt>
      <trkpt lat="44.86649" lon="-0.56194">
        <ele>-5.2</ele>
        <time>2016-12-06T10:36:45Z</time>
      </trkpt>
      <trkpt lat="44.86645" lon="-0.56189">
        <ele>-5</ele>
        <time>2016-12-06T10:36:46Z</time>
      </trkpt>
      <trkpt lat="44.86641" lon="-0.56183">
        <ele>-5</ele>
        <time>2016-12-06T10:36:47Z</time>
      </trkpt>
      <trkpt lat="44.86634" lon="-0.56175">
        <ele>-5</ele>
        <time>2016-12-06T10:36:49Z</time>
      </trkpt>
      <trkpt lat="44.86628" lon="-0.56168">
        <ele>-5.4</ele>
        <time>2016-12-06T10:37:16Z</time>
      </trkpt>
      <trkpt lat="44.86623" lon="-0.56161">
        <ele>-6.1</ele>
        <time>2016-12-06T10:37:18Z</time>
      </trkpt>
      <trkpt lat="44.86619" lon="-0.56156">
        <ele>-6.4</ele>
        <time>2016-12-06T10:37:19Z</time>
      </trkpt>
      <trkpt lat="44.86612" lon="-0.56145">
        <ele>-6.8</ele>
        <time>2016-12-06T10:37:21Z</time>
      </trkpt>
      <trkpt lat="44.86604" lon="-0.56131">
        <ele>-7</ele>
        <time>2016-12-06T10:37:23Z</time>
      </trkpt>
      <trkpt lat="44.86595" lon="-0.56117">
        <ele>-6.9</ele>
        <time>2016-12-06T10:37:25Z</time>
      </trkpt>
      <trkpt lat="44.86591" lon="-0.5611">
        <ele>-6.8</ele>
        <time>2016-12-06T10:37:26Z</time>
      </trkpt>
      <trkpt lat="44.86582" lon="-0.56095">
        <ele>-6.8</ele>
        <time>2016-12-06T10:37:28Z</time>
      </trkpt>
      <trkpt lat="44.86578" lon="-0.56088">
        <ele>-6.9</ele>
        <time>2016-12-06T10:37:29Z</time>
      </trkpt>
      <trkpt lat="44.86572" lon="-0.5608">
        <ele>-6.9</ele>
        <time>2016-12-06T10:37:30Z</time>
      </trkpt>
      <trkpt lat="44.86562" lon="-0.56065">
        <ele>-7.1</ele>
        <time>2016-12-06T10:37:32Z</time>
      </trkpt>
      <trkpt lat="44.86551" lon="-0.5605">
        <ele>-7</ele>
        <time>2016-12-06T10:37:34Z</time>
      </trkpt>
      <trkpt lat="44.86545" lon="-0.56042">
        <ele>-7.1</ele>
        <time>2016-12-06T10:37:35Z</time>
      </trkpt>
      <trkpt lat="44.8654" lon="-0.56035">
        <ele>-7.1</ele>
        <time>2016-12-06T10:37:36Z</time>
      </trkpt>
      <trkpt lat="44.86535" lon="-0.56027">
        <ele>-7.2</ele>
        <time>2016-12-06T10:37:37Z</time>
      </trkpt>
      <trkpt lat="44.86523" lon="-0.56011">
        <ele>-6.9</ele>
        <time>2016-12-06T10:37:39Z</time>
      </trkpt>
      <trkpt lat="44.86512" lon="-0.55996">
        <ele>-7.1</ele>
        <time>2016-12-06T10:37:41Z</time>
      </trkpt>
      <trkpt lat="44.86507" lon="-0.55987">
        <ele>-7.2</ele>
        <time>2016-12-06T10:37:42Z</time>
      </trkpt>
      <trkpt lat="44.86501" lon="-0.55979">
        <ele>-7.2</ele>
        <time>2016-12-06T10:37:43Z</time>
      </trkpt>
      <trkpt lat="44.8649" lon="-0.55962">
        <ele>-7.1</ele>
        <time>2016-12-06T10:37:45Z</time>
      </trkpt>
      <trkpt lat="44.86479" lon="-0.55946">
        <ele>-7.1</ele>
        <time>2016-12-06T10:37:47Z</time>
      </trkpt>
      <trkpt lat="44.86474" lon="-0.55938">
        <ele>-7.1</ele>
        <time>2016-12-06T10:37:48Z</time>
      </trkpt>
      <trkpt lat="44.86465" lon="-0.55924">
        <ele>-7.1</ele>
        <time>2016-12-06T10:37:50Z</time>
      </trkpt>
      <trkpt lat="44.86457" lon="-0.55913">
        <ele>-6.7</ele>
        <time>2016-12-06T10:37:52Z</time>
      </trkpt>
      <trkpt lat="44.8645" lon="-0.55905">
        <ele>-6.2</ele>
        <time>2016-12-06T10:37:54Z</time>
      </trkpt>
      <trkpt lat="44.86445" lon="-0.559">
        <ele>-6</ele>
        <time>2016-12-06T10:37:56Z</time>
      </trkpt>
      <trkpt lat="44.8644" lon="-0.55895">
        <ele>-5.8</ele>
        <time>2016-12-06T10:37:59Z</time>
      </trkpt>
      <trkpt lat="44.86436" lon="-0.5589">
        <ele>-5.6</ele>
        <time>2016-12-06T10:38:01Z</time>
      </trkpt>
      <trkpt lat="44.86431" lon="-0.55886">
        <ele>-4.2</ele>
        <time>2016-12-06T10:38:12Z</time>
      </trkpt>
      <trkpt lat="44.86426" lon="-0.5588">
        <ele>-4.7</ele>
        <time>2016-12-06T10:38:14Z</time>
      </trkpt>
      <trkpt lat="44.86423" lon="-0.55875">
        <ele>-5.1</ele>
        <time>2016-12-06T10:38:15Z</time>
      </trkpt>
      <trkpt lat="44.86414" lon="-0.55863">
        <ele>-5.6</ele>
        <time>2016-12-06T10:38:17Z</time>
      </trkpt>
      <trkpt lat="44.86404" lon="-0.55852">
        <ele>-5.3</ele>
        <time>2016-12-06T10:38:19Z</time>
      </trkpt>
      <trkpt lat="44.86393" lon="-0.55839">
        <ele>-5.4</ele>
        <time>2016-12-06T10:38:21Z</time>
      </trkpt>
      <trkpt lat="44.86382" lon="-0.55826">
        <ele>-5</ele>
        <time>2016-12-06T10:38:23Z</time>
      </trkpt>
      <trkpt lat="44.8637" lon="-0.55813">
        <ele>-4.5</ele>
        <time>2016-12-06T10:38:25Z</time>
      </trkpt>
      <trkpt lat="44.86364" lon="-0.55806">
        <ele>-4.2</ele>
        <time>2016-12-06T10:38:26Z</time>
      </trkpt>
      <trkpt lat="44.86358" lon="-0.55799">
        <ele>-4.2</ele>
        <time>2016-12-06T10:38:27Z</time>
      </trkpt>
      <trkpt lat="44.86347" lon="-0.55785">
        <ele>-3.9</ele>
        <time>2016-12-06T10:38:29Z</time>
      </trkpt>
      <trkpt lat="44.86336" lon="-0.55771">
        <ele>-3.2</ele>
        <time>2016-12-06T10:38:31Z</time>
      </trkpt>
      <trkpt lat="44.86324" lon="-0.55757">
        <ele>-2.6</ele>
        <time>2016-12-06T10:38:33Z</time>
      </trkpt>
      <trkpt lat="44.86313" lon="-0.55743">
        <ele>-1.9</ele>
        <time>2016-12-06T10:38:35Z</time>
      </trkpt>
      <trkpt lat="44.86308" lon="-0.55737">
        <ele>-1.6</ele>
        <time>2016-12-06T10:38:36Z</time>
      </trkpt>
      <trkpt lat="44.86302" lon="-0.5573">
        <ele>-1.4</ele>
        <time>2016-12-06T10:38:37Z</time>
      </trkpt>
      <trkpt lat="44.86291" lon="-0.55718">
        <ele>-0.9</ele>
        <time>2016-12-06T10:38:39Z</time>
      </trkpt>
      <trkpt lat="44.8628" lon="-0.55705">
        <ele>-0.5</ele>
        <time>2016-12-06T10:38:41Z</time>
      </trkpt>
      <trkpt lat="44.8627" lon="-0.55694">
        <ele>0.1</ele>
        <time>2016-12-06T10:38:43Z</time>
      </trkpt>
      <trkpt lat="44.86261" lon="-0.55684">
        <ele>0.6</ele>
        <time>2016-12-06T10:38:45Z</time>
      </trkpt>
      <trkpt lat="44.86251" lon="-0.55673">
        <ele>0.9</ele>
        <time>2016-12-06T10:38:47Z</time>
      </trkpt>
      <trkpt lat="44.86242" lon="-0.55662">
        <ele>1.4</ele>
        <time>2016-12-06T10:38:49Z</time>
      </trkpt>
      <trkpt lat="44.86233" lon="-0.5565">
        <ele>2</ele>
        <time>2016-12-06T10:38:51Z</time>
      </trkpt>
      <trkpt lat="44.86228" lon="-0.55644">
        <ele>2.3</ele>
        <time>2016-12-06T10:38:52Z</time>
      </trkpt>
      <trkpt lat="44.86219" lon="-0.55633">
        <ele>2.6</ele>
        <time>2016-12-06T10:38:54Z</time>
      </trkpt>
      <trkpt lat="44.86214" lon="-0.55627">
        <ele>2.6</ele>
        <time>2016-12-06T10:38:55Z</time>
      </trkpt>
      <trkpt lat="44.86203" lon="-0.55614">
        <ele>2.9</ele>
        <time>2016-12-06T10:38:57Z</time>
      </trkpt>
      <trkpt lat="44.8619" lon="-0.556">
        <ele>2.3</ele>
        <time>2016-12-06T10:38:59Z</time>
      </trkpt>
      <trkpt lat="44.86181" lon="-0.55588">
        <ele>0.7</ele>
        <time>2016-12-06T10:39:01Z</time>
      </trkpt>
      <trkpt lat="44.86172" lon="-0.55579">
        <ele>-0.1</ele>
        <time>2016-12-06T10:39:03Z</time>
      </trkpt>
      <trkpt lat="44.86166" lon="-0.55573">
        <ele>-0.5</ele>
        <time>2016-12-06T10:39:05Z</time>
      </trkpt>
      <trkpt lat="44.86161" lon="-0.55568">
        <ele>5</ele>
        <time>2016-12-06T10:39:07Z</time>
      </trkpt>
      <trkpt lat="44.86158" lon="-0.55561">
        <ele>1.8</ele>
        <time>2016-12-06T10:39:09Z</time>
      </trkpt>
      <trkpt lat="44.86152" lon="-0.55557">
        <ele>2.9</ele>
        <time>2016-12-06T10:39:12Z</time>
      </trkpt>
      <trkpt lat="44.86147" lon="-0.55551">
        <ele>3.4</ele>
        <time>2016-12-06T10:39:15Z</time>
      </trkpt>
      <trkpt lat="44.86142" lon="-0.55544">
        <ele>4.2</ele>
        <time>2016-12-06T10:39:17Z</time>
      </trkpt>
      <trkpt lat="44.86137" lon="-0.55538">
        <ele>5.1</ele>
        <time>2016-12-06T10:39:19Z</time>
      </trkpt>
      <trkpt lat="44.86133" lon="-0.55534">
        <ele>5.4</ele>
        <time>2016-12-06T10:39:21Z</time>
      </trkpt>
      <trkpt lat="44.8613" lon="-0.55529">
        <ele>6</ele>
        <time>2016-12-06T10:39:24Z</time>
      </trkpt>
      <trkpt lat="44.86125" lon="-0.55525">
        <ele>6.1</ele>
        <time>2016-12-06T10:41:07Z</time>
      </trkpt>
      <trkpt lat="44.86119" lon="-0.55517">
        <ele>5.8</ele>
        <time>2016-12-06T10:41:09Z</time>
      </trkpt>
      <trkpt lat="44.86109" lon="-0.55506">
        <ele>5.6</ele>
        <time>2016-12-06T10:41:11Z</time>
      </trkpt>
      <trkpt lat="44.86098" lon="-0.55492">
        <ele>5.2</ele>
        <time>2016-12-06T10:41:13Z</time>
      </trkpt>
      <trkpt lat="44.86087" lon="-0.55478">
        <ele>5</ele>
        <time>2016-12-06T10:41:15Z</time>
      </trkpt>
      <trkpt lat="44.86077" lon="-0.55467">
        <ele>4.4</ele>
        <time>2016-12-06T10:41:17Z</time>
      </trkpt>
      <trkpt lat="44.86069" lon="-0.55458">
        <ele>4.1</ele>
        <time>2016-12-06T10:41:19Z</time>
      </trkpt>
      <trkpt lat="44.86061" lon="-0.5545">
        <ele>3.9</ele>
        <time>2016-12-06T10:41:21Z</time>
      </trkpt>
      <trkpt lat="44.86057" lon="-0.55446">
        <ele>4.3</ele>
        <time>2016-12-06T10:41:22Z</time>
      </trkpt>
      <trkpt lat="44.86052" lon="-0.5544">
        <ele>4.2</ele>
        <time>2016-12-06T10:41:24Z</time>
      </trkpt>
      <trkpt lat="44.86046" lon="-0.55433">
        <ele>3.5</ele>
        <time>2016-12-06T10:42:25Z</time>
      </trkpt>
      <trkpt lat="44.86039" lon="-0.55426">
        <ele>2.9</ele>
        <time>2016-12-06T10:42:27Z</time>
      </trkpt>
      <trkpt lat="44.86034" lon="-0.55421">
        <ele>2.7</ele>
        <time>2016-12-06T10:42:28Z</time>
      </trkpt>
      <trkpt lat="44.86024" lon="-0.55412">
        <ele>2.2</ele>
        <time>2016-12-06T10:42:30Z</time>
      </trkpt>
      <trkpt lat="44.86018" lon="-0.55407">
        <ele>2.1</ele>
        <time>2016-12-06T10:42:31Z</time>
      </trkpt>
      <trkpt lat="44.86007" lon="-0.55397">
        <ele>1.8</ele>
        <time>2016-12-06T10:42:33Z</time>
      </trkpt>
      <trkpt lat="44.86001" lon="-0.55391">
        <ele>1.7</ele>
        <time>2016-12-06T10:42:34Z</time>
      </trkpt>
      <trkpt lat="44.85988" lon="-0.55381">
        <ele>2.5</ele>
        <time>2016-12-06T10:42:36Z</time>
      </trkpt>
      <trkpt lat="44.85976" lon="-0.5537">
        <ele>4.7</ele>
        <time>2016-12-06T10:42:38Z</time>
      </trkpt>
      <trkpt lat="44.85965" lon="-0.55357">
        <ele>6.2</ele>
        <time>2016-12-06T10:42:40Z</time>
      </trkpt>
      <trkpt lat="44.85954" lon="-0.55345">
        <ele>6.7</ele>
        <time>2016-12-06T10:42:42Z</time>
      </trkpt>
      <trkpt lat="44.85948" lon="-0.55338">
        <ele>6.8</ele>
        <time>2016-12-06T10:42:43Z</time>
      </trkpt>
      <trkpt lat="44.85937" lon="-0.55326">
        <ele>7.5</ele>
        <time>2016-12-06T10:42:45Z</time>
      </trkpt>
      <trkpt lat="44.85925" lon="-0.55313">
        <ele>8.4</ele>
        <time>2016-12-06T10:42:47Z</time>
      </trkpt>
      <trkpt lat="44.85916" lon="-0.55303">
        <ele>9</ele>
        <time>2016-12-06T10:42:49Z</time>
      </trkpt>
      <trkpt lat="44.85911" lon="-0.55298">
        <ele>9.5</ele>
        <time>2016-12-06T10:42:50Z</time>
      </trkpt>
      <trkpt lat="44.85903" lon="-0.55289">
        <ele>9.6</ele>
        <time>2016-12-06T10:42:52Z</time>
      </trkpt>
      <trkpt lat="44.85899" lon="-0.55285">
        <ele>9.8</ele>
        <time>2016-12-06T10:42:53Z</time>
      </trkpt>
      <trkpt lat="44.85892" lon="-0.55278">
        <ele>10.1</ele>
        <time>2016-12-06T10:42:55Z</time>
      </trkpt>
      <trkpt lat="44.85885" lon="-0.55271">
        <ele>10.5</ele>
        <time>2016-12-06T10:42:57Z</time>
      </trkpt>
      <trkpt lat="44.85879" lon="-0.55264">
        <ele>10.2</ele>
        <time>2016-12-06T10:42:59Z</time>
      </trkpt>
      <trkpt lat="44.85873" lon="-0.55258">
        <ele>10.4</ele>
        <time>2016-12-06T10:43:01Z</time>
      </trkpt>
      <trkpt lat="44.85867" lon="-0.55253">
        <ele>10.6</ele>
        <time>2016-12-06T10:43:03Z</time>
      </trkpt>
      <trkpt lat="44.85861" lon="-0.55246">
        <ele>10.8</ele>
        <time>2016-12-06T10:43:05Z</time>
      </trkpt>
      <trkpt lat="44.85855" lon="-0.55239">
        <ele>10.4</ele>
        <time>2016-12-06T10:43:07Z</time>
      </trkpt>
      <trkpt lat="44.85849" lon="-0.55232">
        <ele>9.3</ele>
        <time>2016-12-06T10:43:09Z</time>
      </trkpt>
      <trkpt lat="44.85843" lon="-0.55225">
        <ele>8.8</ele>
        <time>2016-12-06T10:43:11Z</time>
      </trkpt>
      <trkpt lat="44.85836" lon="-0.55218">
        <ele>8.2</ele>
        <time>2016-12-06T10:43:13Z</time>
      </trkpt>
      <trkpt lat="44.85831" lon="-0.55213">
        <ele>7.7</ele>
        <time>2016-12-06T10:43:15Z</time>
      </trkpt>
      <trkpt lat="44.85826" lon="-0.55207">
        <ele>7.7</ele>
        <time>2016-12-06T10:43:17Z</time>
      </trkpt>
      <trkpt lat="44.8582" lon="-0.55201">
        <ele>7.7</ele>
        <time>2016-12-06T10:43:19Z</time>
      </trkpt>
      <trkpt lat="44.85814" lon="-0.55195">
        <ele>7.5</ele>
        <time>2016-12-06T10:43:21Z</time>
      </trkpt>
      <trkpt lat="44.85808" lon="-0.55189">
        <ele>7.4</ele>
        <time>2016-12-06T10:43:24Z</time>
      </trkpt>
      <trkpt lat="44.85802" lon="-0.55182">
        <ele>6.9</ele>
        <time>2016-12-06T10:43:25Z</time>
      </trkpt>
      <trkpt lat="44.85795" lon="-0.55175">
        <ele>6.8</ele>
        <time>2016-12-06T10:43:27Z</time>
      </trkpt>
      <trkpt lat="44.85789" lon="-0.55168">
        <ele>6.7</ele>
        <time>2016-12-06T10:43:29Z</time>
      </trkpt>
      <trkpt lat="44.85782" lon="-0.5516">
        <ele>6.5</ele>
        <time>2016-12-06T10:43:31Z</time>
      </trkpt>
      <trkpt lat="44.85778" lon="-0.55155">
        <ele>6.3</ele>
        <time>2016-12-06T10:43:32Z</time>
      </trkpt>
      <trkpt lat="44.85771" lon="-0.55147">
        <ele>6</ele>
        <time>2016-12-06T10:43:34Z</time>
      </trkpt>
      <trkpt lat="44.85767" lon="-0.55142">
        <ele>5.8</ele>
        <time>2016-12-06T10:43:35Z</time>
      </trkpt>
      <trkpt lat="44.85759" lon="-0.55133">
        <ele>4.9</ele>
        <time>2016-12-06T10:43:37Z</time>
      </trkpt>
      <trkpt lat="44.85755" lon="-0.55128">
        <ele>4.6</ele>
        <time>2016-12-06T10:43:38Z</time>
      </trkpt>
      <trkpt lat="44.85751" lon="-0.55124">
        <ele>4.5</ele>
        <time>2016-12-06T10:43:39Z</time>
      </trkpt>
      <trkpt lat="44.85742" lon="-0.55114">
        <ele>4.1</ele>
        <time>2016-12-06T10:43:41Z</time>
      </trkpt>
      <trkpt lat="44.85734" lon="-0.55104">
        <ele>3.4</ele>
        <time>2016-12-06T10:43:43Z</time>
      </trkpt>
      <trkpt lat="44.85724" lon="-0.55094">
        <ele>3.2</ele>
        <time>2016-12-06T10:43:45Z</time>
      </trkpt>
      <trkpt lat="44.8572" lon="-0.55088">
        <ele>3</ele>
        <time>2016-12-06T10:43:46Z</time>
      </trkpt>
      <trkpt lat="44.8571" lon="-0.55078">
        <ele>2.4</ele>
        <time>2016-12-06T10:43:48Z</time>
      </trkpt>
      <trkpt lat="44.857" lon="-0.55068">
        <ele>1.6</ele>
        <time>2016-12-06T10:43:50Z</time>
      </trkpt>
      <trkpt lat="44.85695" lon="-0.55062">
        <ele>1.3</ele>
        <time>2016-12-06T10:43:51Z</time>
      </trkpt>
      <trkpt lat="44.85685" lon="-0.55052">
        <ele>0.4</ele>
        <time>2016-12-06T10:43:53Z</time>
      </trkpt>
      <trkpt lat="44.85676" lon="-0.55041">
        <ele>-0.1</ele>
        <time>2016-12-06T10:43:55Z</time>
      </trkpt>
      <trkpt lat="44.85666" lon="-0.55031">
        <ele>-0.7</ele>
        <time>2016-12-06T10:43:57Z</time>
      </trkpt>
      <trkpt lat="44.85661" lon="-0.55026">
        <ele>-1</ele>
        <time>2016-12-06T10:43:58Z</time>
      </trkpt>
      <trkpt lat="44.85651" lon="-0.55015">
        <ele>-1.7</ele>
        <time>2016-12-06T10:44:00Z</time>
      </trkpt>
      <trkpt lat="44.85646" lon="-0.5501">
        <ele>-2.1</ele>
        <time>2016-12-06T10:44:01Z</time>
      </trkpt>
      <trkpt lat="44.8564" lon="-0.55004">
        <ele>-2.3</ele>
        <time>2016-12-06T10:44:02Z</time>
      </trkpt>
      <trkpt lat="44.8563" lon="-0.54993">
        <ele>-3.3</ele>
        <time>2016-12-06T10:44:04Z</time>
      </trkpt>
      <trkpt lat="44.85625" lon="-0.54988">
        <ele>-3.3</ele>
        <time>2016-12-06T10:44:05Z</time>
      </trkpt>
      <trkpt lat="44.85614" lon="-0.54978">
        <ele>-3.6</ele>
        <time>2016-12-06T10:44:07Z</time>
      </trkpt>
      <trkpt lat="44.8561" lon="-0.54974">
        <ele>-4</ele>
        <time>2016-12-06T10:44:08Z</time>
      </trkpt>
      <trkpt lat="44.85605" lon="-0.54972">
        <ele>-4.2</ele>
        <time>2016-12-06T10:44:10Z</time>
      </trkpt>
      <trkpt lat="44.85607" lon="-0.54981">
        <ele>-5.3</ele>
        <time>2016-12-06T10:44:13Z</time>
      </trkpt>
      <trkpt lat="44.85614" lon="-0.54988">
        <ele>-5.4</ele>
        <time>2016-12-06T10:44:15Z</time>
      </trkpt>
      <trkpt lat="44.85618" lon="-0.55">
        <ele>-5.4</ele>
        <time>2016-12-06T10:44:17Z</time>
      </trkpt>
      <trkpt lat="44.85616" lon="-0.55007">
        <ele>-5.5</ele>
        <time>2016-12-06T10:44:18Z</time>
      </trkpt>
      <trkpt lat="44.85612" lon="-0.55018">
        <ele>-5.5</ele>
        <time>2016-12-06T10:44:20Z</time>
      </trkpt>
      <trkpt lat="44.85608" lon="-0.5503">
        <ele>-5.5</ele>
        <time>2016-12-06T10:44:22Z</time>
      </trkpt>
      <trkpt lat="44.85606" lon="-0.55036">
        <ele>-5.7</ele>
        <time>2016-12-06T10:44:23Z</time>
      </trkpt>
      <trkpt lat="44.856" lon="-0.55049">
        <ele>-4.8</ele>
        <time>2016-12-06T10:44:25Z</time>
      </trkpt>
      <trkpt lat="44.85595" lon="-0.55062">
        <ele>-4.7</ele>
        <time>2016-12-06T10:44:27Z</time>
      </trkpt>
      <trkpt lat="44.85593" lon="-0.55067">
        <ele>-4.6</ele>
        <time>2016-12-06T10:44:28Z</time>
      </trkpt>
      <trkpt lat="44.8559" lon="-0.55073">
        <ele>-4.3</ele>
        <time>2016-12-06T10:44:29Z</time>
      </trkpt>
      <trkpt lat="44.85586" lon="-0.55085">
        <ele>-4.1</ele>
        <time>2016-12-06T10:44:31Z</time>
      </trkpt>
      <trkpt lat="44.85583" lon="-0.5509">
        <ele>-3.9</ele>
        <time>2016-12-06T10:44:32Z</time>
      </trkpt>
      <trkpt lat="44.85579" lon="-0.55102">
        <ele>-3.6</ele>
        <time>2016-12-06T10:44:34Z</time>
      </trkpt>
      <trkpt lat="44.85576" lon="-0.55107">
        <ele>-3.5</ele>
        <time>2016-12-06T10:44:35Z</time>
      </trkpt>
      <trkpt lat="44.85571" lon="-0.5512">
        <ele>-3.3</ele>
        <time>2016-12-06T10:44:37Z</time>
      </trkpt>
      <trkpt lat="44.85566" lon="-0.55134">
        <ele>-3.2</ele>
        <time>2016-12-06T10:44:39Z</time>
      </trkpt>
      <trkpt lat="44.8556" lon="-0.55148">
        <ele>-3.3</ele>
        <time>2016-12-06T10:44:41Z</time>
      </trkpt>
      <trkpt lat="44.85557" lon="-0.55155">
        <ele>-3.2</ele>
        <time>2016-12-06T10:44:42Z</time>
      </trkpt>
      <trkpt lat="44.85555" lon="-0.55163">
        <ele>-3.2</ele>
        <time>2016-12-06T10:44:43Z</time>
      </trkpt>
      <trkpt lat="44.85549" lon="-0.55177">
        <ele>-3</ele>
        <time>2016-12-06T10:44:45Z</time>
      </trkpt>
      <trkpt lat="44.85544" lon="-0.5519">
        <ele>-3.4</ele>
        <time>2016-12-06T10:44:47Z</time>
      </trkpt>
      <trkpt lat="44.85541" lon="-0.55197">
        <ele>-3.7</ele>
        <time>2016-12-06T10:44:48Z</time>
      </trkpt>
      <trkpt lat="44.85535" lon="-0.55211">
        <ele>-4</ele>
        <time>2016-12-06T10:44:50Z</time>
      </trkpt>
      <trkpt lat="44.85529" lon="-0.55225">
        <ele>-4.2</ele>
        <time>2016-12-06T10:44:52Z</time>
      </trkpt>
      <trkpt lat="44.85527" lon="-0.55232">
        <ele>-4.3</ele>
        <time>2016-12-06T10:44:53Z</time>
      </trkpt>
      <trkpt lat="44.85521" lon="-0.55246">
        <ele>-4.6</ele>
        <time>2016-12-06T10:44:55Z</time>
      </trkpt>
      <trkpt lat="44.85515" lon="-0.5526">
        <ele>-4.6</ele>
        <time>2016-12-06T10:44:57Z</time>
      </trkpt>
      <trkpt lat="44.85512" lon="-0.55267">
        <ele>-4.7</ele>
        <time>2016-12-06T10:44:58Z</time>
      </trkpt>
      <trkpt lat="44.85506" lon="-0.5528">
        <ele>-4.4</ele>
        <time>2016-12-06T10:45:00Z</time>
      </trkpt>
      <trkpt lat="44.85504" lon="-0.55286">
        <ele>-4.5</ele>
        <time>2016-12-06T10:45:01Z</time>
      </trkpt>
      <trkpt lat="44.85498" lon="-0.55299">
        <ele>-5.1</ele>
        <time>2016-12-06T10:45:03Z</time>
      </trkpt>
      <trkpt lat="44.85493" lon="-0.55312">
        <ele>-5.1</ele>
        <time>2016-12-06T10:45:05Z</time>
      </trkpt>
      <trkpt lat="44.85491" lon="-0.55319">
        <ele>-5</ele>
        <time>2016-12-06T10:45:06Z</time>
      </trkpt>
      <trkpt lat="44.85488" lon="-0.55325">
        <ele>-5.2</ele>
        <time>2016-12-06T10:45:07Z</time>
      </trkpt>
      <trkpt lat="44.85483" lon="-0.55338">
        <ele>-5.2</ele>
        <time>2016-12-06T10:45:09Z</time>
      </trkpt>
      <trkpt lat="44.85478" lon="-0.5535">
        <ele>-5.3</ele>
        <time>2016-12-06T10:45:11Z</time>
      </trkpt>
      <trkpt lat="44.85473" lon="-0.55363">
        <ele>-4.3</ele>
        <time>2016-12-06T10:45:13Z</time>
      </trkpt>
      <trkpt lat="44.85467" lon="-0.55376">
        <ele>-3.8</ele>
        <time>2016-12-06T10:45:15Z</time>
      </trkpt>
      <trkpt lat="44.85462" lon="-0.5539">
        <ele>-3.2</ele>
        <time>2016-12-06T10:45:17Z</time>
      </trkpt>
      <trkpt lat="44.85458" lon="-0.55403">
        <ele>-2.9</ele>
        <time>2016-12-06T10:45:19Z</time>
      </trkpt>
      <trkpt lat="44.85453" lon="-0.55415">
        <ele>-1.8</ele>
        <time>2016-12-06T10:45:21Z</time>
      </trkpt>
      <trkpt lat="44.85451" lon="-0.55421">
        <ele>-1.4</ele>
        <time>2016-12-06T10:45:22Z</time>
      </trkpt>
      <trkpt lat="44.85449" lon="-0.55427">
        <ele>-1.5</ele>
        <time>2016-12-06T10:45:23Z</time>
      </trkpt>
      <trkpt lat="44.85445" lon="-0.55438">
        <ele>-0.6</ele>
        <time>2016-12-06T10:45:25Z</time>
      </trkpt>
      <trkpt lat="44.8544" lon="-0.5545">
        <ele>-0.2</ele>
        <time>2016-12-06T10:45:27Z</time>
      </trkpt>
      <trkpt lat="44.85434" lon="-0.55463">
        <ele>-0.1</ele>
        <time>2016-12-06T10:45:29Z</time>
      </trkpt>
      <trkpt lat="44.85431" lon="-0.5547">
        <ele>-0.2</ele>
        <time>2016-12-06T10:45:30Z</time>
      </trkpt>
      <trkpt lat="44.85428" lon="-0.55477">
        <ele>-0.2</ele>
        <time>2016-12-06T10:45:31Z</time>
      </trkpt>
      <trkpt lat="44.85423" lon="-0.5549">
        <ele>-0.4</ele>
        <time>2016-12-06T10:45:33Z</time>
      </trkpt>
      <trkpt lat="44.85419" lon="-0.55502">
        <ele>-0.7</ele>
        <time>2016-12-06T10:45:35Z</time>
      </trkpt>
      <trkpt lat="44.85416" lon="-0.55509">
        <ele>-0.6</ele>
        <time>2016-12-06T10:45:36Z</time>
      </trkpt>
      <trkpt lat="44.8541" lon="-0.55521">
        <ele>-0.8</ele>
        <time>2016-12-06T10:45:38Z</time>
      </trkpt>
      <trkpt lat="44.85405" lon="-0.55533">
        <ele>-0.8</ele>
        <time>2016-12-06T10:45:40Z</time>
      </trkpt>
      <trkpt lat="44.85402" lon="-0.5554">
        <ele>-1.1</ele>
        <time>2016-12-06T10:45:41Z</time>
      </trkpt>
      <trkpt lat="44.85397" lon="-0.55552">
        <ele>-1.5</ele>
        <time>2016-12-06T10:45:43Z</time>
      </trkpt>
      <trkpt lat="44.85394" lon="-0.55558">
        <ele>-1.2</ele>
        <time>2016-12-06T10:45:44Z</time>
      </trkpt>
      <trkpt lat="44.85392" lon="-0.55564">
        <ele>-1</ele>
        <time>2016-12-06T10:45:45Z</time>
      </trkpt>
      <trkpt lat="44.85387" lon="-0.55575">
        <ele>-0.7</ele>
        <time>2016-12-06T10:45:47Z</time>
      </trkpt>
      <trkpt lat="44.85384" lon="-0.55581">
        <ele>-1</ele>
        <time>2016-12-06T10:45:48Z</time>
      </trkpt>
      <trkpt lat="44.85381" lon="-0.55587">
        <ele>-1.1</ele>
        <time>2016-12-06T10:45:49Z</time>
      </trkpt>
      <trkpt lat="44.85376" lon="-0.55599">
        <ele>-1.3</ele>
        <time>2016-12-06T10:45:51Z</time>
      </trkpt>
      <trkpt lat="44.8537" lon="-0.55612">
        <ele>-1.1</ele>
        <time>2016-12-06T10:45:53Z</time>
      </trkpt>
      <trkpt lat="44.85367" lon="-0.55619">
        <ele>-1.3</ele>
        <time>2016-12-06T10:45:54Z</time>
      </trkpt>
      <trkpt lat="44.85364" lon="-0.55625">
        <ele>-1.2</ele>
        <time>2016-12-06T10:45:55Z</time>
      </trkpt>
      <trkpt lat="44.85358" lon="-0.55637">
        <ele>-1.4</ele>
        <time>2016-12-06T10:45:57Z</time>
      </trkpt>
      <trkpt lat="44.85353" lon="-0.55649">
        <ele>-1.1</ele>
        <time>2016-12-06T10:45:59Z</time>
      </trkpt>
      <trkpt lat="44.85348" lon="-0.5566">
        <ele>-0.7</ele>
        <time>2016-12-06T10:46:01Z</time>
      </trkpt>
      <trkpt lat="44.85345" lon="-0.55666">
        <ele>-0.5</ele>
        <time>2016-12-06T10:46:02Z</time>
      </trkpt>
      <trkpt lat="44.85343" lon="-0.55672">
        <ele>-0.5</ele>
        <time>2016-12-06T10:46:03Z</time>
      </trkpt>
      <trkpt lat="44.85337" lon="-0.55685">
        <ele>0.5</ele>
        <time>2016-12-06T10:46:05Z</time>
      </trkpt>
      <trkpt lat="44.85332" lon="-0.55697">
        <ele>0.7</ele>
        <time>2016-12-06T10:46:07Z</time>
      </trkpt>
      <trkpt lat="44.85328" lon="-0.55708">
        <ele>0.3</ele>
        <time>2016-12-06T10:46:09Z</time>
      </trkpt>
      <trkpt lat="44.85324" lon="-0.55718">
        <ele>5</ele>
        <time>2016-12-06T10:46:11Z</time>
      </trkpt>
      <trkpt lat="44.85319" lon="-0.55729">
        <ele>-0.2</ele>
        <time>2016-12-06T10:46:13Z</time>
      </trkpt>
      <trkpt lat="44.85315" lon="-0.55739">
        <ele>-0.3</ele>
        <time>2016-12-06T10:46:15Z</time>
      </trkpt>
      <trkpt lat="44.8531" lon="-0.55752">
        <ele>5</ele>
        <time>2016-12-06T10:46:17Z</time>
      </trkpt>
      <trkpt lat="44.85308" lon="-0.55758">
        <ele>0.2</ele>
        <time>2016-12-06T10:46:18Z</time>
      </trkpt>
      <trkpt lat="44.85306" lon="-0.55764">
        <ele>0.3</ele>
        <time>2016-12-06T10:46:19Z</time>
      </trkpt>
      <trkpt lat="44.853" lon="-0.55774">
        <ele>0.4</ele>
        <time>2016-12-06T10:46:21Z</time>
      </trkpt>
      <trkpt lat="44.85297" lon="-0.55779">
        <ele>-0.1</ele>
        <time>2016-12-06T10:46:22Z</time>
      </trkpt>
      <trkpt lat="44.85291" lon="-0.5579">
        <ele>-0.7</ele>
        <time>2016-12-06T10:46:24Z</time>
      </trkpt>
      <trkpt lat="44.85286" lon="-0.558">
        <ele>-0.7</ele>
        <time>2016-12-06T10:46:26Z</time>
      </trkpt>
      <trkpt lat="44.85281" lon="-0.55811">
        <ele>-0.9</ele>
        <time>2016-12-06T10:46:28Z</time>
      </trkpt>
      <trkpt lat="44.85278" lon="-0.55823">
        <ele>-1.1</ele>
        <time>2016-12-06T10:46:30Z</time>
      </trkpt>
      <trkpt lat="44.85274" lon="-0.55835">
        <ele>-1.8</ele>
        <time>2016-12-06T10:46:32Z</time>
      </trkpt>
      <trkpt lat="44.85269" lon="-0.55848">
        <ele>-2.1</ele>
        <time>2016-12-06T10:46:34Z</time>
      </trkpt>
      <trkpt lat="44.85266" lon="-0.55854">
        <ele>-2.1</ele>
        <time>2016-12-06T10:46:35Z</time>
      </trkpt>
      <trkpt lat="44.85259" lon="-0.55866">
        <ele>-2.6</ele>
        <time>2016-12-06T10:46:37Z</time>
      </trkpt>
      <trkpt lat="44.85256" lon="-0.55872">
        <ele>-2.8</ele>
        <time>2016-12-06T10:46:38Z</time>
      </trkpt>
      <trkpt lat="44.85249" lon="-0.55884">
        <ele>-3.2</ele>
        <time>2016-12-06T10:46:40Z</time>
      </trkpt>
      <trkpt lat="44.85242" lon="-0.55895">
        <ele>-2.9</ele>
        <time>2016-12-06T10:46:42Z</time>
      </trkpt>
      <trkpt lat="44.85239" lon="-0.559">
        <ele>-2.7</ele>
        <time>2016-12-06T10:46:43Z</time>
      </trkpt>
      <trkpt lat="44.85233" lon="-0.5591">
        <ele>-3</ele>
        <time>2016-12-06T10:46:45Z</time>
      </trkpt>
      <trkpt lat="44.85226" lon="-0.55917">
        <ele>-4.1</ele>
        <time>2016-12-06T10:46:47Z</time>
      </trkpt>
      <trkpt lat="44.85219" lon="-0.55924">
        <ele>-4.9</ele>
        <time>2016-12-06T10:46:49Z</time>
      </trkpt>
      <trkpt lat="44.85213" lon="-0.55934">
        <ele>-4.1</ele>
        <time>2016-12-06T10:46:51Z</time>
      </trkpt>
      <trkpt lat="44.85206" lon="-0.55946">
        <ele>-3.8</ele>
        <time>2016-12-06T10:46:53Z</time>
      </trkpt>
      <trkpt lat="44.85203" lon="-0.55952">
        <ele>-3.6</ele>
        <time>2016-12-06T10:46:54Z</time>
      </trkpt>
      <trkpt lat="44.85199" lon="-0.55957">
        <ele>-3.4</ele>
        <time>2016-12-06T10:46:55Z</time>
      </trkpt>
      <trkpt lat="44.85192" lon="-0.55969">
        <ele>-3.5</ele>
        <time>2016-12-06T10:46:57Z</time>
      </trkpt>
      <trkpt lat="44.85184" lon="-0.55982">
        <ele>-3.4</ele>
        <time>2016-12-06T10:46:59Z</time>
      </trkpt>
      <trkpt lat="44.8518" lon="-0.55988">
        <ele>-3.4</ele>
        <time>2016-12-06T10:47:00Z</time>
      </trkpt>
      <trkpt lat="44.85173" lon="-0.56001">
        <ele>-3.5</ele>
        <time>2016-12-06T10:47:02Z</time>
      </trkpt>
      <trkpt lat="44.85166" lon="-0.56013">
        <ele>-3.4</ele>
        <time>2016-12-06T10:47:04Z</time>
      </trkpt>
      <trkpt lat="44.8516" lon="-0.56024">
        <ele>-3.4</ele>
        <time>2016-12-06T10:47:06Z</time>
      </trkpt>
      <trkpt lat="44.85154" lon="-0.56033">
        <ele>-4.1</ele>
        <time>2016-12-06T10:47:08Z</time>
      </trkpt>
      <trkpt lat="44.85151" lon="-0.56038">
        <ele>-4.1</ele>
        <time>2016-12-06T10:47:09Z</time>
      </trkpt>
      <trkpt lat="44.85144" lon="-0.56047">
        <ele>-4.6</ele>
        <time>2016-12-06T10:47:11Z</time>
      </trkpt>
      <trkpt lat="44.85141" lon="-0.56052">
        <ele>-4.8</ele>
        <time>2016-12-06T10:47:12Z</time>
      </trkpt>
      <trkpt lat="44.85137" lon="-0.56056">
        <ele>-5.1</ele>
        <time>2016-12-06T10:47:13Z</time>
      </trkpt>
      <trkpt lat="44.8513" lon="-0.56067">
        <ele>-5.7</ele>
        <time>2016-12-06T10:47:15Z</time>
      </trkpt>
      <trkpt lat="44.85126" lon="-0.56073">
        <ele>-6.1</ele>
        <time>2016-12-06T10:47:16Z</time>
      </trkpt>
      <trkpt lat="44.85118" lon="-0.56084">
        <ele>-7</ele>
        <time>2016-12-06T10:47:18Z</time>
      </trkpt>
      <trkpt lat="44.85114" lon="-0.5609">
        <ele>-7.1</ele>
        <time>2016-12-06T10:47:19Z</time>
      </trkpt>
      <trkpt lat="44.85107" lon="-0.56101">
        <ele>-6.9</ele>
        <time>2016-12-06T10:47:21Z</time>
      </trkpt>
      <trkpt lat="44.85103" lon="-0.56107">
        <ele>-7</ele>
        <time>2016-12-06T10:47:22Z</time>
      </trkpt>
      <trkpt lat="44.85099" lon="-0.56112">
        <ele>-7.5</ele>
        <time>2016-12-06T10:47:23Z</time>
      </trkpt>
      <trkpt lat="44.85093" lon="-0.56122">
        <ele>-7.6</ele>
        <time>2016-12-06T10:47:25Z</time>
      </trkpt>
      <trkpt lat="44.85089" lon="-0.56126">
        <ele>-7.7</ele>
        <time>2016-12-06T10:47:26Z</time>
      </trkpt>
      <trkpt lat="44.85084" lon="-0.56136">
        <ele>-7.9</ele>
        <time>2016-12-06T10:47:28Z</time>
      </trkpt>
      <trkpt lat="44.85078" lon="-0.56145">
        <ele>-8.4</ele>
        <time>2016-12-06T10:47:30Z</time>
      </trkpt>
      <trkpt lat="44.85071" lon="-0.56153">
        <ele>-8.5</ele>
        <time>2016-12-06T10:47:32Z</time>
      </trkpt>
      <trkpt lat="44.85066" lon="-0.56162">
        <ele>-8.6</ele>
        <time>2016-12-06T10:47:34Z</time>
      </trkpt>
      <trkpt lat="44.8506" lon="-0.56172">
        <ele>-9.4</ele>
        <time>2016-12-06T10:47:36Z</time>
      </trkpt>
      <trkpt lat="44.85057" lon="-0.56177">
        <ele>-9.4</ele>
        <time>2016-12-06T10:47:37Z</time>
      </trkpt>
      <trkpt lat="44.8505" lon="-0.56186">
        <ele>-10.2</ele>
        <time>2016-12-06T10:47:39Z</time>
      </trkpt>
      <trkpt lat="44.85043" lon="-0.56195">
        <ele>-10.7</ele>
        <time>2016-12-06T10:47:41Z</time>
      </trkpt>
      <trkpt lat="44.85035" lon="-0.56205">
        <ele>-10.9</ele>
        <time>2016-12-06T10:47:43Z</time>
      </trkpt>
      <trkpt lat="44.85028" lon="-0.56214">
        <ele>-11</ele>
        <time>2016-12-06T10:47:45Z</time>
      </trkpt>
      <trkpt lat="44.8502" lon="-0.56224">
        <ele>-10.9</ele>
        <time>2016-12-06T10:47:47Z</time>
      </trkpt>
      <trkpt lat="44.85013" lon="-0.56233">
        <ele>-11.8</ele>
        <time>2016-12-06T10:47:49Z</time>
      </trkpt>
      <trkpt lat="44.8501" lon="-0.56237">
        <ele>-11.8</ele>
        <time>2016-12-06T10:47:50Z</time>
      </trkpt>
      <trkpt lat="44.85003" lon="-0.56245">
        <ele>-11.7</ele>
        <time>2016-12-06T10:47:52Z</time>
      </trkpt>
      <trkpt lat="44.84997" lon="-0.56252">
        <ele>-11.6</ele>
        <time>2016-12-06T10:47:54Z</time>
      </trkpt>
      <trkpt lat="44.84992" lon="-0.56258">
        <ele>-12.1</ele>
        <time>2016-12-06T10:47:56Z</time>
      </trkpt>
      <trkpt lat="44.84987" lon="-0.56263">
        <ele>-12.8</ele>
        <time>2016-12-06T10:47:58Z</time>
      </trkpt>
      <trkpt lat="44.84983" lon="-0.56269">
        <ele>-13.3</ele>
        <time>2016-12-06T10:48:00Z</time>
      </trkpt>
      <trkpt lat="44.84978" lon="-0.56275">
        <ele>-14.8</ele>
        <time>2016-12-06T10:48:02Z</time>
      </trkpt>
      <trkpt lat="44.84973" lon="-0.56279">
        <ele>-16.1</ele>
        <time>2016-12-06T10:48:04Z</time>
      </trkpt>
      <trkpt lat="44.84967" lon="-0.56276">
        <ele>-16.5</ele>
        <time>2016-12-06T10:48:06Z</time>
      </trkpt>
      <trkpt lat="44.84961" lon="-0.56269">
        <ele>-16.1</ele>
        <time>2016-12-06T10:48:08Z</time>
      </trkpt>
      <trkpt lat="44.84956" lon="-0.56261">
        <ele>-16.4</ele>
        <time>2016-12-06T10:48:10Z</time>
      </trkpt>
      <trkpt lat="44.8495" lon="-0.56252">
        <ele>-16.5</ele>
        <time>2016-12-06T10:48:12Z</time>
      </trkpt>
      <trkpt lat="44.84945" lon="-0.56244">
        <ele>-16.5</ele>
        <time>2016-12-06T10:48:14Z</time>
      </trkpt>
      <trkpt lat="44.8494" lon="-0.56237">
        <ele>-16.8</ele>
        <time>2016-12-06T10:48:16Z</time>
      </trkpt>
      <trkpt lat="44.84934" lon="-0.56237">
        <ele>-17.7</ele>
        <time>2016-12-06T10:48:18Z</time>
      </trkpt>
      <trkpt lat="44.84929" lon="-0.56243">
        <ele>-18.1</ele>
        <time>2016-12-06T10:48:20Z</time>
      </trkpt>
      <trkpt lat="44.84923" lon="-0.56252">
        <ele>-18.6</ele>
        <time>2016-12-06T10:48:22Z</time>
      </trkpt>
      <trkpt lat="44.8492" lon="-0.56257">
        <ele>-19</ele>
        <time>2016-12-06T10:48:23Z</time>
      </trkpt>
      <trkpt lat="44.84913" lon="-0.56266">
        <ele>-19.3</ele>
        <time>2016-12-06T10:48:25Z</time>
      </trkpt>
      <trkpt lat="44.84906" lon="-0.56275">
        <ele>-20.7</ele>
        <time>2016-12-06T10:48:27Z</time>
      </trkpt>
      <trkpt lat="44.84903" lon="-0.5628">
        <ele>-21</ele>
        <time>2016-12-06T10:48:28Z</time>
      </trkpt>
      <trkpt lat="44.849" lon="-0.56286">
        <ele>-21.2</ele>
        <time>2016-12-06T10:48:29Z</time>
      </trkpt>
      <trkpt lat="44.84893" lon="-0.56296">
        <ele>-21.2</ele>
        <time>2016-12-06T10:48:31Z</time>
      </trkpt>
      <trkpt lat="44.84886" lon="-0.56306">
        <ele>-21.5</ele>
        <time>2016-12-06T10:48:33Z</time>
      </trkpt>
      <trkpt lat="44.84879" lon="-0.56316">
        <ele>-21.7</ele>
        <time>2016-12-06T10:48:35Z</time>
      </trkpt>
      <trkpt lat="44.84873" lon="-0.56325">
        <ele>-22.5</ele>
        <time>2016-12-06T10:48:37Z</time>
      </trkpt>
      <trkpt lat="44.84865" lon="-0.56335">
        <ele>-23.4</ele>
        <time>2016-12-06T10:48:39Z</time>
      </trkpt>
      <trkpt lat="44.84861" lon="-0.56339">
        <ele>-23.9</ele>
        <time>2016-12-06T10:48:40Z</time>
      </trkpt>
      <trkpt lat="44.84854" lon="-0.56348">
        <ele>-24.4</ele>
        <time>2016-12-06T10:48:42Z</time>
      </trkpt>
      <trkpt lat="44.84846" lon="-0.56358">
        <ele>-25</ele>
        <time>2016-12-06T10:48:44Z</time>
      </trkpt>
      <trkpt lat="44.84842" lon="-0.56363">
        <ele>-25.5</ele>
        <time>2016-12-06T10:48:45Z</time>
      </trkpt>
      <trkpt lat="44.84835" lon="-0.56371">
        <ele>-25.8</ele>
        <time>2016-12-06T10:48:47Z</time>
      </trkpt>
      <trkpt lat="44.84829" lon="-0.56378">
        <ele>-26.6</ele>
        <time>2016-12-06T10:48:49Z</time>
      </trkpt>
      <trkpt lat="44.84822" lon="-0.56385">
        <ele>-26.8</ele>
        <time>2016-12-06T10:48:51Z</time>
      </trkpt>
      <trkpt lat="44.84815" lon="-0.56392">
        <ele>-27.3</ele>
        <time>2016-12-06T10:48:53Z</time>
      </trkpt>
      <trkpt lat="44.84811" lon="-0.56396">
        <ele>-27.4</ele>
        <time>2016-12-06T10:48:54Z</time>
      </trkpt>
      <trkpt lat="44.84803" lon="-0.56404">
        <ele>-28</ele>
        <time>2016-12-06T10:48:56Z</time>
      </trkpt>
      <trkpt lat="44.84799" lon="-0.56409">
        <ele>-28.1</ele>
        <time>2016-12-06T10:48:57Z</time>
      </trkpt>
      <trkpt lat="44.84791" lon="-0.56418">
        <ele>-28.1</ele>
        <time>2016-12-06T10:48:59Z</time>
      </trkpt>
      <trkpt lat="44.84786" lon="-0.56422">
        <ele>-28</ele>
        <time>2016-12-06T10:49:00Z</time>
      </trkpt>
      <trkpt lat="44.84777" lon="-0.5643">
        <ele>-28.8</ele>
        <time>2016-12-06T10:49:02Z</time>
      </trkpt>
      <trkpt lat="44.84772" lon="-0.56433">
        <ele>-29</ele>
        <time>2016-12-06T10:49:03Z</time>
      </trkpt>
      <trkpt lat="44.84767" lon="-0.56435">
        <ele>-29.1</ele>
        <time>2016-12-06T10:49:04Z</time>
      </trkpt>
      <trkpt lat="44.84759" lon="-0.56439">
        <ele>-29.9</ele>
        <time>2016-12-06T10:49:06Z</time>
      </trkpt>
      <trkpt lat="44.8475" lon="-0.56444">
        <ele>-30.5</ele>
        <time>2016-12-06T10:49:08Z</time>
      </trkpt>
      <trkpt lat="44.84746" lon="-0.56446">
        <ele>-31.4</ele>
        <time>2016-12-06T10:49:09Z</time>
      </trkpt>
      <trkpt lat="44.84737" lon="-0.56451">
        <ele>-32.3</ele>
        <time>2016-12-06T10:49:11Z</time>
      </trkpt>
      <trkpt lat="44.84729" lon="-0.56455">
        <ele>-33.4</ele>
        <time>2016-12-06T10:49:13Z</time>
      </trkpt>
      <trkpt lat="44.84719" lon="-0.56461">
        <ele>-34.8</ele>
        <time>2016-12-06T10:49:15Z</time>
      </trkpt>
      <trkpt lat="44.8471" lon="-0.56467">
        <ele>-37.6</ele>
        <time>2016-12-06T10:49:17Z</time>
      </trkpt>
      <trkpt lat="44.84702" lon="-0.56471">
        <ele>-38.7</ele>
        <time>2016-12-06T10:49:19Z</time>
      </trkpt>
      <trkpt lat="44.84693" lon="-0.56475">
        <ele>-39.9</ele>
        <time>2016-12-06T10:49:21Z</time>
      </trkpt>
      <trkpt lat="44.84683" lon="-0.56479">
        <ele>-41</ele>
        <time>2016-12-06T10:49:23Z</time>
      </trkpt>
      <trkpt lat="44.84678" lon="-0.56481">
        <ele>-42</ele>
        <time>2016-12-06T10:49:24Z</time>
      </trkpt>
      <trkpt lat="44.84673" lon="-0.56483">
        <ele>-43.3</ele>
        <time>2016-12-06T10:49:25Z</time>
      </trkpt>
      <trkpt lat="44.84668" lon="-0.56485">
        <ele>-43.4</ele>
        <time>2016-12-06T10:49:26Z</time>
      </trkpt>
      <trkpt lat="44.84659" lon="-0.56488">
        <ele>-43.9</ele>
        <time>2016-12-06T10:49:28Z</time>
      </trkpt>
      <trkpt lat="44.8465" lon="-0.5649">
        <ele>-44.4</ele>
        <time>2016-12-06T10:49:30Z</time>
      </trkpt>
      <trkpt lat="44.84645" lon="-0.56492">
        <ele>-43.8</ele>
        <time>2016-12-06T10:49:31Z</time>
      </trkpt>
      <trkpt lat="44.84637" lon="-0.56494">
        <ele>-44.9</ele>
        <time>2016-12-06T10:49:33Z</time>
      </trkpt>
      <trkpt lat="44.84633" lon="-0.56495">
        <ele>-45.6</ele>
        <time>2016-12-06T10:49:34Z</time>
      </trkpt>
      <trkpt lat="44.84627" lon="-0.56497">
        <ele>-43.5</ele>
        <time>2016-12-06T10:49:35Z</time>
      </trkpt>
      <trkpt lat="44.84617" lon="-0.56495">
        <ele>-43.9</ele>
        <time>2016-12-06T10:49:37Z</time>
      </trkpt>
      <trkpt lat="44.84612" lon="-0.56493">
        <ele>-44</ele>
        <time>2016-12-06T10:49:38Z</time>
      </trkpt>
      <trkpt lat="44.84602" lon="-0.56489">
        <ele>-43.9</ele>
        <time>2016-12-06T10:49:40Z</time>
      </trkpt>
      <trkpt lat="44.84591" lon="-0.56485">
        <ele>-44.7</ele>
        <time>2016-12-06T10:49:42Z</time>
      </trkpt>
      <trkpt lat="44.8458" lon="-0.56481">
        <ele>-45.6</ele>
        <time>2016-12-06T10:49:44Z</time>
      </trkpt>
      <trkpt lat="44.84574" lon="-0.5648">
        <ele>-46.1</ele>
        <time>2016-12-06T10:49:45Z</time>
      </trkpt>
      <trkpt lat="44.84562" lon="-0.5648">
        <ele>-45.3</ele>
        <time>2016-12-06T10:49:47Z</time>
      </trkpt>
      <trkpt lat="44.84551" lon="-0.56476">
        <ele>-46.1</ele>
        <time>2016-12-06T10:49:49Z</time>
      </trkpt>
      <trkpt lat="44.84539" lon="-0.56472">
        <ele>-47.1</ele>
        <time>2016-12-06T10:49:51Z</time>
      </trkpt>
      <trkpt lat="44.84528" lon="-0.56466">
        <ele>-48</ele>
        <time>2016-12-06T10:49:53Z</time>
      </trkpt>
      <trkpt lat="44.84516" lon="-0.56462">
        <ele>-49.6</ele>
        <time>2016-12-06T10:49:55Z</time>
      </trkpt>
      <trkpt lat="44.84504" lon="-0.56459">
        <ele>-49.8</ele>
        <time>2016-12-06T10:49:57Z</time>
      </trkpt>
      <trkpt lat="44.84497" lon="-0.5646">
        <ele>-48.8</ele>
        <time>2016-12-06T10:49:58Z</time>
      </trkpt>
      <trkpt lat="44.84486" lon="-0.56458">
        <ele>-48.2</ele>
        <time>2016-12-06T10:50:00Z</time>
      </trkpt>
      <trkpt lat="44.84481" lon="-0.56457">
        <ele>-48.5</ele>
        <time>2016-12-06T10:50:01Z</time>
      </trkpt>
      <trkpt lat="44.84471" lon="-0.56456">
        <ele>-49</ele>
        <time>2016-12-06T10:50:03Z</time>
      </trkpt>
      <trkpt lat="44.84462" lon="-0.56456">
        <ele>-50.4</ele>
        <time>2016-12-06T10:50:05Z</time>
      </trkpt>
      <trkpt lat="44.84456" lon="-0.56456">
        <ele>-51.4</ele>
        <time>2016-12-06T10:50:07Z</time>
      </trkpt>
      <trkpt lat="44.8445" lon="-0.56453">
        <ele>-52.9</ele>
        <time>2016-12-06T10:50:09Z</time>
      </trkpt>
      <trkpt lat="44.84441" lon="-0.5645">
        <ele>-55.4</ele>
        <time>2016-12-06T10:50:11Z</time>
      </trkpt>
      <trkpt lat="44.84432" lon="-0.56447">
        <ele>-57.7</ele>
        <time>2016-12-06T10:50:13Z</time>
      </trkpt>
      <trkpt lat="44.84422" lon="-0.56442">
        <ele>-58.4</ele>
        <time>2016-12-06T10:50:15Z</time>
      </trkpt>
      <trkpt lat="44.84412" lon="-0.56439">
        <ele>-58.8</ele>
        <time>2016-12-06T10:50:17Z</time>
      </trkpt>
      <trkpt lat="44.84401" lon="-0.56435">
        <ele>-58.1</ele>
        <time>2016-12-06T10:50:19Z</time>
      </trkpt>
      <trkpt lat="44.84397" lon="-0.56433">
        <ele>-58.5</ele>
        <time>2016-12-06T10:50:20Z</time>
      </trkpt>
      <trkpt lat="44.84387" lon="-0.56428">
        <ele>-58</ele>
        <time>2016-12-06T10:50:22Z</time>
      </trkpt>
      <trkpt lat="44.84379" lon="-0.56425">
        <ele>-58.6</ele>
        <time>2016-12-06T10:50:24Z</time>
      </trkpt>
      <trkpt lat="44.84371" lon="-0.56422">
        <ele>-58.6</ele>
        <time>2016-12-06T10:50:26Z</time>
      </trkpt>
      <trkpt lat="44.84362" lon="-0.56418">
        <ele>-58.8</ele>
        <time>2016-12-06T10:50:28Z</time>
      </trkpt>
      <trkpt lat="44.84357" lon="-0.56415">
        <ele>-58.2</ele>
        <time>2016-12-06T10:50:29Z</time>
      </trkpt>
      <trkpt lat="44.84348" lon="-0.56408">
        <ele>-57.8</ele>
        <time>2016-12-06T10:50:31Z</time>
      </trkpt>
      <trkpt lat="44.84338" lon="-0.56401">
        <ele>-58.1</ele>
        <time>2016-12-06T10:50:33Z</time>
      </trkpt>
      <trkpt lat="44.84328" lon="-0.56394">
        <ele>-57.9</ele>
        <time>2016-12-06T10:50:35Z</time>
      </trkpt>
      <trkpt lat="44.84318" lon="-0.56386">
        <ele>-56.9</ele>
        <time>2016-12-06T10:50:37Z</time>
      </trkpt>
      <trkpt lat="44.84308" lon="-0.56378">
        <ele>-56.4</ele>
        <time>2016-12-06T10:50:39Z</time>
      </trkpt>
      <trkpt lat="44.84296" lon="-0.56372">
        <ele>-53.7</ele>
        <time>2016-12-06T10:50:41Z</time>
      </trkpt>
      <trkpt lat="44.8429" lon="-0.5637">
        <ele>-51.8</ele>
        <time>2016-12-06T10:50:42Z</time>
      </trkpt>
      <trkpt lat="44.84285" lon="-0.56367">
        <ele>-50.7</ele>
        <time>2016-12-06T10:50:43Z</time>
      </trkpt>
      <trkpt lat="44.8428" lon="-0.56365">
        <ele>-48.7</ele>
        <time>2016-12-06T10:50:44Z</time>
      </trkpt>
      <trkpt lat="44.84272" lon="-0.5636">
        <ele>-47.6</ele>
        <time>2016-12-06T10:50:46Z</time>
      </trkpt>
      <trkpt lat="44.84264" lon="-0.56355">
        <ele>-46.1</ele>
        <time>2016-12-06T10:50:48Z</time>
      </trkpt>
      <trkpt lat="44.84258" lon="-0.5635">
        <ele>-45.8</ele>
        <time>2016-12-06T10:50:50Z</time>
      </trkpt>
      <trkpt lat="44.84254" lon="-0.56346">
        <ele>-46.3</ele>
        <time>2016-12-06T10:50:52Z</time>
      </trkpt>
      <trkpt lat="44.84251" lon="-0.56341">
        <ele>-46.8</ele>
        <time>2016-12-06T10:50:54Z</time>
      </trkpt>
      <trkpt lat="44.84245" lon="-0.56335">
        <ele>-46.5</ele>
        <time>2016-12-06T10:50:56Z</time>
      </trkpt>
      <trkpt lat="44.84238" lon="-0.56328">
        <ele>-46.4</ele>
        <time>2016-12-06T10:50:58Z</time>
      </trkpt>
      <trkpt lat="44.8423" lon="-0.56321">
        <ele>-45.4</ele>
        <time>2016-12-06T10:51:00Z</time>
      </trkpt>
      <trkpt lat="44.84226" lon="-0.56316">
        <ele>-45</ele>
        <time>2016-12-06T10:51:01Z</time>
      </trkpt>
      <trkpt lat="44.84217" lon="-0.56306">
        <ele>-44.2</ele>
        <time>2016-12-06T10:51:03Z</time>
      </trkpt>
      <trkpt lat="44.84209" lon="-0.56297">
        <ele>-43.4</ele>
        <time>2016-12-06T10:51:05Z</time>
      </trkpt>
      <trkpt lat="44.84201" lon="-0.56287">
        <ele>-42.5</ele>
        <time>2016-12-06T10:51:07Z</time>
      </trkpt>
      <trkpt lat="44.84192" lon="-0.56277">
        <ele>-40.5</ele>
        <time>2016-12-06T10:51:09Z</time>
      </trkpt>
      <trkpt lat="44.84185" lon="-0.56275">
        <ele>-35</ele>
        <time>2016-12-06T10:51:10Z</time>
      </trkpt>
      <trkpt lat="44.8418" lon="-0.56271">
        <ele>-33.9</ele>
        <time>2016-12-06T10:51:11Z</time>
      </trkpt>
      <trkpt lat="44.8417" lon="-0.56263">
        <ele>-30.2</ele>
        <time>2016-12-06T10:51:13Z</time>
      </trkpt>
      <trkpt lat="44.84161" lon="-0.56255">
        <ele>-27.5</ele>
        <time>2016-12-06T10:51:15Z</time>
      </trkpt>
      <trkpt lat="44.84158" lon="-0.56251">
        <ele>-26.8</ele>
        <time>2016-12-06T10:51:16Z</time>
      </trkpt>
      <trkpt lat="44.84154" lon="-0.56247">
        <ele>-25.7</ele>
        <time>2016-12-06T10:51:17Z</time>
      </trkpt>
      <trkpt lat="44.84147" lon="-0.56239">
        <ele>-24.7</ele>
        <time>2016-12-06T10:51:19Z</time>
      </trkpt>
      <trkpt lat="44.84141" lon="-0.5623">
        <ele>-24</ele>
        <time>2016-12-06T10:51:21Z</time>
      </trkpt>
      <trkpt lat="44.84132" lon="-0.56226">
        <ele>-19.3</ele>
        <time>2016-12-06T10:51:23Z</time>
      </trkpt>
      <trkpt lat="44.84125" lon="-0.5622">
        <ele>-16</ele>
        <time>2016-12-06T10:51:25Z</time>
      </trkpt>
      <trkpt lat="44.84122" lon="-0.56215">
        <ele>-14.6</ele>
        <time>2016-12-06T10:51:27Z</time>
      </trkpt>
      <trkpt lat="44.84118" lon="-0.5621">
        <ele>-9.9</ele>
        <time>2016-12-06T10:51:56Z</time>
      </trkpt>
      <trkpt lat="44.84114" lon="-0.56203">
        <ele>-9.9</ele>
        <time>2016-12-06T10:51:58Z</time>
      </trkpt>
      <trkpt lat="44.8411" lon="-0.56193">
        <ele>-9.8</ele>
        <time>2016-12-06T10:52:00Z</time>
      </trkpt>
      <trkpt lat="44.84106" lon="-0.56186">
        <ele>-9.9</ele>
        <time>2016-12-06T10:52:02Z</time>
      </trkpt>
      <trkpt lat="44.84101" lon="-0.5618">
        <ele>-9.8</ele>
        <time>2016-12-06T10:52:04Z</time>
      </trkpt>
      <trkpt lat="44.84097" lon="-0.56173">
        <ele>-9.7</ele>
        <time>2016-12-06T10:52:06Z</time>
      </trkpt>
      <trkpt lat="44.84091" lon="-0.56164">
        <ele>-9.5</ele>
        <time>2016-12-06T10:52:08Z</time>
      </trkpt>
      <trkpt lat="44.84083" lon="-0.56155">
        <ele>-9.1</ele>
        <time>2016-12-06T10:52:10Z</time>
      </trkpt>
      <trkpt lat="44.84075" lon="-0.56145">
        <ele>-8.7</ele>
        <time>2016-12-06T10:52:12Z</time>
      </trkpt>
      <trkpt lat="44.84071" lon="-0.5614">
        <ele>-8.5</ele>
        <time>2016-12-06T10:52:13Z</time>
      </trkpt>
      <trkpt lat="44.84067" lon="-0.56136">
        <ele>-8.3</ele>
        <time>2016-12-06T10:52:14Z</time>
      </trkpt>
      <trkpt lat="44.84059" lon="-0.56126">
        <ele>-7.5</ele>
        <time>2016-12-06T10:52:16Z</time>
      </trkpt>
      <trkpt lat="44.84056" lon="-0.56122">
        <ele>-7.1</ele>
        <time>2016-12-06T10:52:17Z</time>
      </trkpt>
      <trkpt lat="44.84048" lon="-0.56111">
        <ele>-6.3</ele>
        <time>2016-12-06T10:52:19Z</time>
      </trkpt>
      <trkpt lat="44.8404" lon="-0.56101">
        <ele>-5.5</ele>
        <time>2016-12-06T10:52:21Z</time>
      </trkpt>
      <trkpt lat="44.84032" lon="-0.56091">
        <ele>-4.6</ele>
        <time>2016-12-06T10:52:23Z</time>
      </trkpt>
      <trkpt lat="44.84029" lon="-0.56086">
        <ele>-4.1</ele>
        <time>2016-12-06T10:52:24Z</time>
      </trkpt>
      <trkpt lat="44.84022" lon="-0.56078">
        <ele>-2.9</ele>
        <time>2016-12-06T10:52:26Z</time>
      </trkpt>
      <trkpt lat="44.84017" lon="-0.56071">
        <ele>-2.7</ele>
        <time>2016-12-06T10:52:28Z</time>
      </trkpt>
      <trkpt lat="44.84011" lon="-0.56064">
        <ele>-2.3</ele>
        <time>2016-12-06T10:52:30Z</time>
      </trkpt>
      <trkpt lat="44.84008" lon="-0.5606">
        <ele>-1.6</ele>
        <time>2016-12-06T10:52:32Z</time>
      </trkpt>
      <trkpt lat="44.84009" lon="-0.56052">
        <ele>0.1</ele>
        <time>2016-12-06T10:53:19Z</time>
      </trkpt>
      <trkpt lat="44.84011" lon="-0.56046">
        <ele>0.2</ele>
        <time>2016-12-06T10:53:21Z</time>
      </trkpt>
      <trkpt lat="44.84012" lon="-0.56039">
        <ele>0.3</ele>
        <time>2016-12-06T10:53:23Z</time>
      </trkpt>
      <trkpt lat="44.84011" lon="-0.56032">
        <ele>0.3</ele>
        <time>2016-12-06T10:53:25Z</time>
      </trkpt>
      <trkpt lat="44.84008" lon="-0.56024">
        <ele>0.7</ele>
        <time>2016-12-06T10:53:28Z</time>
      </trkpt>
      <trkpt lat="44.84005" lon="-0.56017">
        <ele>0.4</ele>
        <time>2016-12-06T10:53:31Z</time>
      </trkpt>
      <trkpt lat="44.84006" lon="-0.5601">
        <ele>0.2</ele>
        <time>2016-12-06T10:53:33Z</time>
      </trkpt>
      <trkpt lat="44.84008" lon="-0.56003">
        <ele>-1.2</ele>
        <time>2016-12-06T10:53:35Z</time>
      </trkpt>
      <trkpt lat="44.84012" lon="-0.55994">
        <ele>-1.8</ele>
        <time>2016-12-06T10:53:37Z</time>
      </trkpt>
      <trkpt lat="44.84016" lon="-0.55984">
        <ele>-2.4</ele>
        <time>2016-12-06T10:53:39Z</time>
      </trkpt>
      <trkpt lat="44.8402" lon="-0.55974">
        <ele>-3</ele>
        <time>2016-12-06T10:53:41Z</time>
      </trkpt>
      <trkpt lat="44.84025" lon="-0.55963">
        <ele>-4</ele>
        <time>2016-12-06T10:53:43Z</time>
      </trkpt>
      <trkpt lat="44.84031" lon="-0.55954">
        <ele>-4.2</ele>
        <time>2016-12-06T10:53:45Z</time>
      </trkpt>
      <trkpt lat="44.84036" lon="-0.55945">
        <ele>-4.8</ele>
        <time>2016-12-06T10:53:47Z</time>
      </trkpt>
      <trkpt lat="44.84039" lon="-0.55937">
        <ele>-5.1</ele>
        <time>2016-12-06T10:53:49Z</time>
      </trkpt>
      <trkpt lat="44.8404" lon="-0.5593">
        <ele>-5.5</ele>
        <time>2016-12-06T10:53:51Z</time>
      </trkpt>
      <trkpt lat="44.84037" lon="-0.55923">
        <ele>-5.6</ele>
        <time>2016-12-06T10:53:54Z</time>
      </trkpt>
      <trkpt lat="44.84035" lon="-0.55914">
        <ele>-6.1</ele>
        <time>2016-12-06T10:54:10Z</time>
      </trkpt>
      <trkpt lat="44.84038" lon="-0.55907">
        <ele>-6.5</ele>
        <time>2016-12-06T10:54:12Z</time>
      </trkpt>
      <trkpt lat="44.8404" lon="-0.55901">
        <ele>-7.5</ele>
        <time>2016-12-06T10:54:14Z</time>
      </trkpt>
      <trkpt lat="44.84043" lon="-0.55894">
        <ele>-8.6</ele>
        <time>2016-12-06T10:54:16Z</time>
      </trkpt>
      <trkpt lat="44.84046" lon="-0.55887">
        <ele>-9.4</ele>
        <time>2016-12-06T10:54:18Z</time>
      </trkpt>
      <trkpt lat="44.84048" lon="-0.55874">
        <ele>-9.9</ele>
        <time>2016-12-06T10:54:20Z</time>
      </trkpt>
      <trkpt lat="44.84048" lon="-0.55867">
        <ele>-10.3</ele>
        <time>2016-12-06T10:54:21Z</time>
      </trkpt>
      <trkpt lat="44.84051" lon="-0.5585">
        <ele>-11.1</ele>
        <time>2016-12-06T10:54:23Z</time>
      </trkpt>
      <trkpt lat="44.84052" lon="-0.5584">
        <ele>-11.5</ele>
        <time>2016-12-06T10:54:24Z</time>
      </trkpt>
      <trkpt lat="44.84054" lon="-0.5583">
        <ele>-12</ele>
        <time>2016-12-06T10:54:25Z</time>
      </trkpt>
      <trkpt lat="44.84058" lon="-0.55808">
        <ele>-12.7</ele>
        <time>2016-12-06T10:54:27Z</time>
      </trkpt>
      <trkpt lat="44.84062" lon="-0.55785">
        <ele>-13.5</ele>
        <time>2016-12-06T10:54:29Z</time>
      </trkpt>
      <trkpt lat="44.84069" lon="-0.55759">
        <ele>-15.5</ele>
        <time>2016-12-06T10:54:31Z</time>
      </trkpt>
      <trkpt lat="44.84072" lon="-0.55746">
        <ele>-16.1</ele>
        <time>2016-12-06T10:54:32Z</time>
      </trkpt>
      <trkpt lat="44.84077" lon="-0.55721">
        <ele>-17.3</ele>
        <time>2016-12-06T10:54:34Z</time>
      </trkpt>
      <trkpt lat="44.84081" lon="-0.55698">
        <ele>-18.4</ele>
        <time>2016-12-06T10:54:36Z</time>
      </trkpt>
      <trkpt lat="44.84083" lon="-0.55687">
        <ele>-18.6</ele>
        <time>2016-12-06T10:54:37Z</time>
      </trkpt>
      <trkpt lat="44.84089" lon="-0.55667">
        <ele>-19.2</ele>
        <time>2016-12-06T10:54:39Z</time>
      </trkpt>
      <trkpt lat="44.84092" lon="-0.55657">
        <ele>-19.6</ele>
        <time>2016-12-06T10:54:40Z</time>
      </trkpt>
      <trkpt lat="44.84096" lon="-0.55637">
        <ele>-20.1</ele>
        <time>2016-12-06T10:54:42Z</time>
      </trkpt>
      <trkpt lat="44.84099" lon="-0.55629">
        <ele>-20.3</ele>
        <time>2016-12-06T10:54:43Z</time>
      </trkpt>
      <trkpt lat="44.84101" lon="-0.55621">
        <ele>-20.5</ele>
        <time>2016-12-06T10:54:44Z</time>
      </trkpt>
      <trkpt lat="44.84103" lon="-0.55613">
        <ele>-20.6</ele>
        <time>2016-12-06T10:54:45Z</time>
      </trkpt>
      <trkpt lat="44.84105" lon="-0.55605">
        <ele>-20.7</ele>
        <time>2016-12-06T10:54:46Z</time>
      </trkpt>
      <trkpt lat="44.84107" lon="-0.55589">
        <ele>-20.7</ele>
        <time>2016-12-06T10:54:48Z</time>
      </trkpt>
      <trkpt lat="44.84108" lon="-0.55581">
        <ele>-20.8</ele>
        <time>2016-12-06T10:54:49Z</time>
      </trkpt>
      <trkpt lat="44.84109" lon="-0.55569">
        <ele>-21.1</ele>
        <time>2016-12-06T10:54:51Z</time>
      </trkpt>
      <trkpt lat="44.8411" lon="-0.55559">
        <ele>-21.3</ele>
        <time>2016-12-06T10:54:53Z</time>
      </trkpt>
      <trkpt lat="44.84109" lon="-0.55552">
        <ele>-21.1</ele>
        <time>2016-12-06T10:54:55Z</time>
      </trkpt>
      <trkpt lat="44.8411" lon="-0.55544">
        <ele>-21.2</ele>
        <time>2016-12-06T10:54:59Z</time>
      </trkpt>
      <trkpt lat="44.84111" lon="-0.55535">
        <ele>-21.1</ele>
        <time>2016-12-06T10:55:01Z</time>
      </trkpt>
      <trkpt lat="44.84113" lon="-0.55528">
        <ele>-20.2</ele>
        <time>2016-12-06T10:55:03Z</time>
      </trkpt>
      <trkpt lat="44.84121" lon="-0.55509">
        <ele>-15.1</ele>
        <time>2016-12-06T10:55:14Z</time>
      </trkpt>
      <trkpt lat="44.84123" lon="-0.55501">
        <ele>-14.4</ele>
        <time>2016-12-06T10:55:17Z</time>
      </trkpt>
      <trkpt lat="44.84124" lon="-0.55494">
        <ele>-13.8</ele>
        <time>2016-12-06T10:55:19Z</time>
      </trkpt>
      <trkpt lat="44.84119" lon="-0.55483">
        <ele>-12.8</ele>
        <time>2016-12-06T10:55:21Z</time>
      </trkpt>
      <trkpt lat="44.84117" lon="-0.55478">
        <ele>-12.5</ele>
        <time>2016-12-06T10:55:22Z</time>
      </trkpt>
      <trkpt lat="44.84115" lon="-0.55465">
        <ele>-11.9</ele>
        <time>2016-12-06T10:55:24Z</time>
      </trkpt>
      <trkpt lat="44.84118" lon="-0.55451">
        <ele>-11.5</ele>
        <time>2016-12-06T10:55:26Z</time>
      </trkpt>
      <trkpt lat="44.8412" lon="-0.55436">
        <ele>-10.8</ele>
        <time>2016-12-06T10:55:28Z</time>
      </trkpt>
      <trkpt lat="44.84122" lon="-0.55427">
        <ele>-11.3</ele>
        <time>2016-12-06T10:55:29Z</time>
      </trkpt>
      <trkpt lat="44.84124" lon="-0.55414">
        <ele>-10.8</ele>
        <time>2016-12-06T10:55:31Z</time>
      </trkpt>
      <trkpt lat="44.84126" lon="-0.55403">
        <ele>-10.2</ele>
        <time>2016-12-06T10:55:33Z</time>
      </trkpt>
      <trkpt lat="44.84127" lon="-0.55395">
        <ele>-9.5</ele>
        <time>2016-12-06T10:55:35Z</time>
      </trkpt>
      <trkpt lat="44.84129" lon="-0.55379">
        <ele>-7.1</ele>
        <time>2016-12-06T10:55:50Z</time>
      </trkpt>
      <trkpt lat="44.84129" lon="-0.5537">
        <ele>-7.1</ele>
        <time>2016-12-06T10:55:52Z</time>
      </trkpt>
      <trkpt lat="44.8413" lon="-0.55357">
        <ele>-7.2</ele>
        <time>2016-12-06T10:55:54Z</time>
      </trkpt>
      <trkpt lat="44.84132" lon="-0.55341">
        <ele>-7.3</ele>
        <time>2016-12-06T10:55:56Z</time>
      </trkpt>
      <trkpt lat="44.84134" lon="-0.55332">
        <ele>-7.2</ele>
        <time>2016-12-06T10:55:57Z</time>
      </trkpt>
      <trkpt lat="44.84137" lon="-0.55311">
        <ele>-7.5</ele>
        <time>2016-12-06T10:55:59Z</time>
      </trkpt>
      <trkpt lat="44.84139" lon="-0.55292">
        <ele>-7.5</ele>
        <time>2016-12-06T10:56:01Z</time>
      </trkpt>
      <trkpt lat="44.8414" lon="-0.55272">
        <ele>-7.5</ele>
        <time>2016-12-06T10:56:03Z</time>
      </trkpt>
      <trkpt lat="44.8414" lon="-0.55263">
        <ele>-7.5</ele>
        <time>2016-12-06T10:56:04Z</time>
      </trkpt>
      <trkpt lat="44.84142" lon="-0.55245">
        <ele>-7.6</ele>
        <time>2016-12-06T10:56:06Z</time>
      </trkpt>
      <trkpt lat="44.84143" lon="-0.55228">
        <ele>-7.7</ele>
        <time>2016-12-06T10:56:08Z</time>
      </trkpt>
      <trkpt lat="44.84145" lon="-0.5521">
        <ele>-8.1</ele>
        <time>2016-12-06T10:56:10Z</time>
      </trkpt>
      <trkpt lat="44.84148" lon="-0.55193">
        <ele>-8.1</ele>
        <time>2016-12-06T10:56:12Z</time>
      </trkpt>
      <trkpt lat="44.84149" lon="-0.55186">
        <ele>-8.1</ele>
        <time>2016-12-06T10:56:13Z</time>
      </trkpt>
      <trkpt lat="44.84152" lon="-0.55168">
        <ele>-8.5</ele>
        <time>2016-12-06T10:56:15Z</time>
      </trkpt>
      <trkpt lat="44.84154" lon="-0.5515">
        <ele>-8.7</ele>
        <time>2016-12-06T10:56:17Z</time>
      </trkpt>
      <trkpt lat="44.84155" lon="-0.55141">
        <ele>-8.4</ele>
        <time>2016-12-06T10:56:18Z</time>
      </trkpt>
      <trkpt lat="44.84158" lon="-0.55124">
        <ele>-8.2</ele>
        <time>2016-12-06T10:56:20Z</time>
      </trkpt>
      <trkpt lat="44.84159" lon="-0.55107">
        <ele>-8</ele>
        <time>2016-12-06T10:56:22Z</time>
      </trkpt>
      <trkpt lat="44.8416" lon="-0.55099">
        <ele>-7.6</ele>
        <time>2016-12-06T10:56:23Z</time>
      </trkpt>
      <trkpt lat="44.84162" lon="-0.55084">
        <ele>-7.2</ele>
        <time>2016-12-06T10:56:25Z</time>
      </trkpt>
      <trkpt lat="44.84164" lon="-0.5507">
        <ele>-6.9</ele>
        <time>2016-12-06T10:56:27Z</time>
      </trkpt>
      <trkpt lat="44.84165" lon="-0.55063">
        <ele>-6.9</ele>
        <time>2016-12-06T10:56:28Z</time>
      </trkpt>
      <trkpt lat="44.84165" lon="-0.5505">
        <ele>-6.9</ele>
        <time>2016-12-06T10:56:30Z</time>
      </trkpt>
      <trkpt lat="44.84162" lon="-0.55045">
        <ele>-6.5</ele>
        <time>2016-12-06T10:56:31Z</time>
      </trkpt>
      <trkpt lat="44.84156" lon="-0.5504">
        <ele>-6.7</ele>
        <time>2016-12-06T10:56:33Z</time>
      </trkpt>
      <trkpt lat="44.84147" lon="-0.55038">
        <ele>-7.2</ele>
        <time>2016-12-06T10:56:35Z</time>
      </trkpt>
      <trkpt lat="44.84137" lon="-0.55037">
        <ele>-7.8</ele>
        <time>2016-12-06T10:56:37Z</time>
      </trkpt>
      <trkpt lat="44.84128" lon="-0.55035">
        <ele>-9.2</ele>
        <time>2016-12-06T10:56:39Z</time>
      </trkpt>
      <trkpt lat="44.84123" lon="-0.55034">
        <ele>-10.2</ele>
        <time>2016-12-06T10:56:40Z</time>
      </trkpt>
      <trkpt lat="44.84113" lon="-0.55032">
        <ele>-10.1</ele>
        <time>2016-12-06T10:56:42Z</time>
      </trkpt>
      <trkpt lat="44.84105" lon="-0.5503">
        <ele>-10.4</ele>
        <time>2016-12-06T10:56:44Z</time>
      </trkpt>
      <trkpt lat="44.84098" lon="-0.55031">
        <ele>-10.6</ele>
        <time>2016-12-06T10:56:46Z</time>
      </trkpt>
      <trkpt lat="44.84089" lon="-0.55029">
        <ele>-10.5</ele>
        <time>2016-12-06T10:57:03Z</time>
      </trkpt>
      <trkpt lat="44.84087" lon="-0.55018">
        <ele>-10.7</ele>
        <time>2016-12-06T10:57:06Z</time>
      </trkpt>
      <trkpt lat="44.84089" lon="-0.55006">
        <ele>-11.2</ele>
        <time>2016-12-06T10:57:08Z</time>
      </trkpt>
      <trkpt lat="44.84089" lon="-0.54999">
        <ele>-11.4</ele>
        <time>2016-12-06T10:57:09Z</time>
      </trkpt>
      <trkpt lat="44.84091" lon="-0.54982">
        <ele>-11.7</ele>
        <time>2016-12-06T10:57:11Z</time>
      </trkpt>
      <trkpt lat="44.84093" lon="-0.54964">
        <ele>-11.9</ele>
        <time>2016-12-06T10:57:13Z</time>
      </trkpt>
      <trkpt lat="44.84096" lon="-0.54945">
        <ele>-12.1</ele>
        <time>2016-12-06T10:57:15Z</time>
      </trkpt>
      <trkpt lat="44.84098" lon="-0.54926">
        <ele>-12.5</ele>
        <time>2016-12-06T10:57:17Z</time>
      </trkpt>
      <trkpt lat="44.84099" lon="-0.54916">
        <ele>-12.6</ele>
        <time>2016-12-06T10:57:18Z</time>
      </trkpt>
      <trkpt lat="44.841" lon="-0.54897">
        <ele>-12.8</ele>
        <time>2016-12-06T10:57:20Z</time>
      </trkpt>
      <trkpt lat="44.84101" lon="-0.54888">
        <ele>-11.9</ele>
        <time>2016-12-06T10:57:21Z</time>
      </trkpt>
      <trkpt lat="44.84102" lon="-0.54879">
        <ele>-11.6</ele>
        <time>2016-12-06T10:57:22Z</time>
      </trkpt>
      <trkpt lat="44.84105" lon="-0.54862">
        <ele>-11.4</ele>
        <time>2016-12-06T10:57:24Z</time>
      </trkpt>
      <trkpt lat="44.84108" lon="-0.54844">
        <ele>-11.2</ele>
        <time>2016-12-06T10:57:26Z</time>
      </trkpt>
      <trkpt lat="44.84109" lon="-0.54834">
        <ele>-11.3</ele>
        <time>2016-12-06T10:57:27Z</time>
      </trkpt>
      <trkpt lat="44.84113" lon="-0.54816">
        <ele>-11.2</ele>
        <time>2016-12-06T10:57:29Z</time>
      </trkpt>
      <trkpt lat="44.84118" lon="-0.54796">
        <ele>-11</ele>
        <time>2016-12-06T10:57:31Z</time>
      </trkpt>
      <trkpt lat="44.84122" lon="-0.54778">
        <ele>-10.9</ele>
        <time>2016-12-06T10:57:33Z</time>
      </trkpt>
      <trkpt lat="44.84128" lon="-0.54762">
        <ele>-9.7</ele>
        <time>2016-12-06T10:57:35Z</time>
      </trkpt>
      <trkpt lat="44.8413" lon="-0.54754">
        <ele>-9.7</ele>
        <time>2016-12-06T10:57:36Z</time>
      </trkpt>
      <trkpt lat="44.84134" lon="-0.54741">
        <ele>-9.9</ele>
        <time>2016-12-06T10:57:38Z</time>
      </trkpt>
      <trkpt lat="44.84136" lon="-0.54734">
        <ele>-9.8</ele>
        <time>2016-12-06T10:57:39Z</time>
      </trkpt>
      <trkpt lat="44.84141" lon="-0.54719">
        <ele>-10</ele>
        <time>2016-12-06T10:57:41Z</time>
      </trkpt>
      <trkpt lat="44.84143" lon="-0.54712">
        <ele>-10.1</ele>
        <time>2016-12-06T10:57:42Z</time>
      </trkpt>
      <trkpt lat="44.84146" lon="-0.54698">
        <ele>-10.3</ele>
        <time>2016-12-06T10:57:44Z</time>
      </trkpt>
      <trkpt lat="44.84151" lon="-0.54685">
        <ele>-11</ele>
        <time>2016-12-06T10:57:46Z</time>
      </trkpt>
      <trkpt lat="44.84154" lon="-0.54678">
        <ele>-11.1</ele>
        <time>2016-12-06T10:57:47Z</time>
      </trkpt>
      <trkpt lat="44.84158" lon="-0.54662">
        <ele>-11.2</ele>
        <time>2016-12-06T10:57:49Z</time>
      </trkpt>
      <trkpt lat="44.84161" lon="-0.54645">
        <ele>-11.5</ele>
        <time>2016-12-06T10:57:51Z</time>
      </trkpt>
      <trkpt lat="44.84166" lon="-0.54629">
        <ele>-12.1</ele>
        <time>2016-12-06T10:57:53Z</time>
      </trkpt>
      <trkpt lat="44.84168" lon="-0.54621">
        <ele>-12.4</ele>
        <time>2016-12-06T10:57:54Z</time>
      </trkpt>
      <trkpt lat="44.84172" lon="-0.54606">
        <ele>-13</ele>
        <time>2016-12-06T10:57:56Z</time>
      </trkpt>
      <trkpt lat="44.84176" lon="-0.54592">
        <ele>-13.1</ele>
        <time>2016-12-06T10:57:58Z</time>
      </trkpt>
      <trkpt lat="44.84178" lon="-0.54585">
        <ele>-13.6</ele>
        <time>2016-12-06T10:57:59Z</time>
      </trkpt>
      <trkpt lat="44.84179" lon="-0.54578">
        <ele>-14.3</ele>
        <time>2016-12-06T10:58:00Z</time>
      </trkpt>
      <trkpt lat="44.84182" lon="-0.54566">
        <ele>-14.9</ele>
        <time>2016-12-06T10:58:02Z</time>
      </trkpt>
      <trkpt lat="44.84185" lon="-0.54555">
        <ele>-15.6</ele>
        <time>2016-12-06T10:58:04Z</time>
      </trkpt>
      <trkpt lat="44.84186" lon="-0.54548">
        <ele>-15.8</ele>
        <time>2016-12-06T10:58:05Z</time>
      </trkpt>
      <trkpt lat="44.8419" lon="-0.54534">
        <ele>-16.3</ele>
        <time>2016-12-06T10:58:07Z</time>
      </trkpt>
      <trkpt lat="44.84191" lon="-0.54526">
        <ele>-16.6</ele>
        <time>2016-12-06T10:58:08Z</time>
      </trkpt>
      <trkpt lat="44.84194" lon="-0.54509">
        <ele>-16.6</ele>
        <time>2016-12-06T10:58:10Z</time>
      </trkpt>
      <trkpt lat="44.84199" lon="-0.54493">
        <ele>-16.7</ele>
        <time>2016-12-06T10:58:12Z</time>
      </trkpt>
      <trkpt lat="44.84202" lon="-0.54486">
        <ele>-16.4</ele>
        <time>2016-12-06T10:58:13Z</time>
      </trkpt>
      <trkpt lat="44.84207" lon="-0.54469">
        <ele>-16.6</ele>
        <time>2016-12-06T10:58:15Z</time>
      </trkpt>
      <trkpt lat="44.84209" lon="-0.54461">
        <ele>-16.5</ele>
        <time>2016-12-06T10:58:16Z</time>
      </trkpt>
      <trkpt lat="44.84214" lon="-0.54444">
        <ele>-16.1</ele>
        <time>2016-12-06T10:58:18Z</time>
      </trkpt>
      <trkpt lat="44.84217" lon="-0.54435">
        <ele>-15.7</ele>
        <time>2016-12-06T10:58:19Z</time>
      </trkpt>
      <trkpt lat="44.8422" lon="-0.54425">
        <ele>-15.1</ele>
        <time>2016-12-06T10:58:20Z</time>
      </trkpt>
      <trkpt lat="44.84226" lon="-0.54408">
        <ele>-13.5</ele>
        <time>2016-12-06T10:58:22Z</time>
      </trkpt>
      <trkpt lat="44.84231" lon="-0.54391">
        <ele>-12</ele>
        <time>2016-12-06T10:58:24Z</time>
      </trkpt>
      <trkpt lat="44.84234" lon="-0.54383">
        <ele>-11.5</ele>
        <time>2016-12-06T10:58:25Z</time>
      </trkpt>
      <trkpt lat="44.84239" lon="-0.54368">
        <ele>-11.2</ele>
        <time>2016-12-06T10:58:27Z</time>
      </trkpt>
      <trkpt lat="44.84241" lon="-0.54361">
        <ele>-10.9</ele>
        <time>2016-12-06T10:58:28Z</time>
      </trkpt>
      <trkpt lat="44.84244" lon="-0.54346">
        <ele>-9.5</ele>
        <time>2016-12-06T10:58:30Z</time>
      </trkpt>
      <trkpt lat="44.84245" lon="-0.54339">
        <ele>-9.5</ele>
        <time>2016-12-06T10:58:31Z</time>
      </trkpt>
      <trkpt lat="44.84246" lon="-0.54333">
        <ele>-9.2</ele>
        <time>2016-12-06T10:58:32Z</time>
      </trkpt>
      <trkpt lat="44.84245" lon="-0.5432">
        <ele>-8.4</ele>
        <time>2016-12-06T10:58:34Z</time>
      </trkpt>
      <trkpt lat="44.84247" lon="-0.54306">
        <ele>-8.1</ele>
        <time>2016-12-06T10:58:36Z</time>
      </trkpt>
      <trkpt lat="44.84249" lon="-0.543">
        <ele>-7.8</ele>
        <time>2016-12-06T10:58:37Z</time>
      </trkpt>
      <trkpt lat="44.84257" lon="-0.54293">
        <ele>-7.6</ele>
        <time>2016-12-06T10:58:39Z</time>
      </trkpt>
      <trkpt lat="44.84262" lon="-0.5429">
        <ele>-7.5</ele>
        <time>2016-12-06T10:58:40Z</time>
      </trkpt>
      <trkpt lat="44.84269" lon="-0.54282">
        <ele>-7.8</ele>
        <time>2016-12-06T10:58:42Z</time>
      </trkpt>
      <trkpt lat="44.84271" lon="-0.5427">
        <ele>-7.6</ele>
        <time>2016-12-06T10:58:44Z</time>
      </trkpt>
      <trkpt lat="44.84269" lon="-0.54258">
        <ele>-6.5</ele>
        <time>2016-12-06T10:58:46Z</time>
      </trkpt>
      <trkpt lat="44.84268" lon="-0.54252">
        <ele>-6.1</ele>
        <time>2016-12-06T10:58:47Z</time>
      </trkpt>
      <trkpt lat="44.84267" lon="-0.54241">
        <ele>-5.6</ele>
        <time>2016-12-06T10:58:49Z</time>
      </trkpt>
      <trkpt lat="44.84266" lon="-0.54234">
        <ele>-4</ele>
        <time>2016-12-06T10:58:51Z</time>
      </trkpt>
      <trkpt lat="44.84261" lon="-0.5423">
        <ele>-3</ele>
        <time>2016-12-06T10:58:55Z</time>
      </trkpt>
      <trkpt lat="44.84256" lon="-0.54234">
        <ele>-2.5</ele>
        <time>2016-12-06T10:58:59Z</time>
      </trkpt>
      <trkpt lat="44.84261" lon="-0.54227">
        <ele>-2.6</ele>
        <time>2016-12-06T10:59:07Z</time>
      </trkpt>
      <trkpt lat="44.84267" lon="-0.54219">
        <ele>-3.3</ele>
        <time>2016-12-06T10:59:09Z</time>
      </trkpt>
      <trkpt lat="44.8427" lon="-0.54215">
        <ele>-3.5</ele>
        <time>2016-12-06T10:59:10Z</time>
      </trkpt>
      <trkpt lat="44.84277" lon="-0.54206">
        <ele>-4.2</ele>
        <time>2016-12-06T10:59:12Z</time>
      </trkpt>
      <trkpt lat="44.84283" lon="-0.54199">
        <ele>-4.3</ele>
        <time>2016-12-06T10:59:14Z</time>
      </trkpt>
      <trkpt lat="44.84279" lon="-0.54203">
        <ele>-4.5</ele>
        <time>2016-12-06T10:59:22Z</time>
      </trkpt>
      <trkpt lat="44.84273" lon="-0.5421">
        <ele>-5.1</ele>
        <time>2016-12-06T10:59:24Z</time>
      </trkpt>
      <trkpt lat="44.84268" lon="-0.54216">
        <ele>-6</ele>
        <time>2016-12-06T10:59:26Z</time>
      </trkpt>
      <trkpt lat="44.84262" lon="-0.54223">
        <ele>-6.4</ele>
        <time>2016-12-06T10:59:28Z</time>
      </trkpt>
      <trkpt lat="44.84259" lon="-0.54228">
        <ele>-7</ele>
        <time>2016-12-06T10:59:30Z</time>
      </trkpt>
      <trkpt lat="44.84255" lon="-0.54231">
        <ele>-8</ele>
        <time>2016-12-06T10:59:34Z</time>
      </trkpt>
      <trkpt lat="44.8425" lon="-0.54223">
        <ele>-8.4</ele>
        <time>2016-12-06T10:59:36Z</time>
      </trkpt>
      <trkpt lat="44.84249" lon="-0.54217">
        <ele>-8.8</ele>
        <time>2016-12-06T10:59:38Z</time>
      </trkpt>
      <trkpt lat="44.84246" lon="-0.5421">
        <ele>-9.5</ele>
        <time>2016-12-06T10:59:41Z</time>
      </trkpt>
      <trkpt lat="44.8424" lon="-0.54204">
        <ele>-10</ele>
        <time>2016-12-06T10:59:43Z</time>
      </trkpt>
      <trkpt lat="44.84233" lon="-0.54206">
        <ele>-10.3</ele>
        <time>2016-12-06T10:59:45Z</time>
      </trkpt>
      <trkpt lat="44.84229" lon="-0.54207">
        <ele>-10.4</ele>
        <time>2016-12-06T10:59:46Z</time>
      </trkpt>
      <trkpt lat="44.8422" lon="-0.54203">
        <ele>-10.8</ele>
        <time>2016-12-06T10:59:48Z</time>
      </trkpt>
      <trkpt lat="44.84209" lon="-0.542">
        <ele>-11.6</ele>
        <time>2016-12-06T10:59:50Z</time>
      </trkpt>
      <trkpt lat="44.84201" lon="-0.54199">
        <ele>-11.6</ele>
        <time>2016-12-06T10:59:52Z</time>
      </trkpt>
      <trkpt lat="44.84195" lon="-0.54194">
        <ele>-11.4</ele>
        <time>2016-12-06T10:59:54Z</time>
      </trkpt>
      <trkpt lat="44.84195" lon="-0.54187">
        <ele>-10.9</ele>
        <time>2016-12-06T10:59:58Z</time>
      </trkpt>
      <trkpt lat="44.842" lon="-0.54183">
        <ele>-10.1</ele>
        <time>2016-12-06T11:00:00Z</time>
      </trkpt>
      <trkpt lat="44.84207" lon="-0.54178">
        <ele>-9.3</ele>
        <time>2016-12-06T11:00:02Z</time>
      </trkpt>
      <trkpt lat="44.84213" lon="-0.54173">
        <ele>-8.4</ele>
        <time>2016-12-06T11:00:04Z</time>
      </trkpt>
      <trkpt lat="44.8422" lon="-0.54167">
        <ele>-7.1</ele>
        <time>2016-12-06T11:00:06Z</time>
      </trkpt>
      <trkpt lat="44.84225" lon="-0.54161">
        <ele>-6.7</ele>
        <time>2016-12-06T11:00:08Z</time>
      </trkpt>
      <trkpt lat="44.84228" lon="-0.54154">
        <ele>-6</ele>
        <time>2016-12-06T11:00:10Z</time>
      </trkpt>
      <trkpt lat="44.8423" lon="-0.54145">
        <ele>-5.9</ele>
        <time>2016-12-06T11:00:12Z</time>
      </trkpt>
      <trkpt lat="44.8423" lon="-0.54137">
        <ele>-5.4</ele>
        <time>2016-12-06T11:00:14Z</time>
      </trkpt>
    </trkseg>
  </trk>
</gpx>